<?xml version="1.0" encoding="UTF-8" standalone="no" ?>
<gpx xmlns="http://www.topografix.com/GPX/1/1" xmlns:xsi="http://www.w3.org/2001/XMLSchema-instance" xsi:schemaLocation="http://www.topografix.com/GPX/1/1 http://www.topografix.com/GPX/1/1/gpx.xsd" version="1.1" creator="VisuGPX - https://www.visugpx.com">
  <metadata>
    <name>Foncine le Haut,Chatelblanc,Chez Valentin,La Chevry</name>
  </metadata>
  <trk>
    <name><![CDATA[Foncine le Haut,Chatelblanc,Chez Valentin,La Chevry_1]]></name>
    <extensions>
      <line xmlns="http://www.topografix.com/GPX/gpx_style/0/2">
        <color>0000FF</color>
        <width>4</width>
      </line>
    </extensions>
    <trkseg>
      <trkpt lat="46.65903" lon="6.07505">
        <ele>864.9</ele>
        <time>2021-11-23T07:33:57Z</time>
      </trkpt>
      <trkpt lat="46.65901" lon="6.07499">
        <ele>868.3</ele>
        <time>2021-11-23T07:34:10Z</time>
      </trkpt>
      <trkpt lat="46.65896" lon="6.07495">
        <ele>869.7</ele>
        <time>2021-11-23T07:36:18Z</time>
      </trkpt>
      <trkpt lat="46.65895" lon="6.07488">
        <ele>869.9</ele>
        <time>2021-11-23T07:36:22Z</time>
      </trkpt>
      <trkpt lat="46.65896" lon="6.07481">
        <ele>869.8</ele>
        <time>2021-11-23T07:36:29Z</time>
      </trkpt>
      <trkpt lat="46.65899" lon="6.07476">
        <ele>869.8</ele>
        <time>2021-11-23T07:36:39Z</time>
      </trkpt>
      <trkpt lat="46.65902" lon="6.0747">
        <ele>869.5</ele>
        <time>2021-11-23T07:36:44Z</time>
      </trkpt>
      <trkpt lat="46.65905" lon="6.07464">
        <ele>869.2</ele>
        <time>2021-11-23T07:36:47Z</time>
      </trkpt>
      <trkpt lat="46.65906" lon="6.07457">
        <ele>868.9</ele>
        <time>2021-11-23T07:36:51Z</time>
      </trkpt>
      <trkpt lat="46.65909" lon="6.0745">
        <ele>868.9</ele>
        <time>2021-11-23T07:36:55Z</time>
      </trkpt>
      <trkpt lat="46.65913" lon="6.07445">
        <ele>868.9</ele>
        <time>2021-11-23T07:36:58Z</time>
      </trkpt>
      <trkpt lat="46.65919" lon="6.07441">
        <ele>869.3</ele>
        <time>2021-11-23T07:37:02Z</time>
      </trkpt>
      <trkpt lat="46.65924" lon="6.07441">
        <ele>870.6</ele>
        <time>2021-11-23T07:37:07Z</time>
      </trkpt>
      <trkpt lat="46.65929" lon="6.0744">
        <ele>872.2</ele>
        <time>2021-11-23T07:37:12Z</time>
      </trkpt>
      <trkpt lat="46.65933" lon="6.07437">
        <ele>873.9</ele>
        <time>2021-11-23T07:37:18Z</time>
      </trkpt>
      <trkpt lat="46.65938" lon="6.07433">
        <ele>874.6</ele>
        <time>2021-11-23T07:37:24Z</time>
      </trkpt>
      <trkpt lat="46.65944" lon="6.07434">
        <ele>874.7</ele>
        <time>2021-11-23T07:37:29Z</time>
      </trkpt>
      <trkpt lat="46.65948" lon="6.07439">
        <ele>874.9</ele>
        <time>2021-11-23T07:37:33Z</time>
      </trkpt>
      <trkpt lat="46.65952" lon="6.07443">
        <ele>875.3</ele>
        <time>2021-11-23T07:37:36Z</time>
      </trkpt>
      <trkpt lat="46.65955" lon="6.07448">
        <ele>876.4</ele>
        <time>2021-11-23T07:37:41Z</time>
      </trkpt>
      <trkpt lat="46.6596" lon="6.0745">
        <ele>877.9</ele>
        <time>2021-11-23T07:37:46Z</time>
      </trkpt>
      <trkpt lat="46.65964" lon="6.07451">
        <ele>878.5</ele>
        <time>2021-11-23T07:37:50Z</time>
      </trkpt>
      <trkpt lat="46.65969" lon="6.07454">
        <ele>879.5</ele>
        <time>2021-11-23T07:37:55Z</time>
      </trkpt>
      <trkpt lat="46.65973" lon="6.07459">
        <ele>879.6</ele>
        <time>2021-11-23T07:37:59Z</time>
      </trkpt>
      <trkpt lat="46.65976" lon="6.07466">
        <ele>879.3</ele>
        <time>2021-11-23T07:38:03Z</time>
      </trkpt>
      <trkpt lat="46.65978" lon="6.07472">
        <ele>879.2</ele>
        <time>2021-11-23T07:38:07Z</time>
      </trkpt>
      <trkpt lat="46.6598" lon="6.07479">
        <ele>879.5</ele>
        <time>2021-11-23T07:38:12Z</time>
      </trkpt>
      <trkpt lat="46.6598" lon="6.07486">
        <ele>879.8</ele>
        <time>2021-11-23T07:38:16Z</time>
      </trkpt>
      <trkpt lat="46.65981" lon="6.07493">
        <ele>880</ele>
        <time>2021-11-23T07:38:20Z</time>
      </trkpt>
      <trkpt lat="46.65981" lon="6.075">
        <ele>880.4</ele>
        <time>2021-11-23T07:38:24Z</time>
      </trkpt>
      <trkpt lat="46.65983" lon="6.07508">
        <ele>880.8</ele>
        <time>2021-11-23T07:38:29Z</time>
      </trkpt>
      <trkpt lat="46.65985" lon="6.07514">
        <ele>881.5</ele>
        <time>2021-11-23T07:38:34Z</time>
      </trkpt>
      <trkpt lat="46.65987" lon="6.07521">
        <ele>881.9</ele>
        <time>2021-11-23T07:38:40Z</time>
      </trkpt>
      <trkpt lat="46.65987" lon="6.07528">
        <ele>882</ele>
        <time>2021-11-23T07:38:43Z</time>
      </trkpt>
      <trkpt lat="46.6599" lon="6.07534">
        <ele>882.4</ele>
        <time>2021-11-23T07:38:47Z</time>
      </trkpt>
      <trkpt lat="46.65994" lon="6.07538">
        <ele>883</ele>
        <time>2021-11-23T07:38:55Z</time>
      </trkpt>
      <trkpt lat="46.65999" lon="6.07535">
        <ele>882.7</ele>
        <time>2021-11-23T07:39:01Z</time>
      </trkpt>
      <trkpt lat="46.66003" lon="6.07531">
        <ele>882.1</ele>
        <time>2021-11-23T07:39:05Z</time>
      </trkpt>
      <trkpt lat="46.66007" lon="6.07527">
        <ele>880.9</ele>
        <time>2021-11-23T07:39:10Z</time>
      </trkpt>
      <trkpt lat="46.66012" lon="6.07524">
        <ele>880.2</ele>
        <time>2021-11-23T07:39:15Z</time>
      </trkpt>
      <trkpt lat="46.66016" lon="6.07519">
        <ele>879.6</ele>
        <time>2021-11-23T07:39:20Z</time>
      </trkpt>
      <trkpt lat="46.6602" lon="6.07516">
        <ele>879.1</ele>
        <time>2021-11-23T07:39:24Z</time>
      </trkpt>
      <trkpt lat="46.66025" lon="6.07514">
        <ele>878.9</ele>
        <time>2021-11-23T07:39:28Z</time>
      </trkpt>
      <trkpt lat="46.66029" lon="6.07512">
        <ele>878.5</ele>
        <time>2021-11-23T07:39:34Z</time>
      </trkpt>
      <trkpt lat="46.66033" lon="6.07509">
        <ele>877.4</ele>
        <time>2021-11-23T07:39:44Z</time>
      </trkpt>
      <trkpt lat="46.66038" lon="6.07506">
        <ele>876.3</ele>
        <time>2021-11-23T07:39:49Z</time>
      </trkpt>
      <trkpt lat="46.66043" lon="6.07503">
        <ele>875.3</ele>
        <time>2021-11-23T07:39:53Z</time>
      </trkpt>
      <trkpt lat="46.66046" lon="6.07499">
        <ele>874.8</ele>
        <time>2021-11-23T07:39:56Z</time>
      </trkpt>
      <trkpt lat="46.66051" lon="6.07495">
        <ele>873.7</ele>
        <time>2021-11-23T07:40:02Z</time>
      </trkpt>
      <trkpt lat="46.66055" lon="6.07491">
        <ele>873.5</ele>
        <time>2021-11-23T07:40:07Z</time>
      </trkpt>
      <trkpt lat="46.66059" lon="6.07486">
        <ele>873.5</ele>
        <time>2021-11-23T07:40:11Z</time>
      </trkpt>
      <trkpt lat="46.66064" lon="6.07481">
        <ele>873.5</ele>
        <time>2021-11-23T07:40:15Z</time>
      </trkpt>
      <trkpt lat="46.66069" lon="6.07479">
        <ele>874</ele>
        <time>2021-11-23T07:40:20Z</time>
      </trkpt>
      <trkpt lat="46.66074" lon="6.0748">
        <ele>874.4</ele>
        <time>2021-11-23T07:40:24Z</time>
      </trkpt>
      <trkpt lat="46.66079" lon="6.07482">
        <ele>875.2</ele>
        <time>2021-11-23T07:40:29Z</time>
      </trkpt>
      <trkpt lat="46.66084" lon="6.07484">
        <ele>876.1</ele>
        <time>2021-11-23T07:40:33Z</time>
      </trkpt>
      <trkpt lat="46.66088" lon="6.07486">
        <ele>876.7</ele>
        <time>2021-11-23T07:40:37Z</time>
      </trkpt>
      <trkpt lat="46.66092" lon="6.07489">
        <ele>877.9</ele>
        <time>2021-11-23T07:40:41Z</time>
      </trkpt>
      <trkpt lat="46.66096" lon="6.07494">
        <ele>879.4</ele>
        <time>2021-11-23T07:40:46Z</time>
      </trkpt>
      <trkpt lat="46.66099" lon="6.07501">
        <ele>880.1</ele>
        <time>2021-11-23T07:40:50Z</time>
      </trkpt>
      <trkpt lat="46.66101" lon="6.07507">
        <ele>880.6</ele>
        <time>2021-11-23T07:40:55Z</time>
      </trkpt>
      <trkpt lat="46.66104" lon="6.07513">
        <ele>881.2</ele>
        <time>2021-11-23T07:41:00Z</time>
      </trkpt>
      <trkpt lat="46.66106" lon="6.07519">
        <ele>882.3</ele>
        <time>2021-11-23T07:41:05Z</time>
      </trkpt>
      <trkpt lat="46.66108" lon="6.07527">
        <ele>883.1</ele>
        <time>2021-11-23T07:41:10Z</time>
      </trkpt>
      <trkpt lat="46.6611" lon="6.07533">
        <ele>884.1</ele>
        <time>2021-11-23T07:41:15Z</time>
      </trkpt>
      <trkpt lat="46.66111" lon="6.0754">
        <ele>885.5</ele>
        <time>2021-11-23T07:41:19Z</time>
      </trkpt>
      <trkpt lat="46.66113" lon="6.07547">
        <ele>887</ele>
        <time>2021-11-23T07:41:23Z</time>
      </trkpt>
      <trkpt lat="46.66115" lon="6.07553">
        <ele>888.4</ele>
        <time>2021-11-23T07:41:27Z</time>
      </trkpt>
      <trkpt lat="46.66117" lon="6.0756">
        <ele>889.9</ele>
        <time>2021-11-23T07:41:32Z</time>
      </trkpt>
      <trkpt lat="46.66117" lon="6.07568">
        <ele>890.6</ele>
        <time>2021-11-23T07:41:37Z</time>
      </trkpt>
      <trkpt lat="46.6612" lon="6.07575">
        <ele>890.8</ele>
        <time>2021-11-23T07:41:42Z</time>
      </trkpt>
      <trkpt lat="46.66122" lon="6.07581">
        <ele>891.5</ele>
        <time>2021-11-23T07:41:47Z</time>
      </trkpt>
      <trkpt lat="46.66126" lon="6.07587">
        <ele>892.6</ele>
        <time>2021-11-23T07:41:52Z</time>
      </trkpt>
      <trkpt lat="46.66127" lon="6.07594">
        <ele>892.9</ele>
        <time>2021-11-23T07:41:58Z</time>
      </trkpt>
      <trkpt lat="46.66129" lon="6.076">
        <ele>893.5</ele>
        <time>2021-11-23T07:42:03Z</time>
      </trkpt>
      <trkpt lat="46.66131" lon="6.07607">
        <ele>894.3</ele>
        <time>2021-11-23T07:42:09Z</time>
      </trkpt>
      <trkpt lat="46.66133" lon="6.07612">
        <ele>895.1</ele>
        <time>2021-11-23T07:42:14Z</time>
      </trkpt>
      <trkpt lat="46.66137" lon="6.07618">
        <ele>895.5</ele>
        <time>2021-11-23T07:42:20Z</time>
      </trkpt>
      <trkpt lat="46.6614" lon="6.07624">
        <ele>895.6</ele>
        <time>2021-11-23T07:42:26Z</time>
      </trkpt>
      <trkpt lat="46.66143" lon="6.0763">
        <ele>895.6</ele>
        <time>2021-11-23T07:42:31Z</time>
      </trkpt>
      <trkpt lat="46.66145" lon="6.07636">
        <ele>895.1</ele>
        <time>2021-11-23T07:42:36Z</time>
      </trkpt>
      <trkpt lat="46.66147" lon="6.07642">
        <ele>895</ele>
        <time>2021-11-23T07:42:42Z</time>
      </trkpt>
      <trkpt lat="46.66149" lon="6.07648">
        <ele>895.1</ele>
        <time>2021-11-23T07:42:47Z</time>
      </trkpt>
      <trkpt lat="46.66151" lon="6.07654">
        <ele>895.4</ele>
        <time>2021-11-23T07:42:52Z</time>
      </trkpt>
      <trkpt lat="46.66155" lon="6.0766">
        <ele>895.5</ele>
        <time>2021-11-23T07:42:58Z</time>
      </trkpt>
      <trkpt lat="46.66159" lon="6.07665">
        <ele>896.2</ele>
        <time>2021-11-23T07:43:04Z</time>
      </trkpt>
      <trkpt lat="46.66161" lon="6.07671">
        <ele>897</ele>
        <time>2021-11-23T07:43:10Z</time>
      </trkpt>
      <trkpt lat="46.66165" lon="6.07676">
        <ele>897.5</ele>
        <time>2021-11-23T07:43:15Z</time>
      </trkpt>
      <trkpt lat="46.66169" lon="6.07681">
        <ele>897.9</ele>
        <time>2021-11-23T07:43:20Z</time>
      </trkpt>
      <trkpt lat="46.6617" lon="6.07687">
        <ele>898.2</ele>
        <time>2021-11-23T07:43:24Z</time>
      </trkpt>
      <trkpt lat="46.66174" lon="6.07693">
        <ele>898.6</ele>
        <time>2021-11-23T07:43:29Z</time>
      </trkpt>
      <trkpt lat="46.66177" lon="6.07699">
        <ele>898.9</ele>
        <time>2021-11-23T07:43:34Z</time>
      </trkpt>
      <trkpt lat="46.6618" lon="6.07704">
        <ele>899.5</ele>
        <time>2021-11-23T07:43:41Z</time>
      </trkpt>
      <trkpt lat="46.66185" lon="6.07706">
        <ele>899.5</ele>
        <time>2021-11-23T07:43:46Z</time>
      </trkpt>
      <trkpt lat="46.66188" lon="6.07712">
        <ele>900</ele>
        <time>2021-11-23T07:43:52Z</time>
      </trkpt>
      <trkpt lat="46.6619" lon="6.07719">
        <ele>900.4</ele>
        <time>2021-11-23T07:43:57Z</time>
      </trkpt>
      <trkpt lat="46.66193" lon="6.07724">
        <ele>900.6</ele>
        <time>2021-11-23T07:44:02Z</time>
      </trkpt>
      <trkpt lat="46.66196" lon="6.07731">
        <ele>900.9</ele>
        <time>2021-11-23T07:44:07Z</time>
      </trkpt>
      <trkpt lat="46.662" lon="6.07734">
        <ele>901.2</ele>
        <time>2021-11-23T07:44:11Z</time>
      </trkpt>
      <trkpt lat="46.66203" lon="6.07739">
        <ele>901.2</ele>
        <time>2021-11-23T07:44:15Z</time>
      </trkpt>
      <trkpt lat="46.66204" lon="6.07746">
        <ele>901.5</ele>
        <time>2021-11-23T07:44:23Z</time>
      </trkpt>
      <trkpt lat="46.66204" lon="6.07754">
        <ele>901.5</ele>
        <time>2021-11-23T07:44:28Z</time>
      </trkpt>
      <trkpt lat="46.66207" lon="6.07759">
        <ele>901.2</ele>
        <time>2021-11-23T07:44:34Z</time>
      </trkpt>
      <trkpt lat="46.6621" lon="6.07764">
        <ele>901</ele>
        <time>2021-11-23T07:44:39Z</time>
      </trkpt>
      <trkpt lat="46.66213" lon="6.0777">
        <ele>901.5</ele>
        <time>2021-11-23T07:44:44Z</time>
      </trkpt>
      <trkpt lat="46.66217" lon="6.07774">
        <ele>902.6</ele>
        <time>2021-11-23T07:44:49Z</time>
      </trkpt>
      <trkpt lat="46.6622" lon="6.0778">
        <ele>903.1</ele>
        <time>2021-11-23T07:44:53Z</time>
      </trkpt>
      <trkpt lat="46.66223" lon="6.07786">
        <ele>903.7</ele>
        <time>2021-11-23T07:44:57Z</time>
      </trkpt>
      <trkpt lat="46.66226" lon="6.07792">
        <ele>904.9</ele>
        <time>2021-11-23T07:45:02Z</time>
      </trkpt>
      <trkpt lat="46.66228" lon="6.07798">
        <ele>905.8</ele>
        <time>2021-11-23T07:45:07Z</time>
      </trkpt>
      <trkpt lat="46.66231" lon="6.07804">
        <ele>907.1</ele>
        <time>2021-11-23T07:45:13Z</time>
      </trkpt>
      <trkpt lat="46.66234" lon="6.0781">
        <ele>908</ele>
        <time>2021-11-23T07:45:18Z</time>
      </trkpt>
      <trkpt lat="46.66237" lon="6.07814">
        <ele>908.3</ele>
        <time>2021-11-23T07:45:23Z</time>
      </trkpt>
      <trkpt lat="46.66241" lon="6.0782">
        <ele>908.9</ele>
        <time>2021-11-23T07:45:28Z</time>
      </trkpt>
      <trkpt lat="46.66245" lon="6.07823">
        <ele>909.6</ele>
        <time>2021-11-23T07:45:32Z</time>
      </trkpt>
      <trkpt lat="46.66247" lon="6.07828">
        <ele>910.4</ele>
        <time>2021-11-23T07:45:36Z</time>
      </trkpt>
      <trkpt lat="46.66251" lon="6.07835">
        <ele>911.1</ele>
        <time>2021-11-23T07:45:41Z</time>
      </trkpt>
      <trkpt lat="46.66254" lon="6.0784">
        <ele>911.2</ele>
        <time>2021-11-23T07:45:46Z</time>
      </trkpt>
      <trkpt lat="46.66257" lon="6.07845">
        <ele>910.4</ele>
        <time>2021-11-23T07:45:52Z</time>
      </trkpt>
      <trkpt lat="46.66262" lon="6.07847">
        <ele>909.4</ele>
        <time>2021-11-23T07:45:58Z</time>
      </trkpt>
      <trkpt lat="46.66266" lon="6.07851">
        <ele>909.6</ele>
        <time>2021-11-23T07:46:04Z</time>
      </trkpt>
      <trkpt lat="46.66271" lon="6.07852">
        <ele>910.5</ele>
        <time>2021-11-23T07:46:09Z</time>
      </trkpt>
      <trkpt lat="46.66276" lon="6.07855">
        <ele>910.9</ele>
        <time>2021-11-23T07:46:14Z</time>
      </trkpt>
      <trkpt lat="46.6628" lon="6.07856">
        <ele>911.4</ele>
        <time>2021-11-23T07:46:19Z</time>
      </trkpt>
      <trkpt lat="46.66286" lon="6.07855">
        <ele>911.6</ele>
        <time>2021-11-23T07:46:24Z</time>
      </trkpt>
      <trkpt lat="46.66291" lon="6.07854">
        <ele>911.9</ele>
        <time>2021-11-23T07:46:30Z</time>
      </trkpt>
      <trkpt lat="46.66297" lon="6.07852">
        <ele>912.6</ele>
        <time>2021-11-23T07:46:35Z</time>
      </trkpt>
      <trkpt lat="46.66302" lon="6.07851">
        <ele>913.6</ele>
        <time>2021-11-23T07:46:39Z</time>
      </trkpt>
      <trkpt lat="46.66306" lon="6.07852">
        <ele>914.4</ele>
        <time>2021-11-23T07:46:43Z</time>
      </trkpt>
      <trkpt lat="46.6631" lon="6.07856">
        <ele>915.3</ele>
        <time>2021-11-23T07:46:48Z</time>
      </trkpt>
      <trkpt lat="46.66313" lon="6.07863">
        <ele>915.4</ele>
        <time>2021-11-23T07:46:54Z</time>
      </trkpt>
      <trkpt lat="46.66316" lon="6.07868">
        <ele>915.3</ele>
        <time>2021-11-23T07:47:00Z</time>
      </trkpt>
      <trkpt lat="46.66319" lon="6.07874">
        <ele>915.1</ele>
        <time>2021-11-23T07:47:07Z</time>
      </trkpt>
      <trkpt lat="46.66322" lon="6.0788">
        <ele>914.7</ele>
        <time>2021-11-23T07:47:12Z</time>
      </trkpt>
      <trkpt lat="46.66325" lon="6.07886">
        <ele>914.2</ele>
        <time>2021-11-23T07:47:17Z</time>
      </trkpt>
      <trkpt lat="46.66328" lon="6.07892">
        <ele>913.8</ele>
        <time>2021-11-23T07:47:22Z</time>
      </trkpt>
      <trkpt lat="46.66331" lon="6.07897">
        <ele>913.9</ele>
        <time>2021-11-23T07:47:27Z</time>
      </trkpt>
      <trkpt lat="46.66334" lon="6.07903">
        <ele>914.6</ele>
        <time>2021-11-23T07:47:32Z</time>
      </trkpt>
      <trkpt lat="46.66337" lon="6.07909">
        <ele>915.4</ele>
        <time>2021-11-23T07:47:38Z</time>
      </trkpt>
      <trkpt lat="46.66339" lon="6.07915">
        <ele>916.1</ele>
        <time>2021-11-23T07:47:43Z</time>
      </trkpt>
      <trkpt lat="46.6634" lon="6.07922">
        <ele>917.7</ele>
        <time>2021-11-23T07:47:48Z</time>
      </trkpt>
      <trkpt lat="46.66343" lon="6.07928">
        <ele>920.3</ele>
        <time>2021-11-23T07:47:56Z</time>
      </trkpt>
      <trkpt lat="46.66344" lon="6.07934">
        <ele>921.8</ele>
        <time>2021-11-23T07:48:03Z</time>
      </trkpt>
      <trkpt lat="46.66347" lon="6.07939">
        <ele>922.8</ele>
        <time>2021-11-23T07:48:09Z</time>
      </trkpt>
      <trkpt lat="46.66351" lon="6.07944">
        <ele>923.7</ele>
        <time>2021-11-23T07:48:14Z</time>
      </trkpt>
      <trkpt lat="46.66354" lon="6.07949">
        <ele>925.5</ele>
        <time>2021-11-23T07:48:20Z</time>
      </trkpt>
      <trkpt lat="46.66355" lon="6.07956">
        <ele>926.7</ele>
        <time>2021-11-23T07:48:26Z</time>
      </trkpt>
      <trkpt lat="46.66358" lon="6.07961">
        <ele>927.6</ele>
        <time>2021-11-23T07:48:32Z</time>
      </trkpt>
      <trkpt lat="46.66361" lon="6.07966">
        <ele>928.6</ele>
        <time>2021-11-23T07:48:37Z</time>
      </trkpt>
      <trkpt lat="46.66366" lon="6.07969">
        <ele>929.3</ele>
        <time>2021-11-23T07:48:43Z</time>
      </trkpt>
      <trkpt lat="46.66369" lon="6.07974">
        <ele>929.7</ele>
        <time>2021-11-23T07:48:48Z</time>
      </trkpt>
      <trkpt lat="46.66371" lon="6.07981">
        <ele>929.5</ele>
        <time>2021-11-23T07:48:53Z</time>
      </trkpt>
      <trkpt lat="46.66372" lon="6.07988">
        <ele>929.5</ele>
        <time>2021-11-23T07:48:57Z</time>
      </trkpt>
      <trkpt lat="46.66373" lon="6.07994">
        <ele>929.3</ele>
        <time>2021-11-23T07:49:00Z</time>
      </trkpt>
      <trkpt lat="46.66375" lon="6.08002">
        <ele>928.5</ele>
        <time>2021-11-23T07:49:04Z</time>
      </trkpt>
      <trkpt lat="46.66376" lon="6.08009">
        <ele>927.7</ele>
        <time>2021-11-23T07:49:08Z</time>
      </trkpt>
      <trkpt lat="46.66378" lon="6.08015">
        <ele>927.6</ele>
        <time>2021-11-23T07:49:13Z</time>
      </trkpt>
      <trkpt lat="46.6638" lon="6.08021">
        <ele>928.7</ele>
        <time>2021-11-23T07:49:17Z</time>
      </trkpt>
      <trkpt lat="46.66382" lon="6.08027">
        <ele>929.8</ele>
        <time>2021-11-23T07:49:22Z</time>
      </trkpt>
      <trkpt lat="46.66385" lon="6.08033">
        <ele>930.9</ele>
        <time>2021-11-23T07:49:27Z</time>
      </trkpt>
      <trkpt lat="46.66387" lon="6.08038">
        <ele>931.1</ele>
        <time>2021-11-23T07:49:32Z</time>
      </trkpt>
      <trkpt lat="46.66389" lon="6.08045">
        <ele>931.3</ele>
        <time>2021-11-23T07:49:37Z</time>
      </trkpt>
      <trkpt lat="46.66392" lon="6.08052">
        <ele>931.7</ele>
        <time>2021-11-23T07:49:42Z</time>
      </trkpt>
      <trkpt lat="46.66393" lon="6.08059">
        <ele>931.7</ele>
        <time>2021-11-23T07:49:47Z</time>
      </trkpt>
      <trkpt lat="46.66396" lon="6.08065">
        <ele>931.2</ele>
        <time>2021-11-23T07:49:52Z</time>
      </trkpt>
      <trkpt lat="46.66397" lon="6.08072">
        <ele>930.6</ele>
        <time>2021-11-23T07:49:59Z</time>
      </trkpt>
      <trkpt lat="46.664" lon="6.08076">
        <ele>931</ele>
        <time>2021-11-23T07:50:04Z</time>
      </trkpt>
      <trkpt lat="46.66404" lon="6.08082">
        <ele>931.3</ele>
        <time>2021-11-23T07:50:09Z</time>
      </trkpt>
      <trkpt lat="46.66406" lon="6.08089">
        <ele>931.2</ele>
        <time>2021-11-23T07:50:30Z</time>
      </trkpt>
      <trkpt lat="46.66408" lon="6.08095">
        <ele>931</ele>
        <time>2021-11-23T07:50:34Z</time>
      </trkpt>
      <trkpt lat="46.66411" lon="6.08101">
        <ele>930.5</ele>
        <time>2021-11-23T07:50:38Z</time>
      </trkpt>
      <trkpt lat="46.66412" lon="6.08108">
        <ele>930.2</ele>
        <time>2021-11-23T07:50:42Z</time>
      </trkpt>
      <trkpt lat="46.66413" lon="6.08115">
        <ele>930.1</ele>
        <time>2021-11-23T07:50:45Z</time>
      </trkpt>
      <trkpt lat="46.66413" lon="6.08122">
        <ele>930.2</ele>
        <time>2021-11-23T07:50:48Z</time>
      </trkpt>
      <trkpt lat="46.66414" lon="6.08128">
        <ele>930.2</ele>
        <time>2021-11-23T07:50:51Z</time>
      </trkpt>
      <trkpt lat="46.66415" lon="6.08135">
        <ele>930.1</ele>
        <time>2021-11-23T07:50:55Z</time>
      </trkpt>
      <trkpt lat="46.66417" lon="6.08141">
        <ele>930.6</ele>
        <time>2021-11-23T07:50:59Z</time>
      </trkpt>
      <trkpt lat="46.66418" lon="6.08148">
        <ele>931.1</ele>
        <time>2021-11-23T07:51:03Z</time>
      </trkpt>
      <trkpt lat="46.66419" lon="6.08155">
        <ele>930.8</ele>
        <time>2021-11-23T07:51:08Z</time>
      </trkpt>
      <trkpt lat="46.66421" lon="6.08162">
        <ele>930.2</ele>
        <time>2021-11-23T07:51:12Z</time>
      </trkpt>
      <trkpt lat="46.66422" lon="6.08169">
        <ele>929.9</ele>
        <time>2021-11-23T07:51:17Z</time>
      </trkpt>
      <trkpt lat="46.66424" lon="6.08176">
        <ele>929.8</ele>
        <time>2021-11-23T07:51:22Z</time>
      </trkpt>
      <trkpt lat="46.66427" lon="6.08182">
        <ele>929.2</ele>
        <time>2021-11-23T07:51:26Z</time>
      </trkpt>
      <trkpt lat="46.66429" lon="6.08189">
        <ele>928.6</ele>
        <time>2021-11-23T07:51:30Z</time>
      </trkpt>
      <trkpt lat="46.66431" lon="6.08196">
        <ele>928.1</ele>
        <time>2021-11-23T07:51:34Z</time>
      </trkpt>
      <trkpt lat="46.66432" lon="6.08202">
        <ele>928</ele>
        <time>2021-11-23T07:51:39Z</time>
      </trkpt>
      <trkpt lat="46.66434" lon="6.0821">
        <ele>927.6</ele>
        <time>2021-11-23T07:51:44Z</time>
      </trkpt>
      <trkpt lat="46.66437" lon="6.08215">
        <ele>927.6</ele>
        <time>2021-11-23T07:51:48Z</time>
      </trkpt>
      <trkpt lat="46.66438" lon="6.08222">
        <ele>928</ele>
        <time>2021-11-23T07:51:53Z</time>
      </trkpt>
      <trkpt lat="46.6644" lon="6.08229">
        <ele>928.7</ele>
        <time>2021-11-23T07:51:58Z</time>
      </trkpt>
      <trkpt lat="46.66442" lon="6.08235">
        <ele>929.3</ele>
        <time>2021-11-23T07:52:02Z</time>
      </trkpt>
      <trkpt lat="46.66445" lon="6.0824">
        <ele>929.3</ele>
        <time>2021-11-23T07:52:06Z</time>
      </trkpt>
      <trkpt lat="46.66447" lon="6.08246">
        <ele>929.7</ele>
        <time>2021-11-23T07:52:10Z</time>
      </trkpt>
      <trkpt lat="46.66449" lon="6.08253">
        <ele>930.3</ele>
        <time>2021-11-23T07:52:14Z</time>
      </trkpt>
      <trkpt lat="46.66451" lon="6.08259">
        <ele>930.4</ele>
        <time>2021-11-23T07:52:18Z</time>
      </trkpt>
      <trkpt lat="46.66454" lon="6.08265">
        <ele>930.7</ele>
        <time>2021-11-23T07:52:23Z</time>
      </trkpt>
      <trkpt lat="46.66457" lon="6.08272">
        <ele>931.2</ele>
        <time>2021-11-23T07:52:28Z</time>
      </trkpt>
      <trkpt lat="46.66459" lon="6.08278">
        <ele>932</ele>
        <time>2021-11-23T07:52:33Z</time>
      </trkpt>
      <trkpt lat="46.66462" lon="6.08284">
        <ele>932.8</ele>
        <time>2021-11-23T07:52:38Z</time>
      </trkpt>
      <trkpt lat="46.66465" lon="6.08291">
        <ele>933.5</ele>
        <time>2021-11-23T07:52:43Z</time>
      </trkpt>
      <trkpt lat="46.66469" lon="6.08297">
        <ele>933.9</ele>
        <time>2021-11-23T07:52:48Z</time>
      </trkpt>
      <trkpt lat="46.6647" lon="6.08304">
        <ele>934.1</ele>
        <time>2021-11-23T07:52:52Z</time>
      </trkpt>
      <trkpt lat="46.66472" lon="6.0831">
        <ele>934.1</ele>
        <time>2021-11-23T07:52:56Z</time>
      </trkpt>
      <trkpt lat="46.66474" lon="6.08318">
        <ele>933.7</ele>
        <time>2021-11-23T07:53:01Z</time>
      </trkpt>
      <trkpt lat="46.66477" lon="6.08325">
        <ele>933.2</ele>
        <time>2021-11-23T07:53:07Z</time>
      </trkpt>
      <trkpt lat="46.66478" lon="6.08332">
        <ele>933.1</ele>
        <time>2021-11-23T07:53:13Z</time>
      </trkpt>
      <trkpt lat="46.66481" lon="6.08339">
        <ele>934.1</ele>
        <time>2021-11-23T07:53:18Z</time>
      </trkpt>
      <trkpt lat="46.66485" lon="6.08343">
        <ele>934.1</ele>
        <time>2021-11-23T07:53:23Z</time>
      </trkpt>
      <trkpt lat="46.6649" lon="6.08345">
        <ele>934.4</ele>
        <time>2021-11-23T07:53:28Z</time>
      </trkpt>
      <trkpt lat="46.66494" lon="6.08346">
        <ele>934.4</ele>
        <time>2021-11-23T07:53:32Z</time>
      </trkpt>
      <trkpt lat="46.66499" lon="6.08347">
        <ele>934.2</ele>
        <time>2021-11-23T07:53:36Z</time>
      </trkpt>
      <trkpt lat="46.66504" lon="6.08349">
        <ele>934.2</ele>
        <time>2021-11-23T07:53:41Z</time>
      </trkpt>
      <trkpt lat="46.66509" lon="6.08349">
        <ele>934.3</ele>
        <time>2021-11-23T07:53:46Z</time>
      </trkpt>
      <trkpt lat="46.66514" lon="6.08347">
        <ele>934</ele>
        <time>2021-11-23T07:53:51Z</time>
      </trkpt>
      <trkpt lat="46.6652" lon="6.08348">
        <ele>933</ele>
        <time>2021-11-23T07:53:57Z</time>
      </trkpt>
      <trkpt lat="46.66525" lon="6.08351">
        <ele>930.7</ele>
        <time>2021-11-23T07:54:02Z</time>
      </trkpt>
      <trkpt lat="46.6653" lon="6.08351">
        <ele>928.6</ele>
        <time>2021-11-23T07:54:08Z</time>
      </trkpt>
      <trkpt lat="46.66535" lon="6.08352">
        <ele>927.5</ele>
        <time>2021-11-23T07:54:13Z</time>
      </trkpt>
      <trkpt lat="46.6654" lon="6.08352">
        <ele>927.2</ele>
        <time>2021-11-23T07:54:18Z</time>
      </trkpt>
      <trkpt lat="46.66545" lon="6.08355">
        <ele>926.2</ele>
        <time>2021-11-23T07:54:24Z</time>
      </trkpt>
      <trkpt lat="46.6655" lon="6.08355">
        <ele>925.2</ele>
        <time>2021-11-23T07:54:29Z</time>
      </trkpt>
      <trkpt lat="46.66555" lon="6.08356">
        <ele>924.9</ele>
        <time>2021-11-23T07:54:34Z</time>
      </trkpt>
      <trkpt lat="46.6656" lon="6.08359">
        <ele>925.5</ele>
        <time>2021-11-23T07:54:39Z</time>
      </trkpt>
      <trkpt lat="46.66565" lon="6.08361">
        <ele>926.3</ele>
        <time>2021-11-23T07:54:44Z</time>
      </trkpt>
      <trkpt lat="46.6657" lon="6.08363">
        <ele>926.6</ele>
        <time>2021-11-23T07:54:48Z</time>
      </trkpt>
      <trkpt lat="46.66574" lon="6.08364">
        <ele>926.7</ele>
        <time>2021-11-23T07:54:52Z</time>
      </trkpt>
      <trkpt lat="46.66579" lon="6.08364">
        <ele>926.8</ele>
        <time>2021-11-23T07:54:56Z</time>
      </trkpt>
      <trkpt lat="46.66584" lon="6.08365">
        <ele>926.9</ele>
        <time>2021-11-23T07:55:01Z</time>
      </trkpt>
      <trkpt lat="46.66589" lon="6.08368">
        <ele>927.2</ele>
        <time>2021-11-23T07:55:06Z</time>
      </trkpt>
      <trkpt lat="46.66594" lon="6.08369">
        <ele>927</ele>
        <time>2021-11-23T07:55:11Z</time>
      </trkpt>
      <trkpt lat="46.66598" lon="6.08372">
        <ele>926.5</ele>
        <time>2021-11-23T07:55:16Z</time>
      </trkpt>
      <trkpt lat="46.66603" lon="6.08373">
        <ele>926.8</ele>
        <time>2021-11-23T07:55:21Z</time>
      </trkpt>
      <trkpt lat="46.66608" lon="6.08374">
        <ele>927.5</ele>
        <time>2021-11-23T07:55:26Z</time>
      </trkpt>
      <trkpt lat="46.66613" lon="6.08375">
        <ele>928.8</ele>
        <time>2021-11-23T07:55:31Z</time>
      </trkpt>
      <trkpt lat="46.66619" lon="6.08377">
        <ele>930.7</ele>
        <time>2021-11-23T07:55:36Z</time>
      </trkpt>
      <trkpt lat="46.66623" lon="6.08377">
        <ele>931.4</ele>
        <time>2021-11-23T07:55:40Z</time>
      </trkpt>
      <trkpt lat="46.66628" lon="6.08378">
        <ele>932.3</ele>
        <time>2021-11-23T07:55:45Z</time>
      </trkpt>
      <trkpt lat="46.66634" lon="6.0838">
        <ele>933.1</ele>
        <time>2021-11-23T07:55:50Z</time>
      </trkpt>
      <trkpt lat="46.66638" lon="6.0838">
        <ele>933.4</ele>
        <time>2021-11-23T07:55:55Z</time>
      </trkpt>
      <trkpt lat="46.66643" lon="6.08381">
        <ele>933.8</ele>
        <time>2021-11-23T07:56:00Z</time>
      </trkpt>
      <trkpt lat="46.66648" lon="6.08383">
        <ele>934.4</ele>
        <time>2021-11-23T07:56:06Z</time>
      </trkpt>
      <trkpt lat="46.66653" lon="6.08387">
        <ele>934.7</ele>
        <time>2021-11-23T07:56:11Z</time>
      </trkpt>
      <trkpt lat="46.66656" lon="6.08391">
        <ele>935</ele>
        <time>2021-11-23T07:56:15Z</time>
      </trkpt>
      <trkpt lat="46.6666" lon="6.08396">
        <ele>935.6</ele>
        <time>2021-11-23T07:56:19Z</time>
      </trkpt>
      <trkpt lat="46.66663" lon="6.08401">
        <ele>936.2</ele>
        <time>2021-11-23T07:56:23Z</time>
      </trkpt>
      <trkpt lat="46.66665" lon="6.08408">
        <ele>937.4</ele>
        <time>2021-11-23T07:56:29Z</time>
      </trkpt>
      <trkpt lat="46.66666" lon="6.08415">
        <ele>938.3</ele>
        <time>2021-11-23T07:56:35Z</time>
      </trkpt>
      <trkpt lat="46.66666" lon="6.08422">
        <ele>939.2</ele>
        <time>2021-11-23T07:56:41Z</time>
      </trkpt>
      <trkpt lat="46.66666" lon="6.0843">
        <ele>939.6</ele>
        <time>2021-11-23T07:56:46Z</time>
      </trkpt>
      <trkpt lat="46.66667" lon="6.08438">
        <ele>939.7</ele>
        <time>2021-11-23T07:56:51Z</time>
      </trkpt>
      <trkpt lat="46.66668" lon="6.08445">
        <ele>940</ele>
        <time>2021-11-23T07:56:56Z</time>
      </trkpt>
      <trkpt lat="46.6667" lon="6.08452">
        <ele>940.4</ele>
        <time>2021-11-23T07:57:00Z</time>
      </trkpt>
      <trkpt lat="46.66672" lon="6.08458">
        <ele>940.6</ele>
        <time>2021-11-23T07:57:04Z</time>
      </trkpt>
      <trkpt lat="46.66674" lon="6.08464">
        <ele>940.8</ele>
        <time>2021-11-23T07:57:08Z</time>
      </trkpt>
      <trkpt lat="46.66676" lon="6.0847">
        <ele>941.2</ele>
        <time>2021-11-23T07:57:13Z</time>
      </trkpt>
      <trkpt lat="46.66679" lon="6.08476">
        <ele>941.8</ele>
        <time>2021-11-23T07:57:18Z</time>
      </trkpt>
      <trkpt lat="46.6668" lon="6.08483">
        <ele>942.5</ele>
        <time>2021-11-23T07:57:23Z</time>
      </trkpt>
      <trkpt lat="46.66682" lon="6.0849">
        <ele>943.1</ele>
        <time>2021-11-23T07:57:28Z</time>
      </trkpt>
      <trkpt lat="46.66685" lon="6.08496">
        <ele>943.5</ele>
        <time>2021-11-23T07:57:32Z</time>
      </trkpt>
      <trkpt lat="46.66688" lon="6.08501">
        <ele>944.1</ele>
        <time>2021-11-23T07:57:37Z</time>
      </trkpt>
      <trkpt lat="46.66689" lon="6.08507">
        <ele>945.4</ele>
        <time>2021-11-23T07:57:43Z</time>
      </trkpt>
      <trkpt lat="46.6669" lon="6.08514">
        <ele>946.6</ele>
        <time>2021-11-23T07:57:49Z</time>
      </trkpt>
      <trkpt lat="46.66693" lon="6.08521">
        <ele>948.1</ele>
        <time>2021-11-23T07:57:55Z</time>
      </trkpt>
      <trkpt lat="46.66693" lon="6.08528">
        <ele>948.9</ele>
        <time>2021-11-23T07:58:01Z</time>
      </trkpt>
      <trkpt lat="46.66695" lon="6.08535">
        <ele>949.4</ele>
        <time>2021-11-23T07:58:06Z</time>
      </trkpt>
      <trkpt lat="46.66697" lon="6.08542">
        <ele>949.6</ele>
        <time>2021-11-23T07:58:10Z</time>
      </trkpt>
      <trkpt lat="46.66698" lon="6.08548">
        <ele>949.3</ele>
        <time>2021-11-23T07:58:16Z</time>
      </trkpt>
      <trkpt lat="46.667" lon="6.08554">
        <ele>948.9</ele>
        <time>2021-11-23T07:58:21Z</time>
      </trkpt>
      <trkpt lat="46.66701" lon="6.08561">
        <ele>948.9</ele>
        <time>2021-11-23T07:58:26Z</time>
      </trkpt>
      <trkpt lat="46.66704" lon="6.08567">
        <ele>949.3</ele>
        <time>2021-11-23T07:58:31Z</time>
      </trkpt>
      <trkpt lat="46.66705" lon="6.08574">
        <ele>950</ele>
        <time>2021-11-23T07:58:36Z</time>
      </trkpt>
      <trkpt lat="46.66708" lon="6.08581">
        <ele>950.8</ele>
        <time>2021-11-23T07:58:41Z</time>
      </trkpt>
      <trkpt lat="46.66712" lon="6.08585">
        <ele>950.6</ele>
        <time>2021-11-23T07:58:45Z</time>
      </trkpt>
      <trkpt lat="46.66714" lon="6.08591">
        <ele>949.8</ele>
        <time>2021-11-23T07:58:49Z</time>
      </trkpt>
      <trkpt lat="46.66715" lon="6.08598">
        <ele>948.9</ele>
        <time>2021-11-23T07:58:53Z</time>
      </trkpt>
      <trkpt lat="46.66717" lon="6.08605">
        <ele>948.2</ele>
        <time>2021-11-23T07:58:57Z</time>
      </trkpt>
      <trkpt lat="46.6672" lon="6.08612">
        <ele>948.2</ele>
        <time>2021-11-23T07:59:02Z</time>
      </trkpt>
      <trkpt lat="46.66723" lon="6.08617">
        <ele>948.2</ele>
        <time>2021-11-23T07:59:06Z</time>
      </trkpt>
      <trkpt lat="46.66726" lon="6.08622">
        <ele>947.9</ele>
        <time>2021-11-23T07:59:10Z</time>
      </trkpt>
      <trkpt lat="46.6673" lon="6.08629">
        <ele>947.4</ele>
        <time>2021-11-23T07:59:15Z</time>
      </trkpt>
      <trkpt lat="46.66733" lon="6.08634">
        <ele>946.6</ele>
        <time>2021-11-23T07:59:20Z</time>
      </trkpt>
      <trkpt lat="46.66736" lon="6.08639">
        <ele>945.6</ele>
        <time>2021-11-23T07:59:25Z</time>
      </trkpt>
      <trkpt lat="46.66741" lon="6.08642">
        <ele>945.1</ele>
        <time>2021-11-23T07:59:29Z</time>
      </trkpt>
      <trkpt lat="46.66745" lon="6.08646">
        <ele>944.2</ele>
        <time>2021-11-23T07:59:34Z</time>
      </trkpt>
      <trkpt lat="46.66749" lon="6.0865">
        <ele>943.5</ele>
        <time>2021-11-23T07:59:39Z</time>
      </trkpt>
      <trkpt lat="46.66752" lon="6.08657">
        <ele>943.2</ele>
        <time>2021-11-23T07:59:44Z</time>
      </trkpt>
      <trkpt lat="46.66756" lon="6.08663">
        <ele>942.8</ele>
        <time>2021-11-23T07:59:49Z</time>
      </trkpt>
      <trkpt lat="46.6676" lon="6.08667">
        <ele>942.7</ele>
        <time>2021-11-23T07:59:53Z</time>
      </trkpt>
      <trkpt lat="46.66765" lon="6.08671">
        <ele>943.3</ele>
        <time>2021-11-23T07:59:58Z</time>
      </trkpt>
      <trkpt lat="46.66768" lon="6.08674">
        <ele>944.2</ele>
        <time>2021-11-23T08:00:02Z</time>
      </trkpt>
      <trkpt lat="46.66772" lon="6.0868">
        <ele>945.7</ele>
        <time>2021-11-23T08:00:07Z</time>
      </trkpt>
      <trkpt lat="46.66776" lon="6.08684">
        <ele>946.8</ele>
        <time>2021-11-23T08:00:12Z</time>
      </trkpt>
      <trkpt lat="46.6678" lon="6.08689">
        <ele>947.8</ele>
        <time>2021-11-23T08:00:17Z</time>
      </trkpt>
      <trkpt lat="46.66783" lon="6.08694">
        <ele>948.4</ele>
        <time>2021-11-23T08:00:22Z</time>
      </trkpt>
      <trkpt lat="46.66786" lon="6.08699">
        <ele>948.2</ele>
        <time>2021-11-23T08:00:27Z</time>
      </trkpt>
      <trkpt lat="46.66789" lon="6.08706">
        <ele>948.3</ele>
        <time>2021-11-23T08:00:32Z</time>
      </trkpt>
      <trkpt lat="46.66792" lon="6.08713">
        <ele>948.6</ele>
        <time>2021-11-23T08:00:37Z</time>
      </trkpt>
      <trkpt lat="46.66794" lon="6.0872">
        <ele>948.7</ele>
        <time>2021-11-23T08:00:42Z</time>
      </trkpt>
      <trkpt lat="46.66797" lon="6.08726">
        <ele>948.8</ele>
        <time>2021-11-23T08:00:47Z</time>
      </trkpt>
      <trkpt lat="46.668" lon="6.08732">
        <ele>948.8</ele>
        <time>2021-11-23T08:00:52Z</time>
      </trkpt>
      <trkpt lat="46.66802" lon="6.08739">
        <ele>948.7</ele>
        <time>2021-11-23T08:00:57Z</time>
      </trkpt>
      <trkpt lat="46.66805" lon="6.08744">
        <ele>948.6</ele>
        <time>2021-11-23T08:01:01Z</time>
      </trkpt>
      <trkpt lat="46.66808" lon="6.0875">
        <ele>948.5</ele>
        <time>2021-11-23T08:01:06Z</time>
      </trkpt>
      <trkpt lat="46.66811" lon="6.08755">
        <ele>948.8</ele>
        <time>2021-11-23T08:01:11Z</time>
      </trkpt>
      <trkpt lat="46.66813" lon="6.08762">
        <ele>949.5</ele>
        <time>2021-11-23T08:01:16Z</time>
      </trkpt>
      <trkpt lat="46.66816" lon="6.08769">
        <ele>949.9</ele>
        <time>2021-11-23T08:01:21Z</time>
      </trkpt>
      <trkpt lat="46.66818" lon="6.08776">
        <ele>950.1</ele>
        <time>2021-11-23T08:01:26Z</time>
      </trkpt>
      <trkpt lat="46.6682" lon="6.08782">
        <ele>950.6</ele>
        <time>2021-11-23T08:01:31Z</time>
      </trkpt>
      <trkpt lat="46.66822" lon="6.08789">
        <ele>951</ele>
        <time>2021-11-23T08:01:36Z</time>
      </trkpt>
      <trkpt lat="46.66824" lon="6.08796">
        <ele>951.8</ele>
        <time>2021-11-23T08:01:41Z</time>
      </trkpt>
      <trkpt lat="46.66825" lon="6.08803">
        <ele>952.6</ele>
        <time>2021-11-23T08:01:45Z</time>
      </trkpt>
      <trkpt lat="46.66827" lon="6.08809">
        <ele>953.6</ele>
        <time>2021-11-23T08:01:50Z</time>
      </trkpt>
      <trkpt lat="46.66829" lon="6.08816">
        <ele>954.1</ele>
        <time>2021-11-23T08:01:55Z</time>
      </trkpt>
      <trkpt lat="46.66832" lon="6.08822">
        <ele>954.5</ele>
        <time>2021-11-23T08:02:00Z</time>
      </trkpt>
      <trkpt lat="46.66834" lon="6.0883">
        <ele>955.4</ele>
        <time>2021-11-23T08:02:05Z</time>
      </trkpt>
      <trkpt lat="46.66835" lon="6.08836">
        <ele>956.2</ele>
        <time>2021-11-23T08:02:09Z</time>
      </trkpt>
      <trkpt lat="46.66836" lon="6.08844">
        <ele>957.5</ele>
        <time>2021-11-23T08:02:14Z</time>
      </trkpt>
      <trkpt lat="46.66839" lon="6.0885">
        <ele>957.7</ele>
        <time>2021-11-23T08:02:19Z</time>
      </trkpt>
      <trkpt lat="46.66841" lon="6.08857">
        <ele>958.1</ele>
        <time>2021-11-23T08:02:24Z</time>
      </trkpt>
      <trkpt lat="46.66843" lon="6.08863">
        <ele>957.7</ele>
        <time>2021-11-23T08:02:29Z</time>
      </trkpt>
      <trkpt lat="46.66844" lon="6.0887">
        <ele>957.4</ele>
        <time>2021-11-23T08:02:34Z</time>
      </trkpt>
      <trkpt lat="46.66846" lon="6.08877">
        <ele>957.3</ele>
        <time>2021-11-23T08:02:40Z</time>
      </trkpt>
      <trkpt lat="46.66849" lon="6.08883">
        <ele>957.1</ele>
        <time>2021-11-23T08:02:45Z</time>
      </trkpt>
      <trkpt lat="46.66852" lon="6.0889">
        <ele>956.7</ele>
        <time>2021-11-23T08:02:50Z</time>
      </trkpt>
      <trkpt lat="46.66855" lon="6.08897">
        <ele>956.8</ele>
        <time>2021-11-23T08:02:55Z</time>
      </trkpt>
      <trkpt lat="46.66856" lon="6.08903">
        <ele>957</ele>
        <time>2021-11-23T08:02:59Z</time>
      </trkpt>
      <trkpt lat="46.66858" lon="6.08911">
        <ele>957.9</ele>
        <time>2021-11-23T08:03:04Z</time>
      </trkpt>
      <trkpt lat="46.66859" lon="6.08918">
        <ele>957.8</ele>
        <time>2021-11-23T08:03:09Z</time>
      </trkpt>
      <trkpt lat="46.66861" lon="6.08925">
        <ele>957.2</ele>
        <time>2021-11-23T08:03:14Z</time>
      </trkpt>
      <trkpt lat="46.66862" lon="6.08933">
        <ele>956.9</ele>
        <time>2021-11-23T08:03:19Z</time>
      </trkpt>
      <trkpt lat="46.66864" lon="6.08939">
        <ele>956</ele>
        <time>2021-11-23T08:03:24Z</time>
      </trkpt>
      <trkpt lat="46.66868" lon="6.08945">
        <ele>955.6</ele>
        <time>2021-11-23T08:03:29Z</time>
      </trkpt>
      <trkpt lat="46.66872" lon="6.0895">
        <ele>955.7</ele>
        <time>2021-11-23T08:03:33Z</time>
      </trkpt>
      <trkpt lat="46.66876" lon="6.08952">
        <ele>955.9</ele>
        <time>2021-11-23T08:03:37Z</time>
      </trkpt>
      <trkpt lat="46.66881" lon="6.08953">
        <ele>956.6</ele>
        <time>2021-11-23T08:03:41Z</time>
      </trkpt>
      <trkpt lat="46.66886" lon="6.08953">
        <ele>957.7</ele>
        <time>2021-11-23T08:03:45Z</time>
      </trkpt>
      <trkpt lat="46.6689" lon="6.08952">
        <ele>958.8</ele>
        <time>2021-11-23T08:03:49Z</time>
      </trkpt>
      <trkpt lat="46.66895" lon="6.0895">
        <ele>959.4</ele>
        <time>2021-11-23T08:03:53Z</time>
      </trkpt>
      <trkpt lat="46.669" lon="6.08947">
        <ele>959.4</ele>
        <time>2021-11-23T08:03:57Z</time>
      </trkpt>
      <trkpt lat="46.66904" lon="6.08943">
        <ele>959.1</ele>
        <time>2021-11-23T08:04:02Z</time>
      </trkpt>
      <trkpt lat="46.66908" lon="6.0894">
        <ele>959.1</ele>
        <time>2021-11-23T08:04:06Z</time>
      </trkpt>
      <trkpt lat="46.66913" lon="6.08936">
        <ele>959.1</ele>
        <time>2021-11-23T08:04:12Z</time>
      </trkpt>
      <trkpt lat="46.66918" lon="6.08934">
        <ele>959.2</ele>
        <time>2021-11-23T08:04:17Z</time>
      </trkpt>
      <trkpt lat="46.66923" lon="6.0893">
        <ele>959.8</ele>
        <time>2021-11-23T08:04:23Z</time>
      </trkpt>
      <trkpt lat="46.66926" lon="6.08926">
        <ele>960.3</ele>
        <time>2021-11-23T08:04:28Z</time>
      </trkpt>
      <trkpt lat="46.66931" lon="6.08923">
        <ele>960.1</ele>
        <time>2021-11-23T08:04:34Z</time>
      </trkpt>
      <trkpt lat="46.66936" lon="6.08921">
        <ele>959.7</ele>
        <time>2021-11-23T08:04:39Z</time>
      </trkpt>
      <trkpt lat="46.66941" lon="6.08919">
        <ele>959.8</ele>
        <time>2021-11-23T08:04:44Z</time>
      </trkpt>
      <trkpt lat="46.66945" lon="6.08916">
        <ele>960.3</ele>
        <time>2021-11-23T08:04:49Z</time>
      </trkpt>
      <trkpt lat="46.6695" lon="6.08913">
        <ele>960.7</ele>
        <time>2021-11-23T08:04:54Z</time>
      </trkpt>
      <trkpt lat="46.66954" lon="6.08911">
        <ele>962.2</ele>
        <time>2021-11-23T08:05:00Z</time>
      </trkpt>
      <trkpt lat="46.66959" lon="6.08908">
        <ele>963.9</ele>
        <time>2021-11-23T08:05:05Z</time>
      </trkpt>
      <trkpt lat="46.66964" lon="6.08907">
        <ele>965.7</ele>
        <time>2021-11-23T08:05:10Z</time>
      </trkpt>
      <trkpt lat="46.66969" lon="6.08905">
        <ele>966.9</ele>
        <time>2021-11-23T08:05:15Z</time>
      </trkpt>
      <trkpt lat="46.66974" lon="6.08903">
        <ele>967.8</ele>
        <time>2021-11-23T08:05:20Z</time>
      </trkpt>
      <trkpt lat="46.66979" lon="6.08901">
        <ele>968.8</ele>
        <time>2021-11-23T08:05:27Z</time>
      </trkpt>
      <trkpt lat="46.66984" lon="6.089">
        <ele>969.5</ele>
        <time>2021-11-23T08:05:33Z</time>
      </trkpt>
      <trkpt lat="46.66989" lon="6.08899">
        <ele>970.3</ele>
        <time>2021-11-23T08:05:38Z</time>
      </trkpt>
      <trkpt lat="46.66993" lon="6.08897">
        <ele>971</ele>
        <time>2021-11-23T08:05:43Z</time>
      </trkpt>
      <trkpt lat="46.66997" lon="6.08893">
        <ele>971.1</ele>
        <time>2021-11-23T08:05:51Z</time>
      </trkpt>
      <trkpt lat="46.67" lon="6.08888">
        <ele>971.3</ele>
        <time>2021-11-23T08:05:57Z</time>
      </trkpt>
      <trkpt lat="46.67004" lon="6.08883">
        <ele>972</ele>
        <time>2021-11-23T08:06:03Z</time>
      </trkpt>
      <trkpt lat="46.67008" lon="6.08877">
        <ele>972.4</ele>
        <time>2021-11-23T08:06:09Z</time>
      </trkpt>
      <trkpt lat="46.67012" lon="6.08873">
        <ele>972.8</ele>
        <time>2021-11-23T08:06:14Z</time>
      </trkpt>
      <trkpt lat="46.67015" lon="6.08868">
        <ele>973.6</ele>
        <time>2021-11-23T08:06:19Z</time>
      </trkpt>
      <trkpt lat="46.6702" lon="6.08864">
        <ele>973.9</ele>
        <time>2021-11-23T08:06:24Z</time>
      </trkpt>
      <trkpt lat="46.67024" lon="6.08861">
        <ele>974</ele>
        <time>2021-11-23T08:06:29Z</time>
      </trkpt>
      <trkpt lat="46.67029" lon="6.08859">
        <ele>974.9</ele>
        <time>2021-11-23T08:06:34Z</time>
      </trkpt>
      <trkpt lat="46.67034" lon="6.08858">
        <ele>975.3</ele>
        <time>2021-11-23T08:06:39Z</time>
      </trkpt>
      <trkpt lat="46.67038" lon="6.08856">
        <ele>974.9</ele>
        <time>2021-11-23T08:06:47Z</time>
      </trkpt>
      <trkpt lat="46.67042" lon="6.08854">
        <ele>974.2</ele>
        <time>2021-11-23T08:06:54Z</time>
      </trkpt>
      <trkpt lat="46.67047" lon="6.0885">
        <ele>974.2</ele>
        <time>2021-11-23T08:07:00Z</time>
      </trkpt>
      <trkpt lat="46.67051" lon="6.08847">
        <ele>974.5</ele>
        <time>2021-11-23T08:07:05Z</time>
      </trkpt>
      <trkpt lat="46.67056" lon="6.08844">
        <ele>974</ele>
        <time>2021-11-23T08:08:36Z</time>
      </trkpt>
      <trkpt lat="46.67061" lon="6.08845">
        <ele>974.4</ele>
        <time>2021-11-23T08:09:15Z</time>
      </trkpt>
      <trkpt lat="46.67066" lon="6.08843">
        <ele>974.1</ele>
        <time>2021-11-23T08:09:20Z</time>
      </trkpt>
      <trkpt lat="46.6707" lon="6.08839">
        <ele>974.1</ele>
        <time>2021-11-23T08:09:25Z</time>
      </trkpt>
      <trkpt lat="46.67074" lon="6.08835">
        <ele>974.2</ele>
        <time>2021-11-23T08:09:30Z</time>
      </trkpt>
      <trkpt lat="46.67078" lon="6.08831">
        <ele>974.4</ele>
        <time>2021-11-23T08:09:35Z</time>
      </trkpt>
      <trkpt lat="46.67082" lon="6.08828">
        <ele>974.9</ele>
        <time>2021-11-23T08:09:41Z</time>
      </trkpt>
      <trkpt lat="46.67085" lon="6.08822">
        <ele>975.2</ele>
        <time>2021-11-23T08:09:47Z</time>
      </trkpt>
      <trkpt lat="46.67088" lon="6.08818">
        <ele>975.4</ele>
        <time>2021-11-23T08:09:52Z</time>
      </trkpt>
      <trkpt lat="46.67091" lon="6.08811">
        <ele>975.8</ele>
        <time>2021-11-23T08:09:58Z</time>
      </trkpt>
      <trkpt lat="46.67094" lon="6.08805">
        <ele>976</ele>
        <time>2021-11-23T08:10:03Z</time>
      </trkpt>
      <trkpt lat="46.67097" lon="6.08799">
        <ele>976.7</ele>
        <time>2021-11-23T08:10:08Z</time>
      </trkpt>
      <trkpt lat="46.671" lon="6.08792">
        <ele>977.5</ele>
        <time>2021-11-23T08:10:13Z</time>
      </trkpt>
      <trkpt lat="46.67101" lon="6.08785">
        <ele>978.4</ele>
        <time>2021-11-23T08:10:18Z</time>
      </trkpt>
      <trkpt lat="46.67103" lon="6.08779">
        <ele>980.5</ele>
        <time>2021-11-23T08:10:24Z</time>
      </trkpt>
      <trkpt lat="46.67105" lon="6.08771">
        <ele>982.1</ele>
        <time>2021-11-23T08:10:30Z</time>
      </trkpt>
      <trkpt lat="46.67107" lon="6.08765">
        <ele>983.4</ele>
        <time>2021-11-23T08:10:35Z</time>
      </trkpt>
      <trkpt lat="46.67108" lon="6.08758">
        <ele>984.3</ele>
        <time>2021-11-23T08:10:40Z</time>
      </trkpt>
      <trkpt lat="46.67109" lon="6.08751">
        <ele>985.6</ele>
        <time>2021-11-23T08:10:46Z</time>
      </trkpt>
      <trkpt lat="46.67108" lon="6.08744">
        <ele>986.6</ele>
        <time>2021-11-23T08:10:51Z</time>
      </trkpt>
      <trkpt lat="46.67107" lon="6.08738">
        <ele>987.4</ele>
        <time>2021-11-23T08:10:56Z</time>
      </trkpt>
      <trkpt lat="46.67107" lon="6.08731">
        <ele>987.5</ele>
        <time>2021-11-23T08:11:01Z</time>
      </trkpt>
      <trkpt lat="46.67108" lon="6.08724">
        <ele>988.1</ele>
        <time>2021-11-23T08:11:06Z</time>
      </trkpt>
      <trkpt lat="46.67108" lon="6.08717">
        <ele>989.2</ele>
        <time>2021-11-23T08:11:11Z</time>
      </trkpt>
      <trkpt lat="46.67107" lon="6.08709">
        <ele>990</ele>
        <time>2021-11-23T08:11:16Z</time>
      </trkpt>
      <trkpt lat="46.67108" lon="6.08702">
        <ele>990.2</ele>
        <time>2021-11-23T08:11:22Z</time>
      </trkpt>
      <trkpt lat="46.67108" lon="6.08694">
        <ele>990.2</ele>
        <time>2021-11-23T08:11:27Z</time>
      </trkpt>
      <trkpt lat="46.67107" lon="6.08687">
        <ele>990.2</ele>
        <time>2021-11-23T08:11:32Z</time>
      </trkpt>
      <trkpt lat="46.67107" lon="6.08679">
        <ele>989.7</ele>
        <time>2021-11-23T08:11:38Z</time>
      </trkpt>
      <trkpt lat="46.67106" lon="6.08672">
        <ele>989.6</ele>
        <time>2021-11-23T08:11:43Z</time>
      </trkpt>
      <trkpt lat="46.67105" lon="6.08665">
        <ele>989.8</ele>
        <time>2021-11-23T08:11:48Z</time>
      </trkpt>
      <trkpt lat="46.67104" lon="6.08658">
        <ele>990.1</ele>
        <time>2021-11-23T08:11:53Z</time>
      </trkpt>
      <trkpt lat="46.67104" lon="6.08651">
        <ele>990.5</ele>
        <time>2021-11-23T08:11:57Z</time>
      </trkpt>
      <trkpt lat="46.67105" lon="6.08644">
        <ele>990.8</ele>
        <time>2021-11-23T08:12:01Z</time>
      </trkpt>
      <trkpt lat="46.67106" lon="6.08636">
        <ele>991.3</ele>
        <time>2021-11-23T08:12:06Z</time>
      </trkpt>
      <trkpt lat="46.67106" lon="6.08629">
        <ele>991</ele>
        <time>2021-11-23T08:12:10Z</time>
      </trkpt>
      <trkpt lat="46.67106" lon="6.08622">
        <ele>990.3</ele>
        <time>2021-11-23T08:12:15Z</time>
      </trkpt>
      <trkpt lat="46.67106" lon="6.08614">
        <ele>990</ele>
        <time>2021-11-23T08:12:20Z</time>
      </trkpt>
      <trkpt lat="46.67107" lon="6.08607">
        <ele>990</ele>
        <time>2021-11-23T08:12:25Z</time>
      </trkpt>
      <trkpt lat="46.67109" lon="6.08601">
        <ele>990.3</ele>
        <time>2021-11-23T08:12:30Z</time>
      </trkpt>
      <trkpt lat="46.6711" lon="6.08594">
        <ele>990.9</ele>
        <time>2021-11-23T08:12:35Z</time>
      </trkpt>
      <trkpt lat="46.67115" lon="6.08594">
        <ele>991.8</ele>
        <time>2021-11-23T08:12:52Z</time>
      </trkpt>
      <trkpt lat="46.67117" lon="6.08599">
        <ele>991.8</ele>
        <time>2021-11-23T08:13:00Z</time>
      </trkpt>
      <trkpt lat="46.67117" lon="6.08591">
        <ele>994.2</ele>
        <time>2021-11-23T08:13:21Z</time>
      </trkpt>
      <trkpt lat="46.67117" lon="6.08584">
        <ele>994.5</ele>
        <time>2021-11-23T08:13:25Z</time>
      </trkpt>
      <trkpt lat="46.67117" lon="6.08577">
        <ele>994.2</ele>
        <time>2021-11-23T08:13:29Z</time>
      </trkpt>
      <trkpt lat="46.67117" lon="6.08569">
        <ele>993.6</ele>
        <time>2021-11-23T08:13:33Z</time>
      </trkpt>
      <trkpt lat="46.67116" lon="6.08562">
        <ele>992.8</ele>
        <time>2021-11-23T08:13:37Z</time>
      </trkpt>
      <trkpt lat="46.67116" lon="6.08554">
        <ele>992.2</ele>
        <time>2021-11-23T08:13:41Z</time>
      </trkpt>
      <trkpt lat="46.67114" lon="6.08546">
        <ele>991.7</ele>
        <time>2021-11-23T08:13:45Z</time>
      </trkpt>
      <trkpt lat="46.67113" lon="6.08539">
        <ele>991.6</ele>
        <time>2021-11-23T08:13:49Z</time>
      </trkpt>
      <trkpt lat="46.67111" lon="6.08531">
        <ele>991.6</ele>
        <time>2021-11-23T08:13:53Z</time>
      </trkpt>
      <trkpt lat="46.67109" lon="6.08524">
        <ele>991.7</ele>
        <time>2021-11-23T08:13:57Z</time>
      </trkpt>
      <trkpt lat="46.67107" lon="6.08518">
        <ele>991.6</ele>
        <time>2021-11-23T08:14:01Z</time>
      </trkpt>
      <trkpt lat="46.67106" lon="6.0851">
        <ele>991.9</ele>
        <time>2021-11-23T08:14:05Z</time>
      </trkpt>
      <trkpt lat="46.67105" lon="6.08503">
        <ele>991.6</ele>
        <time>2021-11-23T08:14:09Z</time>
      </trkpt>
      <trkpt lat="46.67103" lon="6.08496">
        <ele>990.9</ele>
        <time>2021-11-23T08:14:14Z</time>
      </trkpt>
      <trkpt lat="46.67102" lon="6.08488">
        <ele>990.2</ele>
        <time>2021-11-23T08:14:18Z</time>
      </trkpt>
      <trkpt lat="46.67103" lon="6.0848">
        <ele>989.7</ele>
        <time>2021-11-23T08:14:22Z</time>
      </trkpt>
      <trkpt lat="46.67103" lon="6.08472">
        <ele>989.3</ele>
        <time>2021-11-23T08:14:26Z</time>
      </trkpt>
      <trkpt lat="46.67103" lon="6.08464">
        <ele>989.1</ele>
        <time>2021-11-23T08:14:31Z</time>
      </trkpt>
      <trkpt lat="46.67104" lon="6.08457">
        <ele>988.8</ele>
        <time>2021-11-23T08:14:35Z</time>
      </trkpt>
      <trkpt lat="46.67105" lon="6.0845">
        <ele>988.6</ele>
        <time>2021-11-23T08:14:38Z</time>
      </trkpt>
      <trkpt lat="46.67107" lon="6.08443">
        <ele>988.8</ele>
        <time>2021-11-23T08:14:42Z</time>
      </trkpt>
      <trkpt lat="46.67109" lon="6.08435">
        <ele>989.1</ele>
        <time>2021-11-23T08:14:46Z</time>
      </trkpt>
      <trkpt lat="46.67111" lon="6.08428">
        <ele>989.5</ele>
        <time>2021-11-23T08:14:50Z</time>
      </trkpt>
      <trkpt lat="46.67112" lon="6.08421">
        <ele>989.8</ele>
        <time>2021-11-23T08:14:53Z</time>
      </trkpt>
      <trkpt lat="46.67115" lon="6.08415">
        <ele>990.1</ele>
        <time>2021-11-23T08:14:56Z</time>
      </trkpt>
      <trkpt lat="46.67117" lon="6.08409">
        <ele>990.5</ele>
        <time>2021-11-23T08:15:00Z</time>
      </trkpt>
      <trkpt lat="46.67117" lon="6.08402">
        <ele>990.9</ele>
        <time>2021-11-23T08:15:03Z</time>
      </trkpt>
      <trkpt lat="46.67118" lon="6.08396">
        <ele>991.5</ele>
        <time>2021-11-23T08:15:06Z</time>
      </trkpt>
      <trkpt lat="46.67119" lon="6.08389">
        <ele>992.3</ele>
        <time>2021-11-23T08:15:09Z</time>
      </trkpt>
      <trkpt lat="46.67119" lon="6.08381">
        <ele>993.4</ele>
        <time>2021-11-23T08:15:13Z</time>
      </trkpt>
      <trkpt lat="46.67121" lon="6.08373">
        <ele>994.3</ele>
        <time>2021-11-23T08:15:18Z</time>
      </trkpt>
      <trkpt lat="46.67122" lon="6.08366">
        <ele>994.6</ele>
        <time>2021-11-23T08:15:22Z</time>
      </trkpt>
      <trkpt lat="46.67124" lon="6.0836">
        <ele>994.5</ele>
        <time>2021-11-23T08:15:26Z</time>
      </trkpt>
      <trkpt lat="46.67125" lon="6.08352">
        <ele>995</ele>
        <time>2021-11-23T08:15:30Z</time>
      </trkpt>
      <trkpt lat="46.67125" lon="6.08345">
        <ele>995.5</ele>
        <time>2021-11-23T08:15:34Z</time>
      </trkpt>
      <trkpt lat="46.67126" lon="6.08338">
        <ele>996.6</ele>
        <time>2021-11-23T08:15:38Z</time>
      </trkpt>
      <trkpt lat="46.67129" lon="6.08331">
        <ele>999</ele>
        <time>2021-11-23T08:15:43Z</time>
      </trkpt>
      <trkpt lat="46.67132" lon="6.08326">
        <ele>1000.9</ele>
        <time>2021-11-23T08:15:48Z</time>
      </trkpt>
      <trkpt lat="46.67136" lon="6.08321">
        <ele>1002.5</ele>
        <time>2021-11-23T08:15:53Z</time>
      </trkpt>
      <trkpt lat="46.67141" lon="6.08318">
        <ele>1003.4</ele>
        <time>2021-11-23T08:15:58Z</time>
      </trkpt>
      <trkpt lat="46.67146" lon="6.08316">
        <ele>1003.8</ele>
        <time>2021-11-23T08:16:03Z</time>
      </trkpt>
      <trkpt lat="46.6715" lon="6.08314">
        <ele>1004.5</ele>
        <time>2021-11-23T08:16:07Z</time>
      </trkpt>
      <trkpt lat="46.67155" lon="6.08312">
        <ele>1005.4</ele>
        <time>2021-11-23T08:16:10Z</time>
      </trkpt>
      <trkpt lat="46.6716" lon="6.08311">
        <ele>1006.5</ele>
        <time>2021-11-23T08:16:13Z</time>
      </trkpt>
      <trkpt lat="46.67164" lon="6.08309">
        <ele>1007.9</ele>
        <time>2021-11-23T08:16:17Z</time>
      </trkpt>
      <trkpt lat="46.67169" lon="6.08307">
        <ele>1009.6</ele>
        <time>2021-11-23T08:16:21Z</time>
      </trkpt>
      <trkpt lat="46.67174" lon="6.08308">
        <ele>1012.2</ele>
        <time>2021-11-23T08:16:26Z</time>
      </trkpt>
      <trkpt lat="46.67179" lon="6.08308">
        <ele>1013.7</ele>
        <time>2021-11-23T08:16:30Z</time>
      </trkpt>
      <trkpt lat="46.67184" lon="6.08309">
        <ele>1014.8</ele>
        <time>2021-11-23T08:16:34Z</time>
      </trkpt>
      <trkpt lat="46.67188" lon="6.08313">
        <ele>1015.3</ele>
        <time>2021-11-23T08:16:39Z</time>
      </trkpt>
      <trkpt lat="46.67192" lon="6.08318">
        <ele>1015.2</ele>
        <time>2021-11-23T08:16:45Z</time>
      </trkpt>
      <trkpt lat="46.67197" lon="6.08321">
        <ele>1014.6</ele>
        <time>2021-11-23T08:16:50Z</time>
      </trkpt>
      <trkpt lat="46.67201" lon="6.08324">
        <ele>1014.1</ele>
        <time>2021-11-23T08:16:56Z</time>
      </trkpt>
      <trkpt lat="46.67205" lon="6.08327">
        <ele>1013.2</ele>
        <time>2021-11-23T08:17:02Z</time>
      </trkpt>
      <trkpt lat="46.6721" lon="6.08331">
        <ele>1012.2</ele>
        <time>2021-11-23T08:17:09Z</time>
      </trkpt>
      <trkpt lat="46.67214" lon="6.08333">
        <ele>1011.8</ele>
        <time>2021-11-23T08:17:14Z</time>
      </trkpt>
      <trkpt lat="46.67219" lon="6.08336">
        <ele>1010.9</ele>
        <time>2021-11-23T08:17:20Z</time>
      </trkpt>
      <trkpt lat="46.67223" lon="6.08338">
        <ele>1010.7</ele>
        <time>2021-11-23T08:17:26Z</time>
      </trkpt>
      <trkpt lat="46.67228" lon="6.08339">
        <ele>1010.6</ele>
        <time>2021-11-23T08:17:31Z</time>
      </trkpt>
      <trkpt lat="46.67233" lon="6.08338">
        <ele>1011</ele>
        <time>2021-11-23T08:17:35Z</time>
      </trkpt>
      <trkpt lat="46.67236" lon="6.08334">
        <ele>1011.1</ele>
        <time>2021-11-23T08:17:40Z</time>
      </trkpt>
      <trkpt lat="46.6724" lon="6.08329">
        <ele>1010.6</ele>
        <time>2021-11-23T08:17:46Z</time>
      </trkpt>
      <trkpt lat="46.67242" lon="6.08322">
        <ele>1010.2</ele>
        <time>2021-11-23T08:17:51Z</time>
      </trkpt>
      <trkpt lat="46.67242" lon="6.08315">
        <ele>1009.6</ele>
        <time>2021-11-23T08:17:57Z</time>
      </trkpt>
      <trkpt lat="46.67244" lon="6.08309">
        <ele>1008.6</ele>
        <time>2021-11-23T08:18:03Z</time>
      </trkpt>
      <trkpt lat="46.67245" lon="6.08302">
        <ele>1008</ele>
        <time>2021-11-23T08:18:08Z</time>
      </trkpt>
      <trkpt lat="46.67245" lon="6.08295">
        <ele>1007.6</ele>
        <time>2021-11-23T08:18:14Z</time>
      </trkpt>
      <trkpt lat="46.67246" lon="6.08288">
        <ele>1007.6</ele>
        <time>2021-11-23T08:18:19Z</time>
      </trkpt>
      <trkpt lat="46.67248" lon="6.08282">
        <ele>1008</ele>
        <time>2021-11-23T08:18:25Z</time>
      </trkpt>
      <trkpt lat="46.6725" lon="6.08276">
        <ele>1009.2</ele>
        <time>2021-11-23T08:18:31Z</time>
      </trkpt>
      <trkpt lat="46.67253" lon="6.0827">
        <ele>1010.2</ele>
        <time>2021-11-23T08:18:37Z</time>
      </trkpt>
      <trkpt lat="46.67256" lon="6.08264">
        <ele>1010.9</ele>
        <time>2021-11-23T08:18:42Z</time>
      </trkpt>
      <trkpt lat="46.67259" lon="6.08258">
        <ele>1011.8</ele>
        <time>2021-11-23T08:18:50Z</time>
      </trkpt>
      <trkpt lat="46.67261" lon="6.08252">
        <ele>1013.1</ele>
        <time>2021-11-23T08:18:56Z</time>
      </trkpt>
      <trkpt lat="46.67264" lon="6.08246">
        <ele>1015.4</ele>
        <time>2021-11-23T08:19:03Z</time>
      </trkpt>
      <trkpt lat="46.67268" lon="6.08242">
        <ele>1017</ele>
        <time>2021-11-23T08:19:07Z</time>
      </trkpt>
      <trkpt lat="46.67273" lon="6.08238">
        <ele>1018.9</ele>
        <time>2021-11-23T08:19:12Z</time>
      </trkpt>
      <trkpt lat="46.67277" lon="6.08235">
        <ele>1020.9</ele>
        <time>2021-11-23T08:19:18Z</time>
      </trkpt>
      <trkpt lat="46.67283" lon="6.08231">
        <ele>1022.2</ele>
        <time>2021-11-23T08:19:22Z</time>
      </trkpt>
      <trkpt lat="46.67287" lon="6.08228">
        <ele>1023.2</ele>
        <time>2021-11-23T08:19:26Z</time>
      </trkpt>
      <trkpt lat="46.67291" lon="6.08224">
        <ele>1024.3</ele>
        <time>2021-11-23T08:19:31Z</time>
      </trkpt>
      <trkpt lat="46.67295" lon="6.08219">
        <ele>1025.5</ele>
        <time>2021-11-23T08:19:37Z</time>
      </trkpt>
      <trkpt lat="46.67298" lon="6.08212">
        <ele>1026.3</ele>
        <time>2021-11-23T08:19:43Z</time>
      </trkpt>
      <trkpt lat="46.67302" lon="6.08208">
        <ele>1027</ele>
        <time>2021-11-23T08:19:48Z</time>
      </trkpt>
      <trkpt lat="46.67306" lon="6.08203">
        <ele>1027.9</ele>
        <time>2021-11-23T08:19:54Z</time>
      </trkpt>
      <trkpt lat="46.6731" lon="6.082">
        <ele>1028.5</ele>
        <time>2021-11-23T08:20:00Z</time>
      </trkpt>
      <trkpt lat="46.67314" lon="6.08195">
        <ele>1028.8</ele>
        <time>2021-11-23T08:20:05Z</time>
      </trkpt>
      <trkpt lat="46.67318" lon="6.08192">
        <ele>1029.2</ele>
        <time>2021-11-23T08:20:10Z</time>
      </trkpt>
      <trkpt lat="46.67322" lon="6.08186">
        <ele>1031.2</ele>
        <time>2021-11-23T08:20:18Z</time>
      </trkpt>
      <trkpt lat="46.67321" lon="6.08179">
        <ele>1031.2</ele>
        <time>2021-11-23T08:22:11Z</time>
      </trkpt>
      <trkpt lat="46.67317" lon="6.08183">
        <ele>1029.5</ele>
        <time>2021-11-23T08:23:03Z</time>
      </trkpt>
      <trkpt lat="46.67319" lon="6.08189">
        <ele>1026.2</ele>
        <time>2021-11-23T08:27:38Z</time>
      </trkpt>
      <trkpt lat="46.67319" lon="6.08183">
        <ele>1025.1</ele>
        <time>2021-11-23T08:29:57Z</time>
      </trkpt>
      <trkpt lat="46.67319" lon="6.08175">
        <ele>1024.6</ele>
        <time>2021-11-23T08:30:01Z</time>
      </trkpt>
      <trkpt lat="46.67317" lon="6.08169">
        <ele>1025.7</ele>
        <time>2021-11-23T08:30:06Z</time>
      </trkpt>
      <trkpt lat="46.67315" lon="6.08163">
        <ele>1027.3</ele>
        <time>2021-11-23T08:30:11Z</time>
      </trkpt>
      <trkpt lat="46.67312" lon="6.08157">
        <ele>1028.5</ele>
        <time>2021-11-23T08:30:15Z</time>
      </trkpt>
      <trkpt lat="46.6731" lon="6.08151">
        <ele>1029.5</ele>
        <time>2021-11-23T08:30:20Z</time>
      </trkpt>
      <trkpt lat="46.67307" lon="6.08145">
        <ele>1030</ele>
        <time>2021-11-23T08:30:26Z</time>
      </trkpt>
      <trkpt lat="46.67305" lon="6.08138">
        <ele>1030.1</ele>
        <time>2021-11-23T08:30:31Z</time>
      </trkpt>
      <trkpt lat="46.67303" lon="6.08131">
        <ele>1030.4</ele>
        <time>2021-11-23T08:30:36Z</time>
      </trkpt>
      <trkpt lat="46.67301" lon="6.08125">
        <ele>1030.4</ele>
        <time>2021-11-23T08:30:41Z</time>
      </trkpt>
      <trkpt lat="46.673" lon="6.08118">
        <ele>1030.1</ele>
        <time>2021-11-23T08:30:46Z</time>
      </trkpt>
      <trkpt lat="46.67298" lon="6.08112">
        <ele>1029.7</ele>
        <time>2021-11-23T08:30:52Z</time>
      </trkpt>
      <trkpt lat="46.67298" lon="6.08105">
        <ele>1029.7</ele>
        <time>2021-11-23T08:30:57Z</time>
      </trkpt>
      <trkpt lat="46.67296" lon="6.08097">
        <ele>1029.4</ele>
        <time>2021-11-23T08:31:03Z</time>
      </trkpt>
      <trkpt lat="46.67296" lon="6.0809">
        <ele>1028.9</ele>
        <time>2021-11-23T08:31:08Z</time>
      </trkpt>
      <trkpt lat="46.67295" lon="6.08083">
        <ele>1028.8</ele>
        <time>2021-11-23T08:31:13Z</time>
      </trkpt>
      <trkpt lat="46.67295" lon="6.08076">
        <ele>1029.8</ele>
        <time>2021-11-23T08:31:18Z</time>
      </trkpt>
      <trkpt lat="46.67294" lon="6.08069">
        <ele>1031.3</ele>
        <time>2021-11-23T08:31:23Z</time>
      </trkpt>
      <trkpt lat="46.67293" lon="6.08062">
        <ele>1032.9</ele>
        <time>2021-11-23T08:31:29Z</time>
      </trkpt>
      <trkpt lat="46.6729" lon="6.08056">
        <ele>1034</ele>
        <time>2021-11-23T08:31:34Z</time>
      </trkpt>
      <trkpt lat="46.67288" lon="6.08048">
        <ele>1034.8</ele>
        <time>2021-11-23T08:31:39Z</time>
      </trkpt>
      <trkpt lat="46.67287" lon="6.08042">
        <ele>1035.7</ele>
        <time>2021-11-23T08:31:44Z</time>
      </trkpt>
      <trkpt lat="46.67286" lon="6.08035">
        <ele>1036.5</ele>
        <time>2021-11-23T08:31:51Z</time>
      </trkpt>
      <trkpt lat="46.67285" lon="6.08028">
        <ele>1036.7</ele>
        <time>2021-11-23T08:31:56Z</time>
      </trkpt>
      <trkpt lat="46.67284" lon="6.08021">
        <ele>1036.6</ele>
        <time>2021-11-23T08:32:01Z</time>
      </trkpt>
      <trkpt lat="46.67282" lon="6.08013">
        <ele>1036.8</ele>
        <time>2021-11-23T08:32:06Z</time>
      </trkpt>
      <trkpt lat="46.6728" lon="6.08006">
        <ele>1036.8</ele>
        <time>2021-11-23T08:32:11Z</time>
      </trkpt>
      <trkpt lat="46.67281" lon="6.07998">
        <ele>1036.7</ele>
        <time>2021-11-23T08:32:16Z</time>
      </trkpt>
      <trkpt lat="46.67284" lon="6.07992">
        <ele>1036.3</ele>
        <time>2021-11-23T08:32:20Z</time>
      </trkpt>
      <trkpt lat="46.67287" lon="6.07986">
        <ele>1036.1</ele>
        <time>2021-11-23T08:32:24Z</time>
      </trkpt>
      <trkpt lat="46.67289" lon="6.0798">
        <ele>1036.4</ele>
        <time>2021-11-23T08:32:28Z</time>
      </trkpt>
      <trkpt lat="46.6729" lon="6.07973">
        <ele>1037.4</ele>
        <time>2021-11-23T08:32:32Z</time>
      </trkpt>
      <trkpt lat="46.67291" lon="6.07966">
        <ele>1038.2</ele>
        <time>2021-11-23T08:32:37Z</time>
      </trkpt>
      <trkpt lat="46.67291" lon="6.07959">
        <ele>1039.5</ele>
        <time>2021-11-23T08:32:42Z</time>
      </trkpt>
      <trkpt lat="46.67292" lon="6.07953">
        <ele>1040.6</ele>
        <time>2021-11-23T08:32:47Z</time>
      </trkpt>
      <trkpt lat="46.67295" lon="6.07946">
        <ele>1041.1</ele>
        <time>2021-11-23T08:32:53Z</time>
      </trkpt>
      <trkpt lat="46.67297" lon="6.0794">
        <ele>1041.4</ele>
        <time>2021-11-23T08:32:57Z</time>
      </trkpt>
      <trkpt lat="46.67299" lon="6.07934">
        <ele>1041.5</ele>
        <time>2021-11-23T08:33:01Z</time>
      </trkpt>
      <trkpt lat="46.67302" lon="6.07929">
        <ele>1041.2</ele>
        <time>2021-11-23T08:33:05Z</time>
      </trkpt>
      <trkpt lat="46.67304" lon="6.07922">
        <ele>1040.3</ele>
        <time>2021-11-23T08:33:10Z</time>
      </trkpt>
      <trkpt lat="46.67307" lon="6.07916">
        <ele>1039.4</ele>
        <time>2021-11-23T08:33:16Z</time>
      </trkpt>
      <trkpt lat="46.6731" lon="6.07909">
        <ele>1038.8</ele>
        <time>2021-11-23T08:33:21Z</time>
      </trkpt>
      <trkpt lat="46.67312" lon="6.07903">
        <ele>1038.1</ele>
        <time>2021-11-23T08:33:26Z</time>
      </trkpt>
      <trkpt lat="46.67316" lon="6.07897">
        <ele>1037.2</ele>
        <time>2021-11-23T08:33:30Z</time>
      </trkpt>
      <trkpt lat="46.6732" lon="6.07893">
        <ele>1036.3</ele>
        <time>2021-11-23T08:33:35Z</time>
      </trkpt>
      <trkpt lat="46.67324" lon="6.07889">
        <ele>1035.5</ele>
        <time>2021-11-23T08:33:40Z</time>
      </trkpt>
      <trkpt lat="46.67328" lon="6.07883">
        <ele>1035.1</ele>
        <time>2021-11-23T08:33:44Z</time>
      </trkpt>
      <trkpt lat="46.67331" lon="6.07877">
        <ele>1034.5</ele>
        <time>2021-11-23T08:33:49Z</time>
      </trkpt>
      <trkpt lat="46.67334" lon="6.07872">
        <ele>1034.2</ele>
        <time>2021-11-23T08:33:53Z</time>
      </trkpt>
      <trkpt lat="46.67338" lon="6.07866">
        <ele>1033.6</ele>
        <time>2021-11-23T08:33:57Z</time>
      </trkpt>
      <trkpt lat="46.67341" lon="6.0786">
        <ele>1032.7</ele>
        <time>2021-11-23T08:34:01Z</time>
      </trkpt>
      <trkpt lat="46.67345" lon="6.07854">
        <ele>1032.3</ele>
        <time>2021-11-23T08:34:05Z</time>
      </trkpt>
      <trkpt lat="46.67348" lon="6.07849">
        <ele>1032.1</ele>
        <time>2021-11-23T08:34:09Z</time>
      </trkpt>
      <trkpt lat="46.67351" lon="6.07844">
        <ele>1032.3</ele>
        <time>2021-11-23T08:34:13Z</time>
      </trkpt>
      <trkpt lat="46.67355" lon="6.0784">
        <ele>1032.3</ele>
        <time>2021-11-23T08:34:18Z</time>
      </trkpt>
      <trkpt lat="46.67359" lon="6.07835">
        <ele>1032</ele>
        <time>2021-11-23T08:34:23Z</time>
      </trkpt>
      <trkpt lat="46.67363" lon="6.0783">
        <ele>1032</ele>
        <time>2021-11-23T08:34:28Z</time>
      </trkpt>
      <trkpt lat="46.67366" lon="6.07825">
        <ele>1032.8</ele>
        <time>2021-11-23T08:34:33Z</time>
      </trkpt>
      <trkpt lat="46.6737" lon="6.07821">
        <ele>1033.5</ele>
        <time>2021-11-23T08:34:38Z</time>
      </trkpt>
      <trkpt lat="46.67374" lon="6.07816">
        <ele>1034.1</ele>
        <time>2021-11-23T08:34:43Z</time>
      </trkpt>
      <trkpt lat="46.67379" lon="6.07813">
        <ele>1034.5</ele>
        <time>2021-11-23T08:34:47Z</time>
      </trkpt>
      <trkpt lat="46.67384" lon="6.07808">
        <ele>1035</ele>
        <time>2021-11-23T08:34:51Z</time>
      </trkpt>
      <trkpt lat="46.67387" lon="6.07804">
        <ele>1035.6</ele>
        <time>2021-11-23T08:34:55Z</time>
      </trkpt>
      <trkpt lat="46.67391" lon="6.078">
        <ele>1036.9</ele>
        <time>2021-11-23T08:35:00Z</time>
      </trkpt>
      <trkpt lat="46.67394" lon="6.07796">
        <ele>1037.5</ele>
        <time>2021-11-23T08:35:05Z</time>
      </trkpt>
      <trkpt lat="46.67395" lon="6.07788">
        <ele>1037.4</ele>
        <time>2021-11-23T08:35:14Z</time>
      </trkpt>
      <trkpt lat="46.67394" lon="6.07781">
        <ele>1037</ele>
        <time>2021-11-23T08:35:20Z</time>
      </trkpt>
      <trkpt lat="46.67391" lon="6.07776">
        <ele>1037.2</ele>
        <time>2021-11-23T08:35:25Z</time>
      </trkpt>
      <trkpt lat="46.67388" lon="6.0777">
        <ele>1037.5</ele>
        <time>2021-11-23T08:35:30Z</time>
      </trkpt>
      <trkpt lat="46.67385" lon="6.07775">
        <ele>1037.8</ele>
        <time>2021-11-23T08:36:15Z</time>
      </trkpt>
      <trkpt lat="46.67387" lon="6.07781">
        <ele>1037.9</ele>
        <time>2021-11-23T08:36:19Z</time>
      </trkpt>
      <trkpt lat="46.67393" lon="6.07782">
        <ele>1037.7</ele>
        <time>2021-11-23T08:36:24Z</time>
      </trkpt>
      <trkpt lat="46.67398" lon="6.07781">
        <ele>1037.4</ele>
        <time>2021-11-23T08:36:28Z</time>
      </trkpt>
      <trkpt lat="46.67402" lon="6.07777">
        <ele>1037.4</ele>
        <time>2021-11-23T08:36:33Z</time>
      </trkpt>
      <trkpt lat="46.67406" lon="6.07773">
        <ele>1037.1</ele>
        <time>2021-11-23T08:36:40Z</time>
      </trkpt>
      <trkpt lat="46.67411" lon="6.0777">
        <ele>1037</ele>
        <time>2021-11-23T08:36:46Z</time>
      </trkpt>
      <trkpt lat="46.67416" lon="6.07766">
        <ele>1036.8</ele>
        <time>2021-11-23T08:36:51Z</time>
      </trkpt>
      <trkpt lat="46.6742" lon="6.07762">
        <ele>1036.8</ele>
        <time>2021-11-23T08:36:56Z</time>
      </trkpt>
      <trkpt lat="46.67424" lon="6.07758">
        <ele>1037</ele>
        <time>2021-11-23T08:37:01Z</time>
      </trkpt>
      <trkpt lat="46.67428" lon="6.07754">
        <ele>1037.2</ele>
        <time>2021-11-23T08:37:07Z</time>
      </trkpt>
      <trkpt lat="46.67433" lon="6.07752">
        <ele>1037.5</ele>
        <time>2021-11-23T08:37:13Z</time>
      </trkpt>
      <trkpt lat="46.67438" lon="6.07749">
        <ele>1037.7</ele>
        <time>2021-11-23T08:37:21Z</time>
      </trkpt>
      <trkpt lat="46.67443" lon="6.07745">
        <ele>1038.3</ele>
        <time>2021-11-23T08:37:27Z</time>
      </trkpt>
      <trkpt lat="46.67447" lon="6.07743">
        <ele>1039.9</ele>
        <time>2021-11-23T08:37:35Z</time>
      </trkpt>
      <trkpt lat="46.67451" lon="6.07739">
        <ele>1042</ele>
        <time>2021-11-23T08:37:45Z</time>
      </trkpt>
      <trkpt lat="46.67456" lon="6.07738">
        <ele>1043.1</ele>
        <time>2021-11-23T08:37:52Z</time>
      </trkpt>
      <trkpt lat="46.67461" lon="6.07738">
        <ele>1043.3</ele>
        <time>2021-11-23T08:37:57Z</time>
      </trkpt>
      <trkpt lat="46.67466" lon="6.07738">
        <ele>1043.2</ele>
        <time>2021-11-23T08:38:02Z</time>
      </trkpt>
      <trkpt lat="46.67471" lon="6.0774">
        <ele>1042.8</ele>
        <time>2021-11-23T08:38:08Z</time>
      </trkpt>
      <trkpt lat="46.67475" lon="6.07741">
        <ele>1042.5</ele>
        <time>2021-11-23T08:38:14Z</time>
      </trkpt>
      <trkpt lat="46.6748" lon="6.07742">
        <ele>1043.3</ele>
        <time>2021-11-23T08:38:20Z</time>
      </trkpt>
      <trkpt lat="46.67485" lon="6.0774">
        <ele>1044.4</ele>
        <time>2021-11-23T08:38:26Z</time>
      </trkpt>
      <trkpt lat="46.67489" lon="6.07735">
        <ele>1045.2</ele>
        <time>2021-11-23T08:38:33Z</time>
      </trkpt>
      <trkpt lat="46.67493" lon="6.0773">
        <ele>1045.2</ele>
        <time>2021-11-23T08:38:39Z</time>
      </trkpt>
      <trkpt lat="46.67497" lon="6.07726">
        <ele>1045</ele>
        <time>2021-11-23T08:38:46Z</time>
      </trkpt>
      <trkpt lat="46.67501" lon="6.07721">
        <ele>1045</ele>
        <time>2021-11-23T08:38:52Z</time>
      </trkpt>
      <trkpt lat="46.67505" lon="6.07717">
        <ele>1045.1</ele>
        <time>2021-11-23T08:38:57Z</time>
      </trkpt>
      <trkpt lat="46.67509" lon="6.07716">
        <ele>1046.2</ele>
        <time>2021-11-23T08:39:06Z</time>
      </trkpt>
      <trkpt lat="46.67514" lon="6.07719">
        <ele>1049.3</ele>
        <time>2021-11-23T08:39:30Z</time>
      </trkpt>
      <trkpt lat="46.67519" lon="6.0772">
        <ele>1051.2</ele>
        <time>2021-11-23T08:39:33Z</time>
      </trkpt>
      <trkpt lat="46.67517" lon="6.07713">
        <ele>1055.7</ele>
        <time>2021-11-23T08:39:57Z</time>
      </trkpt>
      <trkpt lat="46.67519" lon="6.07707">
        <ele>1055</ele>
        <time>2021-11-23T08:40:04Z</time>
      </trkpt>
      <trkpt lat="46.67521" lon="6.077">
        <ele>1054.7</ele>
        <time>2021-11-23T08:40:09Z</time>
      </trkpt>
      <trkpt lat="46.67523" lon="6.07694">
        <ele>1054.3</ele>
        <time>2021-11-23T08:40:15Z</time>
      </trkpt>
      <trkpt lat="46.67526" lon="6.07689">
        <ele>1054.2</ele>
        <time>2021-11-23T08:40:20Z</time>
      </trkpt>
      <trkpt lat="46.6753" lon="6.07684">
        <ele>1054.4</ele>
        <time>2021-11-23T08:40:27Z</time>
      </trkpt>
      <trkpt lat="46.67532" lon="6.07677">
        <ele>1054.3</ele>
        <time>2021-11-23T08:40:35Z</time>
      </trkpt>
      <trkpt lat="46.67535" lon="6.0767">
        <ele>1054</ele>
        <time>2021-11-23T08:40:40Z</time>
      </trkpt>
      <trkpt lat="46.67538" lon="6.07664">
        <ele>1053.8</ele>
        <time>2021-11-23T08:40:46Z</time>
      </trkpt>
      <trkpt lat="46.6754" lon="6.07658">
        <ele>1053.5</ele>
        <time>2021-11-23T08:40:55Z</time>
      </trkpt>
      <trkpt lat="46.67543" lon="6.07654">
        <ele>1053.6</ele>
        <time>2021-11-23T08:41:04Z</time>
      </trkpt>
      <trkpt lat="46.67546" lon="6.07643">
        <ele>1054.2</ele>
        <time>2021-11-23T08:41:23Z</time>
      </trkpt>
      <trkpt lat="46.67548" lon="6.07637">
        <ele>1054.2</ele>
        <time>2021-11-23T08:41:26Z</time>
      </trkpt>
      <trkpt lat="46.67552" lon="6.07632">
        <ele>1054.4</ele>
        <time>2021-11-23T08:41:30Z</time>
      </trkpt>
      <trkpt lat="46.67556" lon="6.0763">
        <ele>1055.3</ele>
        <time>2021-11-23T08:41:37Z</time>
      </trkpt>
      <trkpt lat="46.67561" lon="6.07627">
        <ele>1056.6</ele>
        <time>2021-11-23T08:41:45Z</time>
      </trkpt>
      <trkpt lat="46.67566" lon="6.07625">
        <ele>1057.3</ele>
        <time>2021-11-23T08:41:49Z</time>
      </trkpt>
      <trkpt lat="46.67571" lon="6.07623">
        <ele>1057.7</ele>
        <time>2021-11-23T08:41:53Z</time>
      </trkpt>
      <trkpt lat="46.67576" lon="6.07623">
        <ele>1057.8</ele>
        <time>2021-11-23T08:41:57Z</time>
      </trkpt>
      <trkpt lat="46.6758" lon="6.07623">
        <ele>1057.6</ele>
        <time>2021-11-23T08:42:03Z</time>
      </trkpt>
      <trkpt lat="46.67585" lon="6.07622">
        <ele>1057.5</ele>
        <time>2021-11-23T08:42:09Z</time>
      </trkpt>
      <trkpt lat="46.67591" lon="6.07622">
        <ele>1057.4</ele>
        <time>2021-11-23T08:42:15Z</time>
      </trkpt>
      <trkpt lat="46.67596" lon="6.07622">
        <ele>1058</ele>
        <time>2021-11-23T08:42:19Z</time>
      </trkpt>
      <trkpt lat="46.67602" lon="6.07621">
        <ele>1058.9</ele>
        <time>2021-11-23T08:42:23Z</time>
      </trkpt>
      <trkpt lat="46.67607" lon="6.07621">
        <ele>1060.1</ele>
        <time>2021-11-23T08:42:29Z</time>
      </trkpt>
      <trkpt lat="46.67612" lon="6.07621">
        <ele>1061</ele>
        <time>2021-11-23T08:42:35Z</time>
      </trkpt>
      <trkpt lat="46.67617" lon="6.07619">
        <ele>1061.3</ele>
        <time>2021-11-23T08:42:40Z</time>
      </trkpt>
      <trkpt lat="46.67621" lon="6.0762">
        <ele>1061.5</ele>
        <time>2021-11-23T08:42:45Z</time>
      </trkpt>
      <trkpt lat="46.67627" lon="6.07619">
        <ele>1061.8</ele>
        <time>2021-11-23T08:42:51Z</time>
      </trkpt>
      <trkpt lat="46.67633" lon="6.0762">
        <ele>1062.8</ele>
        <time>2021-11-23T08:42:55Z</time>
      </trkpt>
      <trkpt lat="46.67638" lon="6.0762">
        <ele>1063.7</ele>
        <time>2021-11-23T08:42:58Z</time>
      </trkpt>
      <trkpt lat="46.67643" lon="6.0762">
        <ele>1065</ele>
        <time>2021-11-23T08:43:02Z</time>
      </trkpt>
      <trkpt lat="46.67647" lon="6.07618">
        <ele>1067</ele>
        <time>2021-11-23T08:43:09Z</time>
      </trkpt>
      <trkpt lat="46.67647" lon="6.07611">
        <ele>1068.2</ele>
        <time>2021-11-23T08:43:19Z</time>
      </trkpt>
      <trkpt lat="46.67651" lon="6.07606">
        <ele>1068.5</ele>
        <time>2021-11-23T08:43:27Z</time>
      </trkpt>
      <trkpt lat="46.67657" lon="6.07603">
        <ele>1068.8</ele>
        <time>2021-11-23T08:43:31Z</time>
      </trkpt>
      <trkpt lat="46.67661" lon="6.076">
        <ele>1069.3</ele>
        <time>2021-11-23T08:43:35Z</time>
      </trkpt>
      <trkpt lat="46.67665" lon="6.07597">
        <ele>1069.9</ele>
        <time>2021-11-23T08:43:39Z</time>
      </trkpt>
      <trkpt lat="46.67666" lon="6.07591">
        <ele>1070.9</ele>
        <time>2021-11-23T08:43:48Z</time>
      </trkpt>
      <trkpt lat="46.67672" lon="6.07591">
        <ele>1068.3</ele>
        <time>2021-11-23T08:44:08Z</time>
      </trkpt>
      <trkpt lat="46.67676" lon="6.07595">
        <ele>1067.3</ele>
        <time>2021-11-23T08:44:14Z</time>
      </trkpt>
      <trkpt lat="46.6768" lon="6.07591">
        <ele>1065.9</ele>
        <time>2021-11-23T08:44:23Z</time>
      </trkpt>
      <trkpt lat="46.67684" lon="6.07587">
        <ele>1065.4</ele>
        <time>2021-11-23T08:44:28Z</time>
      </trkpt>
      <trkpt lat="46.67689" lon="6.07583">
        <ele>1065.1</ele>
        <time>2021-11-23T08:44:34Z</time>
      </trkpt>
      <trkpt lat="46.67693" lon="6.07578">
        <ele>1065</ele>
        <time>2021-11-23T08:44:41Z</time>
      </trkpt>
      <trkpt lat="46.67697" lon="6.07573">
        <ele>1065.3</ele>
        <time>2021-11-23T08:44:47Z</time>
      </trkpt>
      <trkpt lat="46.67701" lon="6.0757">
        <ele>1065.5</ele>
        <time>2021-11-23T08:44:54Z</time>
      </trkpt>
      <trkpt lat="46.67705" lon="6.07571">
        <ele>1066.5</ele>
        <time>2021-11-23T08:45:06Z</time>
      </trkpt>
      <trkpt lat="46.67711" lon="6.0757">
        <ele>1066.8</ele>
        <time>2021-11-23T08:45:11Z</time>
      </trkpt>
      <trkpt lat="46.67716" lon="6.0757">
        <ele>1067</ele>
        <time>2021-11-23T08:45:15Z</time>
      </trkpt>
      <trkpt lat="46.6772" lon="6.0757">
        <ele>1067.4</ele>
        <time>2021-11-23T08:45:20Z</time>
      </trkpt>
      <trkpt lat="46.67725" lon="6.07571">
        <ele>1070.3</ele>
        <time>2021-11-23T08:45:36Z</time>
      </trkpt>
      <trkpt lat="46.67727" lon="6.07565">
        <ele>1072</ele>
        <time>2021-11-23T08:45:45Z</time>
      </trkpt>
      <trkpt lat="46.67728" lon="6.07558">
        <ele>1072.6</ele>
        <time>2021-11-23T08:45:50Z</time>
      </trkpt>
      <trkpt lat="46.67729" lon="6.07551">
        <ele>1072.9</ele>
        <time>2021-11-23T08:45:55Z</time>
      </trkpt>
      <trkpt lat="46.67728" lon="6.07543">
        <ele>1072.7</ele>
        <time>2021-11-23T08:46:01Z</time>
      </trkpt>
      <trkpt lat="46.67729" lon="6.07536">
        <ele>1072.4</ele>
        <time>2021-11-23T08:46:07Z</time>
      </trkpt>
      <trkpt lat="46.67728" lon="6.07529">
        <ele>1071.7</ele>
        <time>2021-11-23T08:46:13Z</time>
      </trkpt>
      <trkpt lat="46.67729" lon="6.07522">
        <ele>1071.7</ele>
        <time>2021-11-23T08:46:18Z</time>
      </trkpt>
      <trkpt lat="46.6773" lon="6.07515">
        <ele>1071.5</ele>
        <time>2021-11-23T08:46:22Z</time>
      </trkpt>
      <trkpt lat="46.6773" lon="6.07508">
        <ele>1071.5</ele>
        <time>2021-11-23T08:46:27Z</time>
      </trkpt>
      <trkpt lat="46.67726" lon="6.07503">
        <ele>1071.4</ele>
        <time>2021-11-23T08:46:36Z</time>
      </trkpt>
      <trkpt lat="46.67724" lon="6.07496">
        <ele>1071</ele>
        <time>2021-11-23T08:46:45Z</time>
      </trkpt>
      <trkpt lat="46.67725" lon="6.0749">
        <ele>1071</ele>
        <time>2021-11-23T08:46:50Z</time>
      </trkpt>
      <trkpt lat="46.67726" lon="6.07483">
        <ele>1071.2</ele>
        <time>2021-11-23T08:46:56Z</time>
      </trkpt>
      <trkpt lat="46.67726" lon="6.07475">
        <ele>1071.3</ele>
        <time>2021-11-23T08:47:01Z</time>
      </trkpt>
      <trkpt lat="46.67727" lon="6.07468">
        <ele>1071.4</ele>
        <time>2021-11-23T08:47:06Z</time>
      </trkpt>
      <trkpt lat="46.67729" lon="6.07461">
        <ele>1071.4</ele>
        <time>2021-11-23T08:47:12Z</time>
      </trkpt>
      <trkpt lat="46.6773" lon="6.07455">
        <ele>1071.3</ele>
        <time>2021-11-23T08:47:18Z</time>
      </trkpt>
      <trkpt lat="46.6773" lon="6.07448">
        <ele>1071.2</ele>
        <time>2021-11-23T08:47:24Z</time>
      </trkpt>
      <trkpt lat="46.67731" lon="6.07441">
        <ele>1071</ele>
        <time>2021-11-23T08:47:29Z</time>
      </trkpt>
      <trkpt lat="46.67732" lon="6.07435">
        <ele>1070.8</ele>
        <time>2021-11-23T08:47:36Z</time>
      </trkpt>
      <trkpt lat="46.67731" lon="6.07427">
        <ele>1071.1</ele>
        <time>2021-11-23T08:47:42Z</time>
      </trkpt>
      <trkpt lat="46.67731" lon="6.0742">
        <ele>1070.9</ele>
        <time>2021-11-23T08:47:49Z</time>
      </trkpt>
      <trkpt lat="46.67732" lon="6.07413">
        <ele>1071.2</ele>
        <time>2021-11-23T08:47:55Z</time>
      </trkpt>
      <trkpt lat="46.6773" lon="6.07407">
        <ele>1073.5</ele>
        <time>2021-11-23T08:48:08Z</time>
      </trkpt>
      <trkpt lat="46.67733" lon="6.07401">
        <ele>1073.6</ele>
        <time>2021-11-23T08:48:15Z</time>
      </trkpt>
      <trkpt lat="46.67738" lon="6.07395">
        <ele>1073.1</ele>
        <time>2021-11-23T08:48:24Z</time>
      </trkpt>
      <trkpt lat="46.67742" lon="6.07392">
        <ele>1073.7</ele>
        <time>2021-11-23T08:48:28Z</time>
      </trkpt>
      <trkpt lat="46.67747" lon="6.07388">
        <ele>1075</ele>
        <time>2021-11-23T08:48:32Z</time>
      </trkpt>
      <trkpt lat="46.67752" lon="6.07389">
        <ele>1076.4</ele>
        <time>2021-11-23T08:48:37Z</time>
      </trkpt>
      <trkpt lat="46.67757" lon="6.07388">
        <ele>1078</ele>
        <time>2021-11-23T08:48:43Z</time>
      </trkpt>
      <trkpt lat="46.67762" lon="6.07388">
        <ele>1079.1</ele>
        <time>2021-11-23T08:48:50Z</time>
      </trkpt>
      <trkpt lat="46.67767" lon="6.07387">
        <ele>1079.8</ele>
        <time>2021-11-23T08:48:59Z</time>
      </trkpt>
      <trkpt lat="46.67772" lon="6.07386">
        <ele>1080.1</ele>
        <time>2021-11-23T08:49:05Z</time>
      </trkpt>
      <trkpt lat="46.67776" lon="6.07384">
        <ele>1080.1</ele>
        <time>2021-11-23T08:49:12Z</time>
      </trkpt>
      <trkpt lat="46.67781" lon="6.07383">
        <ele>1080.1</ele>
        <time>2021-11-23T08:49:17Z</time>
      </trkpt>
      <trkpt lat="46.67786" lon="6.07382">
        <ele>1080.5</ele>
        <time>2021-11-23T08:49:22Z</time>
      </trkpt>
      <trkpt lat="46.67791" lon="6.07381">
        <ele>1080.7</ele>
        <time>2021-11-23T08:49:27Z</time>
      </trkpt>
      <trkpt lat="46.67795" lon="6.07379">
        <ele>1080.5</ele>
        <time>2021-11-23T08:49:31Z</time>
      </trkpt>
      <trkpt lat="46.678" lon="6.07378">
        <ele>1080.7</ele>
        <time>2021-11-23T08:49:35Z</time>
      </trkpt>
      <trkpt lat="46.67805" lon="6.07379">
        <ele>1081</ele>
        <time>2021-11-23T08:49:39Z</time>
      </trkpt>
      <trkpt lat="46.6781" lon="6.07377">
        <ele>1081.6</ele>
        <time>2021-11-23T08:49:43Z</time>
      </trkpt>
      <trkpt lat="46.67815" lon="6.07375">
        <ele>1083.7</ele>
        <time>2021-11-23T08:49:51Z</time>
      </trkpt>
      <trkpt lat="46.6782" lon="6.07373">
        <ele>1084.5</ele>
        <time>2021-11-23T08:49:57Z</time>
      </trkpt>
      <trkpt lat="46.67825" lon="6.07371">
        <ele>1084.7</ele>
        <time>2021-11-23T08:50:00Z</time>
      </trkpt>
      <trkpt lat="46.67829" lon="6.07369">
        <ele>1084.7</ele>
        <time>2021-11-23T08:50:03Z</time>
      </trkpt>
      <trkpt lat="46.67834" lon="6.07368">
        <ele>1085.1</ele>
        <time>2021-11-23T08:50:07Z</time>
      </trkpt>
      <trkpt lat="46.67839" lon="6.07367">
        <ele>1085.5</ele>
        <time>2021-11-23T08:50:11Z</time>
      </trkpt>
      <trkpt lat="46.67844" lon="6.07366">
        <ele>1087</ele>
        <time>2021-11-23T08:50:21Z</time>
      </trkpt>
      <trkpt lat="46.67849" lon="6.07367">
        <ele>1088.2</ele>
        <time>2021-11-23T08:50:33Z</time>
      </trkpt>
      <trkpt lat="46.67854" lon="6.07364">
        <ele>1088.2</ele>
        <time>2021-11-23T08:50:38Z</time>
      </trkpt>
      <trkpt lat="46.67858" lon="6.07361">
        <ele>1088.6</ele>
        <time>2021-11-23T08:50:43Z</time>
      </trkpt>
      <trkpt lat="46.67862" lon="6.07358">
        <ele>1088.8</ele>
        <time>2021-11-23T08:50:48Z</time>
      </trkpt>
      <trkpt lat="46.67867" lon="6.07355">
        <ele>1089</ele>
        <time>2021-11-23T08:50:54Z</time>
      </trkpt>
      <trkpt lat="46.6787" lon="6.0735">
        <ele>1088.5</ele>
        <time>2021-11-23T08:51:01Z</time>
      </trkpt>
      <trkpt lat="46.67874" lon="6.07346">
        <ele>1087.5</ele>
        <time>2021-11-23T08:51:08Z</time>
      </trkpt>
      <trkpt lat="46.67879" lon="6.07344">
        <ele>1086.5</ele>
        <time>2021-11-23T08:51:13Z</time>
      </trkpt>
      <trkpt lat="46.67883" lon="6.0734">
        <ele>1085.7</ele>
        <time>2021-11-23T08:51:18Z</time>
      </trkpt>
      <trkpt lat="46.67885" lon="6.07335">
        <ele>1084.5</ele>
        <time>2021-11-23T08:51:26Z</time>
      </trkpt>
      <trkpt lat="46.6789" lon="6.07333">
        <ele>1084</ele>
        <time>2021-11-23T08:51:30Z</time>
      </trkpt>
      <trkpt lat="46.67895" lon="6.0733">
        <ele>1083.4</ele>
        <time>2021-11-23T08:51:34Z</time>
      </trkpt>
      <trkpt lat="46.67899" lon="6.07328">
        <ele>1083.3</ele>
        <time>2021-11-23T08:51:38Z</time>
      </trkpt>
      <trkpt lat="46.67904" lon="6.07326">
        <ele>1083.3</ele>
        <time>2021-11-23T08:51:42Z</time>
      </trkpt>
      <trkpt lat="46.67909" lon="6.07324">
        <ele>1083.5</ele>
        <time>2021-11-23T08:51:47Z</time>
      </trkpt>
      <trkpt lat="46.67913" lon="6.07323">
        <ele>1083.6</ele>
        <time>2021-11-23T08:51:52Z</time>
      </trkpt>
      <trkpt lat="46.67918" lon="6.0732">
        <ele>1083.5</ele>
        <time>2021-11-23T08:51:59Z</time>
      </trkpt>
      <trkpt lat="46.67922" lon="6.07316">
        <ele>1083.1</ele>
        <time>2021-11-23T08:52:04Z</time>
      </trkpt>
      <trkpt lat="46.67925" lon="6.07312">
        <ele>1083.1</ele>
        <time>2021-11-23T08:52:09Z</time>
      </trkpt>
      <trkpt lat="46.67929" lon="6.07308">
        <ele>1083.7</ele>
        <time>2021-11-23T08:52:14Z</time>
      </trkpt>
      <trkpt lat="46.67934" lon="6.07305">
        <ele>1084.2</ele>
        <time>2021-11-23T08:52:20Z</time>
      </trkpt>
      <trkpt lat="46.67939" lon="6.07303">
        <ele>1084.4</ele>
        <time>2021-11-23T08:52:25Z</time>
      </trkpt>
      <trkpt lat="46.67944" lon="6.073">
        <ele>1084.2</ele>
        <time>2021-11-23T08:52:31Z</time>
      </trkpt>
      <trkpt lat="46.67948" lon="6.07297">
        <ele>1083.9</ele>
        <time>2021-11-23T08:52:36Z</time>
      </trkpt>
      <trkpt lat="46.67952" lon="6.07294">
        <ele>1084.1</ele>
        <time>2021-11-23T08:52:40Z</time>
      </trkpt>
      <trkpt lat="46.67957" lon="6.07292">
        <ele>1084.7</ele>
        <time>2021-11-23T08:52:45Z</time>
      </trkpt>
      <trkpt lat="46.67961" lon="6.07288">
        <ele>1085.4</ele>
        <time>2021-11-23T08:52:50Z</time>
      </trkpt>
      <trkpt lat="46.67965" lon="6.07285">
        <ele>1085.7</ele>
        <time>2021-11-23T08:52:56Z</time>
      </trkpt>
      <trkpt lat="46.6797" lon="6.07283">
        <ele>1085.7</ele>
        <time>2021-11-23T08:53:02Z</time>
      </trkpt>
      <trkpt lat="46.67974" lon="6.07279">
        <ele>1085.7</ele>
        <time>2021-11-23T08:53:07Z</time>
      </trkpt>
      <trkpt lat="46.67979" lon="6.07276">
        <ele>1085.9</ele>
        <time>2021-11-23T08:53:13Z</time>
      </trkpt>
      <trkpt lat="46.67982" lon="6.07271">
        <ele>1087.2</ele>
        <time>2021-11-23T08:53:20Z</time>
      </trkpt>
      <trkpt lat="46.67986" lon="6.07266">
        <ele>1088.5</ele>
        <time>2021-11-23T08:53:27Z</time>
      </trkpt>
      <trkpt lat="46.6799" lon="6.07264">
        <ele>1089.3</ele>
        <time>2021-11-23T08:53:32Z</time>
      </trkpt>
      <trkpt lat="46.67995" lon="6.07261">
        <ele>1089.8</ele>
        <time>2021-11-23T08:53:37Z</time>
      </trkpt>
      <trkpt lat="46.68" lon="6.07258">
        <ele>1090.3</ele>
        <time>2021-11-23T08:53:43Z</time>
      </trkpt>
      <trkpt lat="46.68005" lon="6.07255">
        <ele>1090.5</ele>
        <time>2021-11-23T08:53:51Z</time>
      </trkpt>
      <trkpt lat="46.68009" lon="6.07252">
        <ele>1090.8</ele>
        <time>2021-11-23T08:53:57Z</time>
      </trkpt>
      <trkpt lat="46.68013" lon="6.07249">
        <ele>1091.5</ele>
        <time>2021-11-23T08:54:01Z</time>
      </trkpt>
      <trkpt lat="46.68017" lon="6.07247">
        <ele>1092.9</ele>
        <time>2021-11-23T08:54:06Z</time>
      </trkpt>
      <trkpt lat="46.68022" lon="6.07244">
        <ele>1094.2</ele>
        <time>2021-11-23T08:54:11Z</time>
      </trkpt>
      <trkpt lat="46.68026" lon="6.0724">
        <ele>1095.3</ele>
        <time>2021-11-23T08:54:16Z</time>
      </trkpt>
      <trkpt lat="46.68029" lon="6.07236">
        <ele>1096.8</ele>
        <time>2021-11-23T08:54:22Z</time>
      </trkpt>
      <trkpt lat="46.68033" lon="6.07231">
        <ele>1097.3</ele>
        <time>2021-11-23T08:54:28Z</time>
      </trkpt>
      <trkpt lat="46.68037" lon="6.07226">
        <ele>1096.9</ele>
        <time>2021-11-23T08:54:34Z</time>
      </trkpt>
      <trkpt lat="46.68041" lon="6.07223">
        <ele>1096.6</ele>
        <time>2021-11-23T08:54:39Z</time>
      </trkpt>
      <trkpt lat="46.68046" lon="6.0722">
        <ele>1096.4</ele>
        <time>2021-11-23T08:54:44Z</time>
      </trkpt>
      <trkpt lat="46.6805" lon="6.07217">
        <ele>1096.4</ele>
        <time>2021-11-23T08:54:48Z</time>
      </trkpt>
      <trkpt lat="46.68055" lon="6.07215">
        <ele>1096.6</ele>
        <time>2021-11-23T08:54:54Z</time>
      </trkpt>
      <trkpt lat="46.6806" lon="6.07215">
        <ele>1097.4</ele>
        <time>2021-11-23T08:55:19Z</time>
      </trkpt>
      <trkpt lat="46.68064" lon="6.07211">
        <ele>1098.7</ele>
        <time>2021-11-23T08:55:24Z</time>
      </trkpt>
      <trkpt lat="46.68064" lon="6.07203">
        <ele>1101.1</ele>
        <time>2021-11-23T08:55:32Z</time>
      </trkpt>
      <trkpt lat="46.68065" lon="6.07197">
        <ele>1102.7</ele>
        <time>2021-11-23T08:55:38Z</time>
      </trkpt>
      <trkpt lat="46.68067" lon="6.0719">
        <ele>1104</ele>
        <time>2021-11-23T08:55:46Z</time>
      </trkpt>
      <trkpt lat="46.6807" lon="6.07183">
        <ele>1105.3</ele>
        <time>2021-11-23T08:55:53Z</time>
      </trkpt>
      <trkpt lat="46.68073" lon="6.07178">
        <ele>1106.6</ele>
        <time>2021-11-23T08:56:00Z</time>
      </trkpt>
      <trkpt lat="46.68076" lon="6.07173">
        <ele>1107.5</ele>
        <time>2021-11-23T08:56:06Z</time>
      </trkpt>
      <trkpt lat="46.6808" lon="6.07168">
        <ele>1108.2</ele>
        <time>2021-11-23T08:56:13Z</time>
      </trkpt>
      <trkpt lat="46.68084" lon="6.07165">
        <ele>1108.7</ele>
        <time>2021-11-23T08:56:19Z</time>
      </trkpt>
      <trkpt lat="46.68089" lon="6.07162">
        <ele>1108.9</ele>
        <time>2021-11-23T08:56:26Z</time>
      </trkpt>
      <trkpt lat="46.68093" lon="6.07159">
        <ele>1109.2</ele>
        <time>2021-11-23T08:56:33Z</time>
      </trkpt>
      <trkpt lat="46.68098" lon="6.07157">
        <ele>1111.1</ele>
        <time>2021-11-23T08:56:41Z</time>
      </trkpt>
      <trkpt lat="46.68103" lon="6.07156">
        <ele>1112.8</ele>
        <time>2021-11-23T08:56:48Z</time>
      </trkpt>
      <trkpt lat="46.6811" lon="6.07156">
        <ele>1112.2</ele>
        <time>2021-11-23T08:57:45Z</time>
      </trkpt>
      <trkpt lat="46.68113" lon="6.0716">
        <ele>1110.5</ele>
        <time>2021-11-23T08:57:50Z</time>
      </trkpt>
      <trkpt lat="46.6811" lon="6.07165">
        <ele>1108.6</ele>
        <time>2021-11-23T08:58:12Z</time>
      </trkpt>
      <trkpt lat="46.68113" lon="6.07171">
        <ele>1108.2</ele>
        <time>2021-11-23T08:58:23Z</time>
      </trkpt>
      <trkpt lat="46.68115" lon="6.07176">
        <ele>1108.2</ele>
        <time>2021-11-23T08:58:28Z</time>
      </trkpt>
      <trkpt lat="46.68116" lon="6.07184">
        <ele>1107.8</ele>
        <time>2021-11-23T08:58:35Z</time>
      </trkpt>
      <trkpt lat="46.68117" lon="6.07191">
        <ele>1107.9</ele>
        <time>2021-11-23T08:58:42Z</time>
      </trkpt>
      <trkpt lat="46.6812" lon="6.07197">
        <ele>1107.2</ele>
        <time>2021-11-23T08:58:49Z</time>
      </trkpt>
      <trkpt lat="46.68122" lon="6.07204">
        <ele>1106.6</ele>
        <time>2021-11-23T08:58:54Z</time>
      </trkpt>
      <trkpt lat="46.68123" lon="6.07211">
        <ele>1104.9</ele>
        <time>2021-11-23T08:59:00Z</time>
      </trkpt>
      <trkpt lat="46.68124" lon="6.07219">
        <ele>1102.5</ele>
        <time>2021-11-23T08:59:07Z</time>
      </trkpt>
      <trkpt lat="46.68124" lon="6.07226">
        <ele>1101.4</ele>
        <time>2021-11-23T08:59:12Z</time>
      </trkpt>
      <trkpt lat="46.68124" lon="6.07233">
        <ele>1101.2</ele>
        <time>2021-11-23T08:59:18Z</time>
      </trkpt>
      <trkpt lat="46.68124" lon="6.0724">
        <ele>1102</ele>
        <time>2021-11-23T08:59:23Z</time>
      </trkpt>
      <trkpt lat="46.68124" lon="6.07248">
        <ele>1102.7</ele>
        <time>2021-11-23T08:59:28Z</time>
      </trkpt>
      <trkpt lat="46.68125" lon="6.07255">
        <ele>1103.2</ele>
        <time>2021-11-23T08:59:33Z</time>
      </trkpt>
      <trkpt lat="46.68124" lon="6.07262">
        <ele>1103.7</ele>
        <time>2021-11-23T08:59:38Z</time>
      </trkpt>
      <trkpt lat="46.68124" lon="6.07269">
        <ele>1104.3</ele>
        <time>2021-11-23T08:59:44Z</time>
      </trkpt>
      <trkpt lat="46.68121" lon="6.07275">
        <ele>1104.4</ele>
        <time>2021-11-23T08:59:50Z</time>
      </trkpt>
      <trkpt lat="46.68119" lon="6.07281">
        <ele>1104.1</ele>
        <time>2021-11-23T08:59:56Z</time>
      </trkpt>
      <trkpt lat="46.68116" lon="6.07287">
        <ele>1104.2</ele>
        <time>2021-11-23T09:00:01Z</time>
      </trkpt>
      <trkpt lat="46.68114" lon="6.07293">
        <ele>1104.4</ele>
        <time>2021-11-23T09:00:05Z</time>
      </trkpt>
      <trkpt lat="46.68112" lon="6.07299">
        <ele>1104.6</ele>
        <time>2021-11-23T09:00:09Z</time>
      </trkpt>
      <trkpt lat="46.68109" lon="6.07306">
        <ele>1104.3</ele>
        <time>2021-11-23T09:00:14Z</time>
      </trkpt>
      <trkpt lat="46.68106" lon="6.07312">
        <ele>1103.4</ele>
        <time>2021-11-23T09:00:20Z</time>
      </trkpt>
      <trkpt lat="46.68104" lon="6.07318">
        <ele>1102.8</ele>
        <time>2021-11-23T09:00:25Z</time>
      </trkpt>
      <trkpt lat="46.68101" lon="6.07323">
        <ele>1102.6</ele>
        <time>2021-11-23T09:00:29Z</time>
      </trkpt>
      <trkpt lat="46.68099" lon="6.0733">
        <ele>1102.4</ele>
        <time>2021-11-23T09:00:33Z</time>
      </trkpt>
      <trkpt lat="46.68096" lon="6.07335">
        <ele>1102.1</ele>
        <time>2021-11-23T09:00:38Z</time>
      </trkpt>
      <trkpt lat="46.68093" lon="6.07341">
        <ele>1102</ele>
        <time>2021-11-23T09:00:43Z</time>
      </trkpt>
      <trkpt lat="46.68089" lon="6.07347">
        <ele>1102</ele>
        <time>2021-11-23T09:00:48Z</time>
      </trkpt>
      <trkpt lat="46.68087" lon="6.07353">
        <ele>1101.7</ele>
        <time>2021-11-23T09:00:53Z</time>
      </trkpt>
      <trkpt lat="46.68085" lon="6.0736">
        <ele>1101.9</ele>
        <time>2021-11-23T09:00:58Z</time>
      </trkpt>
      <trkpt lat="46.68084" lon="6.07367">
        <ele>1101.8</ele>
        <time>2021-11-23T09:01:03Z</time>
      </trkpt>
      <trkpt lat="46.68083" lon="6.07375">
        <ele>1101.3</ele>
        <time>2021-11-23T09:01:08Z</time>
      </trkpt>
      <trkpt lat="46.68081" lon="6.07381">
        <ele>1101.3</ele>
        <time>2021-11-23T09:01:12Z</time>
      </trkpt>
      <trkpt lat="46.68078" lon="6.07386">
        <ele>1101.2</ele>
        <time>2021-11-23T09:01:17Z</time>
      </trkpt>
      <trkpt lat="46.68076" lon="6.07392">
        <ele>1100.9</ele>
        <time>2021-11-23T09:01:22Z</time>
      </trkpt>
      <trkpt lat="46.68074" lon="6.07399">
        <ele>1101.1</ele>
        <time>2021-11-23T09:01:27Z</time>
      </trkpt>
      <trkpt lat="46.68071" lon="6.07405">
        <ele>1102.2</ele>
        <time>2021-11-23T09:01:31Z</time>
      </trkpt>
      <trkpt lat="46.68068" lon="6.07411">
        <ele>1103.8</ele>
        <time>2021-11-23T09:01:36Z</time>
      </trkpt>
      <trkpt lat="46.68064" lon="6.07417">
        <ele>1104.2</ele>
        <time>2021-11-23T09:01:41Z</time>
      </trkpt>
      <trkpt lat="46.68061" lon="6.07423">
        <ele>1104.1</ele>
        <time>2021-11-23T09:01:45Z</time>
      </trkpt>
      <trkpt lat="46.68058" lon="6.0743">
        <ele>1103.4</ele>
        <time>2021-11-23T09:01:50Z</time>
      </trkpt>
      <trkpt lat="46.68055" lon="6.07435">
        <ele>1102.2</ele>
        <time>2021-11-23T09:01:54Z</time>
      </trkpt>
      <trkpt lat="46.68052" lon="6.07441">
        <ele>1100.9</ele>
        <time>2021-11-23T09:01:59Z</time>
      </trkpt>
      <trkpt lat="46.68049" lon="6.07447">
        <ele>1099.8</ele>
        <time>2021-11-23T09:02:04Z</time>
      </trkpt>
      <trkpt lat="46.68045" lon="6.07452">
        <ele>1099.5</ele>
        <time>2021-11-23T09:02:09Z</time>
      </trkpt>
      <trkpt lat="46.68041" lon="6.07457">
        <ele>1099.6</ele>
        <time>2021-11-23T09:02:14Z</time>
      </trkpt>
      <trkpt lat="46.68038" lon="6.07462">
        <ele>1099.9</ele>
        <time>2021-11-23T09:02:19Z</time>
      </trkpt>
      <trkpt lat="46.68034" lon="6.07467">
        <ele>1100.1</ele>
        <time>2021-11-23T09:02:24Z</time>
      </trkpt>
      <trkpt lat="46.6803" lon="6.07472">
        <ele>1100.3</ele>
        <time>2021-11-23T09:02:30Z</time>
      </trkpt>
      <trkpt lat="46.68025" lon="6.07476">
        <ele>1100.1</ele>
        <time>2021-11-23T09:02:35Z</time>
      </trkpt>
      <trkpt lat="46.68021" lon="6.07479">
        <ele>1100.4</ele>
        <time>2021-11-23T09:02:41Z</time>
      </trkpt>
      <trkpt lat="46.68017" lon="6.07482">
        <ele>1100.7</ele>
        <time>2021-11-23T09:02:45Z</time>
      </trkpt>
      <trkpt lat="46.68012" lon="6.07486">
        <ele>1100.9</ele>
        <time>2021-11-23T09:02:50Z</time>
      </trkpt>
      <trkpt lat="46.68008" lon="6.0749">
        <ele>1101.6</ele>
        <time>2021-11-23T09:02:55Z</time>
      </trkpt>
      <trkpt lat="46.68003" lon="6.07493">
        <ele>1102.2</ele>
        <time>2021-11-23T09:03:00Z</time>
      </trkpt>
      <trkpt lat="46.67999" lon="6.07495">
        <ele>1102.6</ele>
        <time>2021-11-23T09:03:04Z</time>
      </trkpt>
      <trkpt lat="46.67994" lon="6.07498">
        <ele>1103.2</ele>
        <time>2021-11-23T09:03:09Z</time>
      </trkpt>
      <trkpt lat="46.67991" lon="6.07502">
        <ele>1103.8</ele>
        <time>2021-11-23T09:03:14Z</time>
      </trkpt>
      <trkpt lat="46.67986" lon="6.07506">
        <ele>1103.8</ele>
        <time>2021-11-23T09:03:19Z</time>
      </trkpt>
      <trkpt lat="46.67982" lon="6.07511">
        <ele>1103.2</ele>
        <time>2021-11-23T09:03:24Z</time>
      </trkpt>
      <trkpt lat="46.67978" lon="6.07516">
        <ele>1102.6</ele>
        <time>2021-11-23T09:03:29Z</time>
      </trkpt>
      <trkpt lat="46.67973" lon="6.0752">
        <ele>1102.1</ele>
        <time>2021-11-23T09:03:34Z</time>
      </trkpt>
      <trkpt lat="46.67969" lon="6.07524">
        <ele>1101.8</ele>
        <time>2021-11-23T09:03:41Z</time>
      </trkpt>
      <trkpt lat="46.67965" lon="6.07527">
        <ele>1101.5</ele>
        <time>2021-11-23T09:03:46Z</time>
      </trkpt>
      <trkpt lat="46.6796" lon="6.07531">
        <ele>1100.6</ele>
        <time>2021-11-23T09:03:53Z</time>
      </trkpt>
      <trkpt lat="46.67955" lon="6.07533">
        <ele>1100.1</ele>
        <time>2021-11-23T09:03:58Z</time>
      </trkpt>
      <trkpt lat="46.6795" lon="6.07535">
        <ele>1099.6</ele>
        <time>2021-11-23T09:04:02Z</time>
      </trkpt>
      <trkpt lat="46.67945" lon="6.07536">
        <ele>1098.9</ele>
        <time>2021-11-23T09:04:06Z</time>
      </trkpt>
      <trkpt lat="46.67941" lon="6.0754">
        <ele>1097.4</ele>
        <time>2021-11-23T09:04:12Z</time>
      </trkpt>
      <trkpt lat="46.67938" lon="6.07545">
        <ele>1095.6</ele>
        <time>2021-11-23T09:04:18Z</time>
      </trkpt>
      <trkpt lat="46.67933" lon="6.07549">
        <ele>1094.3</ele>
        <time>2021-11-23T09:04:23Z</time>
      </trkpt>
      <trkpt lat="46.67929" lon="6.07553">
        <ele>1093.8</ele>
        <time>2021-11-23T09:04:26Z</time>
      </trkpt>
      <trkpt lat="46.67924" lon="6.07557">
        <ele>1093.5</ele>
        <time>2021-11-23T09:04:30Z</time>
      </trkpt>
      <trkpt lat="46.6792" lon="6.07561">
        <ele>1093.6</ele>
        <time>2021-11-23T09:04:35Z</time>
      </trkpt>
      <trkpt lat="46.67918" lon="6.07567">
        <ele>1094.4</ele>
        <time>2021-11-23T09:04:39Z</time>
      </trkpt>
      <trkpt lat="46.67915" lon="6.07574">
        <ele>1095</ele>
        <time>2021-11-23T09:04:43Z</time>
      </trkpt>
      <trkpt lat="46.67913" lon="6.07581">
        <ele>1095.2</ele>
        <time>2021-11-23T09:04:47Z</time>
      </trkpt>
      <trkpt lat="46.67911" lon="6.07587">
        <ele>1095.1</ele>
        <time>2021-11-23T09:04:51Z</time>
      </trkpt>
      <trkpt lat="46.6791" lon="6.07594">
        <ele>1094.8</ele>
        <time>2021-11-23T09:04:56Z</time>
      </trkpt>
      <trkpt lat="46.67909" lon="6.07602">
        <ele>1094.2</ele>
        <time>2021-11-23T09:05:02Z</time>
      </trkpt>
      <trkpt lat="46.67909" lon="6.07609">
        <ele>1093.5</ele>
        <time>2021-11-23T09:05:07Z</time>
      </trkpt>
      <trkpt lat="46.6791" lon="6.07617">
        <ele>1092.5</ele>
        <time>2021-11-23T09:05:13Z</time>
      </trkpt>
      <trkpt lat="46.67909" lon="6.07624">
        <ele>1091.4</ele>
        <time>2021-11-23T09:05:18Z</time>
      </trkpt>
      <trkpt lat="46.67909" lon="6.07631">
        <ele>1090.2</ele>
        <time>2021-11-23T09:05:23Z</time>
      </trkpt>
      <trkpt lat="46.67908" lon="6.07638">
        <ele>1089.6</ele>
        <time>2021-11-23T09:05:28Z</time>
      </trkpt>
      <trkpt lat="46.67907" lon="6.07645">
        <ele>1089.8</ele>
        <time>2021-11-23T09:05:33Z</time>
      </trkpt>
      <trkpt lat="46.67906" lon="6.07653">
        <ele>1090.4</ele>
        <time>2021-11-23T09:05:38Z</time>
      </trkpt>
      <trkpt lat="46.67905" lon="6.0766">
        <ele>1091</ele>
        <time>2021-11-23T09:05:43Z</time>
      </trkpt>
      <trkpt lat="46.67903" lon="6.07666">
        <ele>1090.7</ele>
        <time>2021-11-23T09:05:48Z</time>
      </trkpt>
      <trkpt lat="46.67902" lon="6.07674">
        <ele>1090.1</ele>
        <time>2021-11-23T09:05:53Z</time>
      </trkpt>
      <trkpt lat="46.67902" lon="6.07682">
        <ele>1089.7</ele>
        <time>2021-11-23T09:05:57Z</time>
      </trkpt>
      <trkpt lat="46.67902" lon="6.07689">
        <ele>1089.4</ele>
        <time>2021-11-23T09:06:01Z</time>
      </trkpt>
      <trkpt lat="46.67902" lon="6.07696">
        <ele>1089.5</ele>
        <time>2021-11-23T09:06:05Z</time>
      </trkpt>
      <trkpt lat="46.67903" lon="6.07703">
        <ele>1089.7</ele>
        <time>2021-11-23T09:06:10Z</time>
      </trkpt>
      <trkpt lat="46.67904" lon="6.0771">
        <ele>1089.6</ele>
        <time>2021-11-23T09:06:15Z</time>
      </trkpt>
      <trkpt lat="46.67904" lon="6.07717">
        <ele>1088.9</ele>
        <time>2021-11-23T09:06:22Z</time>
      </trkpt>
      <trkpt lat="46.67906" lon="6.07724">
        <ele>1087.5</ele>
        <time>2021-11-23T09:06:28Z</time>
      </trkpt>
      <trkpt lat="46.67905" lon="6.07732">
        <ele>1085.8</ele>
        <time>2021-11-23T09:06:33Z</time>
      </trkpt>
      <trkpt lat="46.67907" lon="6.07739">
        <ele>1084.8</ele>
        <time>2021-11-23T09:06:38Z</time>
      </trkpt>
      <trkpt lat="46.67908" lon="6.07746">
        <ele>1083.9</ele>
        <time>2021-11-23T09:06:42Z</time>
      </trkpt>
      <trkpt lat="46.67907" lon="6.07754">
        <ele>1082.4</ele>
        <time>2021-11-23T09:06:47Z</time>
      </trkpt>
      <trkpt lat="46.67906" lon="6.0776">
        <ele>1081.5</ele>
        <time>2021-11-23T09:06:51Z</time>
      </trkpt>
      <trkpt lat="46.67905" lon="6.07768">
        <ele>1081.1</ele>
        <time>2021-11-23T09:06:55Z</time>
      </trkpt>
      <trkpt lat="46.67904" lon="6.07776">
        <ele>1081.7</ele>
        <time>2021-11-23T09:06:59Z</time>
      </trkpt>
      <trkpt lat="46.67903" lon="6.07784">
        <ele>1083.3</ele>
        <time>2021-11-23T09:07:03Z</time>
      </trkpt>
      <trkpt lat="46.67901" lon="6.0779">
        <ele>1085.2</ele>
        <time>2021-11-23T09:07:07Z</time>
      </trkpt>
      <trkpt lat="46.679" lon="6.07797">
        <ele>1087</ele>
        <time>2021-11-23T09:07:13Z</time>
      </trkpt>
      <trkpt lat="46.679" lon="6.07804">
        <ele>1088</ele>
        <time>2021-11-23T09:07:17Z</time>
      </trkpt>
      <trkpt lat="46.67902" lon="6.07811">
        <ele>1089.2</ele>
        <time>2021-11-23T09:07:23Z</time>
      </trkpt>
      <trkpt lat="46.67906" lon="6.07816">
        <ele>1089.6</ele>
        <time>2021-11-23T09:07:28Z</time>
      </trkpt>
      <trkpt lat="46.6791" lon="6.0782">
        <ele>1089.8</ele>
        <time>2021-11-23T09:07:34Z</time>
      </trkpt>
      <trkpt lat="46.67915" lon="6.07822">
        <ele>1089.6</ele>
        <time>2021-11-23T09:07:43Z</time>
      </trkpt>
      <trkpt lat="46.6792" lon="6.07825">
        <ele>1089.3</ele>
        <time>2021-11-23T09:07:48Z</time>
      </trkpt>
      <trkpt lat="46.67925" lon="6.07828">
        <ele>1089.3</ele>
        <time>2021-11-23T09:07:51Z</time>
      </trkpt>
      <trkpt lat="46.67929" lon="6.07831">
        <ele>1088.9</ele>
        <time>2021-11-23T09:07:56Z</time>
      </trkpt>
      <trkpt lat="46.67933" lon="6.07835">
        <ele>1086.2</ele>
        <time>2021-11-23T09:08:03Z</time>
      </trkpt>
      <trkpt lat="46.67938" lon="6.07838">
        <ele>1084.1</ele>
        <time>2021-11-23T09:08:07Z</time>
      </trkpt>
      <trkpt lat="46.67942" lon="6.07843">
        <ele>1081.7</ele>
        <time>2021-11-23T09:08:12Z</time>
      </trkpt>
      <trkpt lat="46.67947" lon="6.07847">
        <ele>1080.1</ele>
        <time>2021-11-23T09:08:16Z</time>
      </trkpt>
      <trkpt lat="46.67952" lon="6.0785">
        <ele>1078.4</ele>
        <time>2021-11-23T09:08:21Z</time>
      </trkpt>
      <trkpt lat="46.67956" lon="6.07852">
        <ele>1077.9</ele>
        <time>2021-11-23T09:08:25Z</time>
      </trkpt>
      <trkpt lat="46.67961" lon="6.07857">
        <ele>1078</ele>
        <time>2021-11-23T09:08:30Z</time>
      </trkpt>
      <trkpt lat="46.67965" lon="6.07861">
        <ele>1077.9</ele>
        <time>2021-11-23T09:08:35Z</time>
      </trkpt>
      <trkpt lat="46.67969" lon="6.07864">
        <ele>1077.7</ele>
        <time>2021-11-23T09:08:40Z</time>
      </trkpt>
      <trkpt lat="46.67973" lon="6.07867">
        <ele>1077.4</ele>
        <time>2021-11-23T09:08:46Z</time>
      </trkpt>
      <trkpt lat="46.67977" lon="6.07871">
        <ele>1076.8</ele>
        <time>2021-11-23T09:08:51Z</time>
      </trkpt>
      <trkpt lat="46.67982" lon="6.07873">
        <ele>1076.4</ele>
        <time>2021-11-23T09:08:55Z</time>
      </trkpt>
      <trkpt lat="46.67987" lon="6.07877">
        <ele>1076.4</ele>
        <time>2021-11-23T09:09:00Z</time>
      </trkpt>
      <trkpt lat="46.67991" lon="6.07879">
        <ele>1076.8</ele>
        <time>2021-11-23T09:09:04Z</time>
      </trkpt>
      <trkpt lat="46.67996" lon="6.07881">
        <ele>1077.1</ele>
        <time>2021-11-23T09:09:08Z</time>
      </trkpt>
      <trkpt lat="46.68001" lon="6.07883">
        <ele>1077.4</ele>
        <time>2021-11-23T09:09:12Z</time>
      </trkpt>
      <trkpt lat="46.68006" lon="6.07886">
        <ele>1077.4</ele>
        <time>2021-11-23T09:09:17Z</time>
      </trkpt>
      <trkpt lat="46.68009" lon="6.07891">
        <ele>1077.3</ele>
        <time>2021-11-23T09:09:23Z</time>
      </trkpt>
      <trkpt lat="46.68014" lon="6.07896">
        <ele>1077.5</ele>
        <time>2021-11-23T09:09:29Z</time>
      </trkpt>
      <trkpt lat="46.68018" lon="6.07899">
        <ele>1077.6</ele>
        <time>2021-11-23T09:09:34Z</time>
      </trkpt>
      <trkpt lat="46.68023" lon="6.07902">
        <ele>1077.9</ele>
        <time>2021-11-23T09:09:39Z</time>
      </trkpt>
      <trkpt lat="46.68028" lon="6.07904">
        <ele>1078.3</ele>
        <time>2021-11-23T09:09:44Z</time>
      </trkpt>
      <trkpt lat="46.68033" lon="6.07908">
        <ele>1078.6</ele>
        <time>2021-11-23T09:09:49Z</time>
      </trkpt>
      <trkpt lat="46.68038" lon="6.0791">
        <ele>1078.4</ele>
        <time>2021-11-23T09:09:53Z</time>
      </trkpt>
      <trkpt lat="46.68043" lon="6.07912">
        <ele>1078.5</ele>
        <time>2021-11-23T09:09:58Z</time>
      </trkpt>
      <trkpt lat="46.68048" lon="6.07914">
        <ele>1078.5</ele>
        <time>2021-11-23T09:10:03Z</time>
      </trkpt>
      <trkpt lat="46.68052" lon="6.07917">
        <ele>1078.4</ele>
        <time>2021-11-23T09:10:08Z</time>
      </trkpt>
      <trkpt lat="46.68057" lon="6.0792">
        <ele>1078.3</ele>
        <time>2021-11-23T09:10:13Z</time>
      </trkpt>
      <trkpt lat="46.68061" lon="6.07924">
        <ele>1078.4</ele>
        <time>2021-11-23T09:10:18Z</time>
      </trkpt>
      <trkpt lat="46.68066" lon="6.07927">
        <ele>1078.4</ele>
        <time>2021-11-23T09:10:22Z</time>
      </trkpt>
      <trkpt lat="46.6807" lon="6.0793">
        <ele>1078.4</ele>
        <time>2021-11-23T09:10:26Z</time>
      </trkpt>
      <trkpt lat="46.68074" lon="6.07934">
        <ele>1078.3</ele>
        <time>2021-11-23T09:10:31Z</time>
      </trkpt>
      <trkpt lat="46.68079" lon="6.07937">
        <ele>1078.1</ele>
        <time>2021-11-23T09:10:36Z</time>
      </trkpt>
      <trkpt lat="46.68083" lon="6.0794">
        <ele>1078.1</ele>
        <time>2021-11-23T09:10:40Z</time>
      </trkpt>
      <trkpt lat="46.68087" lon="6.07943">
        <ele>1077.7</ele>
        <time>2021-11-23T09:10:44Z</time>
      </trkpt>
      <trkpt lat="46.68091" lon="6.07947">
        <ele>1077.7</ele>
        <time>2021-11-23T09:10:49Z</time>
      </trkpt>
      <trkpt lat="46.68095" lon="6.07952">
        <ele>1078.2</ele>
        <time>2021-11-23T09:10:54Z</time>
      </trkpt>
      <trkpt lat="46.68099" lon="6.07957">
        <ele>1078.1</ele>
        <time>2021-11-23T09:10:58Z</time>
      </trkpt>
      <trkpt lat="46.68103" lon="6.07961">
        <ele>1077.8</ele>
        <time>2021-11-23T09:11:02Z</time>
      </trkpt>
      <trkpt lat="46.68107" lon="6.07964">
        <ele>1077.7</ele>
        <time>2021-11-23T09:11:06Z</time>
      </trkpt>
      <trkpt lat="46.68112" lon="6.07968">
        <ele>1078</ele>
        <time>2021-11-23T09:11:10Z</time>
      </trkpt>
      <trkpt lat="46.68116" lon="6.07972">
        <ele>1078.2</ele>
        <time>2021-11-23T09:11:15Z</time>
      </trkpt>
      <trkpt lat="46.6812" lon="6.07976">
        <ele>1078.3</ele>
        <time>2021-11-23T09:11:19Z</time>
      </trkpt>
      <trkpt lat="46.68124" lon="6.0798">
        <ele>1078.4</ele>
        <time>2021-11-23T09:11:24Z</time>
      </trkpt>
      <trkpt lat="46.68128" lon="6.07985">
        <ele>1078.7</ele>
        <time>2021-11-23T09:11:29Z</time>
      </trkpt>
      <trkpt lat="46.68132" lon="6.07988">
        <ele>1078.7</ele>
        <time>2021-11-23T09:11:33Z</time>
      </trkpt>
      <trkpt lat="46.68136" lon="6.07992">
        <ele>1078.1</ele>
        <time>2021-11-23T09:11:38Z</time>
      </trkpt>
      <trkpt lat="46.6814" lon="6.07998">
        <ele>1077.2</ele>
        <time>2021-11-23T09:11:43Z</time>
      </trkpt>
      <trkpt lat="46.68143" lon="6.08003">
        <ele>1076</ele>
        <time>2021-11-23T09:11:48Z</time>
      </trkpt>
      <trkpt lat="46.68147" lon="6.08008">
        <ele>1074.6</ele>
        <time>2021-11-23T09:11:54Z</time>
      </trkpt>
      <trkpt lat="46.68149" lon="6.08014">
        <ele>1073.6</ele>
        <time>2021-11-23T09:11:59Z</time>
      </trkpt>
      <trkpt lat="46.6815" lon="6.08021">
        <ele>1073</ele>
        <time>2021-11-23T09:12:03Z</time>
      </trkpt>
      <trkpt lat="46.68153" lon="6.08028">
        <ele>1072.1</ele>
        <time>2021-11-23T09:12:07Z</time>
      </trkpt>
      <trkpt lat="46.68155" lon="6.08034">
        <ele>1071</ele>
        <time>2021-11-23T09:12:11Z</time>
      </trkpt>
      <trkpt lat="46.68155" lon="6.08041">
        <ele>1071.4</ele>
        <time>2021-11-23T09:12:17Z</time>
      </trkpt>
      <trkpt lat="46.68156" lon="6.08048">
        <ele>1071.9</ele>
        <time>2021-11-23T09:12:23Z</time>
      </trkpt>
      <trkpt lat="46.68158" lon="6.08054">
        <ele>1072</ele>
        <time>2021-11-23T09:12:28Z</time>
      </trkpt>
      <trkpt lat="46.68161" lon="6.0806">
        <ele>1072.4</ele>
        <time>2021-11-23T09:12:33Z</time>
      </trkpt>
      <trkpt lat="46.68164" lon="6.08065">
        <ele>1073.1</ele>
        <time>2021-11-23T09:12:39Z</time>
      </trkpt>
      <trkpt lat="46.68168" lon="6.08071">
        <ele>1074.1</ele>
        <time>2021-11-23T09:12:44Z</time>
      </trkpt>
      <trkpt lat="46.68171" lon="6.08075">
        <ele>1075.3</ele>
        <time>2021-11-23T09:12:48Z</time>
      </trkpt>
      <trkpt lat="46.68175" lon="6.08081">
        <ele>1076.8</ele>
        <time>2021-11-23T09:12:53Z</time>
      </trkpt>
      <trkpt lat="46.68179" lon="6.08086">
        <ele>1077.5</ele>
        <time>2021-11-23T09:12:57Z</time>
      </trkpt>
      <trkpt lat="46.68182" lon="6.0809">
        <ele>1077.8</ele>
        <time>2021-11-23T09:13:01Z</time>
      </trkpt>
      <trkpt lat="46.68186" lon="6.08095">
        <ele>1077.8</ele>
        <time>2021-11-23T09:13:05Z</time>
      </trkpt>
      <trkpt lat="46.6819" lon="6.08101">
        <ele>1077.6</ele>
        <time>2021-11-23T09:13:10Z</time>
      </trkpt>
      <trkpt lat="46.68194" lon="6.08105">
        <ele>1077.9</ele>
        <time>2021-11-23T09:13:15Z</time>
      </trkpt>
      <trkpt lat="46.68197" lon="6.0811">
        <ele>1078.1</ele>
        <time>2021-11-23T09:13:21Z</time>
      </trkpt>
      <trkpt lat="46.68201" lon="6.08115">
        <ele>1078.4</ele>
        <time>2021-11-23T09:13:28Z</time>
      </trkpt>
      <trkpt lat="46.68206" lon="6.0812">
        <ele>1078.9</ele>
        <time>2021-11-23T09:13:33Z</time>
      </trkpt>
      <trkpt lat="46.68209" lon="6.08125">
        <ele>1078.8</ele>
        <time>2021-11-23T09:13:37Z</time>
      </trkpt>
      <trkpt lat="46.68213" lon="6.0813">
        <ele>1078.2</ele>
        <time>2021-11-23T09:13:42Z</time>
      </trkpt>
      <trkpt lat="46.68217" lon="6.08135">
        <ele>1077.4</ele>
        <time>2021-11-23T09:13:47Z</time>
      </trkpt>
      <trkpt lat="46.6822" lon="6.0814">
        <ele>1077.2</ele>
        <time>2021-11-23T09:13:51Z</time>
      </trkpt>
      <trkpt lat="46.68223" lon="6.08146">
        <ele>1077.3</ele>
        <time>2021-11-23T09:13:56Z</time>
      </trkpt>
      <trkpt lat="46.68226" lon="6.08152">
        <ele>1077.2</ele>
        <time>2021-11-23T09:14:00Z</time>
      </trkpt>
      <trkpt lat="46.6823" lon="6.08155">
        <ele>1077</ele>
        <time>2021-11-23T09:14:04Z</time>
      </trkpt>
      <trkpt lat="46.68234" lon="6.0816">
        <ele>1076.6</ele>
        <time>2021-11-23T09:14:09Z</time>
      </trkpt>
      <trkpt lat="46.68239" lon="6.08163">
        <ele>1075.9</ele>
        <time>2021-11-23T09:14:13Z</time>
      </trkpt>
      <trkpt lat="46.68244" lon="6.08167">
        <ele>1074.9</ele>
        <time>2021-11-23T09:14:17Z</time>
      </trkpt>
      <trkpt lat="46.68248" lon="6.08172">
        <ele>1073.4</ele>
        <time>2021-11-23T09:14:22Z</time>
      </trkpt>
      <trkpt lat="46.68252" lon="6.08176">
        <ele>1072.1</ele>
        <time>2021-11-23T09:14:28Z</time>
      </trkpt>
      <trkpt lat="46.68256" lon="6.0818">
        <ele>1071.3</ele>
        <time>2021-11-23T09:14:33Z</time>
      </trkpt>
      <trkpt lat="46.6826" lon="6.08183">
        <ele>1070.2</ele>
        <time>2021-11-23T09:14:40Z</time>
      </trkpt>
      <trkpt lat="46.68265" lon="6.08187">
        <ele>1069.2</ele>
        <time>2021-11-23T09:14:47Z</time>
      </trkpt>
      <trkpt lat="46.68268" lon="6.08192">
        <ele>1068.6</ele>
        <time>2021-11-23T09:14:51Z</time>
      </trkpt>
      <trkpt lat="46.68272" lon="6.08198">
        <ele>1068.1</ele>
        <time>2021-11-23T09:14:55Z</time>
      </trkpt>
      <trkpt lat="46.68276" lon="6.08203">
        <ele>1067.8</ele>
        <time>2021-11-23T09:15:00Z</time>
      </trkpt>
      <trkpt lat="46.68278" lon="6.08209">
        <ele>1067</ele>
        <time>2021-11-23T09:15:07Z</time>
      </trkpt>
      <trkpt lat="46.6828" lon="6.08218">
        <ele>1064.9</ele>
        <time>2021-11-23T09:15:16Z</time>
      </trkpt>
      <trkpt lat="46.68281" lon="6.08225">
        <ele>1064.9</ele>
        <time>2021-11-23T09:15:21Z</time>
      </trkpt>
      <trkpt lat="46.68283" lon="6.08232">
        <ele>1066.4</ele>
        <time>2021-11-23T09:15:27Z</time>
      </trkpt>
      <trkpt lat="46.68285" lon="6.08238">
        <ele>1068.4</ele>
        <time>2021-11-23T09:15:31Z</time>
      </trkpt>
      <trkpt lat="46.68287" lon="6.08245">
        <ele>1069.7</ele>
        <time>2021-11-23T09:15:37Z</time>
      </trkpt>
      <trkpt lat="46.68291" lon="6.08249">
        <ele>1069.7</ele>
        <time>2021-11-23T09:15:41Z</time>
      </trkpt>
      <trkpt lat="46.68294" lon="6.08256">
        <ele>1069.1</ele>
        <time>2021-11-23T09:15:47Z</time>
      </trkpt>
      <trkpt lat="46.68298" lon="6.08261">
        <ele>1069.1</ele>
        <time>2021-11-23T09:15:51Z</time>
      </trkpt>
      <trkpt lat="46.68302" lon="6.08266">
        <ele>1069.5</ele>
        <time>2021-11-23T09:15:55Z</time>
      </trkpt>
      <trkpt lat="46.68305" lon="6.08272">
        <ele>1070</ele>
        <time>2021-11-23T09:16:00Z</time>
      </trkpt>
      <trkpt lat="46.68307" lon="6.08279">
        <ele>1070.1</ele>
        <time>2021-11-23T09:16:05Z</time>
      </trkpt>
      <trkpt lat="46.68308" lon="6.08286">
        <ele>1070</ele>
        <time>2021-11-23T09:16:10Z</time>
      </trkpt>
      <trkpt lat="46.68311" lon="6.08291">
        <ele>1070.2</ele>
        <time>2021-11-23T09:16:14Z</time>
      </trkpt>
      <trkpt lat="46.68314" lon="6.08299">
        <ele>1070</ele>
        <time>2021-11-23T09:16:20Z</time>
      </trkpt>
      <trkpt lat="46.68315" lon="6.08305">
        <ele>1069.4</ele>
        <time>2021-11-23T09:16:24Z</time>
      </trkpt>
      <trkpt lat="46.68316" lon="6.08313">
        <ele>1068.5</ele>
        <time>2021-11-23T09:16:28Z</time>
      </trkpt>
      <trkpt lat="46.68316" lon="6.08321">
        <ele>1067.3</ele>
        <time>2021-11-23T09:16:32Z</time>
      </trkpt>
      <trkpt lat="46.68317" lon="6.08327">
        <ele>1065.3</ele>
        <time>2021-11-23T09:16:37Z</time>
      </trkpt>
      <trkpt lat="46.68319" lon="6.08335">
        <ele>1063.2</ele>
        <time>2021-11-23T09:16:43Z</time>
      </trkpt>
      <trkpt lat="46.6832" lon="6.08341">
        <ele>1061.8</ele>
        <time>2021-11-23T09:16:48Z</time>
      </trkpt>
      <trkpt lat="46.68322" lon="6.08348">
        <ele>1061.3</ele>
        <time>2021-11-23T09:16:52Z</time>
      </trkpt>
      <trkpt lat="46.68323" lon="6.08354">
        <ele>1060.7</ele>
        <time>2021-11-23T09:16:56Z</time>
      </trkpt>
      <trkpt lat="46.68324" lon="6.08362">
        <ele>1060</ele>
        <time>2021-11-23T09:17:01Z</time>
      </trkpt>
      <trkpt lat="46.68325" lon="6.08369">
        <ele>1059.8</ele>
        <time>2021-11-23T09:17:05Z</time>
      </trkpt>
      <trkpt lat="46.68325" lon="6.08376">
        <ele>1060.6</ele>
        <time>2021-11-23T09:17:10Z</time>
      </trkpt>
      <trkpt lat="46.68324" lon="6.08384">
        <ele>1062</ele>
        <time>2021-11-23T09:17:16Z</time>
      </trkpt>
      <trkpt lat="46.68322" lon="6.08392">
        <ele>1062.8</ele>
        <time>2021-11-23T09:17:21Z</time>
      </trkpt>
      <trkpt lat="46.6832" lon="6.08399">
        <ele>1062.8</ele>
        <time>2021-11-23T09:17:26Z</time>
      </trkpt>
      <trkpt lat="46.6832" lon="6.08407">
        <ele>1062.3</ele>
        <time>2021-11-23T09:17:31Z</time>
      </trkpt>
      <trkpt lat="46.68319" lon="6.08413">
        <ele>1062</ele>
        <time>2021-11-23T09:17:35Z</time>
      </trkpt>
      <trkpt lat="46.68317" lon="6.08419">
        <ele>1062</ele>
        <time>2021-11-23T09:17:40Z</time>
      </trkpt>
      <trkpt lat="46.68314" lon="6.08424">
        <ele>1062.5</ele>
        <time>2021-11-23T09:17:45Z</time>
      </trkpt>
      <trkpt lat="46.6831" lon="6.08429">
        <ele>1062.1</ele>
        <time>2021-11-23T09:17:50Z</time>
      </trkpt>
      <trkpt lat="46.68306" lon="6.08433">
        <ele>1061.4</ele>
        <time>2021-11-23T09:17:54Z</time>
      </trkpt>
      <trkpt lat="46.68302" lon="6.08436">
        <ele>1061.2</ele>
        <time>2021-11-23T09:17:58Z</time>
      </trkpt>
      <trkpt lat="46.68299" lon="6.08441">
        <ele>1061.4</ele>
        <time>2021-11-23T09:18:03Z</time>
      </trkpt>
      <trkpt lat="46.68296" lon="6.08449">
        <ele>1062.3</ele>
        <time>2021-11-23T09:18:08Z</time>
      </trkpt>
      <trkpt lat="46.68294" lon="6.08455">
        <ele>1062.7</ele>
        <time>2021-11-23T09:18:12Z</time>
      </trkpt>
      <trkpt lat="46.68293" lon="6.08461">
        <ele>1062.8</ele>
        <time>2021-11-23T09:18:17Z</time>
      </trkpt>
      <trkpt lat="46.68292" lon="6.08468">
        <ele>1062.7</ele>
        <time>2021-11-23T09:18:22Z</time>
      </trkpt>
      <trkpt lat="46.68292" lon="6.08476">
        <ele>1062.8</ele>
        <time>2021-11-23T09:18:26Z</time>
      </trkpt>
      <trkpt lat="46.68292" lon="6.08483">
        <ele>1062.9</ele>
        <time>2021-11-23T09:18:31Z</time>
      </trkpt>
      <trkpt lat="46.68293" lon="6.08489">
        <ele>1062.9</ele>
        <time>2021-11-23T09:18:36Z</time>
      </trkpt>
      <trkpt lat="46.68293" lon="6.08497">
        <ele>1063.8</ele>
        <time>2021-11-23T09:18:41Z</time>
      </trkpt>
      <trkpt lat="46.68295" lon="6.08503">
        <ele>1063.9</ele>
        <time>2021-11-23T09:18:45Z</time>
      </trkpt>
      <trkpt lat="46.68296" lon="6.0851">
        <ele>1063.7</ele>
        <time>2021-11-23T09:18:49Z</time>
      </trkpt>
      <trkpt lat="46.68298" lon="6.08517">
        <ele>1063.1</ele>
        <time>2021-11-23T09:18:54Z</time>
      </trkpt>
      <trkpt lat="46.68301" lon="6.08523">
        <ele>1062.6</ele>
        <time>2021-11-23T09:18:59Z</time>
      </trkpt>
      <trkpt lat="46.68302" lon="6.0853">
        <ele>1062.7</ele>
        <time>2021-11-23T09:19:03Z</time>
      </trkpt>
      <trkpt lat="46.68304" lon="6.08537">
        <ele>1063.3</ele>
        <time>2021-11-23T09:19:07Z</time>
      </trkpt>
      <trkpt lat="46.68305" lon="6.08543">
        <ele>1064.2</ele>
        <time>2021-11-23T09:19:12Z</time>
      </trkpt>
      <trkpt lat="46.68307" lon="6.0855">
        <ele>1064.8</ele>
        <time>2021-11-23T09:19:17Z</time>
      </trkpt>
      <trkpt lat="46.68309" lon="6.08557">
        <ele>1065.4</ele>
        <time>2021-11-23T09:19:22Z</time>
      </trkpt>
      <trkpt lat="46.68309" lon="6.08564">
        <ele>1065.5</ele>
        <time>2021-11-23T09:19:27Z</time>
      </trkpt>
      <trkpt lat="46.68312" lon="6.0857">
        <ele>1065.3</ele>
        <time>2021-11-23T09:19:32Z</time>
      </trkpt>
      <trkpt lat="46.68315" lon="6.08576">
        <ele>1064.2</ele>
        <time>2021-11-23T09:19:37Z</time>
      </trkpt>
      <trkpt lat="46.68317" lon="6.08582">
        <ele>1063.1</ele>
        <time>2021-11-23T09:19:41Z</time>
      </trkpt>
      <trkpt lat="46.6832" lon="6.08589">
        <ele>1061.9</ele>
        <time>2021-11-23T09:19:45Z</time>
      </trkpt>
      <trkpt lat="46.68321" lon="6.08596">
        <ele>1060.8</ele>
        <time>2021-11-23T09:19:50Z</time>
      </trkpt>
      <trkpt lat="46.68324" lon="6.08601">
        <ele>1060.1</ele>
        <time>2021-11-23T09:19:55Z</time>
      </trkpt>
      <trkpt lat="46.68327" lon="6.08608">
        <ele>1059.7</ele>
        <time>2021-11-23T09:19:59Z</time>
      </trkpt>
      <trkpt lat="46.68329" lon="6.08614">
        <ele>1059.2</ele>
        <time>2021-11-23T09:20:03Z</time>
      </trkpt>
      <trkpt lat="46.68331" lon="6.08621">
        <ele>1058.9</ele>
        <time>2021-11-23T09:20:08Z</time>
      </trkpt>
      <trkpt lat="46.68333" lon="6.08629">
        <ele>1058.5</ele>
        <time>2021-11-23T09:20:13Z</time>
      </trkpt>
      <trkpt lat="46.68335" lon="6.08636">
        <ele>1058.3</ele>
        <time>2021-11-23T09:20:18Z</time>
      </trkpt>
      <trkpt lat="46.68335" lon="6.08643">
        <ele>1058.6</ele>
        <time>2021-11-23T09:20:23Z</time>
      </trkpt>
      <trkpt lat="46.68335" lon="6.08649">
        <ele>1058.9</ele>
        <time>2021-11-23T09:20:27Z</time>
      </trkpt>
      <trkpt lat="46.68336" lon="6.08657">
        <ele>1059.1</ele>
        <time>2021-11-23T09:20:32Z</time>
      </trkpt>
      <trkpt lat="46.68336" lon="6.08664">
        <ele>1059</ele>
        <time>2021-11-23T09:20:36Z</time>
      </trkpt>
      <trkpt lat="46.68335" lon="6.08671">
        <ele>1059.3</ele>
        <time>2021-11-23T09:20:40Z</time>
      </trkpt>
      <trkpt lat="46.68335" lon="6.08678">
        <ele>1060</ele>
        <time>2021-11-23T09:20:45Z</time>
      </trkpt>
      <trkpt lat="46.68336" lon="6.08686">
        <ele>1060.6</ele>
        <time>2021-11-23T09:20:50Z</time>
      </trkpt>
      <trkpt lat="46.68338" lon="6.08692">
        <ele>1061.1</ele>
        <time>2021-11-23T09:20:54Z</time>
      </trkpt>
      <trkpt lat="46.68338" lon="6.087">
        <ele>1061.4</ele>
        <time>2021-11-23T09:20:59Z</time>
      </trkpt>
      <trkpt lat="46.68339" lon="6.08707">
        <ele>1061.3</ele>
        <time>2021-11-23T09:21:04Z</time>
      </trkpt>
      <trkpt lat="46.6834" lon="6.08714">
        <ele>1061.1</ele>
        <time>2021-11-23T09:21:09Z</time>
      </trkpt>
      <trkpt lat="46.68343" lon="6.0872">
        <ele>1060.7</ele>
        <time>2021-11-23T09:21:13Z</time>
      </trkpt>
      <trkpt lat="46.68345" lon="6.08726">
        <ele>1060.5</ele>
        <time>2021-11-23T09:21:19Z</time>
      </trkpt>
      <trkpt lat="46.68348" lon="6.08732">
        <ele>1059.7</ele>
        <time>2021-11-23T09:21:26Z</time>
      </trkpt>
      <trkpt lat="46.68351" lon="6.08737">
        <ele>1060</ele>
        <time>2021-11-23T09:21:31Z</time>
      </trkpt>
      <trkpt lat="46.68354" lon="6.08742">
        <ele>1060.4</ele>
        <time>2021-11-23T09:21:38Z</time>
      </trkpt>
      <trkpt lat="46.68357" lon="6.08749">
        <ele>1060.9</ele>
        <time>2021-11-23T09:21:44Z</time>
      </trkpt>
      <trkpt lat="46.6836" lon="6.08754">
        <ele>1061.8</ele>
        <time>2021-11-23T09:21:48Z</time>
      </trkpt>
      <trkpt lat="46.68364" lon="6.08759">
        <ele>1063.2</ele>
        <time>2021-11-23T09:21:52Z</time>
      </trkpt>
      <trkpt lat="46.68367" lon="6.08764">
        <ele>1066.5</ele>
        <time>2021-11-23T09:21:58Z</time>
      </trkpt>
      <trkpt lat="46.68371" lon="6.08766">
        <ele>1068.9</ele>
        <time>2021-11-23T09:23:31Z</time>
      </trkpt>
      <trkpt lat="46.68375" lon="6.08771">
        <ele>1069.2</ele>
        <time>2021-11-23T09:23:38Z</time>
      </trkpt>
      <trkpt lat="46.68379" lon="6.08773">
        <ele>1069.2</ele>
        <time>2021-11-23T09:23:46Z</time>
      </trkpt>
      <trkpt lat="46.68378" lon="6.08779">
        <ele>1068.8</ele>
        <time>2021-11-23T09:24:14Z</time>
      </trkpt>
      <trkpt lat="46.68381" lon="6.08783">
        <ele>1066.9</ele>
        <time>2021-11-23T09:24:27Z</time>
      </trkpt>
      <trkpt lat="46.68385" lon="6.08788">
        <ele>1067.5</ele>
        <time>2021-11-23T09:24:32Z</time>
      </trkpt>
      <trkpt lat="46.68388" lon="6.08793">
        <ele>1068</ele>
        <time>2021-11-23T09:24:38Z</time>
      </trkpt>
      <trkpt lat="46.68391" lon="6.08797">
        <ele>1068.6</ele>
        <time>2021-11-23T09:24:43Z</time>
      </trkpt>
      <trkpt lat="46.68395" lon="6.08802">
        <ele>1067.6</ele>
        <time>2021-11-23T09:24:50Z</time>
      </trkpt>
      <trkpt lat="46.68397" lon="6.08808">
        <ele>1065.2</ele>
        <time>2021-11-23T09:24:59Z</time>
      </trkpt>
      <trkpt lat="46.68401" lon="6.08815">
        <ele>1063.9</ele>
        <time>2021-11-23T09:25:04Z</time>
      </trkpt>
      <trkpt lat="46.68403" lon="6.08821">
        <ele>1062.9</ele>
        <time>2021-11-23T09:25:08Z</time>
      </trkpt>
      <trkpt lat="46.68406" lon="6.08827">
        <ele>1062.2</ele>
        <time>2021-11-23T09:25:12Z</time>
      </trkpt>
      <trkpt lat="46.68408" lon="6.08833">
        <ele>1061.6</ele>
        <time>2021-11-23T09:25:17Z</time>
      </trkpt>
      <trkpt lat="46.6841" lon="6.08839">
        <ele>1061</ele>
        <time>2021-11-23T09:25:22Z</time>
      </trkpt>
      <trkpt lat="46.68414" lon="6.08845">
        <ele>1060.7</ele>
        <time>2021-11-23T09:25:27Z</time>
      </trkpt>
      <trkpt lat="46.68416" lon="6.08853">
        <ele>1060.6</ele>
        <time>2021-11-23T09:25:32Z</time>
      </trkpt>
      <trkpt lat="46.68417" lon="6.08859">
        <ele>1060.6</ele>
        <time>2021-11-23T09:25:36Z</time>
      </trkpt>
      <trkpt lat="46.68419" lon="6.08865">
        <ele>1060.8</ele>
        <time>2021-11-23T09:25:40Z</time>
      </trkpt>
      <trkpt lat="46.68421" lon="6.08873">
        <ele>1060.6</ele>
        <time>2021-11-23T09:25:45Z</time>
      </trkpt>
      <trkpt lat="46.68423" lon="6.08879">
        <ele>1060.5</ele>
        <time>2021-11-23T09:25:49Z</time>
      </trkpt>
      <trkpt lat="46.68425" lon="6.08885">
        <ele>1060.7</ele>
        <time>2021-11-23T09:25:54Z</time>
      </trkpt>
      <trkpt lat="46.68427" lon="6.08892">
        <ele>1061</ele>
        <time>2021-11-23T09:25:59Z</time>
      </trkpt>
      <trkpt lat="46.68429" lon="6.08898">
        <ele>1061</ele>
        <time>2021-11-23T09:26:03Z</time>
      </trkpt>
      <trkpt lat="46.68432" lon="6.08905">
        <ele>1061.1</ele>
        <time>2021-11-23T09:26:08Z</time>
      </trkpt>
      <trkpt lat="46.68434" lon="6.08911">
        <ele>1061.2</ele>
        <time>2021-11-23T09:26:12Z</time>
      </trkpt>
      <trkpt lat="46.68434" lon="6.08918">
        <ele>1061.2</ele>
        <time>2021-11-23T09:26:16Z</time>
      </trkpt>
      <trkpt lat="46.68436" lon="6.08925">
        <ele>1061.5</ele>
        <time>2021-11-23T09:26:21Z</time>
      </trkpt>
      <trkpt lat="46.68437" lon="6.08933">
        <ele>1061.7</ele>
        <time>2021-11-23T09:26:26Z</time>
      </trkpt>
      <trkpt lat="46.68438" lon="6.0894">
        <ele>1061.7</ele>
        <time>2021-11-23T09:26:31Z</time>
      </trkpt>
      <trkpt lat="46.68438" lon="6.08948">
        <ele>1061.7</ele>
        <time>2021-11-23T09:26:36Z</time>
      </trkpt>
      <trkpt lat="46.68439" lon="6.08955">
        <ele>1061.8</ele>
        <time>2021-11-23T09:26:41Z</time>
      </trkpt>
      <trkpt lat="46.6844" lon="6.08962">
        <ele>1061.9</ele>
        <time>2021-11-23T09:26:45Z</time>
      </trkpt>
      <trkpt lat="46.68442" lon="6.08969">
        <ele>1062.1</ele>
        <time>2021-11-23T09:26:50Z</time>
      </trkpt>
      <trkpt lat="46.68444" lon="6.08975">
        <ele>1062.2</ele>
        <time>2021-11-23T09:26:54Z</time>
      </trkpt>
      <trkpt lat="46.68445" lon="6.08982">
        <ele>1062.5</ele>
        <time>2021-11-23T09:26:59Z</time>
      </trkpt>
      <trkpt lat="46.68444" lon="6.0899">
        <ele>1063</ele>
        <time>2021-11-23T09:27:04Z</time>
      </trkpt>
      <trkpt lat="46.68444" lon="6.08997">
        <ele>1062.6</ele>
        <time>2021-11-23T09:27:09Z</time>
      </trkpt>
      <trkpt lat="46.68445" lon="6.09004">
        <ele>1061.7</ele>
        <time>2021-11-23T09:27:14Z</time>
      </trkpt>
      <trkpt lat="46.68445" lon="6.0901">
        <ele>1061.1</ele>
        <time>2021-11-23T09:27:18Z</time>
      </trkpt>
      <trkpt lat="46.68446" lon="6.09018">
        <ele>1060.7</ele>
        <time>2021-11-23T09:27:23Z</time>
      </trkpt>
      <trkpt lat="46.68446" lon="6.09026">
        <ele>1060.5</ele>
        <time>2021-11-23T09:27:28Z</time>
      </trkpt>
      <trkpt lat="46.68447" lon="6.09032">
        <ele>1060.4</ele>
        <time>2021-11-23T09:27:33Z</time>
      </trkpt>
      <trkpt lat="46.68446" lon="6.09039">
        <ele>1059.6</ele>
        <time>2021-11-23T09:27:39Z</time>
      </trkpt>
      <trkpt lat="46.68446" lon="6.09046">
        <ele>1059.2</ele>
        <time>2021-11-23T09:27:43Z</time>
      </trkpt>
      <trkpt lat="46.68445" lon="6.09054">
        <ele>1058.6</ele>
        <time>2021-11-23T09:27:48Z</time>
      </trkpt>
      <trkpt lat="46.68445" lon="6.09061">
        <ele>1058.3</ele>
        <time>2021-11-23T09:27:52Z</time>
      </trkpt>
      <trkpt lat="46.68444" lon="6.09067">
        <ele>1058</ele>
        <time>2021-11-23T09:27:57Z</time>
      </trkpt>
      <trkpt lat="46.68443" lon="6.09075">
        <ele>1057.3</ele>
        <time>2021-11-23T09:28:02Z</time>
      </trkpt>
      <trkpt lat="46.68441" lon="6.09081">
        <ele>1057.1</ele>
        <time>2021-11-23T09:28:07Z</time>
      </trkpt>
      <trkpt lat="46.68438" lon="6.09088">
        <ele>1057.4</ele>
        <time>2021-11-23T09:28:12Z</time>
      </trkpt>
      <trkpt lat="46.68435" lon="6.09095">
        <ele>1058.1</ele>
        <time>2021-11-23T09:28:17Z</time>
      </trkpt>
      <trkpt lat="46.68432" lon="6.09101">
        <ele>1058.8</ele>
        <time>2021-11-23T09:28:22Z</time>
      </trkpt>
      <trkpt lat="46.6843" lon="6.09107">
        <ele>1059.2</ele>
        <time>2021-11-23T09:28:27Z</time>
      </trkpt>
      <trkpt lat="46.68426" lon="6.09113">
        <ele>1059.6</ele>
        <time>2021-11-23T09:28:32Z</time>
      </trkpt>
      <trkpt lat="46.68423" lon="6.09119">
        <ele>1059.9</ele>
        <time>2021-11-23T09:28:37Z</time>
      </trkpt>
      <trkpt lat="46.68419" lon="6.09124">
        <ele>1060.2</ele>
        <time>2021-11-23T09:28:42Z</time>
      </trkpt>
      <trkpt lat="46.68416" lon="6.0913">
        <ele>1060.5</ele>
        <time>2021-11-23T09:28:47Z</time>
      </trkpt>
      <trkpt lat="46.68412" lon="6.09135">
        <ele>1061.4</ele>
        <time>2021-11-23T09:28:52Z</time>
      </trkpt>
      <trkpt lat="46.68409" lon="6.0914">
        <ele>1062.1</ele>
        <time>2021-11-23T09:28:57Z</time>
      </trkpt>
      <trkpt lat="46.68406" lon="6.09144">
        <ele>1062.5</ele>
        <time>2021-11-23T09:29:01Z</time>
      </trkpt>
      <trkpt lat="46.68402" lon="6.09148">
        <ele>1063.2</ele>
        <time>2021-11-23T09:29:05Z</time>
      </trkpt>
      <trkpt lat="46.68398" lon="6.09152">
        <ele>1064.1</ele>
        <time>2021-11-23T09:29:09Z</time>
      </trkpt>
      <trkpt lat="46.68395" lon="6.09158">
        <ele>1064.5</ele>
        <time>2021-11-23T09:29:13Z</time>
      </trkpt>
      <trkpt lat="46.68391" lon="6.09163">
        <ele>1064.7</ele>
        <time>2021-11-23T09:29:18Z</time>
      </trkpt>
      <trkpt lat="46.68387" lon="6.09167">
        <ele>1065.4</ele>
        <time>2021-11-23T09:29:22Z</time>
      </trkpt>
      <trkpt lat="46.68382" lon="6.09171">
        <ele>1066.5</ele>
        <time>2021-11-23T09:29:27Z</time>
      </trkpt>
      <trkpt lat="46.68378" lon="6.09176">
        <ele>1070.7</ele>
        <time>2021-11-23T09:29:51Z</time>
      </trkpt>
      <trkpt lat="46.68374" lon="6.09181">
        <ele>1070.2</ele>
        <time>2021-11-23T09:29:55Z</time>
      </trkpt>
      <trkpt lat="46.6837" lon="6.09186">
        <ele>1069.6</ele>
        <time>2021-11-23T09:29:59Z</time>
      </trkpt>
      <trkpt lat="46.68366" lon="6.0919">
        <ele>1069.7</ele>
        <time>2021-11-23T09:30:02Z</time>
      </trkpt>
      <trkpt lat="46.68362" lon="6.09194">
        <ele>1069.5</ele>
        <time>2021-11-23T09:30:06Z</time>
      </trkpt>
      <trkpt lat="46.68358" lon="6.09199">
        <ele>1069.7</ele>
        <time>2021-11-23T09:30:10Z</time>
      </trkpt>
      <trkpt lat="46.68355" lon="6.09206">
        <ele>1069.6</ele>
        <time>2021-11-23T09:30:14Z</time>
      </trkpt>
      <trkpt lat="46.68352" lon="6.09212">
        <ele>1069.8</ele>
        <time>2021-11-23T09:30:18Z</time>
      </trkpt>
      <trkpt lat="46.68349" lon="6.09218">
        <ele>1070.3</ele>
        <time>2021-11-23T09:30:22Z</time>
      </trkpt>
      <trkpt lat="46.68345" lon="6.09224">
        <ele>1071.1</ele>
        <time>2021-11-23T09:30:26Z</time>
      </trkpt>
      <trkpt lat="46.68341" lon="6.09229">
        <ele>1071.5</ele>
        <time>2021-11-23T09:30:30Z</time>
      </trkpt>
      <trkpt lat="46.68337" lon="6.09234">
        <ele>1071.5</ele>
        <time>2021-11-23T09:30:34Z</time>
      </trkpt>
      <trkpt lat="46.68333" lon="6.0924">
        <ele>1071</ele>
        <time>2021-11-23T09:30:38Z</time>
      </trkpt>
      <trkpt lat="46.68329" lon="6.09246">
        <ele>1070.3</ele>
        <time>2021-11-23T09:30:42Z</time>
      </trkpt>
      <trkpt lat="46.68326" lon="6.0925">
        <ele>1069.4</ele>
        <time>2021-11-23T09:30:46Z</time>
      </trkpt>
      <trkpt lat="46.68323" lon="6.09256">
        <ele>1068</ele>
        <time>2021-11-23T09:30:51Z</time>
      </trkpt>
      <trkpt lat="46.68319" lon="6.09262">
        <ele>1067.2</ele>
        <time>2021-11-23T09:30:56Z</time>
      </trkpt>
      <trkpt lat="46.68316" lon="6.09267">
        <ele>1067</ele>
        <time>2021-11-23T09:31:00Z</time>
      </trkpt>
      <trkpt lat="46.68312" lon="6.09272">
        <ele>1067.4</ele>
        <time>2021-11-23T09:31:04Z</time>
      </trkpt>
      <trkpt lat="46.68308" lon="6.09277">
        <ele>1068</ele>
        <time>2021-11-23T09:31:09Z</time>
      </trkpt>
      <trkpt lat="46.68305" lon="6.09282">
        <ele>1068.5</ele>
        <time>2021-11-23T09:31:14Z</time>
      </trkpt>
      <trkpt lat="46.68301" lon="6.09287">
        <ele>1068.8</ele>
        <time>2021-11-23T09:31:18Z</time>
      </trkpt>
      <trkpt lat="46.68297" lon="6.09291">
        <ele>1069.1</ele>
        <time>2021-11-23T09:31:22Z</time>
      </trkpt>
      <trkpt lat="46.68292" lon="6.09295">
        <ele>1069.7</ele>
        <time>2021-11-23T09:31:27Z</time>
      </trkpt>
      <trkpt lat="46.68289" lon="6.09301">
        <ele>1070.2</ele>
        <time>2021-11-23T09:31:32Z</time>
      </trkpt>
      <trkpt lat="46.68285" lon="6.09306">
        <ele>1070.7</ele>
        <time>2021-11-23T09:31:37Z</time>
      </trkpt>
      <trkpt lat="46.68281" lon="6.09311">
        <ele>1071.3</ele>
        <time>2021-11-23T09:31:42Z</time>
      </trkpt>
      <trkpt lat="46.68277" lon="6.09315">
        <ele>1071.6</ele>
        <time>2021-11-23T09:31:46Z</time>
      </trkpt>
      <trkpt lat="46.68273" lon="6.0932">
        <ele>1071.4</ele>
        <time>2021-11-23T09:31:51Z</time>
      </trkpt>
      <trkpt lat="46.68269" lon="6.09323">
        <ele>1071.2</ele>
        <time>2021-11-23T09:31:55Z</time>
      </trkpt>
      <trkpt lat="46.68265" lon="6.09326">
        <ele>1070.9</ele>
        <time>2021-11-23T09:31:59Z</time>
      </trkpt>
      <trkpt lat="46.6826" lon="6.0933">
        <ele>1070.3</ele>
        <time>2021-11-23T09:32:04Z</time>
      </trkpt>
      <trkpt lat="46.68256" lon="6.09334">
        <ele>1070.1</ele>
        <time>2021-11-23T09:32:09Z</time>
      </trkpt>
      <trkpt lat="46.68252" lon="6.09338">
        <ele>1070</ele>
        <time>2021-11-23T09:32:13Z</time>
      </trkpt>
      <trkpt lat="46.68247" lon="6.09342">
        <ele>1070.2</ele>
        <time>2021-11-23T09:32:18Z</time>
      </trkpt>
      <trkpt lat="46.68243" lon="6.09345">
        <ele>1070.7</ele>
        <time>2021-11-23T09:32:22Z</time>
      </trkpt>
      <trkpt lat="46.68239" lon="6.09348">
        <ele>1071</ele>
        <time>2021-11-23T09:32:26Z</time>
      </trkpt>
      <trkpt lat="46.68234" lon="6.09351">
        <ele>1071.3</ele>
        <time>2021-11-23T09:32:31Z</time>
      </trkpt>
      <trkpt lat="46.6823" lon="6.09355">
        <ele>1071.2</ele>
        <time>2021-11-23T09:32:37Z</time>
      </trkpt>
      <trkpt lat="46.68225" lon="6.09358">
        <ele>1070.7</ele>
        <time>2021-11-23T09:32:42Z</time>
      </trkpt>
      <trkpt lat="46.6822" lon="6.0936">
        <ele>1070.1</ele>
        <time>2021-11-23T09:32:47Z</time>
      </trkpt>
      <trkpt lat="46.68215" lon="6.09362">
        <ele>1069.6</ele>
        <time>2021-11-23T09:32:51Z</time>
      </trkpt>
      <trkpt lat="46.6821" lon="6.09365">
        <ele>1068.6</ele>
        <time>2021-11-23T09:32:56Z</time>
      </trkpt>
      <trkpt lat="46.68205" lon="6.09367">
        <ele>1067.6</ele>
        <time>2021-11-23T09:33:01Z</time>
      </trkpt>
      <trkpt lat="46.682" lon="6.0937">
        <ele>1067.1</ele>
        <time>2021-11-23T09:33:06Z</time>
      </trkpt>
      <trkpt lat="46.68195" lon="6.09371">
        <ele>1066.9</ele>
        <time>2021-11-23T09:33:11Z</time>
      </trkpt>
      <trkpt lat="46.68191" lon="6.09374">
        <ele>1066.4</ele>
        <time>2021-11-23T09:33:16Z</time>
      </trkpt>
      <trkpt lat="46.68187" lon="6.09378">
        <ele>1065.8</ele>
        <time>2021-11-23T09:33:21Z</time>
      </trkpt>
      <trkpt lat="46.68185" lon="6.09384">
        <ele>1065.3</ele>
        <time>2021-11-23T09:33:25Z</time>
      </trkpt>
      <trkpt lat="46.68184" lon="6.09392">
        <ele>1064.8</ele>
        <time>2021-11-23T09:33:30Z</time>
      </trkpt>
      <trkpt lat="46.68185" lon="6.09398">
        <ele>1064.2</ele>
        <time>2021-11-23T09:33:34Z</time>
      </trkpt>
      <trkpt lat="46.68186" lon="6.09405">
        <ele>1063.5</ele>
        <time>2021-11-23T09:33:38Z</time>
      </trkpt>
      <trkpt lat="46.68187" lon="6.09412">
        <ele>1062.9</ele>
        <time>2021-11-23T09:33:43Z</time>
      </trkpt>
      <trkpt lat="46.68187" lon="6.09419">
        <ele>1062.6</ele>
        <time>2021-11-23T09:33:47Z</time>
      </trkpt>
      <trkpt lat="46.68187" lon="6.09427">
        <ele>1062.7</ele>
        <time>2021-11-23T09:33:52Z</time>
      </trkpt>
      <trkpt lat="46.68187" lon="6.09433">
        <ele>1062.6</ele>
        <time>2021-11-23T09:33:56Z</time>
      </trkpt>
      <trkpt lat="46.68186" lon="6.0944">
        <ele>1062.7</ele>
        <time>2021-11-23T09:34:01Z</time>
      </trkpt>
      <trkpt lat="46.68184" lon="6.09447">
        <ele>1062.8</ele>
        <time>2021-11-23T09:34:05Z</time>
      </trkpt>
      <trkpt lat="46.68182" lon="6.09454">
        <ele>1062.8</ele>
        <time>2021-11-23T09:34:09Z</time>
      </trkpt>
      <trkpt lat="46.6818" lon="6.0946">
        <ele>1062.6</ele>
        <time>2021-11-23T09:34:14Z</time>
      </trkpt>
      <trkpt lat="46.68177" lon="6.09467">
        <ele>1061.9</ele>
        <time>2021-11-23T09:34:20Z</time>
      </trkpt>
      <trkpt lat="46.68174" lon="6.09473">
        <ele>1061.5</ele>
        <time>2021-11-23T09:34:24Z</time>
      </trkpt>
      <trkpt lat="46.68172" lon="6.09479">
        <ele>1061.1</ele>
        <time>2021-11-23T09:34:28Z</time>
      </trkpt>
      <trkpt lat="46.68169" lon="6.09485">
        <ele>1060.3</ele>
        <time>2021-11-23T09:34:33Z</time>
      </trkpt>
      <trkpt lat="46.68165" lon="6.09491">
        <ele>1059.1</ele>
        <time>2021-11-23T09:34:38Z</time>
      </trkpt>
      <trkpt lat="46.68161" lon="6.09496">
        <ele>1058.2</ele>
        <time>2021-11-23T09:34:43Z</time>
      </trkpt>
      <trkpt lat="46.68158" lon="6.09501">
        <ele>1057.8</ele>
        <time>2021-11-23T09:34:47Z</time>
      </trkpt>
      <trkpt lat="46.68155" lon="6.09506">
        <ele>1057.7</ele>
        <time>2021-11-23T09:34:51Z</time>
      </trkpt>
      <trkpt lat="46.68152" lon="6.09513">
        <ele>1057.9</ele>
        <time>2021-11-23T09:34:56Z</time>
      </trkpt>
      <trkpt lat="46.68149" lon="6.09517">
        <ele>1058.4</ele>
        <time>2021-11-23T09:35:00Z</time>
      </trkpt>
      <trkpt lat="46.68145" lon="6.09523">
        <ele>1058.6</ele>
        <time>2021-11-23T09:35:04Z</time>
      </trkpt>
      <trkpt lat="46.68142" lon="6.09528">
        <ele>1058.8</ele>
        <time>2021-11-23T09:35:08Z</time>
      </trkpt>
      <trkpt lat="46.68137" lon="6.09533">
        <ele>1058.9</ele>
        <time>2021-11-23T09:35:13Z</time>
      </trkpt>
      <trkpt lat="46.68133" lon="6.09536">
        <ele>1058.8</ele>
        <time>2021-11-23T09:35:18Z</time>
      </trkpt>
      <trkpt lat="46.68128" lon="6.09541">
        <ele>1058.2</ele>
        <time>2021-11-23T09:35:22Z</time>
      </trkpt>
      <trkpt lat="46.68124" lon="6.09544">
        <ele>1057.6</ele>
        <time>2021-11-23T09:35:26Z</time>
      </trkpt>
      <trkpt lat="46.6812" lon="6.09547">
        <ele>1057.1</ele>
        <time>2021-11-23T09:35:30Z</time>
      </trkpt>
      <trkpt lat="46.68115" lon="6.0955">
        <ele>1056.5</ele>
        <time>2021-11-23T09:35:34Z</time>
      </trkpt>
      <trkpt lat="46.68111" lon="6.09552">
        <ele>1056.1</ele>
        <time>2021-11-23T09:35:38Z</time>
      </trkpt>
      <trkpt lat="46.68107" lon="6.09557">
        <ele>1055.3</ele>
        <time>2021-11-23T09:35:44Z</time>
      </trkpt>
      <trkpt lat="46.68112" lon="6.09559">
        <ele>1054.1</ele>
        <time>2021-11-23T09:35:52Z</time>
      </trkpt>
      <trkpt lat="46.68108" lon="6.09556">
        <ele>1054.9</ele>
        <time>2021-11-23T09:36:43Z</time>
      </trkpt>
      <trkpt lat="46.68102" lon="6.09556">
        <ele>1054.9</ele>
        <time>2021-11-23T09:36:47Z</time>
      </trkpt>
      <trkpt lat="46.68098" lon="6.09559">
        <ele>1054.2</ele>
        <time>2021-11-23T09:36:51Z</time>
      </trkpt>
      <trkpt lat="46.68092" lon="6.0956">
        <ele>1053.1</ele>
        <time>2021-11-23T09:36:55Z</time>
      </trkpt>
      <trkpt lat="46.68087" lon="6.0956">
        <ele>1052.3</ele>
        <time>2021-11-23T09:36:59Z</time>
      </trkpt>
      <trkpt lat="46.68082" lon="6.09562">
        <ele>1051</ele>
        <time>2021-11-23T09:37:04Z</time>
      </trkpt>
      <trkpt lat="46.68078" lon="6.09566">
        <ele>1049.9</ele>
        <time>2021-11-23T09:37:09Z</time>
      </trkpt>
      <trkpt lat="46.68073" lon="6.09567">
        <ele>1049.8</ele>
        <time>2021-11-23T09:37:14Z</time>
      </trkpt>
      <trkpt lat="46.68069" lon="6.09572">
        <ele>1050.5</ele>
        <time>2021-11-23T09:37:20Z</time>
      </trkpt>
      <trkpt lat="46.68065" lon="6.09578">
        <ele>1051.1</ele>
        <time>2021-11-23T09:37:25Z</time>
      </trkpt>
      <trkpt lat="46.68061" lon="6.09583">
        <ele>1051.4</ele>
        <time>2021-11-23T09:37:31Z</time>
      </trkpt>
      <trkpt lat="46.68057" lon="6.09587">
        <ele>1051.6</ele>
        <time>2021-11-23T09:37:35Z</time>
      </trkpt>
      <trkpt lat="46.68053" lon="6.09593">
        <ele>1051.3</ele>
        <time>2021-11-23T09:37:39Z</time>
      </trkpt>
      <trkpt lat="46.68049" lon="6.09599">
        <ele>1051.2</ele>
        <time>2021-11-23T09:37:42Z</time>
      </trkpt>
      <trkpt lat="46.68045" lon="6.09606">
        <ele>1050.9</ele>
        <time>2021-11-23T09:37:45Z</time>
      </trkpt>
      <trkpt lat="46.68043" lon="6.09614">
        <ele>1049.9</ele>
        <time>2021-11-23T09:37:48Z</time>
      </trkpt>
      <trkpt lat="46.68041" lon="6.09621">
        <ele>1048.6</ele>
        <time>2021-11-23T09:37:51Z</time>
      </trkpt>
      <trkpt lat="46.68038" lon="6.09629">
        <ele>1046.7</ele>
        <time>2021-11-23T09:37:55Z</time>
      </trkpt>
      <trkpt lat="46.68036" lon="6.09637">
        <ele>1045.1</ele>
        <time>2021-11-23T09:37:59Z</time>
      </trkpt>
      <trkpt lat="46.68035" lon="6.09644">
        <ele>1044.2</ele>
        <time>2021-11-23T09:38:03Z</time>
      </trkpt>
      <trkpt lat="46.68033" lon="6.09652">
        <ele>1044.1</ele>
        <time>2021-11-23T09:38:07Z</time>
      </trkpt>
      <trkpt lat="46.68033" lon="6.09658">
        <ele>1044</ele>
        <time>2021-11-23T09:38:10Z</time>
      </trkpt>
      <trkpt lat="46.68031" lon="6.09666">
        <ele>1044</ele>
        <time>2021-11-23T09:38:14Z</time>
      </trkpt>
      <trkpt lat="46.68028" lon="6.09673">
        <ele>1043.6</ele>
        <time>2021-11-23T09:38:18Z</time>
      </trkpt>
      <trkpt lat="46.68026" lon="6.09679">
        <ele>1043.2</ele>
        <time>2021-11-23T09:38:21Z</time>
      </trkpt>
      <trkpt lat="46.68024" lon="6.09686">
        <ele>1043.9</ele>
        <time>2021-11-23T09:38:25Z</time>
      </trkpt>
      <trkpt lat="46.68021" lon="6.09692">
        <ele>1045.7</ele>
        <time>2021-11-23T09:38:29Z</time>
      </trkpt>
      <trkpt lat="46.68016" lon="6.09696">
        <ele>1047.3</ele>
        <time>2021-11-23T09:38:32Z</time>
      </trkpt>
      <trkpt lat="46.68012" lon="6.09698">
        <ele>1048.5</ele>
        <time>2021-11-23T09:38:35Z</time>
      </trkpt>
      <trkpt lat="46.68007" lon="6.097">
        <ele>1049.9</ele>
        <time>2021-11-23T09:38:38Z</time>
      </trkpt>
      <trkpt lat="46.68002" lon="6.09703">
        <ele>1051</ele>
        <time>2021-11-23T09:38:41Z</time>
      </trkpt>
      <trkpt lat="46.67998" lon="6.09706">
        <ele>1052.1</ele>
        <time>2021-11-23T09:38:45Z</time>
      </trkpt>
      <trkpt lat="46.67993" lon="6.09708">
        <ele>1052.9</ele>
        <time>2021-11-23T09:38:50Z</time>
      </trkpt>
      <trkpt lat="46.67989" lon="6.09711">
        <ele>1053.2</ele>
        <time>2021-11-23T09:38:55Z</time>
      </trkpt>
      <trkpt lat="46.67983" lon="6.09712">
        <ele>1053.5</ele>
        <time>2021-11-23T09:38:59Z</time>
      </trkpt>
      <trkpt lat="46.67978" lon="6.09713">
        <ele>1053.6</ele>
        <time>2021-11-23T09:39:03Z</time>
      </trkpt>
      <trkpt lat="46.67974" lon="6.09715">
        <ele>1052.9</ele>
        <time>2021-11-23T09:39:07Z</time>
      </trkpt>
      <trkpt lat="46.6797" lon="6.0972">
        <ele>1051.6</ele>
        <time>2021-11-23T09:39:13Z</time>
      </trkpt>
      <trkpt lat="46.67967" lon="6.09725">
        <ele>1050.9</ele>
        <time>2021-11-23T09:39:17Z</time>
      </trkpt>
      <trkpt lat="46.67964" lon="6.09732">
        <ele>1050.3</ele>
        <time>2021-11-23T09:39:21Z</time>
      </trkpt>
      <trkpt lat="46.67963" lon="6.09739">
        <ele>1049.4</ele>
        <time>2021-11-23T09:39:26Z</time>
      </trkpt>
      <trkpt lat="46.67962" lon="6.09746">
        <ele>1049.4</ele>
        <time>2021-11-23T09:39:30Z</time>
      </trkpt>
      <trkpt lat="46.67959" lon="6.09751">
        <ele>1049.4</ele>
        <time>2021-11-23T09:39:35Z</time>
      </trkpt>
      <trkpt lat="46.67957" lon="6.09757">
        <ele>1049.1</ele>
        <time>2021-11-23T09:39:39Z</time>
      </trkpt>
      <trkpt lat="46.67953" lon="6.09762">
        <ele>1048.9</ele>
        <time>2021-11-23T09:39:44Z</time>
      </trkpt>
      <trkpt lat="46.67949" lon="6.09767">
        <ele>1048.5</ele>
        <time>2021-11-23T09:39:49Z</time>
      </trkpt>
      <trkpt lat="46.67945" lon="6.09772">
        <ele>1048</ele>
        <time>2021-11-23T09:39:53Z</time>
      </trkpt>
      <trkpt lat="46.67942" lon="6.09777">
        <ele>1047.6</ele>
        <time>2021-11-23T09:39:58Z</time>
      </trkpt>
      <trkpt lat="46.67937" lon="6.09782">
        <ele>1047.1</ele>
        <time>2021-11-23T09:40:03Z</time>
      </trkpt>
      <trkpt lat="46.67933" lon="6.09787">
        <ele>1046.5</ele>
        <time>2021-11-23T09:40:08Z</time>
      </trkpt>
      <trkpt lat="46.67929" lon="6.09793">
        <ele>1045.9</ele>
        <time>2021-11-23T09:40:13Z</time>
      </trkpt>
      <trkpt lat="46.67927" lon="6.09798">
        <ele>1045.2</ele>
        <time>2021-11-23T09:40:17Z</time>
      </trkpt>
      <trkpt lat="46.67924" lon="6.09804">
        <ele>1044.1</ele>
        <time>2021-11-23T09:40:22Z</time>
      </trkpt>
      <trkpt lat="46.6792" lon="6.09809">
        <ele>1042.8</ele>
        <time>2021-11-23T09:40:28Z</time>
      </trkpt>
      <trkpt lat="46.67917" lon="6.09813">
        <ele>1041.7</ele>
        <time>2021-11-23T09:40:32Z</time>
      </trkpt>
      <trkpt lat="46.67913" lon="6.09818">
        <ele>1040.6</ele>
        <time>2021-11-23T09:40:37Z</time>
      </trkpt>
      <trkpt lat="46.67909" lon="6.09823">
        <ele>1039.8</ele>
        <time>2021-11-23T09:40:42Z</time>
      </trkpt>
      <trkpt lat="46.67904" lon="6.09826">
        <ele>1039.5</ele>
        <time>2021-11-23T09:40:47Z</time>
      </trkpt>
      <trkpt lat="46.679" lon="6.09829">
        <ele>1039.5</ele>
        <time>2021-11-23T09:40:52Z</time>
      </trkpt>
      <trkpt lat="46.67895" lon="6.09829">
        <ele>1039.1</ele>
        <time>2021-11-23T09:40:57Z</time>
      </trkpt>
      <trkpt lat="46.6789" lon="6.09827">
        <ele>1038.6</ele>
        <time>2021-11-23T09:41:01Z</time>
      </trkpt>
      <trkpt lat="46.67885" lon="6.09827">
        <ele>1038.3</ele>
        <time>2021-11-23T09:41:05Z</time>
      </trkpt>
      <trkpt lat="46.67881" lon="6.09827">
        <ele>1038</ele>
        <time>2021-11-23T09:41:09Z</time>
      </trkpt>
      <trkpt lat="46.67876" lon="6.09829">
        <ele>1037.9</ele>
        <time>2021-11-23T09:41:14Z</time>
      </trkpt>
      <trkpt lat="46.6787" lon="6.09832">
        <ele>1037.7</ele>
        <time>2021-11-23T09:41:19Z</time>
      </trkpt>
      <trkpt lat="46.67866" lon="6.09835">
        <ele>1037.4</ele>
        <time>2021-11-23T09:41:23Z</time>
      </trkpt>
      <trkpt lat="46.67861" lon="6.0984">
        <ele>1036.2</ele>
        <time>2021-11-23T09:41:28Z</time>
      </trkpt>
      <trkpt lat="46.67857" lon="6.09845">
        <ele>1035.6</ele>
        <time>2021-11-23T09:41:32Z</time>
      </trkpt>
      <trkpt lat="46.67854" lon="6.09851">
        <ele>1035.3</ele>
        <time>2021-11-23T09:41:36Z</time>
      </trkpt>
      <trkpt lat="46.67852" lon="6.09858">
        <ele>1034.9</ele>
        <time>2021-11-23T09:41:40Z</time>
      </trkpt>
      <trkpt lat="46.6785" lon="6.09865">
        <ele>1034.4</ele>
        <time>2021-11-23T09:41:45Z</time>
      </trkpt>
      <trkpt lat="46.67847" lon="6.0987">
        <ele>1034.5</ele>
        <time>2021-11-23T09:41:50Z</time>
      </trkpt>
      <trkpt lat="46.67846" lon="6.09878">
        <ele>1034.9</ele>
        <time>2021-11-23T09:41:55Z</time>
      </trkpt>
      <trkpt lat="46.67844" lon="6.09885">
        <ele>1034.9</ele>
        <time>2021-11-23T09:41:59Z</time>
      </trkpt>
      <trkpt lat="46.67843" lon="6.09893">
        <ele>1035</ele>
        <time>2021-11-23T09:42:03Z</time>
      </trkpt>
      <trkpt lat="46.67842" lon="6.099">
        <ele>1034.7</ele>
        <time>2021-11-23T09:42:09Z</time>
      </trkpt>
      <trkpt lat="46.67841" lon="6.09907">
        <ele>1034.7</ele>
        <time>2021-11-23T09:42:14Z</time>
      </trkpt>
      <trkpt lat="46.67839" lon="6.09915">
        <ele>1034.4</ele>
        <time>2021-11-23T09:42:19Z</time>
      </trkpt>
      <trkpt lat="46.67838" lon="6.09921">
        <ele>1034.2</ele>
        <time>2021-11-23T09:42:23Z</time>
      </trkpt>
      <trkpt lat="46.67837" lon="6.09928">
        <ele>1034.2</ele>
        <time>2021-11-23T09:42:27Z</time>
      </trkpt>
      <trkpt lat="46.67836" lon="6.09935">
        <ele>1033.9</ele>
        <time>2021-11-23T09:42:32Z</time>
      </trkpt>
      <trkpt lat="46.67837" lon="6.09942">
        <ele>1033.6</ele>
        <time>2021-11-23T09:42:36Z</time>
      </trkpt>
      <trkpt lat="46.67837" lon="6.0995">
        <ele>1034</ele>
        <time>2021-11-23T09:42:41Z</time>
      </trkpt>
      <trkpt lat="46.67838" lon="6.09957">
        <ele>1034.5</ele>
        <time>2021-11-23T09:42:45Z</time>
      </trkpt>
      <trkpt lat="46.67839" lon="6.09965">
        <ele>1035</ele>
        <time>2021-11-23T09:42:50Z</time>
      </trkpt>
      <trkpt lat="46.6784" lon="6.09972">
        <ele>1034.9</ele>
        <time>2021-11-23T09:42:54Z</time>
      </trkpt>
      <trkpt lat="46.67841" lon="6.09979">
        <ele>1035</ele>
        <time>2021-11-23T09:42:59Z</time>
      </trkpt>
      <trkpt lat="46.67841" lon="6.09987">
        <ele>1035</ele>
        <time>2021-11-23T09:43:04Z</time>
      </trkpt>
      <trkpt lat="46.67842" lon="6.09994">
        <ele>1034.8</ele>
        <time>2021-11-23T09:43:09Z</time>
      </trkpt>
      <trkpt lat="46.67844" lon="6.10001">
        <ele>1034.4</ele>
        <time>2021-11-23T09:43:13Z</time>
      </trkpt>
      <trkpt lat="46.67844" lon="6.10008">
        <ele>1034.6</ele>
        <time>2021-11-23T09:43:18Z</time>
      </trkpt>
      <trkpt lat="46.67845" lon="6.10016">
        <ele>1034.4</ele>
        <time>2021-11-23T09:43:23Z</time>
      </trkpt>
      <trkpt lat="46.67845" lon="6.10024">
        <ele>1034</ele>
        <time>2021-11-23T09:43:28Z</time>
      </trkpt>
      <trkpt lat="46.67844" lon="6.10031">
        <ele>1033.7</ele>
        <time>2021-11-23T09:43:33Z</time>
      </trkpt>
      <trkpt lat="46.67844" lon="6.10038">
        <ele>1034.2</ele>
        <time>2021-11-23T09:43:37Z</time>
      </trkpt>
      <trkpt lat="46.67844" lon="6.10046">
        <ele>1035.5</ele>
        <time>2021-11-23T09:43:42Z</time>
      </trkpt>
      <trkpt lat="46.67843" lon="6.10053">
        <ele>1037.1</ele>
        <time>2021-11-23T09:43:47Z</time>
      </trkpt>
      <trkpt lat="46.67844" lon="6.1006">
        <ele>1038.5</ele>
        <time>2021-11-23T09:43:52Z</time>
      </trkpt>
      <trkpt lat="46.67843" lon="6.10067">
        <ele>1039.1</ele>
        <time>2021-11-23T09:43:57Z</time>
      </trkpt>
      <trkpt lat="46.67842" lon="6.10073">
        <ele>1039.2</ele>
        <time>2021-11-23T09:44:01Z</time>
      </trkpt>
      <trkpt lat="46.67841" lon="6.10081">
        <ele>1039.2</ele>
        <time>2021-11-23T09:44:06Z</time>
      </trkpt>
      <trkpt lat="46.67839" lon="6.10087">
        <ele>1039.5</ele>
        <time>2021-11-23T09:44:10Z</time>
      </trkpt>
      <trkpt lat="46.67839" lon="6.10094">
        <ele>1040</ele>
        <time>2021-11-23T09:44:14Z</time>
      </trkpt>
      <trkpt lat="46.67838" lon="6.10101">
        <ele>1040.2</ele>
        <time>2021-11-23T09:44:18Z</time>
      </trkpt>
      <trkpt lat="46.67838" lon="6.10108">
        <ele>1040.5</ele>
        <time>2021-11-23T09:44:22Z</time>
      </trkpt>
      <trkpt lat="46.67837" lon="6.10116">
        <ele>1040.8</ele>
        <time>2021-11-23T09:44:27Z</time>
      </trkpt>
      <trkpt lat="46.67836" lon="6.10123">
        <ele>1040.9</ele>
        <time>2021-11-23T09:44:31Z</time>
      </trkpt>
      <trkpt lat="46.67835" lon="6.1013">
        <ele>1040.8</ele>
        <time>2021-11-23T09:44:36Z</time>
      </trkpt>
      <trkpt lat="46.67834" lon="6.10138">
        <ele>1040.5</ele>
        <time>2021-11-23T09:44:41Z</time>
      </trkpt>
      <trkpt lat="46.67835" lon="6.10146">
        <ele>1039.7</ele>
        <time>2021-11-23T09:44:46Z</time>
      </trkpt>
      <trkpt lat="46.67835" lon="6.10154">
        <ele>1038.8</ele>
        <time>2021-11-23T09:44:51Z</time>
      </trkpt>
      <trkpt lat="46.67835" lon="6.10162">
        <ele>1038.4</ele>
        <time>2021-11-23T09:44:56Z</time>
      </trkpt>
      <trkpt lat="46.67834" lon="6.10169">
        <ele>1037.8</ele>
        <time>2021-11-23T09:45:00Z</time>
      </trkpt>
      <trkpt lat="46.67835" lon="6.10176">
        <ele>1037.4</ele>
        <time>2021-11-23T09:45:04Z</time>
      </trkpt>
      <trkpt lat="46.67834" lon="6.10183">
        <ele>1037.2</ele>
        <time>2021-11-23T09:45:10Z</time>
      </trkpt>
      <trkpt lat="46.67834" lon="6.10191">
        <ele>1036.8</ele>
        <time>2021-11-23T09:45:15Z</time>
      </trkpt>
      <trkpt lat="46.67834" lon="6.10198">
        <ele>1036.2</ele>
        <time>2021-11-23T09:45:20Z</time>
      </trkpt>
      <trkpt lat="46.67835" lon="6.10206">
        <ele>1035.4</ele>
        <time>2021-11-23T09:45:25Z</time>
      </trkpt>
      <trkpt lat="46.67834" lon="6.10213">
        <ele>1034.9</ele>
        <time>2021-11-23T09:45:29Z</time>
      </trkpt>
      <trkpt lat="46.67835" lon="6.1022">
        <ele>1034.7</ele>
        <time>2021-11-23T09:45:33Z</time>
      </trkpt>
      <trkpt lat="46.67835" lon="6.10227">
        <ele>1035</ele>
        <time>2021-11-23T09:45:38Z</time>
      </trkpt>
      <trkpt lat="46.67837" lon="6.10233">
        <ele>1035.4</ele>
        <time>2021-11-23T09:45:42Z</time>
      </trkpt>
      <trkpt lat="46.67837" lon="6.1024">
        <ele>1035.3</ele>
        <time>2021-11-23T09:45:46Z</time>
      </trkpt>
      <trkpt lat="46.67838" lon="6.10247">
        <ele>1034.6</ele>
        <time>2021-11-23T09:45:50Z</time>
      </trkpt>
      <trkpt lat="46.67839" lon="6.10254">
        <ele>1034.4</ele>
        <time>2021-11-23T09:45:54Z</time>
      </trkpt>
      <trkpt lat="46.6784" lon="6.10262">
        <ele>1034.5</ele>
        <time>2021-11-23T09:45:59Z</time>
      </trkpt>
      <trkpt lat="46.6784" lon="6.1027">
        <ele>1034.4</ele>
        <time>2021-11-23T09:46:03Z</time>
      </trkpt>
      <trkpt lat="46.67838" lon="6.10277">
        <ele>1034.4</ele>
        <time>2021-11-23T09:46:07Z</time>
      </trkpt>
      <trkpt lat="46.67837" lon="6.10284">
        <ele>1034.7</ele>
        <time>2021-11-23T09:46:12Z</time>
      </trkpt>
      <trkpt lat="46.67834" lon="6.10292">
        <ele>1035.1</ele>
        <time>2021-11-23T09:46:17Z</time>
      </trkpt>
      <trkpt lat="46.67833" lon="6.10299">
        <ele>1035.4</ele>
        <time>2021-11-23T09:46:22Z</time>
      </trkpt>
      <trkpt lat="46.67833" lon="6.10307">
        <ele>1035.7</ele>
        <time>2021-11-23T09:46:27Z</time>
      </trkpt>
      <trkpt lat="46.67832" lon="6.10314">
        <ele>1035.5</ele>
        <time>2021-11-23T09:46:32Z</time>
      </trkpt>
      <trkpt lat="46.6783" lon="6.10321">
        <ele>1035.5</ele>
        <time>2021-11-23T09:46:37Z</time>
      </trkpt>
      <trkpt lat="46.67828" lon="6.10327">
        <ele>1035.8</ele>
        <time>2021-11-23T09:46:41Z</time>
      </trkpt>
      <trkpt lat="46.67825" lon="6.10334">
        <ele>1036.2</ele>
        <time>2021-11-23T09:46:46Z</time>
      </trkpt>
      <trkpt lat="46.67821" lon="6.10339">
        <ele>1036.6</ele>
        <time>2021-11-23T09:46:50Z</time>
      </trkpt>
      <trkpt lat="46.67818" lon="6.10345">
        <ele>1037.2</ele>
        <time>2021-11-23T09:46:55Z</time>
      </trkpt>
      <trkpt lat="46.67815" lon="6.1035">
        <ele>1038.2</ele>
        <time>2021-11-23T09:46:59Z</time>
      </trkpt>
      <trkpt lat="46.67812" lon="6.10356">
        <ele>1038.9</ele>
        <time>2021-11-23T09:47:03Z</time>
      </trkpt>
      <trkpt lat="46.67809" lon="6.10362">
        <ele>1039.1</ele>
        <time>2021-11-23T09:47:07Z</time>
      </trkpt>
      <trkpt lat="46.67807" lon="6.10368">
        <ele>1038.9</ele>
        <time>2021-11-23T09:47:12Z</time>
      </trkpt>
      <trkpt lat="46.67806" lon="6.10374">
        <ele>1038.4</ele>
        <time>2021-11-23T09:47:17Z</time>
      </trkpt>
      <trkpt lat="46.67806" lon="6.10381">
        <ele>1035.3</ele>
        <time>2021-11-23T09:47:24Z</time>
      </trkpt>
      <trkpt lat="46.67805" lon="6.10389">
        <ele>1032.1</ele>
        <time>2021-11-23T09:47:29Z</time>
      </trkpt>
      <trkpt lat="46.67806" lon="6.10396">
        <ele>1029.1</ele>
        <time>2021-11-23T09:47:33Z</time>
      </trkpt>
      <trkpt lat="46.67806" lon="6.10403">
        <ele>1026.5</ele>
        <time>2021-11-23T09:47:38Z</time>
      </trkpt>
      <trkpt lat="46.67805" lon="6.10411">
        <ele>1025.2</ele>
        <time>2021-11-23T09:47:43Z</time>
      </trkpt>
      <trkpt lat="46.67805" lon="6.10418">
        <ele>1025.4</ele>
        <time>2021-11-23T09:47:48Z</time>
      </trkpt>
      <trkpt lat="46.67805" lon="6.10426">
        <ele>1025.8</ele>
        <time>2021-11-23T09:47:53Z</time>
      </trkpt>
      <trkpt lat="46.67805" lon="6.10434">
        <ele>1025.6</ele>
        <time>2021-11-23T09:47:58Z</time>
      </trkpt>
      <trkpt lat="46.67805" lon="6.1044">
        <ele>1025.2</ele>
        <time>2021-11-23T09:48:03Z</time>
      </trkpt>
      <trkpt lat="46.67806" lon="6.10447">
        <ele>1024.6</ele>
        <time>2021-11-23T09:48:07Z</time>
      </trkpt>
      <trkpt lat="46.67806" lon="6.10454">
        <ele>1023.8</ele>
        <time>2021-11-23T09:48:11Z</time>
      </trkpt>
      <trkpt lat="46.67805" lon="6.10462">
        <ele>1023.4</ele>
        <time>2021-11-23T09:48:16Z</time>
      </trkpt>
      <trkpt lat="46.67805" lon="6.10469">
        <ele>1023</ele>
        <time>2021-11-23T09:48:20Z</time>
      </trkpt>
      <trkpt lat="46.67804" lon="6.10476">
        <ele>1022.4</ele>
        <time>2021-11-23T09:48:25Z</time>
      </trkpt>
      <trkpt lat="46.67804" lon="6.10483">
        <ele>1022.3</ele>
        <time>2021-11-23T09:48:29Z</time>
      </trkpt>
      <trkpt lat="46.67805" lon="6.10491">
        <ele>1022.4</ele>
        <time>2021-11-23T09:48:34Z</time>
      </trkpt>
      <trkpt lat="46.67804" lon="6.10499">
        <ele>1022.8</ele>
        <time>2021-11-23T09:48:39Z</time>
      </trkpt>
      <trkpt lat="46.67803" lon="6.10505">
        <ele>1023.5</ele>
        <time>2021-11-23T09:48:44Z</time>
      </trkpt>
      <trkpt lat="46.67803" lon="6.10513">
        <ele>1023.6</ele>
        <time>2021-11-23T09:48:49Z</time>
      </trkpt>
      <trkpt lat="46.67804" lon="6.1052">
        <ele>1022.6</ele>
        <time>2021-11-23T09:48:54Z</time>
      </trkpt>
      <trkpt lat="46.67804" lon="6.10527">
        <ele>1022.1</ele>
        <time>2021-11-23T09:48:59Z</time>
      </trkpt>
      <trkpt lat="46.67805" lon="6.10534">
        <ele>1021.9</ele>
        <time>2021-11-23T09:49:04Z</time>
      </trkpt>
      <trkpt lat="46.67806" lon="6.10542">
        <ele>1022</ele>
        <time>2021-11-23T09:49:09Z</time>
      </trkpt>
      <trkpt lat="46.67806" lon="6.1055">
        <ele>1022.4</ele>
        <time>2021-11-23T09:49:13Z</time>
      </trkpt>
      <trkpt lat="46.67806" lon="6.10557">
        <ele>1022.9</ele>
        <time>2021-11-23T09:49:17Z</time>
      </trkpt>
      <trkpt lat="46.67807" lon="6.10565">
        <ele>1023.3</ele>
        <time>2021-11-23T09:49:22Z</time>
      </trkpt>
      <trkpt lat="46.67808" lon="6.10572">
        <ele>1023.3</ele>
        <time>2021-11-23T09:49:26Z</time>
      </trkpt>
      <trkpt lat="46.67808" lon="6.10579">
        <ele>1023.4</ele>
        <time>2021-11-23T09:49:31Z</time>
      </trkpt>
      <trkpt lat="46.67808" lon="6.10586">
        <ele>1022.8</ele>
        <time>2021-11-23T09:49:36Z</time>
      </trkpt>
      <trkpt lat="46.67809" lon="6.10593">
        <ele>1021.7</ele>
        <time>2021-11-23T09:49:41Z</time>
      </trkpt>
      <trkpt lat="46.6781" lon="6.106">
        <ele>1021</ele>
        <time>2021-11-23T09:49:45Z</time>
      </trkpt>
      <trkpt lat="46.6781" lon="6.10608">
        <ele>1020.5</ele>
        <time>2021-11-23T09:49:50Z</time>
      </trkpt>
      <trkpt lat="46.67811" lon="6.10616">
        <ele>1020.2</ele>
        <time>2021-11-23T09:49:55Z</time>
      </trkpt>
      <trkpt lat="46.67812" lon="6.10623">
        <ele>1019.8</ele>
        <time>2021-11-23T09:50:00Z</time>
      </trkpt>
      <trkpt lat="46.67813" lon="6.1063">
        <ele>1019.4</ele>
        <time>2021-11-23T09:50:04Z</time>
      </trkpt>
      <trkpt lat="46.67815" lon="6.10636">
        <ele>1019</ele>
        <time>2021-11-23T09:50:08Z</time>
      </trkpt>
      <trkpt lat="46.67817" lon="6.10643">
        <ele>1018.8</ele>
        <time>2021-11-23T09:50:12Z</time>
      </trkpt>
      <trkpt lat="46.67819" lon="6.10649">
        <ele>1018.6</ele>
        <time>2021-11-23T09:50:16Z</time>
      </trkpt>
      <trkpt lat="46.67822" lon="6.10654">
        <ele>1018.1</ele>
        <time>2021-11-23T09:50:20Z</time>
      </trkpt>
      <trkpt lat="46.67824" lon="6.1066">
        <ele>1017.7</ele>
        <time>2021-11-23T09:50:24Z</time>
      </trkpt>
      <trkpt lat="46.67826" lon="6.10668">
        <ele>1017.3</ele>
        <time>2021-11-23T09:50:29Z</time>
      </trkpt>
      <trkpt lat="46.67828" lon="6.10675">
        <ele>1016.8</ele>
        <time>2021-11-23T09:50:34Z</time>
      </trkpt>
      <trkpt lat="46.67831" lon="6.10681">
        <ele>1016.7</ele>
        <time>2021-11-23T09:50:38Z</time>
      </trkpt>
      <trkpt lat="46.67832" lon="6.10689">
        <ele>1016.7</ele>
        <time>2021-11-23T09:50:43Z</time>
      </trkpt>
      <trkpt lat="46.67834" lon="6.10696">
        <ele>1016.7</ele>
        <time>2021-11-23T09:50:47Z</time>
      </trkpt>
      <trkpt lat="46.67835" lon="6.10703">
        <ele>1017</ele>
        <time>2021-11-23T09:50:51Z</time>
      </trkpt>
      <trkpt lat="46.67837" lon="6.10709">
        <ele>1016.9</ele>
        <time>2021-11-23T09:50:56Z</time>
      </trkpt>
      <trkpt lat="46.67838" lon="6.10717">
        <ele>1017.4</ele>
        <time>2021-11-23T09:51:08Z</time>
      </trkpt>
      <trkpt lat="46.67839" lon="6.10724">
        <ele>1016.8</ele>
        <time>2021-11-23T09:51:13Z</time>
      </trkpt>
      <trkpt lat="46.67841" lon="6.10731">
        <ele>1016.3</ele>
        <time>2021-11-23T09:51:17Z</time>
      </trkpt>
      <trkpt lat="46.67843" lon="6.10739">
        <ele>1016.1</ele>
        <time>2021-11-23T09:51:22Z</time>
      </trkpt>
      <trkpt lat="46.67844" lon="6.10746">
        <ele>1016.1</ele>
        <time>2021-11-23T09:51:26Z</time>
      </trkpt>
      <trkpt lat="46.67846" lon="6.10752">
        <ele>1016.1</ele>
        <time>2021-11-23T09:51:30Z</time>
      </trkpt>
      <trkpt lat="46.67847" lon="6.1076">
        <ele>1016.2</ele>
        <time>2021-11-23T09:51:35Z</time>
      </trkpt>
      <trkpt lat="46.67847" lon="6.10767">
        <ele>1016</ele>
        <time>2021-11-23T09:51:39Z</time>
      </trkpt>
      <trkpt lat="46.67847" lon="6.10774">
        <ele>1016</ele>
        <time>2021-11-23T09:51:44Z</time>
      </trkpt>
      <trkpt lat="46.67848" lon="6.10782">
        <ele>1016</ele>
        <time>2021-11-23T09:51:49Z</time>
      </trkpt>
      <trkpt lat="46.6785" lon="6.10789">
        <ele>1015.3</ele>
        <time>2021-11-23T09:51:54Z</time>
      </trkpt>
      <trkpt lat="46.67852" lon="6.10796">
        <ele>1014.7</ele>
        <time>2021-11-23T09:51:58Z</time>
      </trkpt>
      <trkpt lat="46.67854" lon="6.10802">
        <ele>1014.2</ele>
        <time>2021-11-23T09:52:02Z</time>
      </trkpt>
      <trkpt lat="46.67855" lon="6.10808">
        <ele>1014.3</ele>
        <time>2021-11-23T09:52:06Z</time>
      </trkpt>
      <trkpt lat="46.67855" lon="6.10815">
        <ele>1014.3</ele>
        <time>2021-11-23T09:52:10Z</time>
      </trkpt>
      <trkpt lat="46.67855" lon="6.10823">
        <ele>1014.4</ele>
        <time>2021-11-23T09:52:15Z</time>
      </trkpt>
      <trkpt lat="46.67855" lon="6.10831">
        <ele>1014.9</ele>
        <time>2021-11-23T09:52:20Z</time>
      </trkpt>
      <trkpt lat="46.67855" lon="6.10838">
        <ele>1015.3</ele>
        <time>2021-11-23T09:52:24Z</time>
      </trkpt>
      <trkpt lat="46.67855" lon="6.10845">
        <ele>1015.7</ele>
        <time>2021-11-23T09:52:28Z</time>
      </trkpt>
      <trkpt lat="46.67856" lon="6.10853">
        <ele>1016</ele>
        <time>2021-11-23T09:52:33Z</time>
      </trkpt>
      <trkpt lat="46.67855" lon="6.1086">
        <ele>1015.8</ele>
        <time>2021-11-23T09:52:37Z</time>
      </trkpt>
      <trkpt lat="46.67854" lon="6.10868">
        <ele>1015.6</ele>
        <time>2021-11-23T09:52:42Z</time>
      </trkpt>
      <trkpt lat="46.67852" lon="6.10875">
        <ele>1015.3</ele>
        <time>2021-11-23T09:52:47Z</time>
      </trkpt>
      <trkpt lat="46.67849" lon="6.10882">
        <ele>1015.1</ele>
        <time>2021-11-23T09:52:52Z</time>
      </trkpt>
      <trkpt lat="46.67846" lon="6.10887">
        <ele>1015.1</ele>
        <time>2021-11-23T09:52:56Z</time>
      </trkpt>
      <trkpt lat="46.67842" lon="6.10891">
        <ele>1015</ele>
        <time>2021-11-23T09:53:00Z</time>
      </trkpt>
      <trkpt lat="46.67837" lon="6.10894">
        <ele>1015.3</ele>
        <time>2021-11-23T09:53:05Z</time>
      </trkpt>
      <trkpt lat="46.67832" lon="6.10896">
        <ele>1015.9</ele>
        <time>2021-11-23T09:53:11Z</time>
      </trkpt>
      <trkpt lat="46.67828" lon="6.10899">
        <ele>1016.2</ele>
        <time>2021-11-23T09:53:16Z</time>
      </trkpt>
      <trkpt lat="46.67822" lon="6.10901">
        <ele>1016.3</ele>
        <time>2021-11-23T09:53:21Z</time>
      </trkpt>
      <trkpt lat="46.67817" lon="6.10904">
        <ele>1015.8</ele>
        <time>2021-11-23T09:53:26Z</time>
      </trkpt>
      <trkpt lat="46.67813" lon="6.10908">
        <ele>1015.1</ele>
        <time>2021-11-23T09:53:30Z</time>
      </trkpt>
      <trkpt lat="46.67808" lon="6.10911">
        <ele>1014.7</ele>
        <time>2021-11-23T09:53:34Z</time>
      </trkpt>
      <trkpt lat="46.67804" lon="6.10914">
        <ele>1014.1</ele>
        <time>2021-11-23T09:53:38Z</time>
      </trkpt>
      <trkpt lat="46.67798" lon="6.10916">
        <ele>1014</ele>
        <time>2021-11-23T09:53:43Z</time>
      </trkpt>
      <trkpt lat="46.67794" lon="6.10919">
        <ele>1013.8</ele>
        <time>2021-11-23T09:53:47Z</time>
      </trkpt>
      <trkpt lat="46.6779" lon="6.10921">
        <ele>1013.5</ele>
        <time>2021-11-23T09:53:51Z</time>
      </trkpt>
      <trkpt lat="46.67785" lon="6.10924">
        <ele>1013.6</ele>
        <time>2021-11-23T09:53:55Z</time>
      </trkpt>
      <trkpt lat="46.67781" lon="6.10925">
        <ele>1013</ele>
        <time>2021-11-23T09:54:00Z</time>
      </trkpt>
      <trkpt lat="46.67776" lon="6.10929">
        <ele>1012.2</ele>
        <time>2021-11-23T09:54:05Z</time>
      </trkpt>
      <trkpt lat="46.67772" lon="6.10932">
        <ele>1011.6</ele>
        <time>2021-11-23T09:54:09Z</time>
      </trkpt>
      <trkpt lat="46.67767" lon="6.10934">
        <ele>1011.3</ele>
        <time>2021-11-23T09:54:13Z</time>
      </trkpt>
      <trkpt lat="46.67763" lon="6.10937">
        <ele>1011.3</ele>
        <time>2021-11-23T09:54:17Z</time>
      </trkpt>
      <trkpt lat="46.67758" lon="6.1094">
        <ele>1011.4</ele>
        <time>2021-11-23T09:54:21Z</time>
      </trkpt>
      <trkpt lat="46.67753" lon="6.10943">
        <ele>1011.4</ele>
        <time>2021-11-23T09:54:25Z</time>
      </trkpt>
      <trkpt lat="46.67749" lon="6.10946">
        <ele>1011.2</ele>
        <time>2021-11-23T09:54:29Z</time>
      </trkpt>
      <trkpt lat="46.67744" lon="6.10949">
        <ele>1011</ele>
        <time>2021-11-23T09:54:33Z</time>
      </trkpt>
      <trkpt lat="46.6774" lon="6.10952">
        <ele>1011.5</ele>
        <time>2021-11-23T09:54:37Z</time>
      </trkpt>
      <trkpt lat="46.67735" lon="6.10955">
        <ele>1012.3</ele>
        <time>2021-11-23T09:54:42Z</time>
      </trkpt>
      <trkpt lat="46.6773" lon="6.10957">
        <ele>1012.7</ele>
        <time>2021-11-23T09:54:46Z</time>
      </trkpt>
      <trkpt lat="46.67726" lon="6.1096">
        <ele>1012.7</ele>
        <time>2021-11-23T09:54:50Z</time>
      </trkpt>
      <trkpt lat="46.67722" lon="6.10964">
        <ele>1012.7</ele>
        <time>2021-11-23T09:54:54Z</time>
      </trkpt>
      <trkpt lat="46.67717" lon="6.10967">
        <ele>1012.7</ele>
        <time>2021-11-23T09:54:59Z</time>
      </trkpt>
      <trkpt lat="46.67712" lon="6.10971">
        <ele>1012.5</ele>
        <time>2021-11-23T09:55:04Z</time>
      </trkpt>
      <trkpt lat="46.67707" lon="6.10975">
        <ele>1012</ele>
        <time>2021-11-23T09:55:09Z</time>
      </trkpt>
      <trkpt lat="46.67703" lon="6.10979">
        <ele>1011.2</ele>
        <time>2021-11-23T09:55:14Z</time>
      </trkpt>
      <trkpt lat="46.67699" lon="6.10984">
        <ele>1009.9</ele>
        <time>2021-11-23T09:55:19Z</time>
      </trkpt>
      <trkpt lat="46.67696" lon="6.10989">
        <ele>1008.4</ele>
        <time>2021-11-23T09:55:23Z</time>
      </trkpt>
      <trkpt lat="46.67693" lon="6.10994">
        <ele>1007.1</ele>
        <time>2021-11-23T09:55:27Z</time>
      </trkpt>
      <trkpt lat="46.67691" lon="6.11">
        <ele>1006</ele>
        <time>2021-11-23T09:55:32Z</time>
      </trkpt>
      <trkpt lat="46.67688" lon="6.11006">
        <ele>1005.5</ele>
        <time>2021-11-23T09:55:37Z</time>
      </trkpt>
      <trkpt lat="46.67686" lon="6.11012">
        <ele>1005.3</ele>
        <time>2021-11-23T09:55:41Z</time>
      </trkpt>
      <trkpt lat="46.67684" lon="6.11019">
        <ele>1004.8</ele>
        <time>2021-11-23T09:55:45Z</time>
      </trkpt>
      <trkpt lat="46.67683" lon="6.11026">
        <ele>1004.3</ele>
        <time>2021-11-23T09:55:50Z</time>
      </trkpt>
      <trkpt lat="46.67681" lon="6.11033">
        <ele>1003.7</ele>
        <time>2021-11-23T09:55:54Z</time>
      </trkpt>
      <trkpt lat="46.6768" lon="6.1104">
        <ele>1002.9</ele>
        <time>2021-11-23T09:55:58Z</time>
      </trkpt>
      <trkpt lat="46.67678" lon="6.11047">
        <ele>1001.9</ele>
        <time>2021-11-23T09:56:03Z</time>
      </trkpt>
      <trkpt lat="46.67677" lon="6.11054">
        <ele>1001.3</ele>
        <time>2021-11-23T09:56:07Z</time>
      </trkpt>
      <trkpt lat="46.67675" lon="6.11061">
        <ele>1000.8</ele>
        <time>2021-11-23T09:56:12Z</time>
      </trkpt>
      <trkpt lat="46.67673" lon="6.11068">
        <ele>1000.1</ele>
        <time>2021-11-23T09:56:17Z</time>
      </trkpt>
      <trkpt lat="46.67671" lon="6.11076">
        <ele>999</ele>
        <time>2021-11-23T09:56:22Z</time>
      </trkpt>
      <trkpt lat="46.67669" lon="6.11083">
        <ele>998.6</ele>
        <time>2021-11-23T09:56:27Z</time>
      </trkpt>
      <trkpt lat="46.67668" lon="6.1109">
        <ele>998.6</ele>
        <time>2021-11-23T09:56:32Z</time>
      </trkpt>
      <trkpt lat="46.67666" lon="6.11097">
        <ele>998.1</ele>
        <time>2021-11-23T09:56:36Z</time>
      </trkpt>
      <trkpt lat="46.67664" lon="6.11104">
        <ele>997.1</ele>
        <time>2021-11-23T09:56:40Z</time>
      </trkpt>
      <trkpt lat="46.67662" lon="6.1111">
        <ele>996.2</ele>
        <time>2021-11-23T09:56:44Z</time>
      </trkpt>
      <trkpt lat="46.6766" lon="6.11117">
        <ele>995.2</ele>
        <time>2021-11-23T09:56:49Z</time>
      </trkpt>
      <trkpt lat="46.67658" lon="6.11124">
        <ele>994.8</ele>
        <time>2021-11-23T09:56:54Z</time>
      </trkpt>
      <trkpt lat="46.67656" lon="6.11129">
        <ele>994.8</ele>
        <time>2021-11-23T09:56:58Z</time>
      </trkpt>
      <trkpt lat="46.67652" lon="6.11134">
        <ele>994.9</ele>
        <time>2021-11-23T09:57:02Z</time>
      </trkpt>
      <trkpt lat="46.67649" lon="6.11138">
        <ele>995.2</ele>
        <time>2021-11-23T09:57:06Z</time>
      </trkpt>
      <trkpt lat="46.67644" lon="6.11141">
        <ele>995.6</ele>
        <time>2021-11-23T09:57:10Z</time>
      </trkpt>
      <trkpt lat="46.67639" lon="6.11144">
        <ele>996.1</ele>
        <time>2021-11-23T09:57:14Z</time>
      </trkpt>
      <trkpt lat="46.67634" lon="6.11147">
        <ele>996.4</ele>
        <time>2021-11-23T09:57:18Z</time>
      </trkpt>
      <trkpt lat="46.67629" lon="6.11148">
        <ele>996.3</ele>
        <time>2021-11-23T09:57:22Z</time>
      </trkpt>
      <trkpt lat="46.67624" lon="6.1115">
        <ele>996.3</ele>
        <time>2021-11-23T09:57:27Z</time>
      </trkpt>
      <trkpt lat="46.67619" lon="6.11148">
        <ele>996.7</ele>
        <time>2021-11-23T09:57:32Z</time>
      </trkpt>
      <trkpt lat="46.67615" lon="6.11145">
        <ele>997.1</ele>
        <time>2021-11-23T09:57:36Z</time>
      </trkpt>
      <trkpt lat="46.67611" lon="6.1114">
        <ele>997.5</ele>
        <time>2021-11-23T09:57:40Z</time>
      </trkpt>
      <trkpt lat="46.67608" lon="6.11134">
        <ele>998.1</ele>
        <time>2021-11-23T09:57:44Z</time>
      </trkpt>
      <trkpt lat="46.67606" lon="6.11127">
        <ele>999.2</ele>
        <time>2021-11-23T09:57:49Z</time>
      </trkpt>
      <trkpt lat="46.67603" lon="6.11121">
        <ele>1000.1</ele>
        <time>2021-11-23T09:57:53Z</time>
      </trkpt>
      <trkpt lat="46.67601" lon="6.11115">
        <ele>1000.9</ele>
        <time>2021-11-23T09:57:57Z</time>
      </trkpt>
      <trkpt lat="46.67599" lon="6.11108">
        <ele>1001.5</ele>
        <time>2021-11-23T09:58:02Z</time>
      </trkpt>
      <trkpt lat="46.67596" lon="6.11102">
        <ele>1001.6</ele>
        <time>2021-11-23T09:58:07Z</time>
      </trkpt>
      <trkpt lat="46.67593" lon="6.11095">
        <ele>1001.3</ele>
        <time>2021-11-23T09:58:12Z</time>
      </trkpt>
      <trkpt lat="46.67591" lon="6.11089">
        <ele>1001.4</ele>
        <time>2021-11-23T09:58:16Z</time>
      </trkpt>
      <trkpt lat="46.67589" lon="6.11082">
        <ele>1001.7</ele>
        <time>2021-11-23T09:58:20Z</time>
      </trkpt>
      <trkpt lat="46.67586" lon="6.11075">
        <ele>1001.9</ele>
        <time>2021-11-23T09:58:24Z</time>
      </trkpt>
      <trkpt lat="46.67585" lon="6.11069">
        <ele>1002.2</ele>
        <time>2021-11-23T09:58:28Z</time>
      </trkpt>
      <trkpt lat="46.67582" lon="6.11063">
        <ele>1002.5</ele>
        <time>2021-11-23T09:58:33Z</time>
      </trkpt>
      <trkpt lat="46.67579" lon="6.11056">
        <ele>1002.4</ele>
        <time>2021-11-23T09:58:38Z</time>
      </trkpt>
      <trkpt lat="46.67576" lon="6.11051">
        <ele>1002.5</ele>
        <time>2021-11-23T09:58:43Z</time>
      </trkpt>
      <trkpt lat="46.67573" lon="6.11045">
        <ele>1002.9</ele>
        <time>2021-11-23T09:58:48Z</time>
      </trkpt>
      <trkpt lat="46.67571" lon="6.11039">
        <ele>1003.6</ele>
        <time>2021-11-23T09:58:53Z</time>
      </trkpt>
      <trkpt lat="46.67569" lon="6.11033">
        <ele>1004.1</ele>
        <time>2021-11-23T09:58:57Z</time>
      </trkpt>
      <trkpt lat="46.67566" lon="6.11027">
        <ele>1005.2</ele>
        <time>2021-11-23T09:59:01Z</time>
      </trkpt>
      <trkpt lat="46.67563" lon="6.11021">
        <ele>1006.3</ele>
        <time>2021-11-23T09:59:06Z</time>
      </trkpt>
      <trkpt lat="46.6756" lon="6.11015">
        <ele>1006.4</ele>
        <time>2021-11-23T09:59:11Z</time>
      </trkpt>
      <trkpt lat="46.67557" lon="6.1101">
        <ele>1005.9</ele>
        <time>2021-11-23T09:59:15Z</time>
      </trkpt>
      <trkpt lat="46.67555" lon="6.11004">
        <ele>1005.1</ele>
        <time>2021-11-23T09:59:19Z</time>
      </trkpt>
      <trkpt lat="46.67553" lon="6.10998">
        <ele>1004.9</ele>
        <time>2021-11-23T09:59:23Z</time>
      </trkpt>
      <trkpt lat="46.6755" lon="6.10993">
        <ele>1005</ele>
        <time>2021-11-23T09:59:27Z</time>
      </trkpt>
      <trkpt lat="46.67546" lon="6.10987">
        <ele>1005.4</ele>
        <time>2021-11-23T09:59:32Z</time>
      </trkpt>
      <trkpt lat="46.67543" lon="6.10983">
        <ele>1005.3</ele>
        <time>2021-11-23T09:59:36Z</time>
      </trkpt>
      <trkpt lat="46.67538" lon="6.10979">
        <ele>1005.4</ele>
        <time>2021-11-23T09:59:40Z</time>
      </trkpt>
      <trkpt lat="46.67534" lon="6.10975">
        <ele>1005.6</ele>
        <time>2021-11-23T09:59:44Z</time>
      </trkpt>
      <trkpt lat="46.6753" lon="6.1097">
        <ele>1005.5</ele>
        <time>2021-11-23T09:59:49Z</time>
      </trkpt>
      <trkpt lat="46.67526" lon="6.10965">
        <ele>1005.2</ele>
        <time>2021-11-23T09:59:53Z</time>
      </trkpt>
      <trkpt lat="46.67522" lon="6.10961">
        <ele>1004.7</ele>
        <time>2021-11-23T09:59:57Z</time>
      </trkpt>
      <trkpt lat="46.67518" lon="6.10957">
        <ele>1004.6</ele>
        <time>2021-11-23T10:00:02Z</time>
      </trkpt>
      <trkpt lat="46.67514" lon="6.10953">
        <ele>1004.3</ele>
        <time>2021-11-23T10:00:06Z</time>
      </trkpt>
      <trkpt lat="46.6751" lon="6.10949">
        <ele>1003.6</ele>
        <time>2021-11-23T10:00:11Z</time>
      </trkpt>
      <trkpt lat="46.67506" lon="6.10946">
        <ele>1002.5</ele>
        <time>2021-11-23T10:00:16Z</time>
      </trkpt>
      <trkpt lat="46.67501" lon="6.10943">
        <ele>1001.3</ele>
        <time>2021-11-23T10:00:21Z</time>
      </trkpt>
      <trkpt lat="46.67497" lon="6.10938">
        <ele>1000.5</ele>
        <time>2021-11-23T10:00:25Z</time>
      </trkpt>
      <trkpt lat="46.67493" lon="6.10934">
        <ele>1000</ele>
        <time>2021-11-23T10:00:29Z</time>
      </trkpt>
      <trkpt lat="46.67488" lon="6.10931">
        <ele>999.7</ele>
        <time>2021-11-23T10:00:33Z</time>
      </trkpt>
      <trkpt lat="46.67483" lon="6.10928">
        <ele>1000</ele>
        <time>2021-11-23T10:00:37Z</time>
      </trkpt>
      <trkpt lat="46.67479" lon="6.10925">
        <ele>1000.4</ele>
        <time>2021-11-23T10:00:41Z</time>
      </trkpt>
      <trkpt lat="46.67474" lon="6.10923">
        <ele>1001.1</ele>
        <time>2021-11-23T10:00:45Z</time>
      </trkpt>
      <trkpt lat="46.67469" lon="6.1092">
        <ele>1001.7</ele>
        <time>2021-11-23T10:00:49Z</time>
      </trkpt>
      <trkpt lat="46.67464" lon="6.10917">
        <ele>1002.4</ele>
        <time>2021-11-23T10:00:54Z</time>
      </trkpt>
      <trkpt lat="46.6746" lon="6.10914">
        <ele>1002.7</ele>
        <time>2021-11-23T10:00:59Z</time>
      </trkpt>
      <trkpt lat="46.67454" lon="6.10913">
        <ele>1002.7</ele>
        <time>2021-11-23T10:01:04Z</time>
      </trkpt>
      <trkpt lat="46.6745" lon="6.10912">
        <ele>1002.4</ele>
        <time>2021-11-23T10:01:08Z</time>
      </trkpt>
      <trkpt lat="46.67445" lon="6.1091">
        <ele>1001.5</ele>
        <time>2021-11-23T10:01:13Z</time>
      </trkpt>
      <trkpt lat="46.6744" lon="6.10909">
        <ele>1000.1</ele>
        <time>2021-11-23T10:01:18Z</time>
      </trkpt>
      <trkpt lat="46.67434" lon="6.1091">
        <ele>999.3</ele>
        <time>2021-11-23T10:01:22Z</time>
      </trkpt>
      <trkpt lat="46.6743" lon="6.10911">
        <ele>999.3</ele>
        <time>2021-11-23T10:01:26Z</time>
      </trkpt>
      <trkpt lat="46.67425" lon="6.10911">
        <ele>999.9</ele>
        <time>2021-11-23T10:01:30Z</time>
      </trkpt>
      <trkpt lat="46.6742" lon="6.10913">
        <ele>1000.5</ele>
        <time>2021-11-23T10:01:34Z</time>
      </trkpt>
      <trkpt lat="46.67415" lon="6.10915">
        <ele>1001.2</ele>
        <time>2021-11-23T10:01:38Z</time>
      </trkpt>
      <trkpt lat="46.6741" lon="6.10917">
        <ele>1001.8</ele>
        <time>2021-11-23T10:01:43Z</time>
      </trkpt>
      <trkpt lat="46.67405" lon="6.10919">
        <ele>1001.6</ele>
        <time>2021-11-23T10:01:48Z</time>
      </trkpt>
      <trkpt lat="46.67399" lon="6.10922">
        <ele>1001.3</ele>
        <time>2021-11-23T10:01:53Z</time>
      </trkpt>
      <trkpt lat="46.67395" lon="6.10924">
        <ele>1000.7</ele>
        <time>2021-11-23T10:01:57Z</time>
      </trkpt>
      <trkpt lat="46.6739" lon="6.10927">
        <ele>1000.2</ele>
        <time>2021-11-23T10:02:02Z</time>
      </trkpt>
      <trkpt lat="46.67386" lon="6.10931">
        <ele>999.8</ele>
        <time>2021-11-23T10:02:06Z</time>
      </trkpt>
      <trkpt lat="46.67381" lon="6.10934">
        <ele>999.5</ele>
        <time>2021-11-23T10:02:12Z</time>
      </trkpt>
      <trkpt lat="46.67378" lon="6.1094">
        <ele>999.7</ele>
        <time>2021-11-23T10:02:17Z</time>
      </trkpt>
      <trkpt lat="46.67373" lon="6.10942">
        <ele>999.5</ele>
        <time>2021-11-23T10:02:22Z</time>
      </trkpt>
      <trkpt lat="46.67369" lon="6.10946">
        <ele>999.1</ele>
        <time>2021-11-23T10:02:27Z</time>
      </trkpt>
      <trkpt lat="46.67365" lon="6.10949">
        <ele>998.4</ele>
        <time>2021-11-23T10:02:33Z</time>
      </trkpt>
      <trkpt lat="46.6736" lon="6.10952">
        <ele>997.9</ele>
        <time>2021-11-23T10:02:37Z</time>
      </trkpt>
      <trkpt lat="46.67356" lon="6.10956">
        <ele>997.7</ele>
        <time>2021-11-23T10:02:41Z</time>
      </trkpt>
      <trkpt lat="46.67352" lon="6.1096">
        <ele>997.5</ele>
        <time>2021-11-23T10:02:45Z</time>
      </trkpt>
      <trkpt lat="46.67348" lon="6.10963">
        <ele>997.5</ele>
        <time>2021-11-23T10:02:49Z</time>
      </trkpt>
      <trkpt lat="46.67343" lon="6.10967">
        <ele>998</ele>
        <time>2021-11-23T10:02:53Z</time>
      </trkpt>
      <trkpt lat="46.67339" lon="6.10971">
        <ele>998.3</ele>
        <time>2021-11-23T10:02:57Z</time>
      </trkpt>
      <trkpt lat="46.67334" lon="6.10975">
        <ele>998.6</ele>
        <time>2021-11-23T10:03:02Z</time>
      </trkpt>
      <trkpt lat="46.6733" lon="6.10979">
        <ele>998.8</ele>
        <time>2021-11-23T10:03:06Z</time>
      </trkpt>
      <trkpt lat="46.67326" lon="6.10982">
        <ele>999.2</ele>
        <time>2021-11-23T10:03:10Z</time>
      </trkpt>
      <trkpt lat="46.67322" lon="6.10985">
        <ele>999.6</ele>
        <time>2021-11-23T10:03:14Z</time>
      </trkpt>
      <trkpt lat="46.67317" lon="6.10989">
        <ele>1000.4</ele>
        <time>2021-11-23T10:03:18Z</time>
      </trkpt>
      <trkpt lat="46.67313" lon="6.10993">
        <ele>1001.2</ele>
        <time>2021-11-23T10:03:23Z</time>
      </trkpt>
      <trkpt lat="46.67309" lon="6.10997">
        <ele>1001.7</ele>
        <time>2021-11-23T10:03:27Z</time>
      </trkpt>
      <trkpt lat="46.67305" lon="6.11002">
        <ele>1002.1</ele>
        <time>2021-11-23T10:03:32Z</time>
      </trkpt>
      <trkpt lat="46.67301" lon="6.11006">
        <ele>1001.9</ele>
        <time>2021-11-23T10:03:39Z</time>
      </trkpt>
      <trkpt lat="46.67296" lon="6.11009">
        <ele>1001.5</ele>
        <time>2021-11-23T10:03:45Z</time>
      </trkpt>
      <trkpt lat="46.67293" lon="6.11014">
        <ele>1001.9</ele>
        <time>2021-11-23T10:04:09Z</time>
      </trkpt>
      <trkpt lat="46.67288" lon="6.11016">
        <ele>1001.8</ele>
        <time>2021-11-23T10:04:13Z</time>
      </trkpt>
      <trkpt lat="46.67284" lon="6.11018">
        <ele>1002.3</ele>
        <time>2021-11-23T10:04:17Z</time>
      </trkpt>
      <trkpt lat="46.67279" lon="6.11019">
        <ele>1002.5</ele>
        <time>2021-11-23T10:04:21Z</time>
      </trkpt>
      <trkpt lat="46.67274" lon="6.1102">
        <ele>1002.5</ele>
        <time>2021-11-23T10:04:26Z</time>
      </trkpt>
      <trkpt lat="46.67269" lon="6.11022">
        <ele>1002.5</ele>
        <time>2021-11-23T10:04:30Z</time>
      </trkpt>
      <trkpt lat="46.67265" lon="6.11024">
        <ele>1002.4</ele>
        <time>2021-11-23T10:04:34Z</time>
      </trkpt>
      <trkpt lat="46.6726" lon="6.11025">
        <ele>1002.2</ele>
        <time>2021-11-23T10:04:38Z</time>
      </trkpt>
      <trkpt lat="46.67255" lon="6.11027">
        <ele>1002.4</ele>
        <time>2021-11-23T10:04:43Z</time>
      </trkpt>
      <trkpt lat="46.67251" lon="6.11029">
        <ele>1002.9</ele>
        <time>2021-11-23T10:04:47Z</time>
      </trkpt>
      <trkpt lat="46.67245" lon="6.11029">
        <ele>1003.7</ele>
        <time>2021-11-23T10:04:52Z</time>
      </trkpt>
      <trkpt lat="46.67241" lon="6.11032">
        <ele>1004.2</ele>
        <time>2021-11-23T10:04:56Z</time>
      </trkpt>
      <trkpt lat="46.67235" lon="6.11034">
        <ele>1004.3</ele>
        <time>2021-11-23T10:05:01Z</time>
      </trkpt>
      <trkpt lat="46.67231" lon="6.11035">
        <ele>1004</ele>
        <time>2021-11-23T10:05:06Z</time>
      </trkpt>
      <trkpt lat="46.67227" lon="6.1104">
        <ele>1003.4</ele>
        <time>2021-11-23T10:05:18Z</time>
      </trkpt>
      <trkpt lat="46.67225" lon="6.11047">
        <ele>1003.2</ele>
        <time>2021-11-23T10:05:25Z</time>
      </trkpt>
      <trkpt lat="46.67222" lon="6.11054">
        <ele>1003.4</ele>
        <time>2021-11-23T10:05:31Z</time>
      </trkpt>
      <trkpt lat="46.67222" lon="6.1106">
        <ele>1004.1</ele>
        <time>2021-11-23T10:05:53Z</time>
      </trkpt>
      <trkpt lat="46.67223" lon="6.11068">
        <ele>1004.3</ele>
        <time>2021-11-23T10:05:59Z</time>
      </trkpt>
      <trkpt lat="46.67222" lon="6.11075">
        <ele>1004.3</ele>
        <time>2021-11-23T10:06:04Z</time>
      </trkpt>
      <trkpt lat="46.67222" lon="6.11083">
        <ele>1004.2</ele>
        <time>2021-11-23T10:06:09Z</time>
      </trkpt>
      <trkpt lat="46.67222" lon="6.11091">
        <ele>1004.9</ele>
        <time>2021-11-23T10:06:14Z</time>
      </trkpt>
      <trkpt lat="46.67222" lon="6.11099">
        <ele>1005.8</ele>
        <time>2021-11-23T10:06:19Z</time>
      </trkpt>
      <trkpt lat="46.67224" lon="6.11106">
        <ele>1006.8</ele>
        <time>2021-11-23T10:06:25Z</time>
      </trkpt>
      <trkpt lat="46.67224" lon="6.11114">
        <ele>1007.8</ele>
        <time>2021-11-23T10:06:31Z</time>
      </trkpt>
      <trkpt lat="46.67224" lon="6.11122">
        <ele>1008.9</ele>
        <time>2021-11-23T10:06:36Z</time>
      </trkpt>
      <trkpt lat="46.67225" lon="6.11129">
        <ele>1010</ele>
        <time>2021-11-23T10:06:41Z</time>
      </trkpt>
      <trkpt lat="46.67225" lon="6.11136">
        <ele>1010.8</ele>
        <time>2021-11-23T10:06:46Z</time>
      </trkpt>
      <trkpt lat="46.67226" lon="6.11143">
        <ele>1011.1</ele>
        <time>2021-11-23T10:06:51Z</time>
      </trkpt>
      <trkpt lat="46.67228" lon="6.11151">
        <ele>1011.1</ele>
        <time>2021-11-23T10:06:56Z</time>
      </trkpt>
      <trkpt lat="46.6723" lon="6.11157">
        <ele>1010.7</ele>
        <time>2021-11-23T10:07:01Z</time>
      </trkpt>
      <trkpt lat="46.67231" lon="6.11164">
        <ele>1010.2</ele>
        <time>2021-11-23T10:07:06Z</time>
      </trkpt>
      <trkpt lat="46.67232" lon="6.11172">
        <ele>1009.6</ele>
        <time>2021-11-23T10:07:11Z</time>
      </trkpt>
      <trkpt lat="46.67232" lon="6.1118">
        <ele>1009.2</ele>
        <time>2021-11-23T10:07:16Z</time>
      </trkpt>
      <trkpt lat="46.67233" lon="6.11188">
        <ele>1008.8</ele>
        <time>2021-11-23T10:07:21Z</time>
      </trkpt>
      <trkpt lat="46.67233" lon="6.11195">
        <ele>1008.6</ele>
        <time>2021-11-23T10:07:26Z</time>
      </trkpt>
      <trkpt lat="46.67234" lon="6.11202">
        <ele>1008.4</ele>
        <time>2021-11-23T10:07:31Z</time>
      </trkpt>
      <trkpt lat="46.67235" lon="6.11209">
        <ele>1008.2</ele>
        <time>2021-11-23T10:07:35Z</time>
      </trkpt>
      <trkpt lat="46.67237" lon="6.11217">
        <ele>1008</ele>
        <time>2021-11-23T10:07:40Z</time>
      </trkpt>
      <trkpt lat="46.67238" lon="6.11224">
        <ele>1007</ele>
        <time>2021-11-23T10:07:44Z</time>
      </trkpt>
      <trkpt lat="46.67237" lon="6.11232">
        <ele>1006.6</ele>
        <time>2021-11-23T10:07:49Z</time>
      </trkpt>
      <trkpt lat="46.67239" lon="6.11239">
        <ele>1006.7</ele>
        <time>2021-11-23T10:07:54Z</time>
      </trkpt>
      <trkpt lat="46.67241" lon="6.11246">
        <ele>1007.2</ele>
        <time>2021-11-23T10:07:59Z</time>
      </trkpt>
      <trkpt lat="46.67242" lon="6.11254">
        <ele>1007.6</ele>
        <time>2021-11-23T10:08:04Z</time>
      </trkpt>
      <trkpt lat="46.67242" lon="6.11262">
        <ele>1007.6</ele>
        <time>2021-11-23T10:08:08Z</time>
      </trkpt>
      <trkpt lat="46.67245" lon="6.11268">
        <ele>1007.3</ele>
        <time>2021-11-23T10:08:12Z</time>
      </trkpt>
      <trkpt lat="46.67246" lon="6.11276">
        <ele>1006.5</ele>
        <time>2021-11-23T10:08:17Z</time>
      </trkpt>
      <trkpt lat="46.67245" lon="6.11282">
        <ele>1005.9</ele>
        <time>2021-11-23T10:08:21Z</time>
      </trkpt>
      <trkpt lat="46.67241" lon="6.11287">
        <ele>1005.3</ele>
        <time>2021-11-23T10:08:26Z</time>
      </trkpt>
      <trkpt lat="46.67236" lon="6.11289">
        <ele>1005.2</ele>
        <time>2021-11-23T10:08:30Z</time>
      </trkpt>
      <trkpt lat="46.67231" lon="6.11291">
        <ele>1005.1</ele>
        <time>2021-11-23T10:08:34Z</time>
      </trkpt>
      <trkpt lat="46.67226" lon="6.11293">
        <ele>1004.7</ele>
        <time>2021-11-23T10:08:39Z</time>
      </trkpt>
      <trkpt lat="46.67221" lon="6.11297">
        <ele>1004.2</ele>
        <time>2021-11-23T10:08:45Z</time>
      </trkpt>
      <trkpt lat="46.67217" lon="6.11302">
        <ele>1004.3</ele>
        <time>2021-11-23T10:08:50Z</time>
      </trkpt>
      <trkpt lat="46.67216" lon="6.11308">
        <ele>1004.4</ele>
        <time>2021-11-23T10:08:56Z</time>
      </trkpt>
      <trkpt lat="46.67213" lon="6.11314">
        <ele>1004.6</ele>
        <time>2021-11-23T10:09:02Z</time>
      </trkpt>
      <trkpt lat="46.67211" lon="6.1132">
        <ele>1004.7</ele>
        <time>2021-11-23T10:09:06Z</time>
      </trkpt>
      <trkpt lat="46.67209" lon="6.11326">
        <ele>1005.1</ele>
        <time>2021-11-23T10:09:09Z</time>
      </trkpt>
      <trkpt lat="46.67208" lon="6.11332">
        <ele>1005.9</ele>
        <time>2021-11-23T10:09:14Z</time>
      </trkpt>
      <trkpt lat="46.67209" lon="6.1134">
        <ele>1007</ele>
        <time>2021-11-23T10:09:21Z</time>
      </trkpt>
      <trkpt lat="46.67209" lon="6.11348">
        <ele>1007.2</ele>
        <time>2021-11-23T10:09:26Z</time>
      </trkpt>
      <trkpt lat="46.67209" lon="6.11355">
        <ele>1006.9</ele>
        <time>2021-11-23T10:09:31Z</time>
      </trkpt>
      <trkpt lat="46.67209" lon="6.11362">
        <ele>1006.9</ele>
        <time>2021-11-23T10:09:36Z</time>
      </trkpt>
      <trkpt lat="46.67209" lon="6.11369">
        <ele>1007.3</ele>
        <time>2021-11-23T10:09:40Z</time>
      </trkpt>
      <trkpt lat="46.6721" lon="6.11375">
        <ele>1008.4</ele>
        <time>2021-11-23T10:09:44Z</time>
      </trkpt>
      <trkpt lat="46.67212" lon="6.11383">
        <ele>1009.7</ele>
        <time>2021-11-23T10:09:48Z</time>
      </trkpt>
      <trkpt lat="46.67213" lon="6.1139">
        <ele>1011.1</ele>
        <time>2021-11-23T10:09:52Z</time>
      </trkpt>
      <trkpt lat="46.67215" lon="6.11397">
        <ele>1012.7</ele>
        <time>2021-11-23T10:09:57Z</time>
      </trkpt>
      <trkpt lat="46.67217" lon="6.11404">
        <ele>1014.1</ele>
        <time>2021-11-23T10:10:03Z</time>
      </trkpt>
      <trkpt lat="46.67219" lon="6.11411">
        <ele>1015.1</ele>
        <time>2021-11-23T10:10:09Z</time>
      </trkpt>
      <trkpt lat="46.6722" lon="6.11418">
        <ele>1015.3</ele>
        <time>2021-11-23T10:10:14Z</time>
      </trkpt>
      <trkpt lat="46.67221" lon="6.11426">
        <ele>1015.1</ele>
        <time>2021-11-23T10:10:19Z</time>
      </trkpt>
      <trkpt lat="46.67222" lon="6.11433">
        <ele>1014.5</ele>
        <time>2021-11-23T10:10:24Z</time>
      </trkpt>
      <trkpt lat="46.67223" lon="6.1144">
        <ele>1013.8</ele>
        <time>2021-11-23T10:10:29Z</time>
      </trkpt>
      <trkpt lat="46.67225" lon="6.11448">
        <ele>1013.5</ele>
        <time>2021-11-23T10:10:35Z</time>
      </trkpt>
      <trkpt lat="46.67228" lon="6.11453">
        <ele>1013.1</ele>
        <time>2021-11-23T10:10:39Z</time>
      </trkpt>
      <trkpt lat="46.67228" lon="6.11461">
        <ele>1012.7</ele>
        <time>2021-11-23T10:10:44Z</time>
      </trkpt>
      <trkpt lat="46.67228" lon="6.11469">
        <ele>1012.4</ele>
        <time>2021-11-23T10:10:49Z</time>
      </trkpt>
      <trkpt lat="46.67226" lon="6.11475">
        <ele>1012.8</ele>
        <time>2021-11-23T10:10:53Z</time>
      </trkpt>
      <trkpt lat="46.67224" lon="6.11481">
        <ele>1013.4</ele>
        <time>2021-11-23T10:10:57Z</time>
      </trkpt>
      <trkpt lat="46.67221" lon="6.11487">
        <ele>1013.9</ele>
        <time>2021-11-23T10:11:01Z</time>
      </trkpt>
      <trkpt lat="46.67218" lon="6.11493">
        <ele>1014</ele>
        <time>2021-11-23T10:11:05Z</time>
      </trkpt>
      <trkpt lat="46.67216" lon="6.115">
        <ele>1013.4</ele>
        <time>2021-11-23T10:11:10Z</time>
      </trkpt>
      <trkpt lat="46.67212" lon="6.11507">
        <ele>1012.9</ele>
        <time>2021-11-23T10:11:15Z</time>
      </trkpt>
      <trkpt lat="46.67208" lon="6.11511">
        <ele>1012.8</ele>
        <time>2021-11-23T10:11:20Z</time>
      </trkpt>
      <trkpt lat="46.67203" lon="6.11516">
        <ele>1012.8</ele>
        <time>2021-11-23T10:11:25Z</time>
      </trkpt>
      <trkpt lat="46.67199" lon="6.11518">
        <ele>1012.8</ele>
        <time>2021-11-23T10:11:29Z</time>
      </trkpt>
      <trkpt lat="46.67194" lon="6.1152">
        <ele>1012.4</ele>
        <time>2021-11-23T10:11:33Z</time>
      </trkpt>
      <trkpt lat="46.67189" lon="6.11521">
        <ele>1012.5</ele>
        <time>2021-11-23T10:11:38Z</time>
      </trkpt>
      <trkpt lat="46.67184" lon="6.11519">
        <ele>1012.2</ele>
        <time>2021-11-23T10:11:43Z</time>
      </trkpt>
      <trkpt lat="46.67179" lon="6.11517">
        <ele>1012.4</ele>
        <time>2021-11-23T10:11:49Z</time>
      </trkpt>
      <trkpt lat="46.67174" lon="6.11518">
        <ele>1013</ele>
        <time>2021-11-23T10:11:55Z</time>
      </trkpt>
      <trkpt lat="46.67169" lon="6.11521">
        <ele>1013.3</ele>
        <time>2021-11-23T10:12:00Z</time>
      </trkpt>
      <trkpt lat="46.67164" lon="6.11523">
        <ele>1013.4</ele>
        <time>2021-11-23T10:12:04Z</time>
      </trkpt>
      <trkpt lat="46.67159" lon="6.11524">
        <ele>1013.6</ele>
        <time>2021-11-23T10:12:08Z</time>
      </trkpt>
      <trkpt lat="46.67154" lon="6.11526">
        <ele>1014</ele>
        <time>2021-11-23T10:12:13Z</time>
      </trkpt>
      <trkpt lat="46.6715" lon="6.1153">
        <ele>1014.7</ele>
        <time>2021-11-23T10:12:18Z</time>
      </trkpt>
      <trkpt lat="46.67146" lon="6.11534">
        <ele>1015.3</ele>
        <time>2021-11-23T10:12:24Z</time>
      </trkpt>
      <trkpt lat="46.67141" lon="6.11537">
        <ele>1016.2</ele>
        <time>2021-11-23T10:12:29Z</time>
      </trkpt>
      <trkpt lat="46.67137" lon="6.11542">
        <ele>1016.9</ele>
        <time>2021-11-23T10:12:34Z</time>
      </trkpt>
      <trkpt lat="46.67132" lon="6.11546">
        <ele>1016.8</ele>
        <time>2021-11-23T10:12:39Z</time>
      </trkpt>
      <trkpt lat="46.67129" lon="6.11549">
        <ele>1016.8</ele>
        <time>2021-11-23T10:12:43Z</time>
      </trkpt>
      <trkpt lat="46.67124" lon="6.11554">
        <ele>1016.5</ele>
        <time>2021-11-23T10:12:48Z</time>
      </trkpt>
      <trkpt lat="46.67121" lon="6.11558">
        <ele>1016.7</ele>
        <time>2021-11-23T10:12:53Z</time>
      </trkpt>
      <trkpt lat="46.67117" lon="6.11564">
        <ele>1017.6</ele>
        <time>2021-11-23T10:12:59Z</time>
      </trkpt>
      <trkpt lat="46.67114" lon="6.11569">
        <ele>1018.9</ele>
        <time>2021-11-23T10:13:05Z</time>
      </trkpt>
      <trkpt lat="46.67111" lon="6.11575">
        <ele>1019.6</ele>
        <time>2021-11-23T10:13:10Z</time>
      </trkpt>
      <trkpt lat="46.67107" lon="6.11581">
        <ele>1019.7</ele>
        <time>2021-11-23T10:13:15Z</time>
      </trkpt>
      <trkpt lat="46.67104" lon="6.11587">
        <ele>1019.7</ele>
        <time>2021-11-23T10:13:19Z</time>
      </trkpt>
      <trkpt lat="46.67102" lon="6.11593">
        <ele>1019.7</ele>
        <time>2021-11-23T10:13:24Z</time>
      </trkpt>
      <trkpt lat="46.671" lon="6.11601">
        <ele>1020.1</ele>
        <time>2021-11-23T10:13:29Z</time>
      </trkpt>
      <trkpt lat="46.67099" lon="6.11608">
        <ele>1020.8</ele>
        <time>2021-11-23T10:13:34Z</time>
      </trkpt>
      <trkpt lat="46.67098" lon="6.11614">
        <ele>1021.3</ele>
        <time>2021-11-23T10:13:39Z</time>
      </trkpt>
      <trkpt lat="46.67096" lon="6.1162">
        <ele>1021.3</ele>
        <time>2021-11-23T10:13:44Z</time>
      </trkpt>
      <trkpt lat="46.67094" lon="6.11628">
        <ele>1021.4</ele>
        <time>2021-11-23T10:13:49Z</time>
      </trkpt>
      <trkpt lat="46.67093" lon="6.11635">
        <ele>1021.5</ele>
        <time>2021-11-23T10:13:54Z</time>
      </trkpt>
      <trkpt lat="46.67092" lon="6.11642">
        <ele>1021.4</ele>
        <time>2021-11-23T10:13:59Z</time>
      </trkpt>
      <trkpt lat="46.6709" lon="6.1165">
        <ele>1021.5</ele>
        <time>2021-11-23T10:14:04Z</time>
      </trkpt>
      <trkpt lat="46.67089" lon="6.11656">
        <ele>1022</ele>
        <time>2021-11-23T10:14:08Z</time>
      </trkpt>
      <trkpt lat="46.67089" lon="6.11663">
        <ele>1022.4</ele>
        <time>2021-11-23T10:14:12Z</time>
      </trkpt>
      <trkpt lat="46.67088" lon="6.1167">
        <ele>1022.5</ele>
        <time>2021-11-23T10:14:16Z</time>
      </trkpt>
      <trkpt lat="46.67088" lon="6.11678">
        <ele>1022.6</ele>
        <time>2021-11-23T10:14:21Z</time>
      </trkpt>
      <trkpt lat="46.67088" lon="6.11684">
        <ele>1022.8</ele>
        <time>2021-11-23T10:14:25Z</time>
      </trkpt>
      <trkpt lat="46.67087" lon="6.11691">
        <ele>1023.1</ele>
        <time>2021-11-23T10:14:29Z</time>
      </trkpt>
      <trkpt lat="46.67087" lon="6.11699">
        <ele>1023.6</ele>
        <time>2021-11-23T10:14:34Z</time>
      </trkpt>
      <trkpt lat="46.67088" lon="6.11706">
        <ele>1024</ele>
        <time>2021-11-23T10:14:39Z</time>
      </trkpt>
      <trkpt lat="46.67087" lon="6.11712">
        <ele>1024.1</ele>
        <time>2021-11-23T10:14:44Z</time>
      </trkpt>
      <trkpt lat="46.67087" lon="6.11721">
        <ele>1024.3</ele>
        <time>2021-11-23T10:14:49Z</time>
      </trkpt>
      <trkpt lat="46.67087" lon="6.11728">
        <ele>1024.4</ele>
        <time>2021-11-23T10:14:54Z</time>
      </trkpt>
      <trkpt lat="46.67088" lon="6.11735">
        <ele>1024.4</ele>
        <time>2021-11-23T10:14:59Z</time>
      </trkpt>
      <trkpt lat="46.67087" lon="6.11742">
        <ele>1024.5</ele>
        <time>2021-11-23T10:15:03Z</time>
      </trkpt>
      <trkpt lat="46.67087" lon="6.11749">
        <ele>1024.9</ele>
        <time>2021-11-23T10:15:08Z</time>
      </trkpt>
      <trkpt lat="46.67088" lon="6.11757">
        <ele>1025.4</ele>
        <time>2021-11-23T10:15:13Z</time>
      </trkpt>
      <trkpt lat="46.67089" lon="6.11764">
        <ele>1026</ele>
        <time>2021-11-23T10:15:17Z</time>
      </trkpt>
      <trkpt lat="46.67091" lon="6.11771">
        <ele>1027.2</ele>
        <time>2021-11-23T10:15:21Z</time>
      </trkpt>
      <trkpt lat="46.67091" lon="6.11779">
        <ele>1028.7</ele>
        <time>2021-11-23T10:15:26Z</time>
      </trkpt>
      <trkpt lat="46.67091" lon="6.11787">
        <ele>1029.5</ele>
        <time>2021-11-23T10:15:31Z</time>
      </trkpt>
      <trkpt lat="46.67093" lon="6.11793">
        <ele>1029.7</ele>
        <time>2021-11-23T10:15:35Z</time>
      </trkpt>
      <trkpt lat="46.67094" lon="6.118">
        <ele>1029.9</ele>
        <time>2021-11-23T10:15:39Z</time>
      </trkpt>
      <trkpt lat="46.67097" lon="6.11806">
        <ele>1030.5</ele>
        <time>2021-11-23T10:15:43Z</time>
      </trkpt>
      <trkpt lat="46.67099" lon="6.11813">
        <ele>1030.6</ele>
        <time>2021-11-23T10:15:48Z</time>
      </trkpt>
      <trkpt lat="46.67101" lon="6.1182">
        <ele>1030.4</ele>
        <time>2021-11-23T10:15:53Z</time>
      </trkpt>
      <trkpt lat="46.67103" lon="6.11827">
        <ele>1030.4</ele>
        <time>2021-11-23T10:15:59Z</time>
      </trkpt>
      <trkpt lat="46.67106" lon="6.11833">
        <ele>1030.3</ele>
        <time>2021-11-23T10:16:04Z</time>
      </trkpt>
      <trkpt lat="46.67109" lon="6.11839">
        <ele>1030.4</ele>
        <time>2021-11-23T10:16:09Z</time>
      </trkpt>
      <trkpt lat="46.67111" lon="6.11846">
        <ele>1030.8</ele>
        <time>2021-11-23T10:16:14Z</time>
      </trkpt>
      <trkpt lat="46.67114" lon="6.11851">
        <ele>1031.5</ele>
        <time>2021-11-23T10:16:18Z</time>
      </trkpt>
      <trkpt lat="46.67117" lon="6.11858">
        <ele>1033</ele>
        <time>2021-11-23T10:16:23Z</time>
      </trkpt>
      <trkpt lat="46.67119" lon="6.11865">
        <ele>1034.2</ele>
        <time>2021-11-23T10:16:27Z</time>
      </trkpt>
      <trkpt lat="46.67121" lon="6.11871">
        <ele>1035</ele>
        <time>2021-11-23T10:16:32Z</time>
      </trkpt>
      <trkpt lat="46.67123" lon="6.11878">
        <ele>1035.1</ele>
        <time>2021-11-23T10:16:37Z</time>
      </trkpt>
      <trkpt lat="46.67125" lon="6.11885">
        <ele>1035.5</ele>
        <time>2021-11-23T10:16:42Z</time>
      </trkpt>
      <trkpt lat="46.67126" lon="6.11892">
        <ele>1035.9</ele>
        <time>2021-11-23T10:16:46Z</time>
      </trkpt>
      <trkpt lat="46.67127" lon="6.11898">
        <ele>1036.5</ele>
        <time>2021-11-23T10:16:50Z</time>
      </trkpt>
      <trkpt lat="46.67128" lon="6.11906">
        <ele>1037.1</ele>
        <time>2021-11-23T10:16:55Z</time>
      </trkpt>
      <trkpt lat="46.67129" lon="6.11913">
        <ele>1037.1</ele>
        <time>2021-11-23T10:17:00Z</time>
      </trkpt>
      <trkpt lat="46.67129" lon="6.11922">
        <ele>1037.5</ele>
        <time>2021-11-23T10:17:05Z</time>
      </trkpt>
      <trkpt lat="46.6713" lon="6.11929">
        <ele>1037.8</ele>
        <time>2021-11-23T10:17:10Z</time>
      </trkpt>
      <trkpt lat="46.67129" lon="6.11937">
        <ele>1037.7</ele>
        <time>2021-11-23T10:17:15Z</time>
      </trkpt>
      <trkpt lat="46.67129" lon="6.11944">
        <ele>1038.4</ele>
        <time>2021-11-23T10:17:20Z</time>
      </trkpt>
      <trkpt lat="46.6713" lon="6.11952">
        <ele>1039.2</ele>
        <time>2021-11-23T10:17:25Z</time>
      </trkpt>
      <trkpt lat="46.67131" lon="6.1196">
        <ele>1039.9</ele>
        <time>2021-11-23T10:17:30Z</time>
      </trkpt>
      <trkpt lat="46.67131" lon="6.11968">
        <ele>1040.1</ele>
        <time>2021-11-23T10:17:35Z</time>
      </trkpt>
      <trkpt lat="46.67131" lon="6.11976">
        <ele>1040.5</ele>
        <time>2021-11-23T10:17:40Z</time>
      </trkpt>
      <trkpt lat="46.67131" lon="6.11984">
        <ele>1040.4</ele>
        <time>2021-11-23T10:17:45Z</time>
      </trkpt>
      <trkpt lat="46.67131" lon="6.11992">
        <ele>1040.7</ele>
        <time>2021-11-23T10:17:50Z</time>
      </trkpt>
      <trkpt lat="46.67132" lon="6.11999">
        <ele>1041.3</ele>
        <time>2021-11-23T10:17:54Z</time>
      </trkpt>
      <trkpt lat="46.67133" lon="6.12006">
        <ele>1041.6</ele>
        <time>2021-11-23T10:17:59Z</time>
      </trkpt>
      <trkpt lat="46.67133" lon="6.12014">
        <ele>1042.1</ele>
        <time>2021-11-23T10:18:04Z</time>
      </trkpt>
      <trkpt lat="46.67133" lon="6.12021">
        <ele>1041.9</ele>
        <time>2021-11-23T10:18:08Z</time>
      </trkpt>
      <trkpt lat="46.67134" lon="6.12029">
        <ele>1041.3</ele>
        <time>2021-11-23T10:18:13Z</time>
      </trkpt>
      <trkpt lat="46.67135" lon="6.12036">
        <ele>1040.8</ele>
        <time>2021-11-23T10:18:18Z</time>
      </trkpt>
      <trkpt lat="46.67135" lon="6.12043">
        <ele>1040.9</ele>
        <time>2021-11-23T10:18:23Z</time>
      </trkpt>
      <trkpt lat="46.67136" lon="6.12051">
        <ele>1041.3</ele>
        <time>2021-11-23T10:18:28Z</time>
      </trkpt>
      <trkpt lat="46.67137" lon="6.12058">
        <ele>1041.2</ele>
        <time>2021-11-23T10:18:33Z</time>
      </trkpt>
      <trkpt lat="46.67137" lon="6.12065">
        <ele>1040.9</ele>
        <time>2021-11-23T10:18:37Z</time>
      </trkpt>
      <trkpt lat="46.67138" lon="6.12072">
        <ele>1040.7</ele>
        <time>2021-11-23T10:18:41Z</time>
      </trkpt>
      <trkpt lat="46.6714" lon="6.12078">
        <ele>1040.5</ele>
        <time>2021-11-23T10:18:45Z</time>
      </trkpt>
      <trkpt lat="46.67142" lon="6.12085">
        <ele>1041</ele>
        <time>2021-11-23T10:18:50Z</time>
      </trkpt>
      <trkpt lat="46.67143" lon="6.12091">
        <ele>1042.1</ele>
        <time>2021-11-23T10:18:54Z</time>
      </trkpt>
      <trkpt lat="46.67144" lon="6.12099">
        <ele>1043.4</ele>
        <time>2021-11-23T10:18:59Z</time>
      </trkpt>
      <trkpt lat="46.67145" lon="6.12105">
        <ele>1043.8</ele>
        <time>2021-11-23T10:19:03Z</time>
      </trkpt>
      <trkpt lat="46.67145" lon="6.12113">
        <ele>1043.5</ele>
        <time>2021-11-23T10:19:08Z</time>
      </trkpt>
      <trkpt lat="46.67146" lon="6.1212">
        <ele>1043.3</ele>
        <time>2021-11-23T10:19:13Z</time>
      </trkpt>
      <trkpt lat="46.67147" lon="6.12128">
        <ele>1044.2</ele>
        <time>2021-11-23T10:19:18Z</time>
      </trkpt>
      <trkpt lat="46.67149" lon="6.12135">
        <ele>1044.5</ele>
        <time>2021-11-23T10:19:23Z</time>
      </trkpt>
      <trkpt lat="46.67151" lon="6.12143">
        <ele>1044.8</ele>
        <time>2021-11-23T10:19:28Z</time>
      </trkpt>
      <trkpt lat="46.67152" lon="6.1215">
        <ele>1045.2</ele>
        <time>2021-11-23T10:19:33Z</time>
      </trkpt>
      <trkpt lat="46.67153" lon="6.12157">
        <ele>1045.6</ele>
        <time>2021-11-23T10:19:38Z</time>
      </trkpt>
      <trkpt lat="46.67154" lon="6.12164">
        <ele>1046.2</ele>
        <time>2021-11-23T10:19:43Z</time>
      </trkpt>
      <trkpt lat="46.67156" lon="6.1217">
        <ele>1047.2</ele>
        <time>2021-11-23T10:19:48Z</time>
      </trkpt>
      <trkpt lat="46.67158" lon="6.12176">
        <ele>1048</ele>
        <time>2021-11-23T10:19:52Z</time>
      </trkpt>
      <trkpt lat="46.67161" lon="6.12183">
        <ele>1048.9</ele>
        <time>2021-11-23T10:19:56Z</time>
      </trkpt>
      <trkpt lat="46.67162" lon="6.1219">
        <ele>1049.5</ele>
        <time>2021-11-23T10:20:01Z</time>
      </trkpt>
      <trkpt lat="46.67163" lon="6.12197">
        <ele>1049.6</ele>
        <time>2021-11-23T10:20:05Z</time>
      </trkpt>
      <trkpt lat="46.67165" lon="6.12204">
        <ele>1050.4</ele>
        <time>2021-11-23T10:20:10Z</time>
      </trkpt>
      <trkpt lat="46.67167" lon="6.12211">
        <ele>1051.9</ele>
        <time>2021-11-23T10:20:16Z</time>
      </trkpt>
      <trkpt lat="46.67168" lon="6.12217">
        <ele>1052.4</ele>
        <time>2021-11-23T10:20:20Z</time>
      </trkpt>
      <trkpt lat="46.67169" lon="6.12225">
        <ele>1052.7</ele>
        <time>2021-11-23T10:20:25Z</time>
      </trkpt>
      <trkpt lat="46.67165" lon="6.12231">
        <ele>1052.4</ele>
        <time>2021-11-23T10:20:30Z</time>
      </trkpt>
      <trkpt lat="46.67161" lon="6.12234">
        <ele>1051.5</ele>
        <time>2021-11-23T10:20:34Z</time>
      </trkpt>
      <trkpt lat="46.67156" lon="6.12233">
        <ele>1050.5</ele>
        <time>2021-11-23T10:20:38Z</time>
      </trkpt>
      <trkpt lat="46.67151" lon="6.12231">
        <ele>1049.9</ele>
        <time>2021-11-23T10:20:42Z</time>
      </trkpt>
      <trkpt lat="46.67147" lon="6.12228">
        <ele>1050</ele>
        <time>2021-11-23T10:20:46Z</time>
      </trkpt>
      <trkpt lat="46.67143" lon="6.12224">
        <ele>1050.3</ele>
        <time>2021-11-23T10:20:51Z</time>
      </trkpt>
      <trkpt lat="46.67138" lon="6.1222">
        <ele>1051.1</ele>
        <time>2021-11-23T10:20:56Z</time>
      </trkpt>
      <trkpt lat="46.67134" lon="6.12216">
        <ele>1052</ele>
        <time>2021-11-23T10:21:03Z</time>
      </trkpt>
      <trkpt lat="46.6713" lon="6.12213">
        <ele>1048.7</ele>
        <time>2021-11-23T10:21:22Z</time>
      </trkpt>
      <trkpt lat="46.67127" lon="6.12207">
        <ele>1047.3</ele>
        <time>2021-11-23T10:21:29Z</time>
      </trkpt>
      <trkpt lat="46.67126" lon="6.122">
        <ele>1050.6</ele>
        <time>2021-11-23T10:21:57Z</time>
      </trkpt>
      <trkpt lat="46.67125" lon="6.12193">
        <ele>1050.8</ele>
        <time>2021-11-23T10:22:02Z</time>
      </trkpt>
      <trkpt lat="46.67124" lon="6.12187">
        <ele>1050.7</ele>
        <time>2021-11-23T10:22:07Z</time>
      </trkpt>
      <trkpt lat="46.67121" lon="6.12181">
        <ele>1050.7</ele>
        <time>2021-11-23T10:22:14Z</time>
      </trkpt>
      <trkpt lat="46.67119" lon="6.12175">
        <ele>1050.6</ele>
        <time>2021-11-23T10:22:25Z</time>
      </trkpt>
      <trkpt lat="46.67118" lon="6.12167">
        <ele>1050.9</ele>
        <time>2021-11-23T10:22:29Z</time>
      </trkpt>
      <trkpt lat="46.67117" lon="6.1216">
        <ele>1051</ele>
        <time>2021-11-23T10:22:33Z</time>
      </trkpt>
      <trkpt lat="46.67116" lon="6.12152">
        <ele>1051.1</ele>
        <time>2021-11-23T10:22:37Z</time>
      </trkpt>
      <trkpt lat="46.67115" lon="6.12145">
        <ele>1051.4</ele>
        <time>2021-11-23T10:22:41Z</time>
      </trkpt>
      <trkpt lat="46.67114" lon="6.12138">
        <ele>1051.7</ele>
        <time>2021-11-23T10:22:46Z</time>
      </trkpt>
      <trkpt lat="46.67112" lon="6.12131">
        <ele>1051.8</ele>
        <time>2021-11-23T10:22:50Z</time>
      </trkpt>
      <trkpt lat="46.6711" lon="6.12124">
        <ele>1051.8</ele>
        <time>2021-11-23T10:22:55Z</time>
      </trkpt>
      <trkpt lat="46.67108" lon="6.12118">
        <ele>1051.2</ele>
        <time>2021-11-23T10:23:01Z</time>
      </trkpt>
      <trkpt lat="46.67107" lon="6.12111">
        <ele>1051.1</ele>
        <time>2021-11-23T10:23:08Z</time>
      </trkpt>
      <trkpt lat="46.67106" lon="6.12104">
        <ele>1051.4</ele>
        <time>2021-11-23T10:23:14Z</time>
      </trkpt>
      <trkpt lat="46.67104" lon="6.12097">
        <ele>1051.9</ele>
        <time>2021-11-23T10:23:19Z</time>
      </trkpt>
      <trkpt lat="46.67104" lon="6.1209">
        <ele>1052.4</ele>
        <time>2021-11-23T10:23:24Z</time>
      </trkpt>
      <trkpt lat="46.67102" lon="6.12082">
        <ele>1053.2</ele>
        <time>2021-11-23T10:23:29Z</time>
      </trkpt>
      <trkpt lat="46.67101" lon="6.12076">
        <ele>1053.9</ele>
        <time>2021-11-23T10:23:34Z</time>
      </trkpt>
      <trkpt lat="46.67099" lon="6.12069">
        <ele>1054.2</ele>
        <time>2021-11-23T10:23:39Z</time>
      </trkpt>
      <trkpt lat="46.67097" lon="6.12062">
        <ele>1054.3</ele>
        <time>2021-11-23T10:23:45Z</time>
      </trkpt>
      <trkpt lat="46.67096" lon="6.12056">
        <ele>1054.1</ele>
        <time>2021-11-23T10:23:50Z</time>
      </trkpt>
      <trkpt lat="46.67095" lon="6.12049">
        <ele>1053.5</ele>
        <time>2021-11-23T10:23:55Z</time>
      </trkpt>
      <trkpt lat="46.67094" lon="6.12041">
        <ele>1053.8</ele>
        <time>2021-11-23T10:24:00Z</time>
      </trkpt>
      <trkpt lat="46.67093" lon="6.12035">
        <ele>1054.2</ele>
        <time>2021-11-23T10:24:05Z</time>
      </trkpt>
      <trkpt lat="46.67093" lon="6.12028">
        <ele>1054.3</ele>
        <time>2021-11-23T10:24:10Z</time>
      </trkpt>
      <trkpt lat="46.67091" lon="6.12021">
        <ele>1054.3</ele>
        <time>2021-11-23T10:24:15Z</time>
      </trkpt>
      <trkpt lat="46.6709" lon="6.12014">
        <ele>1053.8</ele>
        <time>2021-11-23T10:24:20Z</time>
      </trkpt>
      <trkpt lat="46.67089" lon="6.12007">
        <ele>1053.5</ele>
        <time>2021-11-23T10:24:25Z</time>
      </trkpt>
      <trkpt lat="46.67089" lon="6.12001">
        <ele>1053.7</ele>
        <time>2021-11-23T10:24:30Z</time>
      </trkpt>
      <trkpt lat="46.67088" lon="6.11993">
        <ele>1054.7</ele>
        <time>2021-11-23T10:24:36Z</time>
      </trkpt>
      <trkpt lat="46.67088" lon="6.11986">
        <ele>1055.3</ele>
        <time>2021-11-23T10:24:41Z</time>
      </trkpt>
      <trkpt lat="46.67086" lon="6.11978">
        <ele>1055.4</ele>
        <time>2021-11-23T10:24:46Z</time>
      </trkpt>
      <trkpt lat="46.67084" lon="6.11972">
        <ele>1055.1</ele>
        <time>2021-11-23T10:24:50Z</time>
      </trkpt>
      <trkpt lat="46.67082" lon="6.11965">
        <ele>1054.6</ele>
        <time>2021-11-23T10:24:55Z</time>
      </trkpt>
      <trkpt lat="46.67081" lon="6.11957">
        <ele>1053.8</ele>
        <time>2021-11-23T10:25:00Z</time>
      </trkpt>
      <trkpt lat="46.67078" lon="6.1195">
        <ele>1053.2</ele>
        <time>2021-11-23T10:25:05Z</time>
      </trkpt>
      <trkpt lat="46.67077" lon="6.11943">
        <ele>1052.7</ele>
        <time>2021-11-23T10:25:10Z</time>
      </trkpt>
      <trkpt lat="46.67076" lon="6.11936">
        <ele>1052.5</ele>
        <time>2021-11-23T10:25:15Z</time>
      </trkpt>
      <trkpt lat="46.67076" lon="6.11929">
        <ele>1053.1</ele>
        <time>2021-11-23T10:25:20Z</time>
      </trkpt>
      <trkpt lat="46.67075" lon="6.11922">
        <ele>1053.9</ele>
        <time>2021-11-23T10:25:25Z</time>
      </trkpt>
      <trkpt lat="46.67074" lon="6.11915">
        <ele>1055.1</ele>
        <time>2021-11-23T10:25:30Z</time>
      </trkpt>
      <trkpt lat="46.67074" lon="6.11908">
        <ele>1056</ele>
        <time>2021-11-23T10:25:35Z</time>
      </trkpt>
      <trkpt lat="46.67072" lon="6.11901">
        <ele>1056.9</ele>
        <time>2021-11-23T10:25:40Z</time>
      </trkpt>
      <trkpt lat="46.67071" lon="6.11894">
        <ele>1057.1</ele>
        <time>2021-11-23T10:25:44Z</time>
      </trkpt>
      <trkpt lat="46.6707" lon="6.11887">
        <ele>1057.5</ele>
        <time>2021-11-23T10:25:49Z</time>
      </trkpt>
      <trkpt lat="46.67068" lon="6.1188">
        <ele>1058.1</ele>
        <time>2021-11-23T10:25:54Z</time>
      </trkpt>
      <trkpt lat="46.67066" lon="6.11873">
        <ele>1058.2</ele>
        <time>2021-11-23T10:25:59Z</time>
      </trkpt>
      <trkpt lat="46.67064" lon="6.11866">
        <ele>1058.5</ele>
        <time>2021-11-23T10:26:04Z</time>
      </trkpt>
      <trkpt lat="46.67062" lon="6.11859">
        <ele>1059.1</ele>
        <time>2021-11-23T10:26:09Z</time>
      </trkpt>
      <trkpt lat="46.6706" lon="6.11852">
        <ele>1059.2</ele>
        <time>2021-11-23T10:26:14Z</time>
      </trkpt>
      <trkpt lat="46.67057" lon="6.11846">
        <ele>1058.8</ele>
        <time>2021-11-23T10:26:18Z</time>
      </trkpt>
      <trkpt lat="46.67055" lon="6.1184">
        <ele>1058.4</ele>
        <time>2021-11-23T10:26:22Z</time>
      </trkpt>
      <trkpt lat="46.67052" lon="6.11833">
        <ele>1058.2</ele>
        <time>2021-11-23T10:26:27Z</time>
      </trkpt>
      <trkpt lat="46.67051" lon="6.11827">
        <ele>1058</ele>
        <time>2021-11-23T10:26:32Z</time>
      </trkpt>
      <trkpt lat="46.67052" lon="6.1182">
        <ele>1058.1</ele>
        <time>2021-11-23T10:26:37Z</time>
      </trkpt>
      <trkpt lat="46.67052" lon="6.11812">
        <ele>1058.4</ele>
        <time>2021-11-23T10:26:42Z</time>
      </trkpt>
      <trkpt lat="46.67051" lon="6.11805">
        <ele>1058.5</ele>
        <time>2021-11-23T10:26:47Z</time>
      </trkpt>
      <trkpt lat="46.6705" lon="6.11797">
        <ele>1058.9</ele>
        <time>2021-11-23T10:26:52Z</time>
      </trkpt>
      <trkpt lat="46.67049" lon="6.1179">
        <ele>1059</ele>
        <time>2021-11-23T10:26:57Z</time>
      </trkpt>
      <trkpt lat="46.67048" lon="6.11783">
        <ele>1059.4</ele>
        <time>2021-11-23T10:27:02Z</time>
      </trkpt>
      <trkpt lat="46.67046" lon="6.11776">
        <ele>1060.3</ele>
        <time>2021-11-23T10:27:07Z</time>
      </trkpt>
      <trkpt lat="46.67044" lon="6.11769">
        <ele>1060.5</ele>
        <time>2021-11-23T10:27:12Z</time>
      </trkpt>
      <trkpt lat="46.67042" lon="6.11762">
        <ele>1060.4</ele>
        <time>2021-11-23T10:27:17Z</time>
      </trkpt>
      <trkpt lat="46.67039" lon="6.11755">
        <ele>1060.6</ele>
        <time>2021-11-23T10:27:22Z</time>
      </trkpt>
      <trkpt lat="46.67037" lon="6.11749">
        <ele>1061.1</ele>
        <time>2021-11-23T10:27:26Z</time>
      </trkpt>
      <trkpt lat="46.67035" lon="6.11743">
        <ele>1060.7</ele>
        <time>2021-11-23T10:27:30Z</time>
      </trkpt>
      <trkpt lat="46.67032" lon="6.11736">
        <ele>1060.1</ele>
        <time>2021-11-23T10:27:35Z</time>
      </trkpt>
      <trkpt lat="46.6703" lon="6.1173">
        <ele>1059.9</ele>
        <time>2021-11-23T10:27:40Z</time>
      </trkpt>
      <trkpt lat="46.67029" lon="6.11723">
        <ele>1059.5</ele>
        <time>2021-11-23T10:27:44Z</time>
      </trkpt>
      <trkpt lat="46.67028" lon="6.11716">
        <ele>1059.5</ele>
        <time>2021-11-23T10:27:49Z</time>
      </trkpt>
      <trkpt lat="46.67027" lon="6.1171">
        <ele>1059.8</ele>
        <time>2021-11-23T10:27:53Z</time>
      </trkpt>
      <trkpt lat="46.67024" lon="6.11703">
        <ele>1060.4</ele>
        <time>2021-11-23T10:27:58Z</time>
      </trkpt>
      <trkpt lat="46.67021" lon="6.11697">
        <ele>1060.9</ele>
        <time>2021-11-23T10:28:03Z</time>
      </trkpt>
      <trkpt lat="46.67018" lon="6.11691">
        <ele>1060.9</ele>
        <time>2021-11-23T10:28:08Z</time>
      </trkpt>
      <trkpt lat="46.67015" lon="6.11684">
        <ele>1060.6</ele>
        <time>2021-11-23T10:28:13Z</time>
      </trkpt>
      <trkpt lat="46.67013" lon="6.11677">
        <ele>1060.4</ele>
        <time>2021-11-23T10:28:18Z</time>
      </trkpt>
      <trkpt lat="46.67011" lon="6.1167">
        <ele>1060.1</ele>
        <time>2021-11-23T10:28:23Z</time>
      </trkpt>
      <trkpt lat="46.67009" lon="6.11663">
        <ele>1059.9</ele>
        <time>2021-11-23T10:28:28Z</time>
      </trkpt>
      <trkpt lat="46.67007" lon="6.11657">
        <ele>1059.9</ele>
        <time>2021-11-23T10:28:33Z</time>
      </trkpt>
      <trkpt lat="46.67006" lon="6.1165">
        <ele>1060.3</ele>
        <time>2021-11-23T10:28:38Z</time>
      </trkpt>
      <trkpt lat="46.67004" lon="6.11642">
        <ele>1060.4</ele>
        <time>2021-11-23T10:28:43Z</time>
      </trkpt>
      <trkpt lat="46.67001" lon="6.11635">
        <ele>1060.1</ele>
        <time>2021-11-23T10:28:48Z</time>
      </trkpt>
      <trkpt lat="46.66998" lon="6.11629">
        <ele>1060.3</ele>
        <time>2021-11-23T10:28:53Z</time>
      </trkpt>
      <trkpt lat="46.66996" lon="6.11622">
        <ele>1060.5</ele>
        <time>2021-11-23T10:28:58Z</time>
      </trkpt>
      <trkpt lat="46.66993" lon="6.11616">
        <ele>1061</ele>
        <time>2021-11-23T10:29:03Z</time>
      </trkpt>
      <trkpt lat="46.66991" lon="6.11609">
        <ele>1061</ele>
        <time>2021-11-23T10:29:09Z</time>
      </trkpt>
      <trkpt lat="46.66988" lon="6.11602">
        <ele>1060.7</ele>
        <time>2021-11-23T10:29:15Z</time>
      </trkpt>
      <trkpt lat="46.66985" lon="6.11597">
        <ele>1060.3</ele>
        <time>2021-11-23T10:29:20Z</time>
      </trkpt>
      <trkpt lat="46.66983" lon="6.1159">
        <ele>1059.9</ele>
        <time>2021-11-23T10:29:25Z</time>
      </trkpt>
      <trkpt lat="46.6698" lon="6.11584">
        <ele>1059.6</ele>
        <time>2021-11-23T10:29:31Z</time>
      </trkpt>
      <trkpt lat="46.66978" lon="6.11578">
        <ele>1059.5</ele>
        <time>2021-11-23T10:29:36Z</time>
      </trkpt>
      <trkpt lat="46.66975" lon="6.11572">
        <ele>1059</ele>
        <time>2021-11-23T10:29:41Z</time>
      </trkpt>
      <trkpt lat="46.66974" lon="6.11565">
        <ele>1058.3</ele>
        <time>2021-11-23T10:29:46Z</time>
      </trkpt>
      <trkpt lat="46.66974" lon="6.11557">
        <ele>1058</ele>
        <time>2021-11-23T10:29:52Z</time>
      </trkpt>
      <trkpt lat="46.66976" lon="6.1155">
        <ele>1057.6</ele>
        <time>2021-11-23T10:29:57Z</time>
      </trkpt>
      <trkpt lat="46.66977" lon="6.11544">
        <ele>1057.1</ele>
        <time>2021-11-23T10:30:02Z</time>
      </trkpt>
      <trkpt lat="46.66976" lon="6.11537">
        <ele>1057.2</ele>
        <time>2021-11-23T10:30:08Z</time>
      </trkpt>
      <trkpt lat="46.66977" lon="6.1153">
        <ele>1057.5</ele>
        <time>2021-11-23T10:30:14Z</time>
      </trkpt>
      <trkpt lat="46.66976" lon="6.11523">
        <ele>1058</ele>
        <time>2021-11-23T10:30:18Z</time>
      </trkpt>
      <trkpt lat="46.66976" lon="6.11516">
        <ele>1058.4</ele>
        <time>2021-11-23T10:30:22Z</time>
      </trkpt>
      <trkpt lat="46.66975" lon="6.11509">
        <ele>1058.9</ele>
        <time>2021-11-23T10:30:28Z</time>
      </trkpt>
      <trkpt lat="46.66974" lon="6.11502">
        <ele>1059.4</ele>
        <time>2021-11-23T10:30:33Z</time>
      </trkpt>
      <trkpt lat="46.66973" lon="6.11494">
        <ele>1059.6</ele>
        <time>2021-11-23T10:30:38Z</time>
      </trkpt>
      <trkpt lat="46.66973" lon="6.11487">
        <ele>1060.4</ele>
        <time>2021-11-23T10:30:43Z</time>
      </trkpt>
      <trkpt lat="46.6697" lon="6.11481">
        <ele>1061</ele>
        <time>2021-11-23T10:30:48Z</time>
      </trkpt>
      <trkpt lat="46.66967" lon="6.11474">
        <ele>1060.9</ele>
        <time>2021-11-23T10:30:53Z</time>
      </trkpt>
      <trkpt lat="46.66965" lon="6.11469">
        <ele>1060.5</ele>
        <time>2021-11-23T10:30:58Z</time>
      </trkpt>
      <trkpt lat="46.66963" lon="6.11462">
        <ele>1060.5</ele>
        <time>2021-11-23T10:31:03Z</time>
      </trkpt>
      <trkpt lat="46.66962" lon="6.11455">
        <ele>1060.7</ele>
        <time>2021-11-23T10:31:08Z</time>
      </trkpt>
      <trkpt lat="46.66961" lon="6.11449">
        <ele>1060.6</ele>
        <time>2021-11-23T10:31:13Z</time>
      </trkpt>
      <trkpt lat="46.66958" lon="6.11443">
        <ele>1060.6</ele>
        <time>2021-11-23T10:31:17Z</time>
      </trkpt>
      <trkpt lat="46.66955" lon="6.11437">
        <ele>1060.5</ele>
        <time>2021-11-23T10:31:22Z</time>
      </trkpt>
      <trkpt lat="46.66953" lon="6.11431">
        <ele>1060.9</ele>
        <time>2021-11-23T10:31:27Z</time>
      </trkpt>
      <trkpt lat="46.66949" lon="6.11426">
        <ele>1061.4</ele>
        <time>2021-11-23T10:31:32Z</time>
      </trkpt>
      <trkpt lat="46.66946" lon="6.1142">
        <ele>1061.7</ele>
        <time>2021-11-23T10:31:37Z</time>
      </trkpt>
      <trkpt lat="46.66944" lon="6.11413">
        <ele>1062</ele>
        <time>2021-11-23T10:31:42Z</time>
      </trkpt>
      <trkpt lat="46.66942" lon="6.11406">
        <ele>1061.8</ele>
        <time>2021-11-23T10:31:47Z</time>
      </trkpt>
      <trkpt lat="46.6694" lon="6.11399">
        <ele>1061.9</ele>
        <time>2021-11-23T10:31:52Z</time>
      </trkpt>
      <trkpt lat="46.66938" lon="6.11392">
        <ele>1062</ele>
        <time>2021-11-23T10:31:57Z</time>
      </trkpt>
      <trkpt lat="46.66937" lon="6.11386">
        <ele>1062.5</ele>
        <time>2021-11-23T10:32:02Z</time>
      </trkpt>
      <trkpt lat="46.66936" lon="6.11379">
        <ele>1063.1</ele>
        <time>2021-11-23T10:32:07Z</time>
      </trkpt>
      <trkpt lat="46.66935" lon="6.11372">
        <ele>1064</ele>
        <time>2021-11-23T10:32:12Z</time>
      </trkpt>
      <trkpt lat="46.66933" lon="6.11365">
        <ele>1064.8</ele>
        <time>2021-11-23T10:32:17Z</time>
      </trkpt>
      <trkpt lat="46.66931" lon="6.11359">
        <ele>1065</ele>
        <time>2021-11-23T10:32:23Z</time>
      </trkpt>
      <trkpt lat="46.66931" lon="6.11352">
        <ele>1064.7</ele>
        <time>2021-11-23T10:32:29Z</time>
      </trkpt>
      <trkpt lat="46.66929" lon="6.11345">
        <ele>1064.3</ele>
        <time>2021-11-23T10:32:33Z</time>
      </trkpt>
      <trkpt lat="46.66926" lon="6.1134">
        <ele>1063.9</ele>
        <time>2021-11-23T10:32:37Z</time>
      </trkpt>
      <trkpt lat="46.66922" lon="6.11334">
        <ele>1063.4</ele>
        <time>2021-11-23T10:32:42Z</time>
      </trkpt>
      <trkpt lat="46.6692" lon="6.11328">
        <ele>1063.1</ele>
        <time>2021-11-23T10:32:47Z</time>
      </trkpt>
      <trkpt lat="46.66916" lon="6.11322">
        <ele>1062.7</ele>
        <time>2021-11-23T10:32:52Z</time>
      </trkpt>
      <trkpt lat="46.66913" lon="6.11317">
        <ele>1061.9</ele>
        <time>2021-11-23T10:32:57Z</time>
      </trkpt>
      <trkpt lat="46.6691" lon="6.11311">
        <ele>1061.5</ele>
        <time>2021-11-23T10:33:02Z</time>
      </trkpt>
      <trkpt lat="46.66907" lon="6.11307">
        <ele>1060.7</ele>
        <time>2021-11-23T10:33:07Z</time>
      </trkpt>
      <trkpt lat="46.66903" lon="6.11301">
        <ele>1059.7</ele>
        <time>2021-11-23T10:33:13Z</time>
      </trkpt>
      <trkpt lat="46.66901" lon="6.11295">
        <ele>1058.9</ele>
        <time>2021-11-23T10:33:18Z</time>
      </trkpt>
      <trkpt lat="46.66898" lon="6.1129">
        <ele>1058.2</ele>
        <time>2021-11-23T10:33:23Z</time>
      </trkpt>
      <trkpt lat="46.66895" lon="6.11284">
        <ele>1058.2</ele>
        <time>2021-11-23T10:33:28Z</time>
      </trkpt>
      <trkpt lat="46.66891" lon="6.11279">
        <ele>1057.8</ele>
        <time>2021-11-23T10:33:33Z</time>
      </trkpt>
      <trkpt lat="46.66888" lon="6.11273">
        <ele>1057.4</ele>
        <time>2021-11-23T10:33:38Z</time>
      </trkpt>
      <trkpt lat="46.66886" lon="6.11267">
        <ele>1057.3</ele>
        <time>2021-11-23T10:33:49Z</time>
      </trkpt>
      <trkpt lat="46.66883" lon="6.11261">
        <ele>1056.5</ele>
        <time>2021-11-23T10:33:55Z</time>
      </trkpt>
      <trkpt lat="46.66879" lon="6.11257">
        <ele>1055.8</ele>
        <time>2021-11-23T10:34:00Z</time>
      </trkpt>
      <trkpt lat="46.66876" lon="6.11252">
        <ele>1054.6</ele>
        <time>2021-11-23T10:34:05Z</time>
      </trkpt>
      <trkpt lat="46.66873" lon="6.11245">
        <ele>1052.7</ele>
        <time>2021-11-23T10:34:11Z</time>
      </trkpt>
      <trkpt lat="46.66871" lon="6.11239">
        <ele>1051.6</ele>
        <time>2021-11-23T10:34:16Z</time>
      </trkpt>
      <trkpt lat="46.66868" lon="6.11234">
        <ele>1051.3</ele>
        <time>2021-11-23T10:34:21Z</time>
      </trkpt>
      <trkpt lat="46.66866" lon="6.11228">
        <ele>1050.8</ele>
        <time>2021-11-23T10:34:26Z</time>
      </trkpt>
      <trkpt lat="46.66863" lon="6.11222">
        <ele>1050.7</ele>
        <time>2021-11-23T10:34:31Z</time>
      </trkpt>
      <trkpt lat="46.66859" lon="6.11218">
        <ele>1050.6</ele>
        <time>2021-11-23T10:34:36Z</time>
      </trkpt>
      <trkpt lat="46.66855" lon="6.11212">
        <ele>1050</ele>
        <time>2021-11-23T10:34:42Z</time>
      </trkpt>
      <trkpt lat="46.66852" lon="6.11208">
        <ele>1049.1</ele>
        <time>2021-11-23T10:34:47Z</time>
      </trkpt>
      <trkpt lat="46.66849" lon="6.11203">
        <ele>1048.2</ele>
        <time>2021-11-23T10:34:52Z</time>
      </trkpt>
      <trkpt lat="46.66845" lon="6.11198">
        <ele>1047.5</ele>
        <time>2021-11-23T10:34:57Z</time>
      </trkpt>
      <trkpt lat="46.66841" lon="6.11193">
        <ele>1047</ele>
        <time>2021-11-23T10:35:02Z</time>
      </trkpt>
      <trkpt lat="46.66837" lon="6.11189">
        <ele>1045.5</ele>
        <time>2021-11-23T10:35:07Z</time>
      </trkpt>
      <trkpt lat="46.66835" lon="6.11183">
        <ele>1043.7</ele>
        <time>2021-11-23T10:35:13Z</time>
      </trkpt>
      <trkpt lat="46.66835" lon="6.11176">
        <ele>1041.6</ele>
        <time>2021-11-23T10:35:20Z</time>
      </trkpt>
      <trkpt lat="46.66839" lon="6.11172">
        <ele>1038.6</ele>
        <time>2021-11-23T10:36:24Z</time>
      </trkpt>
      <trkpt lat="46.66844" lon="6.11169">
        <ele>1037.5</ele>
        <time>2021-11-23T10:36:38Z</time>
      </trkpt>
      <trkpt lat="46.66843" lon="6.11162">
        <ele>1044.7</ele>
        <time>2021-11-23T10:53:01Z</time>
      </trkpt>
      <trkpt lat="46.66839" lon="6.11165">
        <ele>1043.3</ele>
        <time>2021-11-23T11:17:01Z</time>
      </trkpt>
      <trkpt lat="46.66835" lon="6.1116">
        <ele>1042.4</ele>
        <time>2021-11-23T11:17:22Z</time>
      </trkpt>
      <trkpt lat="46.66831" lon="6.11156">
        <ele>1041.1</ele>
        <time>2021-11-23T11:17:29Z</time>
      </trkpt>
      <trkpt lat="46.66827" lon="6.11152">
        <ele>1040.1</ele>
        <time>2021-11-23T11:17:36Z</time>
      </trkpt>
      <trkpt lat="46.66823" lon="6.11148">
        <ele>1038.8</ele>
        <time>2021-11-23T11:17:44Z</time>
      </trkpt>
      <trkpt lat="46.66819" lon="6.11144">
        <ele>1037.6</ele>
        <time>2021-11-23T11:17:50Z</time>
      </trkpt>
      <trkpt lat="46.66814" lon="6.11144">
        <ele>1036.3</ele>
        <time>2021-11-23T11:17:59Z</time>
      </trkpt>
      <trkpt lat="46.66808" lon="6.11145">
        <ele>1036</ele>
        <time>2021-11-23T11:18:05Z</time>
      </trkpt>
      <trkpt lat="46.66805" lon="6.1114">
        <ele>1035.9</ele>
        <time>2021-11-23T11:18:11Z</time>
      </trkpt>
      <trkpt lat="46.66801" lon="6.11135">
        <ele>1035.4</ele>
        <time>2021-11-23T11:18:19Z</time>
      </trkpt>
      <trkpt lat="46.66796" lon="6.11133">
        <ele>1032.6</ele>
        <time>2021-11-23T11:18:39Z</time>
      </trkpt>
      <trkpt lat="46.66792" lon="6.1113">
        <ele>1031.3</ele>
        <time>2021-11-23T11:18:43Z</time>
      </trkpt>
      <trkpt lat="46.66787" lon="6.11127">
        <ele>1030.3</ele>
        <time>2021-11-23T11:18:47Z</time>
      </trkpt>
      <trkpt lat="46.66783" lon="6.11123">
        <ele>1030</ele>
        <time>2021-11-23T11:18:51Z</time>
      </trkpt>
      <trkpt lat="46.66779" lon="6.11121">
        <ele>1029.6</ele>
        <time>2021-11-23T11:18:55Z</time>
      </trkpt>
      <trkpt lat="46.66774" lon="6.11118">
        <ele>1029</ele>
        <time>2021-11-23T11:19:00Z</time>
      </trkpt>
      <trkpt lat="46.66769" lon="6.11116">
        <ele>1027.9</ele>
        <time>2021-11-23T11:19:05Z</time>
      </trkpt>
      <trkpt lat="46.66764" lon="6.11115">
        <ele>1027.2</ele>
        <time>2021-11-23T11:19:10Z</time>
      </trkpt>
      <trkpt lat="46.66759" lon="6.11112">
        <ele>1026.3</ele>
        <time>2021-11-23T11:19:16Z</time>
      </trkpt>
      <trkpt lat="46.66754" lon="6.1111">
        <ele>1024.9</ele>
        <time>2021-11-23T11:19:22Z</time>
      </trkpt>
      <trkpt lat="46.6675" lon="6.11105">
        <ele>1023.9</ele>
        <time>2021-11-23T11:19:28Z</time>
      </trkpt>
      <trkpt lat="46.66746" lon="6.11101">
        <ele>1023.4</ele>
        <time>2021-11-23T11:19:35Z</time>
      </trkpt>
      <trkpt lat="46.66741" lon="6.11098">
        <ele>1023.5</ele>
        <time>2021-11-23T11:19:39Z</time>
      </trkpt>
      <trkpt lat="46.66737" lon="6.11095">
        <ele>1023.5</ele>
        <time>2021-11-23T11:19:43Z</time>
      </trkpt>
      <trkpt lat="46.66733" lon="6.11091">
        <ele>1023.2</ele>
        <time>2021-11-23T11:19:48Z</time>
      </trkpt>
      <trkpt lat="46.66729" lon="6.11089">
        <ele>1022.2</ele>
        <time>2021-11-23T11:19:53Z</time>
      </trkpt>
      <trkpt lat="46.66724" lon="6.11088">
        <ele>1021.1</ele>
        <time>2021-11-23T11:19:57Z</time>
      </trkpt>
      <trkpt lat="46.66719" lon="6.11087">
        <ele>1020.1</ele>
        <time>2021-11-23T11:20:01Z</time>
      </trkpt>
      <trkpt lat="46.66714" lon="6.11086">
        <ele>1019.3</ele>
        <time>2021-11-23T11:20:05Z</time>
      </trkpt>
      <trkpt lat="46.66709" lon="6.11085">
        <ele>1018.5</ele>
        <time>2021-11-23T11:20:10Z</time>
      </trkpt>
      <trkpt lat="46.66704" lon="6.11083">
        <ele>1018</ele>
        <time>2021-11-23T11:20:15Z</time>
      </trkpt>
      <trkpt lat="46.667" lon="6.11081">
        <ele>1018.2</ele>
        <time>2021-11-23T11:20:20Z</time>
      </trkpt>
      <trkpt lat="46.66694" lon="6.11081">
        <ele>1018</ele>
        <time>2021-11-23T11:20:25Z</time>
      </trkpt>
      <trkpt lat="46.6669" lon="6.11081">
        <ele>1017.5</ele>
        <time>2021-11-23T11:20:30Z</time>
      </trkpt>
      <trkpt lat="46.66684" lon="6.11082">
        <ele>1016.8</ele>
        <time>2021-11-23T11:20:35Z</time>
      </trkpt>
      <trkpt lat="46.66679" lon="6.11081">
        <ele>1016.8</ele>
        <time>2021-11-23T11:20:39Z</time>
      </trkpt>
      <trkpt lat="46.66673" lon="6.11082">
        <ele>1016.5</ele>
        <time>2021-11-23T11:20:45Z</time>
      </trkpt>
      <trkpt lat="46.66669" lon="6.11082">
        <ele>1016</ele>
        <time>2021-11-23T11:20:49Z</time>
      </trkpt>
      <trkpt lat="46.66664" lon="6.11082">
        <ele>1015.6</ele>
        <time>2021-11-23T11:20:53Z</time>
      </trkpt>
      <trkpt lat="46.66658" lon="6.11083">
        <ele>1015.1</ele>
        <time>2021-11-23T11:20:58Z</time>
      </trkpt>
      <trkpt lat="46.66653" lon="6.11082">
        <ele>1014.4</ele>
        <time>2021-11-23T11:21:03Z</time>
      </trkpt>
      <trkpt lat="46.66649" lon="6.11081">
        <ele>1014.1</ele>
        <time>2021-11-23T11:21:07Z</time>
      </trkpt>
      <trkpt lat="46.66644" lon="6.11079">
        <ele>1014.1</ele>
        <time>2021-11-23T11:21:11Z</time>
      </trkpt>
      <trkpt lat="46.66639" lon="6.11076">
        <ele>1014.3</ele>
        <time>2021-11-23T11:21:15Z</time>
      </trkpt>
      <trkpt lat="46.66635" lon="6.11071">
        <ele>1013.9</ele>
        <time>2021-11-23T11:21:20Z</time>
      </trkpt>
      <trkpt lat="46.66631" lon="6.11066">
        <ele>1013.5</ele>
        <time>2021-11-23T11:21:24Z</time>
      </trkpt>
      <trkpt lat="46.66627" lon="6.11062">
        <ele>1012.8</ele>
        <time>2021-11-23T11:21:28Z</time>
      </trkpt>
      <trkpt lat="46.66624" lon="6.11057">
        <ele>1012.4</ele>
        <time>2021-11-23T11:21:32Z</time>
      </trkpt>
      <trkpt lat="46.66621" lon="6.11052">
        <ele>1012.5</ele>
        <time>2021-11-23T11:21:36Z</time>
      </trkpt>
      <trkpt lat="46.66617" lon="6.11048">
        <ele>1011.7</ele>
        <time>2021-11-23T11:21:42Z</time>
      </trkpt>
      <trkpt lat="46.66612" lon="6.11043">
        <ele>1010.2</ele>
        <time>2021-11-23T11:21:48Z</time>
      </trkpt>
      <trkpt lat="46.66608" lon="6.11039">
        <ele>1008.2</ele>
        <time>2021-11-23T11:21:53Z</time>
      </trkpt>
      <trkpt lat="46.66604" lon="6.11033">
        <ele>1006</ele>
        <time>2021-11-23T11:21:58Z</time>
      </trkpt>
      <trkpt lat="46.666" lon="6.11029">
        <ele>1004.6</ele>
        <time>2021-11-23T11:22:03Z</time>
      </trkpt>
      <trkpt lat="46.66596" lon="6.11026">
        <ele>1003.9</ele>
        <time>2021-11-23T11:22:07Z</time>
      </trkpt>
      <trkpt lat="46.66591" lon="6.11021">
        <ele>1003.6</ele>
        <time>2021-11-23T11:22:12Z</time>
      </trkpt>
      <trkpt lat="46.66588" lon="6.11016">
        <ele>1003.3</ele>
        <time>2021-11-23T11:22:17Z</time>
      </trkpt>
      <trkpt lat="46.66584" lon="6.11013">
        <ele>1003.3</ele>
        <time>2021-11-23T11:22:22Z</time>
      </trkpt>
      <trkpt lat="46.6658" lon="6.11008">
        <ele>1002.8</ele>
        <time>2021-11-23T11:22:27Z</time>
      </trkpt>
      <trkpt lat="46.66576" lon="6.11006">
        <ele>1002.2</ele>
        <time>2021-11-23T11:22:31Z</time>
      </trkpt>
      <trkpt lat="46.66572" lon="6.11002">
        <ele>1001.6</ele>
        <time>2021-11-23T11:22:35Z</time>
      </trkpt>
      <trkpt lat="46.66568" lon="6.10998">
        <ele>1001.2</ele>
        <time>2021-11-23T11:22:40Z</time>
      </trkpt>
      <trkpt lat="46.66564" lon="6.10994">
        <ele>1001.4</ele>
        <time>2021-11-23T11:22:45Z</time>
      </trkpt>
      <trkpt lat="46.66559" lon="6.10992">
        <ele>1001.8</ele>
        <time>2021-11-23T11:22:50Z</time>
      </trkpt>
      <trkpt lat="46.66555" lon="6.10987">
        <ele>1001.7</ele>
        <time>2021-11-23T11:22:56Z</time>
      </trkpt>
      <trkpt lat="46.66551" lon="6.10983">
        <ele>1001.5</ele>
        <time>2021-11-23T11:23:01Z</time>
      </trkpt>
      <trkpt lat="46.66547" lon="6.1098">
        <ele>1001.5</ele>
        <time>2021-11-23T11:23:05Z</time>
      </trkpt>
      <trkpt lat="46.66542" lon="6.10977">
        <ele>1001.5</ele>
        <time>2021-11-23T11:23:11Z</time>
      </trkpt>
      <trkpt lat="46.66537" lon="6.10974">
        <ele>1001.1</ele>
        <time>2021-11-23T11:23:16Z</time>
      </trkpt>
      <trkpt lat="46.66532" lon="6.10971">
        <ele>1000.3</ele>
        <time>2021-11-23T11:23:21Z</time>
      </trkpt>
      <trkpt lat="46.66527" lon="6.10968">
        <ele>999.2</ele>
        <time>2021-11-23T11:23:26Z</time>
      </trkpt>
      <trkpt lat="46.66523" lon="6.10964">
        <ele>997.8</ele>
        <time>2021-11-23T11:23:32Z</time>
      </trkpt>
      <trkpt lat="46.66519" lon="6.1096">
        <ele>996.7</ele>
        <time>2021-11-23T11:23:37Z</time>
      </trkpt>
      <trkpt lat="46.66515" lon="6.10954">
        <ele>995.7</ele>
        <time>2021-11-23T11:23:43Z</time>
      </trkpt>
      <trkpt lat="46.6651" lon="6.1095">
        <ele>995.3</ele>
        <time>2021-11-23T11:23:48Z</time>
      </trkpt>
      <trkpt lat="46.66506" lon="6.10947">
        <ele>995.1</ele>
        <time>2021-11-23T11:23:53Z</time>
      </trkpt>
      <trkpt lat="46.66502" lon="6.10943">
        <ele>998.3</ele>
        <time>2021-11-23T11:25:43Z</time>
      </trkpt>
      <trkpt lat="46.66498" lon="6.1094">
        <ele>997.2</ele>
        <time>2021-11-23T11:25:47Z</time>
      </trkpt>
      <trkpt lat="46.66494" lon="6.10936">
        <ele>996.2</ele>
        <time>2021-11-23T11:25:51Z</time>
      </trkpt>
      <trkpt lat="46.66489" lon="6.10933">
        <ele>994.7</ele>
        <time>2021-11-23T11:25:56Z</time>
      </trkpt>
      <trkpt lat="46.66483" lon="6.10931">
        <ele>993.9</ele>
        <time>2021-11-23T11:26:00Z</time>
      </trkpt>
      <trkpt lat="46.66479" lon="6.10929">
        <ele>993</ele>
        <time>2021-11-23T11:26:04Z</time>
      </trkpt>
      <trkpt lat="46.66473" lon="6.10929">
        <ele>992.5</ele>
        <time>2021-11-23T11:26:08Z</time>
      </trkpt>
      <trkpt lat="46.66468" lon="6.10931">
        <ele>991.9</ele>
        <time>2021-11-23T11:26:12Z</time>
      </trkpt>
      <trkpt lat="46.66464" lon="6.10927">
        <ele>991.2</ele>
        <time>2021-11-23T11:26:17Z</time>
      </trkpt>
      <trkpt lat="46.66459" lon="6.10926">
        <ele>991.3</ele>
        <time>2021-11-23T11:26:22Z</time>
      </trkpt>
      <trkpt lat="46.66455" lon="6.1093">
        <ele>991.6</ele>
        <time>2021-11-23T11:26:28Z</time>
      </trkpt>
      <trkpt lat="46.6645" lon="6.10933">
        <ele>991.3</ele>
        <time>2021-11-23T11:26:34Z</time>
      </trkpt>
      <trkpt lat="46.66446" lon="6.10938">
        <ele>990.6</ele>
        <time>2021-11-23T11:26:38Z</time>
      </trkpt>
      <trkpt lat="46.66442" lon="6.10941">
        <ele>989.6</ele>
        <time>2021-11-23T11:26:43Z</time>
      </trkpt>
      <trkpt lat="46.66437" lon="6.10943">
        <ele>988.7</ele>
        <time>2021-11-23T11:26:48Z</time>
      </trkpt>
      <trkpt lat="46.66433" lon="6.10947">
        <ele>987.8</ele>
        <time>2021-11-23T11:26:52Z</time>
      </trkpt>
      <trkpt lat="46.66429" lon="6.10952">
        <ele>986.9</ele>
        <time>2021-11-23T11:26:56Z</time>
      </trkpt>
      <trkpt lat="46.66425" lon="6.10956">
        <ele>985.2</ele>
        <time>2021-11-23T11:27:02Z</time>
      </trkpt>
      <trkpt lat="46.66421" lon="6.10954">
        <ele>984.2</ele>
        <time>2021-11-23T11:27:06Z</time>
      </trkpt>
      <trkpt lat="46.66417" lon="6.1095">
        <ele>983</ele>
        <time>2021-11-23T11:27:11Z</time>
      </trkpt>
      <trkpt lat="46.66415" lon="6.10944">
        <ele>982.1</ele>
        <time>2021-11-23T11:27:17Z</time>
      </trkpt>
      <trkpt lat="46.66414" lon="6.10937">
        <ele>981.8</ele>
        <time>2021-11-23T11:27:24Z</time>
      </trkpt>
      <trkpt lat="46.66414" lon="6.1093">
        <ele>982.8</ele>
        <time>2021-11-23T11:27:32Z</time>
      </trkpt>
      <trkpt lat="46.66419" lon="6.10927">
        <ele>985.6</ele>
        <time>2021-11-23T11:27:52Z</time>
      </trkpt>
      <trkpt lat="46.66422" lon="6.10923">
        <ele>985.8</ele>
        <time>2021-11-23T11:27:57Z</time>
      </trkpt>
      <trkpt lat="46.66426" lon="6.10919">
        <ele>985.4</ele>
        <time>2021-11-23T11:28:03Z</time>
      </trkpt>
      <trkpt lat="46.66427" lon="6.10912">
        <ele>985.4</ele>
        <time>2021-11-23T11:28:07Z</time>
      </trkpt>
      <trkpt lat="46.66426" lon="6.10905">
        <ele>984.8</ele>
        <time>2021-11-23T11:28:14Z</time>
      </trkpt>
      <trkpt lat="46.66422" lon="6.10899">
        <ele>984</ele>
        <time>2021-11-23T11:28:20Z</time>
      </trkpt>
      <trkpt lat="46.6642" lon="6.10893">
        <ele>982.2</ele>
        <time>2021-11-23T11:28:28Z</time>
      </trkpt>
      <trkpt lat="46.66423" lon="6.10886">
        <ele>980.8</ele>
        <time>2021-11-23T11:29:06Z</time>
      </trkpt>
      <trkpt lat="46.66425" lon="6.10893">
        <ele>979.7</ele>
        <time>2021-11-23T11:30:53Z</time>
      </trkpt>
      <trkpt lat="46.66424" lon="6.10899">
        <ele>985.8</ele>
        <time>2021-11-23T11:30:59Z</time>
      </trkpt>
      <trkpt lat="46.66427" lon="6.10905">
        <ele>988.3</ele>
        <time>2021-11-23T11:31:04Z</time>
      </trkpt>
      <trkpt lat="46.66429" lon="6.1091">
        <ele>988.7</ele>
        <time>2021-11-23T11:31:10Z</time>
      </trkpt>
      <trkpt lat="46.66427" lon="6.10916">
        <ele>988.2</ele>
        <time>2021-11-23T11:31:18Z</time>
      </trkpt>
      <trkpt lat="46.66424" lon="6.10921">
        <ele>987.9</ele>
        <time>2021-11-23T11:31:25Z</time>
      </trkpt>
      <trkpt lat="46.6642" lon="6.10923">
        <ele>986.6</ele>
        <time>2021-11-23T11:31:35Z</time>
      </trkpt>
      <trkpt lat="46.66415" lon="6.10927">
        <ele>985.1</ele>
        <time>2021-11-23T11:31:41Z</time>
      </trkpt>
      <trkpt lat="46.66411" lon="6.10932">
        <ele>984.3</ele>
        <time>2021-11-23T11:31:46Z</time>
      </trkpt>
      <trkpt lat="46.66407" lon="6.10929">
        <ele>981.6</ele>
        <time>2021-11-23T11:32:06Z</time>
      </trkpt>
      <trkpt lat="46.66405" lon="6.10922">
        <ele>980.8</ele>
        <time>2021-11-23T11:32:10Z</time>
      </trkpt>
      <trkpt lat="46.66402" lon="6.10917">
        <ele>980.5</ele>
        <time>2021-11-23T11:32:13Z</time>
      </trkpt>
      <trkpt lat="46.664" lon="6.10911">
        <ele>980.2</ele>
        <time>2021-11-23T11:32:16Z</time>
      </trkpt>
      <trkpt lat="46.66396" lon="6.10905">
        <ele>979.9</ele>
        <time>2021-11-23T11:32:20Z</time>
      </trkpt>
      <trkpt lat="46.66394" lon="6.10898">
        <ele>979.7</ele>
        <time>2021-11-23T11:32:25Z</time>
      </trkpt>
      <trkpt lat="46.66392" lon="6.10891">
        <ele>979.7</ele>
        <time>2021-11-23T11:32:29Z</time>
      </trkpt>
      <trkpt lat="46.6639" lon="6.10885">
        <ele>979.6</ele>
        <time>2021-11-23T11:32:33Z</time>
      </trkpt>
      <trkpt lat="46.66387" lon="6.10878">
        <ele>979.3</ele>
        <time>2021-11-23T11:32:37Z</time>
      </trkpt>
      <trkpt lat="46.66385" lon="6.10872">
        <ele>978.9</ele>
        <time>2021-11-23T11:32:41Z</time>
      </trkpt>
      <trkpt lat="46.66382" lon="6.10866">
        <ele>978.6</ele>
        <time>2021-11-23T11:32:45Z</time>
      </trkpt>
      <trkpt lat="46.66378" lon="6.10863">
        <ele>978.8</ele>
        <time>2021-11-23T11:32:49Z</time>
      </trkpt>
      <trkpt lat="46.66375" lon="6.10857">
        <ele>979.4</ele>
        <time>2021-11-23T11:32:54Z</time>
      </trkpt>
      <trkpt lat="46.66372" lon="6.1085">
        <ele>981.2</ele>
        <time>2021-11-23T11:33:00Z</time>
      </trkpt>
      <trkpt lat="46.6637" lon="6.10844">
        <ele>982.8</ele>
        <time>2021-11-23T11:33:05Z</time>
      </trkpt>
      <trkpt lat="46.66368" lon="6.10837">
        <ele>983.9</ele>
        <time>2021-11-23T11:33:10Z</time>
      </trkpt>
      <trkpt lat="46.66366" lon="6.1083">
        <ele>984</ele>
        <time>2021-11-23T11:33:16Z</time>
      </trkpt>
      <trkpt lat="46.66364" lon="6.10823">
        <ele>983.2</ele>
        <time>2021-11-23T11:33:21Z</time>
      </trkpt>
      <trkpt lat="46.66361" lon="6.10817">
        <ele>983.5</ele>
        <time>2021-11-23T11:33:27Z</time>
      </trkpt>
      <trkpt lat="46.66359" lon="6.10811">
        <ele>985</ele>
        <time>2021-11-23T11:33:33Z</time>
      </trkpt>
      <trkpt lat="46.66358" lon="6.10804">
        <ele>986.6</ele>
        <time>2021-11-23T11:33:38Z</time>
      </trkpt>
      <trkpt lat="46.66354" lon="6.10799">
        <ele>987.9</ele>
        <time>2021-11-23T11:33:44Z</time>
      </trkpt>
      <trkpt lat="46.66352" lon="6.10793">
        <ele>988.7</ele>
        <time>2021-11-23T11:33:50Z</time>
      </trkpt>
      <trkpt lat="46.6635" lon="6.10786">
        <ele>989.2</ele>
        <time>2021-11-23T11:33:57Z</time>
      </trkpt>
      <trkpt lat="46.66347" lon="6.1078">
        <ele>989.8</ele>
        <time>2021-11-23T11:34:03Z</time>
      </trkpt>
      <trkpt lat="46.66343" lon="6.10774">
        <ele>990.2</ele>
        <time>2021-11-23T11:34:07Z</time>
      </trkpt>
      <trkpt lat="46.66339" lon="6.10768">
        <ele>990.9</ele>
        <time>2021-11-23T11:34:12Z</time>
      </trkpt>
      <trkpt lat="46.66335" lon="6.10763">
        <ele>991.6</ele>
        <time>2021-11-23T11:34:18Z</time>
      </trkpt>
      <trkpt lat="46.66332" lon="6.10759">
        <ele>993.1</ele>
        <time>2021-11-23T11:34:24Z</time>
      </trkpt>
      <trkpt lat="46.6633" lon="6.10751">
        <ele>994.4</ele>
        <time>2021-11-23T11:34:30Z</time>
      </trkpt>
      <trkpt lat="46.66328" lon="6.10744">
        <ele>995.5</ele>
        <time>2021-11-23T11:34:35Z</time>
      </trkpt>
      <trkpt lat="46.66325" lon="6.10738">
        <ele>996.4</ele>
        <time>2021-11-23T11:34:39Z</time>
      </trkpt>
      <trkpt lat="46.66324" lon="6.10731">
        <ele>997.6</ele>
        <time>2021-11-23T11:34:44Z</time>
      </trkpt>
      <trkpt lat="46.66322" lon="6.10724">
        <ele>998.5</ele>
        <time>2021-11-23T11:34:50Z</time>
      </trkpt>
      <trkpt lat="46.66318" lon="6.10718">
        <ele>998.9</ele>
        <time>2021-11-23T11:34:55Z</time>
      </trkpt>
      <trkpt lat="46.66316" lon="6.10712">
        <ele>999</ele>
        <time>2021-11-23T11:35:00Z</time>
      </trkpt>
      <trkpt lat="46.66314" lon="6.10706">
        <ele>999.3</ele>
        <time>2021-11-23T11:35:06Z</time>
      </trkpt>
      <trkpt lat="46.6631" lon="6.107">
        <ele>999.3</ele>
        <time>2021-11-23T11:35:11Z</time>
      </trkpt>
      <trkpt lat="46.66308" lon="6.10694">
        <ele>999.5</ele>
        <time>2021-11-23T11:35:16Z</time>
      </trkpt>
      <trkpt lat="46.66306" lon="6.10688">
        <ele>999.6</ele>
        <time>2021-11-23T11:35:21Z</time>
      </trkpt>
      <trkpt lat="46.66302" lon="6.10683">
        <ele>999.7</ele>
        <time>2021-11-23T11:35:25Z</time>
      </trkpt>
      <trkpt lat="46.66299" lon="6.10677">
        <ele>1000.8</ele>
        <time>2021-11-23T11:35:31Z</time>
      </trkpt>
      <trkpt lat="46.66296" lon="6.10671">
        <ele>1002.4</ele>
        <time>2021-11-23T11:35:36Z</time>
      </trkpt>
      <trkpt lat="46.66293" lon="6.10664">
        <ele>1003.9</ele>
        <time>2021-11-23T11:35:41Z</time>
      </trkpt>
      <trkpt lat="46.6629" lon="6.10658">
        <ele>1005</ele>
        <time>2021-11-23T11:35:46Z</time>
      </trkpt>
      <trkpt lat="46.66288" lon="6.10652">
        <ele>1006.1</ele>
        <time>2021-11-23T11:35:52Z</time>
      </trkpt>
      <trkpt lat="46.66286" lon="6.10645">
        <ele>1006.4</ele>
        <time>2021-11-23T11:35:57Z</time>
      </trkpt>
      <trkpt lat="46.66283" lon="6.10639">
        <ele>1006.5</ele>
        <time>2021-11-23T11:36:02Z</time>
      </trkpt>
      <trkpt lat="46.6628" lon="6.10633">
        <ele>1006.6</ele>
        <time>2021-11-23T11:36:07Z</time>
      </trkpt>
      <trkpt lat="46.66277" lon="6.10627">
        <ele>1007.1</ele>
        <time>2021-11-23T11:36:12Z</time>
      </trkpt>
      <trkpt lat="46.66274" lon="6.10622">
        <ele>1007.8</ele>
        <time>2021-11-23T11:36:17Z</time>
      </trkpt>
      <trkpt lat="46.66271" lon="6.10615">
        <ele>1008.9</ele>
        <time>2021-11-23T11:36:23Z</time>
      </trkpt>
      <trkpt lat="46.6627" lon="6.10608">
        <ele>1009.2</ele>
        <time>2021-11-23T11:36:28Z</time>
      </trkpt>
      <trkpt lat="46.66267" lon="6.10602">
        <ele>1009.3</ele>
        <time>2021-11-23T11:36:33Z</time>
      </trkpt>
      <trkpt lat="46.66265" lon="6.10596">
        <ele>1010.1</ele>
        <time>2021-11-23T11:36:38Z</time>
      </trkpt>
      <trkpt lat="46.66263" lon="6.1059">
        <ele>1011.1</ele>
        <time>2021-11-23T11:36:43Z</time>
      </trkpt>
      <trkpt lat="46.6626" lon="6.10582">
        <ele>1011.4</ele>
        <time>2021-11-23T11:36:48Z</time>
      </trkpt>
      <trkpt lat="46.66258" lon="6.10576">
        <ele>1011.1</ele>
        <time>2021-11-23T11:36:53Z</time>
      </trkpt>
      <trkpt lat="46.66255" lon="6.10571">
        <ele>1011</ele>
        <time>2021-11-23T11:36:58Z</time>
      </trkpt>
      <trkpt lat="46.66252" lon="6.10564">
        <ele>1011.9</ele>
        <time>2021-11-23T11:37:04Z</time>
      </trkpt>
      <trkpt lat="46.6625" lon="6.10558">
        <ele>1012.5</ele>
        <time>2021-11-23T11:37:09Z</time>
      </trkpt>
      <trkpt lat="46.66249" lon="6.10552">
        <ele>1012.8</ele>
        <time>2021-11-23T11:37:13Z</time>
      </trkpt>
      <trkpt lat="46.66246" lon="6.10545">
        <ele>1012.8</ele>
        <time>2021-11-23T11:37:19Z</time>
      </trkpt>
      <trkpt lat="46.66245" lon="6.10539">
        <ele>1013.1</ele>
        <time>2021-11-23T11:37:23Z</time>
      </trkpt>
      <trkpt lat="46.66243" lon="6.10532">
        <ele>1013.5</ele>
        <time>2021-11-23T11:37:28Z</time>
      </trkpt>
      <trkpt lat="46.66241" lon="6.10526">
        <ele>1014.5</ele>
        <time>2021-11-23T11:37:34Z</time>
      </trkpt>
      <trkpt lat="46.66239" lon="6.1052">
        <ele>1016.5</ele>
        <time>2021-11-23T11:37:41Z</time>
      </trkpt>
      <trkpt lat="46.66237" lon="6.10514">
        <ele>1017.5</ele>
        <time>2021-11-23T11:37:50Z</time>
      </trkpt>
      <trkpt lat="46.66236" lon="6.10507">
        <ele>1017.9</ele>
        <time>2021-11-23T11:37:57Z</time>
      </trkpt>
      <trkpt lat="46.66233" lon="6.10501">
        <ele>1018.6</ele>
        <time>2021-11-23T11:38:02Z</time>
      </trkpt>
      <trkpt lat="46.66232" lon="6.10494">
        <ele>1019.3</ele>
        <time>2021-11-23T11:38:07Z</time>
      </trkpt>
      <trkpt lat="46.6623" lon="6.10487">
        <ele>1019.9</ele>
        <time>2021-11-23T11:38:12Z</time>
      </trkpt>
      <trkpt lat="46.66228" lon="6.10481">
        <ele>1019.8</ele>
        <time>2021-11-23T11:38:16Z</time>
      </trkpt>
      <trkpt lat="46.66227" lon="6.10474">
        <ele>1020.1</ele>
        <time>2021-11-23T11:38:21Z</time>
      </trkpt>
      <trkpt lat="46.66225" lon="6.10466">
        <ele>1020.8</ele>
        <time>2021-11-23T11:38:26Z</time>
      </trkpt>
      <trkpt lat="46.66225" lon="6.10459">
        <ele>1021.3</ele>
        <time>2021-11-23T11:38:31Z</time>
      </trkpt>
      <trkpt lat="46.66224" lon="6.10451">
        <ele>1021.8</ele>
        <time>2021-11-23T11:38:36Z</time>
      </trkpt>
      <trkpt lat="46.66223" lon="6.10445">
        <ele>1022.7</ele>
        <time>2021-11-23T11:38:41Z</time>
      </trkpt>
      <trkpt lat="46.66222" lon="6.10438">
        <ele>1023.6</ele>
        <time>2021-11-23T11:38:46Z</time>
      </trkpt>
      <trkpt lat="46.6622" lon="6.10431">
        <ele>1025.1</ele>
        <time>2021-11-23T11:38:52Z</time>
      </trkpt>
      <trkpt lat="46.66219" lon="6.10424">
        <ele>1026</ele>
        <time>2021-11-23T11:38:57Z</time>
      </trkpt>
      <trkpt lat="46.66216" lon="6.10417">
        <ele>1026.3</ele>
        <time>2021-11-23T11:39:03Z</time>
      </trkpt>
      <trkpt lat="46.66215" lon="6.10409">
        <ele>1025.7</ele>
        <time>2021-11-23T11:39:08Z</time>
      </trkpt>
      <trkpt lat="46.66213" lon="6.10402">
        <ele>1025</ele>
        <time>2021-11-23T11:39:13Z</time>
      </trkpt>
      <trkpt lat="46.66212" lon="6.10394">
        <ele>1024.3</ele>
        <time>2021-11-23T11:39:18Z</time>
      </trkpt>
      <trkpt lat="46.66211" lon="6.10386">
        <ele>1023.6</ele>
        <time>2021-11-23T11:39:23Z</time>
      </trkpt>
      <trkpt lat="46.66211" lon="6.10379">
        <ele>1023.4</ele>
        <time>2021-11-23T11:39:29Z</time>
      </trkpt>
      <trkpt lat="46.6621" lon="6.10373">
        <ele>1023</ele>
        <time>2021-11-23T11:39:35Z</time>
      </trkpt>
      <trkpt lat="46.66209" lon="6.10366">
        <ele>1022.9</ele>
        <time>2021-11-23T11:39:40Z</time>
      </trkpt>
      <trkpt lat="46.66207" lon="6.1036">
        <ele>1023</ele>
        <time>2021-11-23T11:39:44Z</time>
      </trkpt>
      <trkpt lat="46.66205" lon="6.10353">
        <ele>1022.7</ele>
        <time>2021-11-23T11:39:49Z</time>
      </trkpt>
      <trkpt lat="46.66203" lon="6.10346">
        <ele>1022.1</ele>
        <time>2021-11-23T11:39:53Z</time>
      </trkpt>
      <trkpt lat="46.66201" lon="6.1034">
        <ele>1021.1</ele>
        <time>2021-11-23T11:39:58Z</time>
      </trkpt>
      <trkpt lat="46.66199" lon="6.10333">
        <ele>1020.4</ele>
        <time>2021-11-23T11:40:02Z</time>
      </trkpt>
      <trkpt lat="46.66197" lon="6.10326">
        <ele>1019.8</ele>
        <time>2021-11-23T11:40:07Z</time>
      </trkpt>
      <trkpt lat="46.66195" lon="6.1032">
        <ele>1019.8</ele>
        <time>2021-11-23T11:40:11Z</time>
      </trkpt>
      <trkpt lat="46.66193" lon="6.10314">
        <ele>1020.1</ele>
        <time>2021-11-23T11:40:15Z</time>
      </trkpt>
      <trkpt lat="46.6619" lon="6.10308">
        <ele>1020.3</ele>
        <time>2021-11-23T11:40:19Z</time>
      </trkpt>
      <trkpt lat="46.66188" lon="6.10301">
        <ele>1020.7</ele>
        <time>2021-11-23T11:40:25Z</time>
      </trkpt>
      <trkpt lat="46.66185" lon="6.10297">
        <ele>1021.2</ele>
        <time>2021-11-23T11:40:30Z</time>
      </trkpt>
      <trkpt lat="46.66181" lon="6.10292">
        <ele>1021.9</ele>
        <time>2021-11-23T11:40:36Z</time>
      </trkpt>
      <trkpt lat="46.66178" lon="6.10287">
        <ele>1021.9</ele>
        <time>2021-11-23T11:40:41Z</time>
      </trkpt>
      <trkpt lat="46.66174" lon="6.10281">
        <ele>1021.6</ele>
        <time>2021-11-23T11:40:46Z</time>
      </trkpt>
      <trkpt lat="46.6617" lon="6.10277">
        <ele>1020.9</ele>
        <time>2021-11-23T11:40:49Z</time>
      </trkpt>
      <trkpt lat="46.66167" lon="6.10272">
        <ele>1020.1</ele>
        <time>2021-11-23T11:40:53Z</time>
      </trkpt>
      <trkpt lat="46.66164" lon="6.10265">
        <ele>1018.8</ele>
        <time>2021-11-23T11:40:59Z</time>
      </trkpt>
      <trkpt lat="46.66162" lon="6.10259">
        <ele>1017.5</ele>
        <time>2021-11-23T11:41:03Z</time>
      </trkpt>
      <trkpt lat="46.66159" lon="6.10252">
        <ele>1016.7</ele>
        <time>2021-11-23T11:41:07Z</time>
      </trkpt>
      <trkpt lat="46.66156" lon="6.10246">
        <ele>1016.2</ele>
        <time>2021-11-23T11:41:11Z</time>
      </trkpt>
      <trkpt lat="46.66153" lon="6.10238">
        <ele>1016.5</ele>
        <time>2021-11-23T11:41:15Z</time>
      </trkpt>
      <trkpt lat="46.66151" lon="6.10233">
        <ele>1016.8</ele>
        <time>2021-11-23T11:41:19Z</time>
      </trkpt>
      <trkpt lat="46.66149" lon="6.10226">
        <ele>1017.5</ele>
        <time>2021-11-23T11:41:24Z</time>
      </trkpt>
      <trkpt lat="46.66147" lon="6.10221">
        <ele>1017.9</ele>
        <time>2021-11-23T11:41:29Z</time>
      </trkpt>
      <trkpt lat="46.66144" lon="6.10215">
        <ele>1018.2</ele>
        <time>2021-11-23T11:41:34Z</time>
      </trkpt>
      <trkpt lat="46.6614" lon="6.1021">
        <ele>1018.4</ele>
        <time>2021-11-23T11:41:38Z</time>
      </trkpt>
      <trkpt lat="46.66137" lon="6.10205">
        <ele>1018.3</ele>
        <time>2021-11-23T11:41:42Z</time>
      </trkpt>
      <trkpt lat="46.66134" lon="6.10199">
        <ele>1018.4</ele>
        <time>2021-11-23T11:41:47Z</time>
      </trkpt>
      <trkpt lat="46.66131" lon="6.10192">
        <ele>1018.5</ele>
        <time>2021-11-23T11:41:53Z</time>
      </trkpt>
      <trkpt lat="46.66128" lon="6.10186">
        <ele>1018.6</ele>
        <time>2021-11-23T11:42:01Z</time>
      </trkpt>
      <trkpt lat="46.66125" lon="6.1018">
        <ele>1017.9</ele>
        <time>2021-11-23T11:42:08Z</time>
      </trkpt>
      <trkpt lat="46.66123" lon="6.10173">
        <ele>1017.7</ele>
        <time>2021-11-23T11:42:12Z</time>
      </trkpt>
      <trkpt lat="46.66119" lon="6.10167">
        <ele>1017.9</ele>
        <time>2021-11-23T11:42:16Z</time>
      </trkpt>
      <trkpt lat="46.66116" lon="6.10162">
        <ele>1018.4</ele>
        <time>2021-11-23T11:42:20Z</time>
      </trkpt>
      <trkpt lat="46.66114" lon="6.10156">
        <ele>1019.1</ele>
        <time>2021-11-23T11:42:24Z</time>
      </trkpt>
      <trkpt lat="46.66111" lon="6.10149">
        <ele>1020.1</ele>
        <time>2021-11-23T11:42:28Z</time>
      </trkpt>
      <trkpt lat="46.66107" lon="6.10143">
        <ele>1021.1</ele>
        <time>2021-11-23T11:42:32Z</time>
      </trkpt>
      <trkpt lat="46.66103" lon="6.10138">
        <ele>1022.1</ele>
        <time>2021-11-23T11:42:36Z</time>
      </trkpt>
      <trkpt lat="46.661" lon="6.10132">
        <ele>1023.3</ele>
        <time>2021-11-23T11:42:41Z</time>
      </trkpt>
      <trkpt lat="46.661" lon="6.10125">
        <ele>1025.2</ele>
        <time>2021-11-23T11:42:49Z</time>
      </trkpt>
      <trkpt lat="46.66098" lon="6.10118">
        <ele>1025.8</ele>
        <time>2021-11-23T11:42:59Z</time>
      </trkpt>
      <trkpt lat="46.66097" lon="6.10112">
        <ele>1026</ele>
        <time>2021-11-23T11:43:05Z</time>
      </trkpt>
      <trkpt lat="46.66096" lon="6.10105">
        <ele>1025.6</ele>
        <time>2021-11-23T11:43:11Z</time>
      </trkpt>
      <trkpt lat="46.66093" lon="6.10099">
        <ele>1024.7</ele>
        <time>2021-11-23T11:43:16Z</time>
      </trkpt>
      <trkpt lat="46.66091" lon="6.10093">
        <ele>1023.4</ele>
        <time>2021-11-23T11:43:21Z</time>
      </trkpt>
      <trkpt lat="46.66089" lon="6.10086">
        <ele>1021.8</ele>
        <time>2021-11-23T11:43:28Z</time>
      </trkpt>
      <trkpt lat="46.66088" lon="6.1008">
        <ele>1020.4</ele>
        <time>2021-11-23T11:43:34Z</time>
      </trkpt>
      <trkpt lat="46.66086" lon="6.10073">
        <ele>1019.7</ele>
        <time>2021-11-23T11:43:39Z</time>
      </trkpt>
      <trkpt lat="46.66084" lon="6.10066">
        <ele>1019.3</ele>
        <time>2021-11-23T11:43:44Z</time>
      </trkpt>
      <trkpt lat="46.66082" lon="6.10059">
        <ele>1019.5</ele>
        <time>2021-11-23T11:43:49Z</time>
      </trkpt>
      <trkpt lat="46.6608" lon="6.10053">
        <ele>1020.3</ele>
        <time>2021-11-23T11:43:55Z</time>
      </trkpt>
      <trkpt lat="46.66077" lon="6.10048">
        <ele>1020.7</ele>
        <time>2021-11-23T11:44:00Z</time>
      </trkpt>
      <trkpt lat="46.66074" lon="6.10041">
        <ele>1020.6</ele>
        <time>2021-11-23T11:44:05Z</time>
      </trkpt>
      <trkpt lat="46.66072" lon="6.10034">
        <ele>1020.8</ele>
        <time>2021-11-23T11:44:10Z</time>
      </trkpt>
      <trkpt lat="46.66069" lon="6.10027">
        <ele>1021.3</ele>
        <time>2021-11-23T11:44:14Z</time>
      </trkpt>
      <trkpt lat="46.66067" lon="6.1002">
        <ele>1022</ele>
        <time>2021-11-23T11:44:19Z</time>
      </trkpt>
      <trkpt lat="46.66066" lon="6.10013">
        <ele>1022.8</ele>
        <time>2021-11-23T11:44:24Z</time>
      </trkpt>
      <trkpt lat="46.66066" lon="6.10006">
        <ele>1023.5</ele>
        <time>2021-11-23T11:44:29Z</time>
      </trkpt>
      <trkpt lat="46.66065" lon="6.09999">
        <ele>1024.2</ele>
        <time>2021-11-23T11:44:35Z</time>
      </trkpt>
      <trkpt lat="46.66063" lon="6.09993">
        <ele>1024.5</ele>
        <time>2021-11-23T11:44:40Z</time>
      </trkpt>
      <trkpt lat="46.66061" lon="6.09986">
        <ele>1025.2</ele>
        <time>2021-11-23T11:44:45Z</time>
      </trkpt>
      <trkpt lat="46.66059" lon="6.09978">
        <ele>1025.8</ele>
        <time>2021-11-23T11:44:49Z</time>
      </trkpt>
      <trkpt lat="46.66056" lon="6.09972">
        <ele>1026.5</ele>
        <time>2021-11-23T11:44:53Z</time>
      </trkpt>
      <trkpt lat="46.66055" lon="6.09965">
        <ele>1027.3</ele>
        <time>2021-11-23T11:44:58Z</time>
      </trkpt>
      <trkpt lat="46.66053" lon="6.09958">
        <ele>1028.2</ele>
        <time>2021-11-23T11:45:03Z</time>
      </trkpt>
      <trkpt lat="46.6605" lon="6.09951">
        <ele>1029.5</ele>
        <time>2021-11-23T11:45:08Z</time>
      </trkpt>
      <trkpt lat="46.66051" lon="6.09945">
        <ele>1031.3</ele>
        <time>2021-11-23T11:45:16Z</time>
      </trkpt>
      <trkpt lat="46.66055" lon="6.09947">
        <ele>1030.8</ele>
        <time>2021-11-23T11:45:43Z</time>
      </trkpt>
      <trkpt lat="46.66052" lon="6.09943">
        <ele>1030.7</ele>
        <time>2021-11-23T11:45:55Z</time>
      </trkpt>
      <trkpt lat="46.66051" lon="6.09936">
        <ele>1030.8</ele>
        <time>2021-11-23T11:46:06Z</time>
      </trkpt>
      <trkpt lat="46.66047" lon="6.09933">
        <ele>1032.2</ele>
        <time>2021-11-23T11:46:15Z</time>
      </trkpt>
      <trkpt lat="46.66044" lon="6.09928">
        <ele>1032.4</ele>
        <time>2021-11-23T11:46:19Z</time>
      </trkpt>
      <trkpt lat="46.66041" lon="6.09922">
        <ele>1032.5</ele>
        <time>2021-11-23T11:46:23Z</time>
      </trkpt>
      <trkpt lat="46.66039" lon="6.09916">
        <ele>1032.2</ele>
        <time>2021-11-23T11:46:28Z</time>
      </trkpt>
      <trkpt lat="46.66035" lon="6.09909">
        <ele>1031.4</ele>
        <time>2021-11-23T11:46:33Z</time>
      </trkpt>
      <trkpt lat="46.66032" lon="6.09903">
        <ele>1030.9</ele>
        <time>2021-11-23T11:46:37Z</time>
      </trkpt>
      <trkpt lat="46.6603" lon="6.09896">
        <ele>1030.6</ele>
        <time>2021-11-23T11:46:41Z</time>
      </trkpt>
      <trkpt lat="46.66027" lon="6.09889">
        <ele>1030</ele>
        <time>2021-11-23T11:46:45Z</time>
      </trkpt>
      <trkpt lat="46.66023" lon="6.09883">
        <ele>1029.6</ele>
        <time>2021-11-23T11:46:49Z</time>
      </trkpt>
      <trkpt lat="46.6602" lon="6.09877">
        <ele>1029.8</ele>
        <time>2021-11-23T11:46:54Z</time>
      </trkpt>
      <trkpt lat="46.66018" lon="6.09871">
        <ele>1029.7</ele>
        <time>2021-11-23T11:46:58Z</time>
      </trkpt>
      <trkpt lat="46.66014" lon="6.09866">
        <ele>1029.1</ele>
        <time>2021-11-23T11:47:02Z</time>
      </trkpt>
      <trkpt lat="46.6601" lon="6.09859">
        <ele>1028</ele>
        <time>2021-11-23T11:47:06Z</time>
      </trkpt>
      <trkpt lat="46.66007" lon="6.09852">
        <ele>1026.8</ele>
        <time>2021-11-23T11:47:10Z</time>
      </trkpt>
      <trkpt lat="46.66004" lon="6.09846">
        <ele>1026.2</ele>
        <time>2021-11-23T11:47:14Z</time>
      </trkpt>
      <trkpt lat="46.66" lon="6.09841">
        <ele>1026</ele>
        <time>2021-11-23T11:47:17Z</time>
      </trkpt>
      <trkpt lat="46.65997" lon="6.09836">
        <ele>1026</ele>
        <time>2021-11-23T11:47:20Z</time>
      </trkpt>
      <trkpt lat="46.65994" lon="6.0983">
        <ele>1026.1</ele>
        <time>2021-11-23T11:47:23Z</time>
      </trkpt>
      <trkpt lat="46.65991" lon="6.09824">
        <ele>1026.1</ele>
        <time>2021-11-23T11:47:27Z</time>
      </trkpt>
      <trkpt lat="46.65989" lon="6.09818">
        <ele>1026.2</ele>
        <time>2021-11-23T11:47:31Z</time>
      </trkpt>
      <trkpt lat="46.65987" lon="6.09812">
        <ele>1026.4</ele>
        <time>2021-11-23T11:47:35Z</time>
      </trkpt>
      <trkpt lat="46.65985" lon="6.09805">
        <ele>1026.5</ele>
        <time>2021-11-23T11:47:39Z</time>
      </trkpt>
      <trkpt lat="46.65983" lon="6.09797">
        <ele>1027.2</ele>
        <time>2021-11-23T11:47:43Z</time>
      </trkpt>
      <trkpt lat="46.65981" lon="6.09791">
        <ele>1027.9</ele>
        <time>2021-11-23T11:47:46Z</time>
      </trkpt>
      <trkpt lat="46.65979" lon="6.09785">
        <ele>1028.9</ele>
        <time>2021-11-23T11:47:49Z</time>
      </trkpt>
      <trkpt lat="46.65976" lon="6.09779">
        <ele>1029.8</ele>
        <time>2021-11-23T11:47:52Z</time>
      </trkpt>
      <trkpt lat="46.65973" lon="6.09773">
        <ele>1031</ele>
        <time>2021-11-23T11:47:56Z</time>
      </trkpt>
      <trkpt lat="46.6597" lon="6.09768">
        <ele>1032.1</ele>
        <time>2021-11-23T11:48:00Z</time>
      </trkpt>
      <trkpt lat="46.65967" lon="6.09763">
        <ele>1032.9</ele>
        <time>2021-11-23T11:48:04Z</time>
      </trkpt>
      <trkpt lat="46.65964" lon="6.09758">
        <ele>1033.5</ele>
        <time>2021-11-23T11:48:07Z</time>
      </trkpt>
      <trkpt lat="46.65962" lon="6.09752">
        <ele>1034.3</ele>
        <time>2021-11-23T11:48:10Z</time>
      </trkpt>
      <trkpt lat="46.65958" lon="6.09746">
        <ele>1035.8</ele>
        <time>2021-11-23T11:48:14Z</time>
      </trkpt>
      <trkpt lat="46.65954" lon="6.09742">
        <ele>1037.3</ele>
        <time>2021-11-23T11:48:18Z</time>
      </trkpt>
      <trkpt lat="46.6595" lon="6.09738">
        <ele>1038.8</ele>
        <time>2021-11-23T11:48:22Z</time>
      </trkpt>
      <trkpt lat="46.65946" lon="6.09731">
        <ele>1039.9</ele>
        <time>2021-11-23T11:48:26Z</time>
      </trkpt>
      <trkpt lat="46.65943" lon="6.09726">
        <ele>1040.6</ele>
        <time>2021-11-23T11:48:29Z</time>
      </trkpt>
      <trkpt lat="46.65941" lon="6.0972">
        <ele>1040.9</ele>
        <time>2021-11-23T11:48:34Z</time>
      </trkpt>
      <trkpt lat="46.65939" lon="6.09714">
        <ele>1041.5</ele>
        <time>2021-11-23T11:48:38Z</time>
      </trkpt>
      <trkpt lat="46.65936" lon="6.09707">
        <ele>1042.1</ele>
        <time>2021-11-23T11:48:42Z</time>
      </trkpt>
      <trkpt lat="46.65934" lon="6.097">
        <ele>1042.3</ele>
        <time>2021-11-23T11:48:47Z</time>
      </trkpt>
      <trkpt lat="46.65931" lon="6.09694">
        <ele>1042.5</ele>
        <time>2021-11-23T11:48:51Z</time>
      </trkpt>
      <trkpt lat="46.65928" lon="6.09689">
        <ele>1043.2</ele>
        <time>2021-11-23T11:48:56Z</time>
      </trkpt>
      <trkpt lat="46.65925" lon="6.09683">
        <ele>1043.6</ele>
        <time>2021-11-23T11:49:02Z</time>
      </trkpt>
      <trkpt lat="46.65924" lon="6.09677">
        <ele>1044</ele>
        <time>2021-11-23T11:49:07Z</time>
      </trkpt>
      <trkpt lat="46.65921" lon="6.0967">
        <ele>1044.3</ele>
        <time>2021-11-23T11:49:11Z</time>
      </trkpt>
      <trkpt lat="46.65918" lon="6.09666">
        <ele>1044.7</ele>
        <time>2021-11-23T11:49:15Z</time>
      </trkpt>
      <trkpt lat="46.65914" lon="6.09663">
        <ele>1044.6</ele>
        <time>2021-11-23T11:49:19Z</time>
      </trkpt>
      <trkpt lat="46.6591" lon="6.09659">
        <ele>1044.4</ele>
        <time>2021-11-23T11:49:24Z</time>
      </trkpt>
      <trkpt lat="46.65907" lon="6.09653">
        <ele>1044</ele>
        <time>2021-11-23T11:49:29Z</time>
      </trkpt>
      <trkpt lat="46.65905" lon="6.09646">
        <ele>1044.2</ele>
        <time>2021-11-23T11:49:34Z</time>
      </trkpt>
      <trkpt lat="46.65902" lon="6.0964">
        <ele>1044.6</ele>
        <time>2021-11-23T11:49:39Z</time>
      </trkpt>
      <trkpt lat="46.65899" lon="6.09633">
        <ele>1045.4</ele>
        <time>2021-11-23T11:49:44Z</time>
      </trkpt>
      <trkpt lat="46.65896" lon="6.09628">
        <ele>1045.8</ele>
        <time>2021-11-23T11:49:49Z</time>
      </trkpt>
      <trkpt lat="46.65892" lon="6.09623">
        <ele>1045.7</ele>
        <time>2021-11-23T11:49:54Z</time>
      </trkpt>
      <trkpt lat="46.65888" lon="6.09617">
        <ele>1044.9</ele>
        <time>2021-11-23T11:49:59Z</time>
      </trkpt>
      <trkpt lat="46.65885" lon="6.09612">
        <ele>1044.4</ele>
        <time>2021-11-23T11:50:04Z</time>
      </trkpt>
      <trkpt lat="46.65881" lon="6.09607">
        <ele>1044.7</ele>
        <time>2021-11-23T11:50:09Z</time>
      </trkpt>
      <trkpt lat="46.65878" lon="6.09602">
        <ele>1045.2</ele>
        <time>2021-11-23T11:50:13Z</time>
      </trkpt>
      <trkpt lat="46.65874" lon="6.09596">
        <ele>1045.6</ele>
        <time>2021-11-23T11:50:18Z</time>
      </trkpt>
      <trkpt lat="46.6587" lon="6.09592">
        <ele>1045.7</ele>
        <time>2021-11-23T11:50:22Z</time>
      </trkpt>
      <trkpt lat="46.65866" lon="6.09589">
        <ele>1045.3</ele>
        <time>2021-11-23T11:50:26Z</time>
      </trkpt>
      <trkpt lat="46.65862" lon="6.09584">
        <ele>1044.4</ele>
        <time>2021-11-23T11:50:31Z</time>
      </trkpt>
      <trkpt lat="46.65858" lon="6.09579">
        <ele>1042.3</ele>
        <time>2021-11-23T11:50:37Z</time>
      </trkpt>
      <trkpt lat="46.65855" lon="6.09573">
        <ele>1040.5</ele>
        <time>2021-11-23T11:50:42Z</time>
      </trkpt>
      <trkpt lat="46.65853" lon="6.09567">
        <ele>1038.9</ele>
        <time>2021-11-23T11:50:47Z</time>
      </trkpt>
      <trkpt lat="46.6585" lon="6.0956">
        <ele>1037.3</ele>
        <time>2021-11-23T11:50:52Z</time>
      </trkpt>
      <trkpt lat="46.65847" lon="6.09554">
        <ele>1035.1</ele>
        <time>2021-11-23T11:50:58Z</time>
      </trkpt>
      <trkpt lat="46.65844" lon="6.09548">
        <ele>1033.5</ele>
        <time>2021-11-23T11:51:03Z</time>
      </trkpt>
      <trkpt lat="46.65841" lon="6.09542">
        <ele>1031.7</ele>
        <time>2021-11-23T11:51:08Z</time>
      </trkpt>
      <trkpt lat="46.65838" lon="6.09536">
        <ele>1030.8</ele>
        <time>2021-11-23T11:51:13Z</time>
      </trkpt>
      <trkpt lat="46.65834" lon="6.09531">
        <ele>1030</ele>
        <time>2021-11-23T11:51:18Z</time>
      </trkpt>
      <trkpt lat="46.65831" lon="6.09524">
        <ele>1029.3</ele>
        <time>2021-11-23T11:51:23Z</time>
      </trkpt>
      <trkpt lat="46.6583" lon="6.09518">
        <ele>1028.6</ele>
        <time>2021-11-23T11:51:29Z</time>
      </trkpt>
      <trkpt lat="46.65828" lon="6.09511">
        <ele>1028.1</ele>
        <time>2021-11-23T11:51:35Z</time>
      </trkpt>
      <trkpt lat="46.65827" lon="6.09504">
        <ele>1027.9</ele>
        <time>2021-11-23T11:51:40Z</time>
      </trkpt>
      <trkpt lat="46.65825" lon="6.09498">
        <ele>1028.2</ele>
        <time>2021-11-23T11:51:45Z</time>
      </trkpt>
      <trkpt lat="46.65821" lon="6.09494">
        <ele>1028.7</ele>
        <time>2021-11-23T11:51:50Z</time>
      </trkpt>
      <trkpt lat="46.65818" lon="6.09487">
        <ele>1029</ele>
        <time>2021-11-23T11:51:55Z</time>
      </trkpt>
      <trkpt lat="46.65816" lon="6.09481">
        <ele>1029.2</ele>
        <time>2021-11-23T11:52:00Z</time>
      </trkpt>
      <trkpt lat="46.65814" lon="6.09475">
        <ele>1030.1</ele>
        <time>2021-11-23T11:52:09Z</time>
      </trkpt>
      <trkpt lat="46.65809" lon="6.0947">
        <ele>1030.2</ele>
        <time>2021-11-23T11:52:15Z</time>
      </trkpt>
      <trkpt lat="46.65806" lon="6.09464">
        <ele>1030.2</ele>
        <time>2021-11-23T11:52:19Z</time>
      </trkpt>
      <trkpt lat="46.65808" lon="6.09458">
        <ele>1029.5</ele>
        <time>2021-11-23T11:52:33Z</time>
      </trkpt>
      <trkpt lat="46.65803" lon="6.09457">
        <ele>1029</ele>
        <time>2021-11-23T11:53:04Z</time>
      </trkpt>
      <trkpt lat="46.65798" lon="6.09454">
        <ele>1028.9</ele>
        <time>2021-11-23T11:53:08Z</time>
      </trkpt>
      <trkpt lat="46.65794" lon="6.0945">
        <ele>1028.6</ele>
        <time>2021-11-23T11:53:12Z</time>
      </trkpt>
      <trkpt lat="46.6579" lon="6.09446">
        <ele>1028.3</ele>
        <time>2021-11-23T11:53:16Z</time>
      </trkpt>
      <trkpt lat="46.65787" lon="6.0944">
        <ele>1028</ele>
        <time>2021-11-23T11:53:20Z</time>
      </trkpt>
      <trkpt lat="46.65783" lon="6.09434">
        <ele>1027.5</ele>
        <time>2021-11-23T11:53:24Z</time>
      </trkpt>
      <trkpt lat="46.6578" lon="6.09429">
        <ele>1026.5</ele>
        <time>2021-11-23T11:53:28Z</time>
      </trkpt>
      <trkpt lat="46.65776" lon="6.09423">
        <ele>1025.4</ele>
        <time>2021-11-23T11:53:32Z</time>
      </trkpt>
      <trkpt lat="46.65773" lon="6.09417">
        <ele>1024.7</ele>
        <time>2021-11-23T11:53:35Z</time>
      </trkpt>
      <trkpt lat="46.6577" lon="6.09412">
        <ele>1023.9</ele>
        <time>2021-11-23T11:53:38Z</time>
      </trkpt>
      <trkpt lat="46.65766" lon="6.09407">
        <ele>1023.5</ele>
        <time>2021-11-23T11:53:41Z</time>
      </trkpt>
      <trkpt lat="46.65763" lon="6.09401">
        <ele>1022.8</ele>
        <time>2021-11-23T11:53:45Z</time>
      </trkpt>
      <trkpt lat="46.6576" lon="6.09395">
        <ele>1022.1</ele>
        <time>2021-11-23T11:53:49Z</time>
      </trkpt>
      <trkpt lat="46.65756" lon="6.0939">
        <ele>1021.5</ele>
        <time>2021-11-23T11:53:53Z</time>
      </trkpt>
      <trkpt lat="46.65753" lon="6.09384">
        <ele>1020.6</ele>
        <time>2021-11-23T11:53:57Z</time>
      </trkpt>
      <trkpt lat="46.6575" lon="6.09378">
        <ele>1020.1</ele>
        <time>2021-11-23T11:54:01Z</time>
      </trkpt>
      <trkpt lat="46.65748" lon="6.09371">
        <ele>1020</ele>
        <time>2021-11-23T11:54:05Z</time>
      </trkpt>
      <trkpt lat="46.65745" lon="6.09365">
        <ele>1020</ele>
        <time>2021-11-23T11:54:08Z</time>
      </trkpt>
      <trkpt lat="46.65741" lon="6.09359">
        <ele>1020.2</ele>
        <time>2021-11-23T11:54:12Z</time>
      </trkpt>
      <trkpt lat="46.65738" lon="6.09353">
        <ele>1020.6</ele>
        <time>2021-11-23T11:54:15Z</time>
      </trkpt>
      <trkpt lat="46.65735" lon="6.09347">
        <ele>1021</ele>
        <time>2021-11-23T11:54:18Z</time>
      </trkpt>
      <trkpt lat="46.65732" lon="6.0934">
        <ele>1021.8</ele>
        <time>2021-11-23T11:54:22Z</time>
      </trkpt>
      <trkpt lat="46.65728" lon="6.09335">
        <ele>1022.5</ele>
        <time>2021-11-23T11:54:26Z</time>
      </trkpt>
      <trkpt lat="46.65725" lon="6.09329">
        <ele>1023.5</ele>
        <time>2021-11-23T11:54:30Z</time>
      </trkpt>
      <trkpt lat="46.65721" lon="6.09319">
        <ele>1026.6</ele>
        <time>2021-11-23T11:55:08Z</time>
      </trkpt>
      <trkpt lat="46.65718" lon="6.09314">
        <ele>1026.3</ele>
        <time>2021-11-23T11:55:12Z</time>
      </trkpt>
      <trkpt lat="46.65713" lon="6.09313">
        <ele>1025.9</ele>
        <time>2021-11-23T11:55:17Z</time>
      </trkpt>
      <trkpt lat="46.65708" lon="6.09311">
        <ele>1025.1</ele>
        <time>2021-11-23T11:55:27Z</time>
      </trkpt>
      <trkpt lat="46.65707" lon="6.09305">
        <ele>1026</ele>
        <time>2021-11-23T11:55:32Z</time>
      </trkpt>
      <trkpt lat="46.65706" lon="6.09298">
        <ele>1027.5</ele>
        <time>2021-11-23T11:55:39Z</time>
      </trkpt>
      <trkpt lat="46.65705" lon="6.09291">
        <ele>1029.4</ele>
        <time>2021-11-23T11:56:01Z</time>
      </trkpt>
      <trkpt lat="46.65702" lon="6.09285">
        <ele>1029.3</ele>
        <time>2021-11-23T11:56:05Z</time>
      </trkpt>
      <trkpt lat="46.657" lon="6.09279">
        <ele>1028.9</ele>
        <time>2021-11-23T11:56:11Z</time>
      </trkpt>
      <trkpt lat="46.65697" lon="6.09273">
        <ele>1028.8</ele>
        <time>2021-11-23T11:56:24Z</time>
      </trkpt>
      <trkpt lat="46.65694" lon="6.09268">
        <ele>1029</ele>
        <time>2021-11-23T11:56:28Z</time>
      </trkpt>
      <trkpt lat="46.65689" lon="6.09262">
        <ele>1029.3</ele>
        <time>2021-11-23T11:56:32Z</time>
      </trkpt>
      <trkpt lat="46.65685" lon="6.09257">
        <ele>1029.5</ele>
        <time>2021-11-23T11:56:36Z</time>
      </trkpt>
      <trkpt lat="46.65682" lon="6.09252">
        <ele>1029.6</ele>
        <time>2021-11-23T11:56:39Z</time>
      </trkpt>
      <trkpt lat="46.65677" lon="6.09246">
        <ele>1029.4</ele>
        <time>2021-11-23T11:56:43Z</time>
      </trkpt>
      <trkpt lat="46.65673" lon="6.09241">
        <ele>1029.5</ele>
        <time>2021-11-23T11:56:47Z</time>
      </trkpt>
      <trkpt lat="46.65669" lon="6.09237">
        <ele>1029.7</ele>
        <time>2021-11-23T11:56:50Z</time>
      </trkpt>
      <trkpt lat="46.65665" lon="6.09232">
        <ele>1029.9</ele>
        <time>2021-11-23T11:56:54Z</time>
      </trkpt>
      <trkpt lat="46.65661" lon="6.09227">
        <ele>1029.6</ele>
        <time>2021-11-23T11:56:58Z</time>
      </trkpt>
      <trkpt lat="46.65657" lon="6.09224">
        <ele>1029.1</ele>
        <time>2021-11-23T11:57:02Z</time>
      </trkpt>
      <trkpt lat="46.65652" lon="6.09219">
        <ele>1028.3</ele>
        <time>2021-11-23T11:57:06Z</time>
      </trkpt>
      <trkpt lat="46.65648" lon="6.09214">
        <ele>1026.9</ele>
        <time>2021-11-23T11:57:10Z</time>
      </trkpt>
      <trkpt lat="46.65643" lon="6.0921">
        <ele>1025.5</ele>
        <time>2021-11-23T11:57:14Z</time>
      </trkpt>
      <trkpt lat="46.6564" lon="6.09205">
        <ele>1024.7</ele>
        <time>2021-11-23T11:57:19Z</time>
      </trkpt>
      <trkpt lat="46.65635" lon="6.09202">
        <ele>1024</ele>
        <time>2021-11-23T11:57:23Z</time>
      </trkpt>
      <trkpt lat="46.65632" lon="6.09197">
        <ele>1023.5</ele>
        <time>2021-11-23T11:57:28Z</time>
      </trkpt>
      <trkpt lat="46.65628" lon="6.09193">
        <ele>1023.1</ele>
        <time>2021-11-23T11:57:32Z</time>
      </trkpt>
      <trkpt lat="46.65625" lon="6.09187">
        <ele>1023.3</ele>
        <time>2021-11-23T11:57:36Z</time>
      </trkpt>
      <trkpt lat="46.65623" lon="6.0918">
        <ele>1024.1</ele>
        <time>2021-11-23T11:57:40Z</time>
      </trkpt>
      <trkpt lat="46.6562" lon="6.09173">
        <ele>1024.7</ele>
        <time>2021-11-23T11:57:44Z</time>
      </trkpt>
      <trkpt lat="46.65618" lon="6.09168">
        <ele>1025.1</ele>
        <time>2021-11-23T11:57:48Z</time>
      </trkpt>
      <trkpt lat="46.65615" lon="6.09162">
        <ele>1025.4</ele>
        <time>2021-11-23T11:57:52Z</time>
      </trkpt>
      <trkpt lat="46.65613" lon="6.09155">
        <ele>1025.8</ele>
        <time>2021-11-23T11:57:57Z</time>
      </trkpt>
      <trkpt lat="46.65611" lon="6.09148">
        <ele>1026.1</ele>
        <time>2021-11-23T11:58:02Z</time>
      </trkpt>
      <trkpt lat="46.65609" lon="6.09141">
        <ele>1026.3</ele>
        <time>2021-11-23T11:58:07Z</time>
      </trkpt>
      <trkpt lat="46.65605" lon="6.09134">
        <ele>1026.3</ele>
        <time>2021-11-23T11:58:12Z</time>
      </trkpt>
      <trkpt lat="46.65602" lon="6.09128">
        <ele>1026.4</ele>
        <time>2021-11-23T11:58:16Z</time>
      </trkpt>
      <trkpt lat="46.65599" lon="6.09122">
        <ele>1026.9</ele>
        <time>2021-11-23T11:58:20Z</time>
      </trkpt>
      <trkpt lat="46.65596" lon="6.09116">
        <ele>1026.9</ele>
        <time>2021-11-23T11:58:26Z</time>
      </trkpt>
      <trkpt lat="46.65592" lon="6.09111">
        <ele>1025.3</ele>
        <time>2021-11-23T11:58:31Z</time>
      </trkpt>
      <trkpt lat="46.65589" lon="6.09105">
        <ele>1022.9</ele>
        <time>2021-11-23T11:58:36Z</time>
      </trkpt>
      <trkpt lat="46.65586" lon="6.09099">
        <ele>1021.1</ele>
        <time>2021-11-23T11:58:40Z</time>
      </trkpt>
      <trkpt lat="46.65582" lon="6.09095">
        <ele>1019.4</ele>
        <time>2021-11-23T11:58:44Z</time>
      </trkpt>
      <trkpt lat="46.65578" lon="6.09089">
        <ele>1018</ele>
        <time>2021-11-23T11:58:48Z</time>
      </trkpt>
      <trkpt lat="46.65575" lon="6.09083">
        <ele>1017.3</ele>
        <time>2021-11-23T11:58:53Z</time>
      </trkpt>
      <trkpt lat="46.65572" lon="6.09078">
        <ele>1017.6</ele>
        <time>2021-11-23T11:58:58Z</time>
      </trkpt>
      <trkpt lat="46.65569" lon="6.09073">
        <ele>1018.3</ele>
        <time>2021-11-23T11:59:02Z</time>
      </trkpt>
      <trkpt lat="46.65567" lon="6.09067">
        <ele>1018.8</ele>
        <time>2021-11-23T11:59:06Z</time>
      </trkpt>
      <trkpt lat="46.65564" lon="6.09061">
        <ele>1019.3</ele>
        <time>2021-11-23T11:59:10Z</time>
      </trkpt>
      <trkpt lat="46.65562" lon="6.09055">
        <ele>1020</ele>
        <time>2021-11-23T11:59:14Z</time>
      </trkpt>
      <trkpt lat="46.65559" lon="6.09049">
        <ele>1021</ele>
        <time>2021-11-23T11:59:19Z</time>
      </trkpt>
      <trkpt lat="46.65556" lon="6.09042">
        <ele>1022</ele>
        <time>2021-11-23T11:59:24Z</time>
      </trkpt>
      <trkpt lat="46.65552" lon="6.09038">
        <ele>1023.1</ele>
        <time>2021-11-23T11:59:28Z</time>
      </trkpt>
      <trkpt lat="46.6555" lon="6.09032">
        <ele>1023.6</ele>
        <time>2021-11-23T11:59:32Z</time>
      </trkpt>
      <trkpt lat="46.65547" lon="6.09027">
        <ele>1023.7</ele>
        <time>2021-11-23T11:59:37Z</time>
      </trkpt>
      <trkpt lat="46.65543" lon="6.09023">
        <ele>1024.2</ele>
        <time>2021-11-23T11:59:42Z</time>
      </trkpt>
      <trkpt lat="46.6554" lon="6.09018">
        <ele>1025</ele>
        <time>2021-11-23T11:59:49Z</time>
      </trkpt>
      <trkpt lat="46.65537" lon="6.09013">
        <ele>1025.1</ele>
        <time>2021-11-23T11:59:57Z</time>
      </trkpt>
      <trkpt lat="46.65533" lon="6.09008">
        <ele>1024.5</ele>
        <time>2021-11-23T12:00:03Z</time>
      </trkpt>
      <trkpt lat="46.6553" lon="6.09003">
        <ele>1023.9</ele>
        <time>2021-11-23T12:00:10Z</time>
      </trkpt>
      <trkpt lat="46.65531" lon="6.08995">
        <ele>1023.6</ele>
        <time>2021-11-23T12:00:17Z</time>
      </trkpt>
      <trkpt lat="46.65529" lon="6.08989">
        <ele>1023.7</ele>
        <time>2021-11-23T12:00:23Z</time>
      </trkpt>
      <trkpt lat="46.65526" lon="6.08983">
        <ele>1023.8</ele>
        <time>2021-11-23T12:00:28Z</time>
      </trkpt>
      <trkpt lat="46.65523" lon="6.08977">
        <ele>1023.4</ele>
        <time>2021-11-23T12:00:34Z</time>
      </trkpt>
      <trkpt lat="46.65519" lon="6.08973">
        <ele>1022.6</ele>
        <time>2021-11-23T12:00:39Z</time>
      </trkpt>
      <trkpt lat="46.65515" lon="6.08968">
        <ele>1021.2</ele>
        <time>2021-11-23T12:00:45Z</time>
      </trkpt>
      <trkpt lat="46.65513" lon="6.08962">
        <ele>1020.1</ele>
        <time>2021-11-23T12:00:50Z</time>
      </trkpt>
      <trkpt lat="46.65511" lon="6.08956">
        <ele>1019.5</ele>
        <time>2021-11-23T12:00:54Z</time>
      </trkpt>
      <trkpt lat="46.65509" lon="6.08949">
        <ele>1018.9</ele>
        <time>2021-11-23T12:00:59Z</time>
      </trkpt>
      <trkpt lat="46.65508" lon="6.08942">
        <ele>1018.8</ele>
        <time>2021-11-23T12:01:04Z</time>
      </trkpt>
      <trkpt lat="46.65504" lon="6.08936">
        <ele>1018.6</ele>
        <time>2021-11-23T12:01:09Z</time>
      </trkpt>
      <trkpt lat="46.65501" lon="6.0893">
        <ele>1018.4</ele>
        <time>2021-11-23T12:01:14Z</time>
      </trkpt>
      <trkpt lat="46.65497" lon="6.08925">
        <ele>1018.2</ele>
        <time>2021-11-23T12:01:19Z</time>
      </trkpt>
      <trkpt lat="46.65494" lon="6.0892">
        <ele>1017.8</ele>
        <time>2021-11-23T12:01:25Z</time>
      </trkpt>
      <trkpt lat="46.65489" lon="6.08914">
        <ele>1016.6</ele>
        <time>2021-11-23T12:01:32Z</time>
      </trkpt>
      <trkpt lat="46.65486" lon="6.08909">
        <ele>1016.2</ele>
        <time>2021-11-23T12:01:35Z</time>
      </trkpt>
      <trkpt lat="46.65482" lon="6.08905">
        <ele>1015.6</ele>
        <time>2021-11-23T12:01:39Z</time>
      </trkpt>
      <trkpt lat="46.65479" lon="6.08899">
        <ele>1015.1</ele>
        <time>2021-11-23T12:01:43Z</time>
      </trkpt>
      <trkpt lat="46.65476" lon="6.08893">
        <ele>1014.5</ele>
        <time>2021-11-23T12:01:48Z</time>
      </trkpt>
      <trkpt lat="46.65473" lon="6.08886">
        <ele>1014.3</ele>
        <time>2021-11-23T12:01:53Z</time>
      </trkpt>
      <trkpt lat="46.6547" lon="6.08881">
        <ele>1014.4</ele>
        <time>2021-11-23T12:01:57Z</time>
      </trkpt>
      <trkpt lat="46.65466" lon="6.08875">
        <ele>1014.7</ele>
        <time>2021-11-23T12:02:01Z</time>
      </trkpt>
      <trkpt lat="46.65462" lon="6.0887">
        <ele>1014.8</ele>
        <time>2021-11-23T12:02:05Z</time>
      </trkpt>
      <trkpt lat="46.65459" lon="6.08864">
        <ele>1014.6</ele>
        <time>2021-11-23T12:02:09Z</time>
      </trkpt>
      <trkpt lat="46.65455" lon="6.08858">
        <ele>1014.4</ele>
        <time>2021-11-23T12:02:13Z</time>
      </trkpt>
      <trkpt lat="46.65451" lon="6.08852">
        <ele>1014.6</ele>
        <time>2021-11-23T12:02:17Z</time>
      </trkpt>
      <trkpt lat="46.65448" lon="6.08847">
        <ele>1015</ele>
        <time>2021-11-23T12:02:20Z</time>
      </trkpt>
      <trkpt lat="46.65445" lon="6.08841">
        <ele>1015.6</ele>
        <time>2021-11-23T12:02:24Z</time>
      </trkpt>
      <trkpt lat="46.65442" lon="6.08835">
        <ele>1016.3</ele>
        <time>2021-11-23T12:02:28Z</time>
      </trkpt>
      <trkpt lat="46.65438" lon="6.0883">
        <ele>1016.9</ele>
        <time>2021-11-23T12:02:32Z</time>
      </trkpt>
      <trkpt lat="46.65435" lon="6.08826">
        <ele>1017.3</ele>
        <time>2021-11-23T12:02:36Z</time>
      </trkpt>
      <trkpt lat="46.65431" lon="6.0882">
        <ele>1017.9</ele>
        <time>2021-11-23T12:02:40Z</time>
      </trkpt>
      <trkpt lat="46.65427" lon="6.08816">
        <ele>1018.8</ele>
        <time>2021-11-23T12:02:44Z</time>
      </trkpt>
      <trkpt lat="46.65423" lon="6.0881">
        <ele>1019.6</ele>
        <time>2021-11-23T12:02:50Z</time>
      </trkpt>
      <trkpt lat="46.65421" lon="6.08803">
        <ele>1020.2</ele>
        <time>2021-11-23T12:02:55Z</time>
      </trkpt>
      <trkpt lat="46.6542" lon="6.08796">
        <ele>1020</ele>
        <time>2021-11-23T12:03:00Z</time>
      </trkpt>
      <trkpt lat="46.65417" lon="6.0879">
        <ele>1018.6</ele>
        <time>2021-11-23T12:03:06Z</time>
      </trkpt>
      <trkpt lat="46.65414" lon="6.08784">
        <ele>1017.8</ele>
        <time>2021-11-23T12:03:10Z</time>
      </trkpt>
      <trkpt lat="46.65412" lon="6.08777">
        <ele>1017</ele>
        <time>2021-11-23T12:03:14Z</time>
      </trkpt>
      <trkpt lat="46.6541" lon="6.0877">
        <ele>1016.5</ele>
        <time>2021-11-23T12:03:19Z</time>
      </trkpt>
      <trkpt lat="46.65407" lon="6.08764">
        <ele>1016.4</ele>
        <time>2021-11-23T12:03:23Z</time>
      </trkpt>
      <trkpt lat="46.65404" lon="6.08758">
        <ele>1016.2</ele>
        <time>2021-11-23T12:03:27Z</time>
      </trkpt>
      <trkpt lat="46.65401" lon="6.08752">
        <ele>1016</ele>
        <time>2021-11-23T12:03:31Z</time>
      </trkpt>
      <trkpt lat="46.65398" lon="6.08746">
        <ele>1015.7</ele>
        <time>2021-11-23T12:03:37Z</time>
      </trkpt>
      <trkpt lat="46.65395" lon="6.0874">
        <ele>1015.3</ele>
        <time>2021-11-23T12:03:42Z</time>
      </trkpt>
      <trkpt lat="46.65393" lon="6.08734">
        <ele>1014.5</ele>
        <time>2021-11-23T12:03:47Z</time>
      </trkpt>
      <trkpt lat="46.6539" lon="6.08729">
        <ele>1013.8</ele>
        <time>2021-11-23T12:03:51Z</time>
      </trkpt>
      <trkpt lat="46.65387" lon="6.08722">
        <ele>1013</ele>
        <time>2021-11-23T12:03:56Z</time>
      </trkpt>
      <trkpt lat="46.65385" lon="6.08715">
        <ele>1012.7</ele>
        <time>2021-11-23T12:04:00Z</time>
      </trkpt>
      <trkpt lat="46.65383" lon="6.08709">
        <ele>1012.6</ele>
        <time>2021-11-23T12:04:04Z</time>
      </trkpt>
      <trkpt lat="46.65381" lon="6.08702">
        <ele>1012.6</ele>
        <time>2021-11-23T12:04:08Z</time>
      </trkpt>
      <trkpt lat="46.6538" lon="6.08695">
        <ele>1012.8</ele>
        <time>2021-11-23T12:04:12Z</time>
      </trkpt>
      <trkpt lat="46.65376" lon="6.08689">
        <ele>1013.5</ele>
        <time>2021-11-23T12:04:16Z</time>
      </trkpt>
      <trkpt lat="46.65375" lon="6.08682">
        <ele>1013.9</ele>
        <time>2021-11-23T12:04:20Z</time>
      </trkpt>
      <trkpt lat="46.65373" lon="6.08675">
        <ele>1013.7</ele>
        <time>2021-11-23T12:04:25Z</time>
      </trkpt>
      <trkpt lat="46.65372" lon="6.08669">
        <ele>1013.4</ele>
        <time>2021-11-23T12:04:29Z</time>
      </trkpt>
      <trkpt lat="46.6537" lon="6.08663">
        <ele>1012.8</ele>
        <time>2021-11-23T12:04:33Z</time>
      </trkpt>
      <trkpt lat="46.65368" lon="6.08656">
        <ele>1012.1</ele>
        <time>2021-11-23T12:04:38Z</time>
      </trkpt>
      <trkpt lat="46.65365" lon="6.0865">
        <ele>1012</ele>
        <time>2021-11-23T12:04:43Z</time>
      </trkpt>
      <trkpt lat="46.65362" lon="6.08644">
        <ele>1011.5</ele>
        <time>2021-11-23T12:04:48Z</time>
      </trkpt>
      <trkpt lat="46.65358" lon="6.08638">
        <ele>1010.7</ele>
        <time>2021-11-23T12:04:53Z</time>
      </trkpt>
      <trkpt lat="46.65354" lon="6.08633">
        <ele>1009.7</ele>
        <time>2021-11-23T12:04:58Z</time>
      </trkpt>
      <trkpt lat="46.6535" lon="6.0863">
        <ele>1008.9</ele>
        <time>2021-11-23T12:05:02Z</time>
      </trkpt>
      <trkpt lat="46.65346" lon="6.08626">
        <ele>1008.1</ele>
        <time>2021-11-23T12:05:06Z</time>
      </trkpt>
      <trkpt lat="46.65341" lon="6.08624">
        <ele>1007.1</ele>
        <time>2021-11-23T12:05:10Z</time>
      </trkpt>
      <trkpt lat="46.65337" lon="6.08622">
        <ele>1006.4</ele>
        <time>2021-11-23T12:05:14Z</time>
      </trkpt>
      <trkpt lat="46.65332" lon="6.0862">
        <ele>1005.1</ele>
        <time>2021-11-23T12:05:19Z</time>
      </trkpt>
      <trkpt lat="46.65327" lon="6.08621">
        <ele>1004.1</ele>
        <time>2021-11-23T12:05:24Z</time>
      </trkpt>
      <trkpt lat="46.65322" lon="6.08621">
        <ele>1002.9</ele>
        <time>2021-11-23T12:05:30Z</time>
      </trkpt>
      <trkpt lat="46.65317" lon="6.08621">
        <ele>1002.1</ele>
        <time>2021-11-23T12:05:35Z</time>
      </trkpt>
      <trkpt lat="46.65312" lon="6.0862">
        <ele>1001</ele>
        <time>2021-11-23T12:05:40Z</time>
      </trkpt>
      <trkpt lat="46.65307" lon="6.08621">
        <ele>1000</ele>
        <time>2021-11-23T12:05:44Z</time>
      </trkpt>
      <trkpt lat="46.65302" lon="6.08621">
        <ele>999</ele>
        <time>2021-11-23T12:05:48Z</time>
      </trkpt>
      <trkpt lat="46.65298" lon="6.08619">
        <ele>998.1</ele>
        <time>2021-11-23T12:05:52Z</time>
      </trkpt>
      <trkpt lat="46.65293" lon="6.08617">
        <ele>997.4</ele>
        <time>2021-11-23T12:05:57Z</time>
      </trkpt>
      <trkpt lat="46.65288" lon="6.08615">
        <ele>996.5</ele>
        <time>2021-11-23T12:06:02Z</time>
      </trkpt>
      <trkpt lat="46.65284" lon="6.08613">
        <ele>996</ele>
        <time>2021-11-23T12:06:07Z</time>
      </trkpt>
      <trkpt lat="46.65279" lon="6.08609">
        <ele>997.4</ele>
        <time>2021-11-23T12:06:23Z</time>
      </trkpt>
      <trkpt lat="46.65275" lon="6.08605">
        <ele>998.4</ele>
        <time>2021-11-23T12:06:28Z</time>
      </trkpt>
      <trkpt lat="46.65271" lon="6.08601">
        <ele>998.9</ele>
        <time>2021-11-23T12:06:33Z</time>
      </trkpt>
      <trkpt lat="46.65267" lon="6.08596">
        <ele>999.5</ele>
        <time>2021-11-23T12:06:38Z</time>
      </trkpt>
      <trkpt lat="46.65263" lon="6.08592">
        <ele>1000</ele>
        <time>2021-11-23T12:06:42Z</time>
      </trkpt>
      <trkpt lat="46.6526" lon="6.08587">
        <ele>1000.4</ele>
        <time>2021-11-23T12:06:47Z</time>
      </trkpt>
      <trkpt lat="46.65258" lon="6.08581">
        <ele>1000.6</ele>
        <time>2021-11-23T12:06:52Z</time>
      </trkpt>
      <trkpt lat="46.65257" lon="6.08574">
        <ele>1000.5</ele>
        <time>2021-11-23T12:06:57Z</time>
      </trkpt>
      <trkpt lat="46.65255" lon="6.08567">
        <ele>1000.3</ele>
        <time>2021-11-23T12:07:02Z</time>
      </trkpt>
      <trkpt lat="46.65253" lon="6.08561">
        <ele>1000.3</ele>
        <time>2021-11-23T12:07:07Z</time>
      </trkpt>
      <trkpt lat="46.65252" lon="6.08554">
        <ele>1000.4</ele>
        <time>2021-11-23T12:07:12Z</time>
      </trkpt>
      <trkpt lat="46.6525" lon="6.08546">
        <ele>1000.4</ele>
        <time>2021-11-23T12:07:17Z</time>
      </trkpt>
      <trkpt lat="46.65248" lon="6.08539">
        <ele>1001.6</ele>
        <time>2021-11-23T12:07:22Z</time>
      </trkpt>
      <trkpt lat="46.65247" lon="6.08532">
        <ele>1002.7</ele>
        <time>2021-11-23T12:07:28Z</time>
      </trkpt>
      <trkpt lat="46.65246" lon="6.08524">
        <ele>1003</ele>
        <time>2021-11-23T12:07:35Z</time>
      </trkpt>
      <trkpt lat="46.65244" lon="6.08517">
        <ele>1003.1</ele>
        <time>2021-11-23T12:07:40Z</time>
      </trkpt>
      <trkpt lat="46.65242" lon="6.08511">
        <ele>1003.1</ele>
        <time>2021-11-23T12:07:44Z</time>
      </trkpt>
      <trkpt lat="46.6524" lon="6.08505">
        <ele>1003.1</ele>
        <time>2021-11-23T12:07:49Z</time>
      </trkpt>
      <trkpt lat="46.65238" lon="6.08499">
        <ele>1002.9</ele>
        <time>2021-11-23T12:07:54Z</time>
      </trkpt>
      <trkpt lat="46.65236" lon="6.08492">
        <ele>1002.6</ele>
        <time>2021-11-23T12:07:59Z</time>
      </trkpt>
      <trkpt lat="46.65235" lon="6.08484">
        <ele>1002.3</ele>
        <time>2021-11-23T12:08:05Z</time>
      </trkpt>
      <trkpt lat="46.65232" lon="6.08478">
        <ele>1002</ele>
        <time>2021-11-23T12:08:10Z</time>
      </trkpt>
      <trkpt lat="46.6523" lon="6.08471">
        <ele>1002.3</ele>
        <time>2021-11-23T12:08:16Z</time>
      </trkpt>
      <trkpt lat="46.65228" lon="6.08464">
        <ele>1002.7</ele>
        <time>2021-11-23T12:08:21Z</time>
      </trkpt>
      <trkpt lat="46.65225" lon="6.08458">
        <ele>1002.9</ele>
        <time>2021-11-23T12:08:25Z</time>
      </trkpt>
      <trkpt lat="46.65222" lon="6.08453">
        <ele>1002.8</ele>
        <time>2021-11-23T12:08:29Z</time>
      </trkpt>
      <trkpt lat="46.65217" lon="6.08449">
        <ele>1003.2</ele>
        <time>2021-11-23T12:08:34Z</time>
      </trkpt>
      <trkpt lat="46.65212" lon="6.08447">
        <ele>1004</ele>
        <time>2021-11-23T12:08:39Z</time>
      </trkpt>
      <trkpt lat="46.65207" lon="6.08449">
        <ele>1005.6</ele>
        <time>2021-11-23T12:08:46Z</time>
      </trkpt>
      <trkpt lat="46.65203" lon="6.08454">
        <ele>1007</ele>
        <time>2021-11-23T12:08:51Z</time>
      </trkpt>
      <trkpt lat="46.65199" lon="6.08459">
        <ele>1008.2</ele>
        <time>2021-11-23T12:08:56Z</time>
      </trkpt>
      <trkpt lat="46.65196" lon="6.08463">
        <ele>1009.2</ele>
        <time>2021-11-23T12:09:03Z</time>
      </trkpt>
      <trkpt lat="46.65193" lon="6.08468">
        <ele>1009.1</ele>
        <time>2021-11-23T12:09:08Z</time>
      </trkpt>
      <trkpt lat="46.65188" lon="6.08473">
        <ele>1008.6</ele>
        <time>2021-11-23T12:09:13Z</time>
      </trkpt>
      <trkpt lat="46.65186" lon="6.08478">
        <ele>1008.4</ele>
        <time>2021-11-23T12:09:17Z</time>
      </trkpt>
      <trkpt lat="46.65182" lon="6.08483">
        <ele>1008.2</ele>
        <time>2021-11-23T12:09:23Z</time>
      </trkpt>
      <trkpt lat="46.65179" lon="6.08489">
        <ele>1008.3</ele>
        <time>2021-11-23T12:09:28Z</time>
      </trkpt>
      <trkpt lat="46.65175" lon="6.08494">
        <ele>1008.6</ele>
        <time>2021-11-23T12:09:33Z</time>
      </trkpt>
      <trkpt lat="46.65171" lon="6.08499">
        <ele>1008.7</ele>
        <time>2021-11-23T12:09:38Z</time>
      </trkpt>
      <trkpt lat="46.65168" lon="6.08504">
        <ele>1009.3</ele>
        <time>2021-11-23T12:09:43Z</time>
      </trkpt>
      <trkpt lat="46.65165" lon="6.0851">
        <ele>1009.9</ele>
        <time>2021-11-23T12:09:48Z</time>
      </trkpt>
      <trkpt lat="46.65162" lon="6.08515">
        <ele>1010.3</ele>
        <time>2021-11-23T12:09:54Z</time>
      </trkpt>
      <trkpt lat="46.65157" lon="6.08517">
        <ele>1009.6</ele>
        <time>2021-11-23T12:10:00Z</time>
      </trkpt>
      <trkpt lat="46.65152" lon="6.08515">
        <ele>1008.7</ele>
        <time>2021-11-23T12:10:05Z</time>
      </trkpt>
      <trkpt lat="46.65147" lon="6.08512">
        <ele>1008.3</ele>
        <time>2021-11-23T12:10:10Z</time>
      </trkpt>
      <trkpt lat="46.65143" lon="6.08508">
        <ele>1008.8</ele>
        <time>2021-11-23T12:10:15Z</time>
      </trkpt>
      <trkpt lat="46.6514" lon="6.08502">
        <ele>1009.2</ele>
        <time>2021-11-23T12:10:19Z</time>
      </trkpt>
      <trkpt lat="46.65137" lon="6.08496">
        <ele>1009.4</ele>
        <time>2021-11-23T12:10:24Z</time>
      </trkpt>
      <trkpt lat="46.65134" lon="6.0849">
        <ele>1009.5</ele>
        <time>2021-11-23T12:10:29Z</time>
      </trkpt>
      <trkpt lat="46.65133" lon="6.08483">
        <ele>1009.3</ele>
        <time>2021-11-23T12:10:34Z</time>
      </trkpt>
      <trkpt lat="46.6513" lon="6.08477">
        <ele>1008.7</ele>
        <time>2021-11-23T12:10:39Z</time>
      </trkpt>
      <trkpt lat="46.65128" lon="6.08471">
        <ele>1008.2</ele>
        <time>2021-11-23T12:10:43Z</time>
      </trkpt>
      <trkpt lat="46.65126" lon="6.08465">
        <ele>1007.5</ele>
        <time>2021-11-23T12:10:48Z</time>
      </trkpt>
      <trkpt lat="46.65124" lon="6.08459">
        <ele>1006.9</ele>
        <time>2021-11-23T12:10:52Z</time>
      </trkpt>
      <trkpt lat="46.65122" lon="6.08452">
        <ele>1006.3</ele>
        <time>2021-11-23T12:10:56Z</time>
      </trkpt>
      <trkpt lat="46.65121" lon="6.08445">
        <ele>1005.8</ele>
        <time>2021-11-23T12:11:01Z</time>
      </trkpt>
      <trkpt lat="46.65119" lon="6.08439">
        <ele>1005.7</ele>
        <time>2021-11-23T12:11:06Z</time>
      </trkpt>
      <trkpt lat="46.65117" lon="6.08432">
        <ele>1005.9</ele>
        <time>2021-11-23T12:11:11Z</time>
      </trkpt>
      <trkpt lat="46.65117" lon="6.08424">
        <ele>1006.1</ele>
        <time>2021-11-23T12:11:16Z</time>
      </trkpt>
      <trkpt lat="46.65117" lon="6.08417">
        <ele>1006.1</ele>
        <time>2021-11-23T12:11:21Z</time>
      </trkpt>
      <trkpt lat="46.65116" lon="6.08411">
        <ele>1006.1</ele>
        <time>2021-11-23T12:11:26Z</time>
      </trkpt>
      <trkpt lat="46.65116" lon="6.08403">
        <ele>1006</ele>
        <time>2021-11-23T12:11:31Z</time>
      </trkpt>
      <trkpt lat="46.65116" lon="6.08396">
        <ele>1005.4</ele>
        <time>2021-11-23T12:11:36Z</time>
      </trkpt>
      <trkpt lat="46.65117" lon="6.08389">
        <ele>1004.9</ele>
        <time>2021-11-23T12:11:41Z</time>
      </trkpt>
      <trkpt lat="46.65117" lon="6.08381">
        <ele>1004.8</ele>
        <time>2021-11-23T12:11:46Z</time>
      </trkpt>
      <trkpt lat="46.65116" lon="6.08374">
        <ele>1004.6</ele>
        <time>2021-11-23T12:11:50Z</time>
      </trkpt>
      <trkpt lat="46.65115" lon="6.08367">
        <ele>1004.3</ele>
        <time>2021-11-23T12:11:54Z</time>
      </trkpt>
      <trkpt lat="46.65114" lon="6.0836">
        <ele>1003.5</ele>
        <time>2021-11-23T12:12:00Z</time>
      </trkpt>
      <trkpt lat="46.65113" lon="6.08354">
        <ele>1003.8</ele>
        <time>2021-11-23T12:12:05Z</time>
      </trkpt>
      <trkpt lat="46.65112" lon="6.08347">
        <ele>1004.3</ele>
        <time>2021-11-23T12:12:10Z</time>
      </trkpt>
      <trkpt lat="46.65111" lon="6.0834">
        <ele>1004.6</ele>
        <time>2021-11-23T12:12:15Z</time>
      </trkpt>
      <trkpt lat="46.6511" lon="6.08332">
        <ele>1004.5</ele>
        <time>2021-11-23T12:12:20Z</time>
      </trkpt>
      <trkpt lat="46.65109" lon="6.08325">
        <ele>1003.9</ele>
        <time>2021-11-23T12:12:26Z</time>
      </trkpt>
      <trkpt lat="46.65108" lon="6.08318">
        <ele>1003.9</ele>
        <time>2021-11-23T12:12:32Z</time>
      </trkpt>
      <trkpt lat="46.65107" lon="6.08311">
        <ele>1004.4</ele>
        <time>2021-11-23T12:12:36Z</time>
      </trkpt>
      <trkpt lat="46.65105" lon="6.08304">
        <ele>1004.9</ele>
        <time>2021-11-23T12:12:41Z</time>
      </trkpt>
      <trkpt lat="46.65103" lon="6.08296">
        <ele>1005.2</ele>
        <time>2021-11-23T12:12:46Z</time>
      </trkpt>
      <trkpt lat="46.65102" lon="6.08289">
        <ele>1004.7</ele>
        <time>2021-11-23T12:12:51Z</time>
      </trkpt>
      <trkpt lat="46.65101" lon="6.08282">
        <ele>1003.9</ele>
        <time>2021-11-23T12:12:57Z</time>
      </trkpt>
      <trkpt lat="46.65099" lon="6.08275">
        <ele>1003.3</ele>
        <time>2021-11-23T12:13:02Z</time>
      </trkpt>
      <trkpt lat="46.65099" lon="6.08267">
        <ele>1002.7</ele>
        <time>2021-11-23T12:13:07Z</time>
      </trkpt>
      <trkpt lat="46.65098" lon="6.08259">
        <ele>1002.3</ele>
        <time>2021-11-23T12:13:12Z</time>
      </trkpt>
      <trkpt lat="46.65097" lon="6.08253">
        <ele>1001.6</ele>
        <time>2021-11-23T12:13:17Z</time>
      </trkpt>
      <trkpt lat="46.65097" lon="6.08246">
        <ele>1001.1</ele>
        <time>2021-11-23T12:13:22Z</time>
      </trkpt>
      <trkpt lat="46.65095" lon="6.08239">
        <ele>1000.6</ele>
        <time>2021-11-23T12:13:26Z</time>
      </trkpt>
      <trkpt lat="46.65094" lon="6.08232">
        <ele>999.4</ele>
        <time>2021-11-23T12:13:31Z</time>
      </trkpt>
      <trkpt lat="46.65094" lon="6.08225">
        <ele>998.1</ele>
        <time>2021-11-23T12:13:37Z</time>
      </trkpt>
      <trkpt lat="46.65094" lon="6.08217">
        <ele>998.1</ele>
        <time>2021-11-23T12:13:42Z</time>
      </trkpt>
      <trkpt lat="46.65094" lon="6.08209">
        <ele>998.3</ele>
        <time>2021-11-23T12:13:47Z</time>
      </trkpt>
      <trkpt lat="46.65094" lon="6.08202">
        <ele>998.7</ele>
        <time>2021-11-23T12:13:51Z</time>
      </trkpt>
      <trkpt lat="46.65093" lon="6.08194">
        <ele>999.4</ele>
        <time>2021-11-23T12:13:56Z</time>
      </trkpt>
      <trkpt lat="46.65092" lon="6.08188">
        <ele>999.6</ele>
        <time>2021-11-23T12:14:00Z</time>
      </trkpt>
      <trkpt lat="46.6509" lon="6.0818">
        <ele>999.2</ele>
        <time>2021-11-23T12:14:05Z</time>
      </trkpt>
      <trkpt lat="46.65089" lon="6.08174">
        <ele>998.7</ele>
        <time>2021-11-23T12:14:10Z</time>
      </trkpt>
      <trkpt lat="46.65087" lon="6.08166">
        <ele>998.3</ele>
        <time>2021-11-23T12:14:15Z</time>
      </trkpt>
      <trkpt lat="46.65085" lon="6.0816">
        <ele>997.7</ele>
        <time>2021-11-23T12:14:19Z</time>
      </trkpt>
      <trkpt lat="46.65084" lon="6.08152">
        <ele>997.3</ele>
        <time>2021-11-23T12:14:24Z</time>
      </trkpt>
      <trkpt lat="46.65083" lon="6.08145">
        <ele>997.2</ele>
        <time>2021-11-23T12:14:29Z</time>
      </trkpt>
      <trkpt lat="46.65081" lon="6.08138">
        <ele>996.5</ele>
        <time>2021-11-23T12:14:34Z</time>
      </trkpt>
      <trkpt lat="46.65078" lon="6.08132">
        <ele>996.1</ele>
        <time>2021-11-23T12:14:39Z</time>
      </trkpt>
      <trkpt lat="46.65075" lon="6.08125">
        <ele>995.6</ele>
        <time>2021-11-23T12:14:44Z</time>
      </trkpt>
      <trkpt lat="46.65073" lon="6.08117">
        <ele>995.1</ele>
        <time>2021-11-23T12:14:49Z</time>
      </trkpt>
      <trkpt lat="46.65072" lon="6.08111">
        <ele>994.8</ele>
        <time>2021-11-23T12:14:53Z</time>
      </trkpt>
      <trkpt lat="46.6507" lon="6.08104">
        <ele>994.5</ele>
        <time>2021-11-23T12:14:57Z</time>
      </trkpt>
      <trkpt lat="46.65068" lon="6.08098">
        <ele>994</ele>
        <time>2021-11-23T12:15:01Z</time>
      </trkpt>
      <trkpt lat="46.65066" lon="6.08091">
        <ele>993.7</ele>
        <time>2021-11-23T12:15:06Z</time>
      </trkpt>
      <trkpt lat="46.65065" lon="6.08083">
        <ele>993.1</ele>
        <time>2021-11-23T12:15:13Z</time>
      </trkpt>
      <trkpt lat="46.65063" lon="6.08077">
        <ele>992.7</ele>
        <time>2021-11-23T12:15:17Z</time>
      </trkpt>
      <trkpt lat="46.65061" lon="6.0807">
        <ele>991.9</ele>
        <time>2021-11-23T12:15:22Z</time>
      </trkpt>
      <trkpt lat="46.65059" lon="6.08064">
        <ele>991.2</ele>
        <time>2021-11-23T12:15:27Z</time>
      </trkpt>
      <trkpt lat="46.65057" lon="6.08056">
        <ele>991</ele>
        <time>2021-11-23T12:15:31Z</time>
      </trkpt>
      <trkpt lat="46.65053" lon="6.0805">
        <ele>991.2</ele>
        <time>2021-11-23T12:15:36Z</time>
      </trkpt>
      <trkpt lat="46.65052" lon="6.08043">
        <ele>991.1</ele>
        <time>2021-11-23T12:15:40Z</time>
      </trkpt>
      <trkpt lat="46.65049" lon="6.08037">
        <ele>990.7</ele>
        <time>2021-11-23T12:15:45Z</time>
      </trkpt>
      <trkpt lat="46.65047" lon="6.0803">
        <ele>990</ele>
        <time>2021-11-23T12:15:50Z</time>
      </trkpt>
      <trkpt lat="46.65046" lon="6.08023">
        <ele>989.3</ele>
        <time>2021-11-23T12:15:55Z</time>
      </trkpt>
      <trkpt lat="46.65044" lon="6.08016">
        <ele>988.6</ele>
        <time>2021-11-23T12:16:00Z</time>
      </trkpt>
      <trkpt lat="46.65041" lon="6.0801">
        <ele>988.5</ele>
        <time>2021-11-23T12:16:05Z</time>
      </trkpt>
      <trkpt lat="46.65039" lon="6.08003">
        <ele>988.2</ele>
        <time>2021-11-23T12:16:10Z</time>
      </trkpt>
      <trkpt lat="46.65038" lon="6.07997">
        <ele>987.8</ele>
        <time>2021-11-23T12:16:15Z</time>
      </trkpt>
      <trkpt lat="46.65036" lon="6.0799">
        <ele>986.8</ele>
        <time>2021-11-23T12:16:22Z</time>
      </trkpt>
      <trkpt lat="46.65035" lon="6.07984">
        <ele>985.7</ele>
        <time>2021-11-23T12:16:27Z</time>
      </trkpt>
      <trkpt lat="46.65034" lon="6.07977">
        <ele>984.8</ele>
        <time>2021-11-23T12:16:32Z</time>
      </trkpt>
      <trkpt lat="46.65032" lon="6.07969">
        <ele>984.3</ele>
        <time>2021-11-23T12:16:37Z</time>
      </trkpt>
      <trkpt lat="46.65031" lon="6.07962">
        <ele>984.2</ele>
        <time>2021-11-23T12:16:42Z</time>
      </trkpt>
      <trkpt lat="46.6503" lon="6.07955">
        <ele>983.5</ele>
        <time>2021-11-23T12:16:47Z</time>
      </trkpt>
      <trkpt lat="46.65027" lon="6.07947">
        <ele>982.5</ele>
        <time>2021-11-23T12:16:52Z</time>
      </trkpt>
      <trkpt lat="46.65025" lon="6.07941">
        <ele>981.3</ele>
        <time>2021-11-23T12:16:56Z</time>
      </trkpt>
      <trkpt lat="46.65023" lon="6.07934">
        <ele>980.3</ele>
        <time>2021-11-23T12:17:01Z</time>
      </trkpt>
      <trkpt lat="46.65022" lon="6.07927">
        <ele>979.6</ele>
        <time>2021-11-23T12:17:07Z</time>
      </trkpt>
      <trkpt lat="46.65021" lon="6.07919">
        <ele>978.8</ele>
        <time>2021-11-23T12:17:12Z</time>
      </trkpt>
      <trkpt lat="46.65021" lon="6.07913">
        <ele>978</ele>
        <time>2021-11-23T12:17:17Z</time>
      </trkpt>
      <trkpt lat="46.65022" lon="6.07905">
        <ele>977.4</ele>
        <time>2021-11-23T12:17:23Z</time>
      </trkpt>
      <trkpt lat="46.65023" lon="6.07896">
        <ele>977.6</ele>
        <time>2021-11-23T12:17:28Z</time>
      </trkpt>
      <trkpt lat="46.65023" lon="6.07889">
        <ele>977.7</ele>
        <time>2021-11-23T12:17:32Z</time>
      </trkpt>
      <trkpt lat="46.65023" lon="6.07882">
        <ele>977.6</ele>
        <time>2021-11-23T12:17:36Z</time>
      </trkpt>
      <trkpt lat="46.65022" lon="6.07875">
        <ele>978.4</ele>
        <time>2021-11-23T12:17:40Z</time>
      </trkpt>
      <trkpt lat="46.65023" lon="6.07869">
        <ele>979.4</ele>
        <time>2021-11-23T12:17:44Z</time>
      </trkpt>
      <trkpt lat="46.65024" lon="6.07862">
        <ele>980.3</ele>
        <time>2021-11-23T12:17:48Z</time>
      </trkpt>
      <trkpt lat="46.65027" lon="6.07856">
        <ele>980.7</ele>
        <time>2021-11-23T12:17:54Z</time>
      </trkpt>
      <trkpt lat="46.65029" lon="6.0785">
        <ele>980.5</ele>
        <time>2021-11-23T12:18:00Z</time>
      </trkpt>
      <trkpt lat="46.65029" lon="6.07842">
        <ele>980.1</ele>
        <time>2021-11-23T12:18:05Z</time>
      </trkpt>
      <trkpt lat="46.65028" lon="6.07835">
        <ele>979.5</ele>
        <time>2021-11-23T12:18:10Z</time>
      </trkpt>
      <trkpt lat="46.65028" lon="6.07828">
        <ele>979.3</ele>
        <time>2021-11-23T12:18:18Z</time>
      </trkpt>
      <trkpt lat="46.6503" lon="6.07821">
        <ele>979.4</ele>
        <time>2021-11-23T12:18:24Z</time>
      </trkpt>
      <trkpt lat="46.65032" lon="6.07816">
        <ele>978.9</ele>
        <time>2021-11-23T12:18:29Z</time>
      </trkpt>
      <trkpt lat="46.65034" lon="6.07809">
        <ele>978.1</ele>
        <time>2021-11-23T12:18:34Z</time>
      </trkpt>
      <trkpt lat="46.65036" lon="6.07803">
        <ele>977.6</ele>
        <time>2021-11-23T12:18:40Z</time>
      </trkpt>
      <trkpt lat="46.65035" lon="6.07796">
        <ele>977.4</ele>
        <time>2021-11-23T12:18:46Z</time>
      </trkpt>
      <trkpt lat="46.65034" lon="6.07789">
        <ele>977</ele>
        <time>2021-11-23T12:18:51Z</time>
      </trkpt>
      <trkpt lat="46.65032" lon="6.07782">
        <ele>976</ele>
        <time>2021-11-23T12:18:57Z</time>
      </trkpt>
      <trkpt lat="46.6503" lon="6.07775">
        <ele>975.4</ele>
        <time>2021-11-23T12:19:03Z</time>
      </trkpt>
      <trkpt lat="46.65027" lon="6.07769">
        <ele>974.8</ele>
        <time>2021-11-23T12:19:07Z</time>
      </trkpt>
      <trkpt lat="46.65026" lon="6.07763">
        <ele>974.2</ele>
        <time>2021-11-23T12:19:11Z</time>
      </trkpt>
      <trkpt lat="46.65023" lon="6.07757">
        <ele>973.7</ele>
        <time>2021-11-23T12:19:16Z</time>
      </trkpt>
      <trkpt lat="46.6502" lon="6.07751">
        <ele>974</ele>
        <time>2021-11-23T12:19:22Z</time>
      </trkpt>
      <trkpt lat="46.65016" lon="6.07746">
        <ele>974.2</ele>
        <time>2021-11-23T12:19:28Z</time>
      </trkpt>
      <trkpt lat="46.65013" lon="6.0774">
        <ele>973.8</ele>
        <time>2021-11-23T12:19:32Z</time>
      </trkpt>
      <trkpt lat="46.6501" lon="6.07735">
        <ele>973.7</ele>
        <time>2021-11-23T12:19:36Z</time>
      </trkpt>
      <trkpt lat="46.65006" lon="6.07729">
        <ele>974.3</ele>
        <time>2021-11-23T12:19:41Z</time>
      </trkpt>
      <trkpt lat="46.65004" lon="6.07723">
        <ele>975.2</ele>
        <time>2021-11-23T12:19:47Z</time>
      </trkpt>
      <trkpt lat="46.65002" lon="6.07717">
        <ele>975.9</ele>
        <time>2021-11-23T12:19:52Z</time>
      </trkpt>
      <trkpt lat="46.64999" lon="6.07712">
        <ele>976.4</ele>
        <time>2021-11-23T12:19:56Z</time>
      </trkpt>
      <trkpt lat="46.64995" lon="6.07706">
        <ele>976.7</ele>
        <time>2021-11-23T12:20:01Z</time>
      </trkpt>
      <trkpt lat="46.64993" lon="6.07701">
        <ele>977.6</ele>
        <time>2021-11-23T12:20:08Z</time>
      </trkpt>
      <trkpt lat="46.64991" lon="6.07695">
        <ele>977.9</ele>
        <time>2021-11-23T12:20:13Z</time>
      </trkpt>
      <trkpt lat="46.64986" lon="6.07691">
        <ele>978.1</ele>
        <time>2021-11-23T12:20:18Z</time>
      </trkpt>
      <trkpt lat="46.64982" lon="6.07687">
        <ele>978.2</ele>
        <time>2021-11-23T12:20:23Z</time>
      </trkpt>
      <trkpt lat="46.64978" lon="6.07682">
        <ele>978.3</ele>
        <time>2021-11-23T12:20:29Z</time>
      </trkpt>
      <trkpt lat="46.64974" lon="6.07678">
        <ele>978.4</ele>
        <time>2021-11-23T12:20:34Z</time>
      </trkpt>
      <trkpt lat="46.64968" lon="6.07675">
        <ele>978.6</ele>
        <time>2021-11-23T12:20:39Z</time>
      </trkpt>
      <trkpt lat="46.64963" lon="6.07673">
        <ele>978.5</ele>
        <time>2021-11-23T12:20:48Z</time>
      </trkpt>
      <trkpt lat="46.64958" lon="6.0767">
        <ele>978.3</ele>
        <time>2021-11-23T12:20:53Z</time>
      </trkpt>
      <trkpt lat="46.64953" lon="6.07668">
        <ele>978</ele>
        <time>2021-11-23T12:20:57Z</time>
      </trkpt>
      <trkpt lat="46.64948" lon="6.07666">
        <ele>977.7</ele>
        <time>2021-11-23T12:21:01Z</time>
      </trkpt>
      <trkpt lat="46.64943" lon="6.07665">
        <ele>977.4</ele>
        <time>2021-11-23T12:21:05Z</time>
      </trkpt>
      <trkpt lat="46.64939" lon="6.07664">
        <ele>977.3</ele>
        <time>2021-11-23T12:21:09Z</time>
      </trkpt>
      <trkpt lat="46.64934" lon="6.07664">
        <ele>977.2</ele>
        <time>2021-11-23T12:21:13Z</time>
      </trkpt>
      <trkpt lat="46.64929" lon="6.07662">
        <ele>976.9</ele>
        <time>2021-11-23T12:21:17Z</time>
      </trkpt>
      <trkpt lat="46.64924" lon="6.07659">
        <ele>976.5</ele>
        <time>2021-11-23T12:21:22Z</time>
      </trkpt>
      <trkpt lat="46.64919" lon="6.07658">
        <ele>976.1</ele>
        <time>2021-11-23T12:21:27Z</time>
      </trkpt>
      <trkpt lat="46.64914" lon="6.07657">
        <ele>975.5</ele>
        <time>2021-11-23T12:21:32Z</time>
      </trkpt>
      <trkpt lat="46.6491" lon="6.07654">
        <ele>975.4</ele>
        <time>2021-11-23T12:21:37Z</time>
      </trkpt>
      <trkpt lat="46.64905" lon="6.0765">
        <ele>975.4</ele>
        <time>2021-11-23T12:21:42Z</time>
      </trkpt>
      <trkpt lat="46.649" lon="6.07646">
        <ele>976.2</ele>
        <time>2021-11-23T12:21:47Z</time>
      </trkpt>
      <trkpt lat="46.64897" lon="6.07641">
        <ele>977.7</ele>
        <time>2021-11-23T12:21:52Z</time>
      </trkpt>
      <trkpt lat="46.64894" lon="6.07635">
        <ele>979.8</ele>
        <time>2021-11-23T12:21:59Z</time>
      </trkpt>
      <trkpt lat="46.64893" lon="6.07628">
        <ele>980.8</ele>
        <time>2021-11-23T12:22:05Z</time>
      </trkpt>
      <trkpt lat="46.64891" lon="6.07621">
        <ele>981</ele>
        <time>2021-11-23T12:22:10Z</time>
      </trkpt>
      <trkpt lat="46.64887" lon="6.07614">
        <ele>981</ele>
        <time>2021-11-23T12:22:15Z</time>
      </trkpt>
      <trkpt lat="46.64884" lon="6.07608">
        <ele>981.6</ele>
        <time>2021-11-23T12:22:19Z</time>
      </trkpt>
      <trkpt lat="46.64882" lon="6.07602">
        <ele>982.1</ele>
        <time>2021-11-23T12:22:23Z</time>
      </trkpt>
      <trkpt lat="46.64879" lon="6.07597">
        <ele>982.5</ele>
        <time>2021-11-23T12:22:28Z</time>
      </trkpt>
      <trkpt lat="46.64876" lon="6.0759">
        <ele>983.1</ele>
        <time>2021-11-23T12:22:33Z</time>
      </trkpt>
      <trkpt lat="46.64873" lon="6.07584">
        <ele>983.8</ele>
        <time>2021-11-23T12:22:37Z</time>
      </trkpt>
      <trkpt lat="46.64871" lon="6.07578">
        <ele>984.7</ele>
        <time>2021-11-23T12:22:41Z</time>
      </trkpt>
      <trkpt lat="46.64868" lon="6.07572">
        <ele>985.6</ele>
        <time>2021-11-23T12:22:45Z</time>
      </trkpt>
      <trkpt lat="46.64866" lon="6.07566">
        <ele>986.6</ele>
        <time>2021-11-23T12:22:49Z</time>
      </trkpt>
      <trkpt lat="46.64863" lon="6.0756">
        <ele>987.6</ele>
        <time>2021-11-23T12:22:54Z</time>
      </trkpt>
      <trkpt lat="46.64859" lon="6.07554">
        <ele>988.3</ele>
        <time>2021-11-23T12:22:59Z</time>
      </trkpt>
      <trkpt lat="46.64857" lon="6.07547">
        <ele>988.1</ele>
        <time>2021-11-23T12:23:04Z</time>
      </trkpt>
      <trkpt lat="46.64854" lon="6.0754">
        <ele>988</ele>
        <time>2021-11-23T12:23:09Z</time>
      </trkpt>
      <trkpt lat="46.64851" lon="6.07533">
        <ele>988.3</ele>
        <time>2021-11-23T12:23:14Z</time>
      </trkpt>
      <trkpt lat="46.64848" lon="6.07527">
        <ele>988.7</ele>
        <time>2021-11-23T12:23:19Z</time>
      </trkpt>
      <trkpt lat="46.64845" lon="6.07519">
        <ele>988.8</ele>
        <time>2021-11-23T12:23:24Z</time>
      </trkpt>
      <trkpt lat="46.64843" lon="6.07513">
        <ele>989</ele>
        <time>2021-11-23T12:23:29Z</time>
      </trkpt>
      <trkpt lat="46.6484" lon="6.07507">
        <ele>989.8</ele>
        <time>2021-11-23T12:23:35Z</time>
      </trkpt>
      <trkpt lat="46.64837" lon="6.07501">
        <ele>990.5</ele>
        <time>2021-11-23T12:23:40Z</time>
      </trkpt>
      <trkpt lat="46.64835" lon="6.07495">
        <ele>990.4</ele>
        <time>2021-11-23T12:23:44Z</time>
      </trkpt>
      <trkpt lat="46.64833" lon="6.07488">
        <ele>989.9</ele>
        <time>2021-11-23T12:23:49Z</time>
      </trkpt>
      <trkpt lat="46.6483" lon="6.07481">
        <ele>989.2</ele>
        <time>2021-11-23T12:23:54Z</time>
      </trkpt>
      <trkpt lat="46.64826" lon="6.07475">
        <ele>989.4</ele>
        <time>2021-11-23T12:23:59Z</time>
      </trkpt>
      <trkpt lat="46.64824" lon="6.07468">
        <ele>989.7</ele>
        <time>2021-11-23T12:24:04Z</time>
      </trkpt>
      <trkpt lat="46.64821" lon="6.07462">
        <ele>989.8</ele>
        <time>2021-11-23T12:24:09Z</time>
      </trkpt>
      <trkpt lat="46.64819" lon="6.07455">
        <ele>990.2</ele>
        <time>2021-11-23T12:24:14Z</time>
      </trkpt>
      <trkpt lat="46.64817" lon="6.07448">
        <ele>990.8</ele>
        <time>2021-11-23T12:24:19Z</time>
      </trkpt>
      <trkpt lat="46.64817" lon="6.07441">
        <ele>991.4</ele>
        <time>2021-11-23T12:24:24Z</time>
      </trkpt>
      <trkpt lat="46.64818" lon="6.07434">
        <ele>991.8</ele>
        <time>2021-11-23T12:24:28Z</time>
      </trkpt>
      <trkpt lat="46.64819" lon="6.07426">
        <ele>992.3</ele>
        <time>2021-11-23T12:24:34Z</time>
      </trkpt>
      <trkpt lat="46.64819" lon="6.07418">
        <ele>992.7</ele>
        <time>2021-11-23T12:24:39Z</time>
      </trkpt>
      <trkpt lat="46.64818" lon="6.0741">
        <ele>993.3</ele>
        <time>2021-11-23T12:24:44Z</time>
      </trkpt>
      <trkpt lat="46.64816" lon="6.07403">
        <ele>994.3</ele>
        <time>2021-11-23T12:24:49Z</time>
      </trkpt>
      <trkpt lat="46.64814" lon="6.07397">
        <ele>995.1</ele>
        <time>2021-11-23T12:24:54Z</time>
      </trkpt>
      <trkpt lat="46.64812" lon="6.07391">
        <ele>995.1</ele>
        <time>2021-11-23T12:25:00Z</time>
      </trkpt>
      <trkpt lat="46.6481" lon="6.07385">
        <ele>994.6</ele>
        <time>2021-11-23T12:25:04Z</time>
      </trkpt>
      <trkpt lat="46.64808" lon="6.07378">
        <ele>994.2</ele>
        <time>2021-11-23T12:25:08Z</time>
      </trkpt>
      <trkpt lat="46.64805" lon="6.07371">
        <ele>993.9</ele>
        <time>2021-11-23T12:25:12Z</time>
      </trkpt>
      <trkpt lat="46.64802" lon="6.07365">
        <ele>993.9</ele>
        <time>2021-11-23T12:25:16Z</time>
      </trkpt>
      <trkpt lat="46.648" lon="6.07358">
        <ele>993.7</ele>
        <time>2021-11-23T12:25:21Z</time>
      </trkpt>
      <trkpt lat="46.64799" lon="6.07352">
        <ele>992.9</ele>
        <time>2021-11-23T12:25:27Z</time>
      </trkpt>
      <trkpt lat="46.64798" lon="6.07345">
        <ele>992.2</ele>
        <time>2021-11-23T12:25:33Z</time>
      </trkpt>
      <trkpt lat="46.64796" lon="6.07339">
        <ele>992.2</ele>
        <time>2021-11-23T12:25:39Z</time>
      </trkpt>
      <trkpt lat="46.64793" lon="6.07334">
        <ele>992.3</ele>
        <time>2021-11-23T12:25:44Z</time>
      </trkpt>
      <trkpt lat="46.64791" lon="6.07328">
        <ele>992.3</ele>
        <time>2021-11-23T12:25:49Z</time>
      </trkpt>
      <trkpt lat="46.64786" lon="6.07323">
        <ele>993.1</ele>
        <time>2021-11-23T12:25:53Z</time>
      </trkpt>
      <trkpt lat="46.64783" lon="6.07317">
        <ele>994.1</ele>
        <time>2021-11-23T12:25:56Z</time>
      </trkpt>
      <trkpt lat="46.64781" lon="6.07312">
        <ele>994.8</ele>
        <time>2021-11-23T12:25:59Z</time>
      </trkpt>
      <trkpt lat="46.64778" lon="6.07305">
        <ele>995.7</ele>
        <time>2021-11-23T12:26:03Z</time>
      </trkpt>
      <trkpt lat="46.64777" lon="6.07298">
        <ele>997</ele>
        <time>2021-11-23T12:26:09Z</time>
      </trkpt>
      <trkpt lat="46.64774" lon="6.07292">
        <ele>997.4</ele>
        <time>2021-11-23T12:26:14Z</time>
      </trkpt>
      <trkpt lat="46.64772" lon="6.07285">
        <ele>996.9</ele>
        <time>2021-11-23T12:26:18Z</time>
      </trkpt>
      <trkpt lat="46.6477" lon="6.07279">
        <ele>996.2</ele>
        <time>2021-11-23T12:26:23Z</time>
      </trkpt>
      <trkpt lat="46.64769" lon="6.07271">
        <ele>995.8</ele>
        <time>2021-11-23T12:26:28Z</time>
      </trkpt>
      <trkpt lat="46.64767" lon="6.07264">
        <ele>995.6</ele>
        <time>2021-11-23T12:26:34Z</time>
      </trkpt>
      <trkpt lat="46.64765" lon="6.07258">
        <ele>995.6</ele>
        <time>2021-11-23T12:26:39Z</time>
      </trkpt>
      <trkpt lat="46.64763" lon="6.07251">
        <ele>995.4</ele>
        <time>2021-11-23T12:26:43Z</time>
      </trkpt>
      <trkpt lat="46.64761" lon="6.07244">
        <ele>995.4</ele>
        <time>2021-11-23T12:26:47Z</time>
      </trkpt>
      <trkpt lat="46.64758" lon="6.07237">
        <ele>995.1</ele>
        <time>2021-11-23T12:26:52Z</time>
      </trkpt>
      <trkpt lat="46.64755" lon="6.07231">
        <ele>994.4</ele>
        <time>2021-11-23T12:26:57Z</time>
      </trkpt>
      <trkpt lat="46.64753" lon="6.07224">
        <ele>994</ele>
        <time>2021-11-23T12:27:02Z</time>
      </trkpt>
      <trkpt lat="46.64751" lon="6.07217">
        <ele>993.5</ele>
        <time>2021-11-23T12:27:07Z</time>
      </trkpt>
      <trkpt lat="46.64748" lon="6.07211">
        <ele>993</ele>
        <time>2021-11-23T12:27:12Z</time>
      </trkpt>
      <trkpt lat="46.64744" lon="6.07206">
        <ele>992.4</ele>
        <time>2021-11-23T12:27:17Z</time>
      </trkpt>
      <trkpt lat="46.64741" lon="6.072">
        <ele>992.1</ele>
        <time>2021-11-23T12:27:22Z</time>
      </trkpt>
      <trkpt lat="46.64738" lon="6.07194">
        <ele>992.1</ele>
        <time>2021-11-23T12:27:27Z</time>
      </trkpt>
      <trkpt lat="46.64735" lon="6.07188">
        <ele>992.5</ele>
        <time>2021-11-23T12:27:32Z</time>
      </trkpt>
      <trkpt lat="46.64732" lon="6.0718">
        <ele>992.3</ele>
        <time>2021-11-23T12:27:37Z</time>
      </trkpt>
      <trkpt lat="46.64729" lon="6.07176">
        <ele>992.2</ele>
        <time>2021-11-23T12:27:41Z</time>
      </trkpt>
      <trkpt lat="46.64726" lon="6.07171">
        <ele>992</ele>
        <time>2021-11-23T12:27:45Z</time>
      </trkpt>
      <trkpt lat="46.64723" lon="6.07165">
        <ele>991.8</ele>
        <time>2021-11-23T12:27:50Z</time>
      </trkpt>
      <trkpt lat="46.64721" lon="6.07159">
        <ele>991.7</ele>
        <time>2021-11-23T12:27:55Z</time>
      </trkpt>
      <trkpt lat="46.64718" lon="6.07152">
        <ele>991.8</ele>
        <time>2021-11-23T12:28:00Z</time>
      </trkpt>
      <trkpt lat="46.64716" lon="6.07145">
        <ele>991.5</ele>
        <time>2021-11-23T12:28:05Z</time>
      </trkpt>
      <trkpt lat="46.64712" lon="6.07138">
        <ele>991.3</ele>
        <time>2021-11-23T12:28:09Z</time>
      </trkpt>
      <trkpt lat="46.64709" lon="6.07131">
        <ele>991.7</ele>
        <time>2021-11-23T12:28:13Z</time>
      </trkpt>
      <trkpt lat="46.64706" lon="6.07125">
        <ele>992.1</ele>
        <time>2021-11-23T12:28:17Z</time>
      </trkpt>
      <trkpt lat="46.64704" lon="6.07118">
        <ele>992.2</ele>
        <time>2021-11-23T12:28:22Z</time>
      </trkpt>
      <trkpt lat="46.64701" lon="6.07112">
        <ele>992.3</ele>
        <time>2021-11-23T12:28:27Z</time>
      </trkpt>
      <trkpt lat="46.64698" lon="6.07105">
        <ele>992.5</ele>
        <time>2021-11-23T12:28:31Z</time>
      </trkpt>
      <trkpt lat="46.64696" lon="6.07099">
        <ele>993.4</ele>
        <time>2021-11-23T12:28:36Z</time>
      </trkpt>
      <trkpt lat="46.64693" lon="6.07093">
        <ele>994.1</ele>
        <time>2021-11-23T12:28:40Z</time>
      </trkpt>
      <trkpt lat="46.64691" lon="6.07086">
        <ele>994.6</ele>
        <time>2021-11-23T12:28:44Z</time>
      </trkpt>
      <trkpt lat="46.64688" lon="6.0708">
        <ele>995.8</ele>
        <time>2021-11-23T12:28:50Z</time>
      </trkpt>
      <trkpt lat="46.64685" lon="6.07074">
        <ele>996.5</ele>
        <time>2021-11-23T12:28:56Z</time>
      </trkpt>
      <trkpt lat="46.64683" lon="6.07067">
        <ele>996.5</ele>
        <time>2021-11-23T12:29:02Z</time>
      </trkpt>
      <trkpt lat="46.64681" lon="6.0706">
        <ele>996.1</ele>
        <time>2021-11-23T12:29:07Z</time>
      </trkpt>
      <trkpt lat="46.6468" lon="6.07053">
        <ele>996.4</ele>
        <time>2021-11-23T12:29:13Z</time>
      </trkpt>
      <trkpt lat="46.64678" lon="6.07047">
        <ele>996.7</ele>
        <time>2021-11-23T12:29:17Z</time>
      </trkpt>
      <trkpt lat="46.64676" lon="6.0704">
        <ele>996.9</ele>
        <time>2021-11-23T12:29:22Z</time>
      </trkpt>
      <trkpt lat="46.64674" lon="6.07034">
        <ele>997.2</ele>
        <time>2021-11-23T12:29:27Z</time>
      </trkpt>
      <trkpt lat="46.64672" lon="6.07028">
        <ele>997.1</ele>
        <time>2021-11-23T12:29:32Z</time>
      </trkpt>
      <trkpt lat="46.64669" lon="6.07022">
        <ele>996.8</ele>
        <time>2021-11-23T12:29:37Z</time>
      </trkpt>
      <trkpt lat="46.64666" lon="6.07016">
        <ele>996.3</ele>
        <time>2021-11-23T12:29:42Z</time>
      </trkpt>
      <trkpt lat="46.64663" lon="6.07009">
        <ele>995.5</ele>
        <time>2021-11-23T12:29:47Z</time>
      </trkpt>
      <trkpt lat="46.6466" lon="6.07004">
        <ele>995.2</ele>
        <time>2021-11-23T12:29:52Z</time>
      </trkpt>
      <trkpt lat="46.64656" lon="6.07">
        <ele>995</ele>
        <time>2021-11-23T12:29:56Z</time>
      </trkpt>
      <trkpt lat="46.64652" lon="6.06995">
        <ele>995</ele>
        <time>2021-11-23T12:30:00Z</time>
      </trkpt>
      <trkpt lat="46.64648" lon="6.06991">
        <ele>994.4</ele>
        <time>2021-11-23T12:30:06Z</time>
      </trkpt>
      <trkpt lat="46.64643" lon="6.06989">
        <ele>994.4</ele>
        <time>2021-11-23T12:30:11Z</time>
      </trkpt>
      <trkpt lat="46.64638" lon="6.06985">
        <ele>994.5</ele>
        <time>2021-11-23T12:30:16Z</time>
      </trkpt>
      <trkpt lat="46.64633" lon="6.06983">
        <ele>994.6</ele>
        <time>2021-11-23T12:30:21Z</time>
      </trkpt>
      <trkpt lat="46.64628" lon="6.06981">
        <ele>995</ele>
        <time>2021-11-23T12:30:26Z</time>
      </trkpt>
      <trkpt lat="46.64624" lon="6.06977">
        <ele>995.2</ele>
        <time>2021-11-23T12:30:31Z</time>
      </trkpt>
      <trkpt lat="46.64619" lon="6.06973">
        <ele>995.6</ele>
        <time>2021-11-23T12:30:36Z</time>
      </trkpt>
      <trkpt lat="46.64614" lon="6.06971">
        <ele>995.3</ele>
        <time>2021-11-23T12:30:41Z</time>
      </trkpt>
      <trkpt lat="46.64609" lon="6.06969">
        <ele>994.9</ele>
        <time>2021-11-23T12:30:46Z</time>
      </trkpt>
      <trkpt lat="46.64604" lon="6.06965">
        <ele>994.4</ele>
        <time>2021-11-23T12:30:50Z</time>
      </trkpt>
      <trkpt lat="46.646" lon="6.06962">
        <ele>994.3</ele>
        <time>2021-11-23T12:30:54Z</time>
      </trkpt>
      <trkpt lat="46.64595" lon="6.06958">
        <ele>994.2</ele>
        <time>2021-11-23T12:30:58Z</time>
      </trkpt>
      <trkpt lat="46.6459" lon="6.06955">
        <ele>994.3</ele>
        <time>2021-11-23T12:31:02Z</time>
      </trkpt>
      <trkpt lat="46.64587" lon="6.06951">
        <ele>994.1</ele>
        <time>2021-11-23T12:31:06Z</time>
      </trkpt>
      <trkpt lat="46.64582" lon="6.06947">
        <ele>994.1</ele>
        <time>2021-11-23T12:31:11Z</time>
      </trkpt>
      <trkpt lat="46.64578" lon="6.06943">
        <ele>994.5</ele>
        <time>2021-11-23T12:31:17Z</time>
      </trkpt>
      <trkpt lat="46.64573" lon="6.06939">
        <ele>994.6</ele>
        <time>2021-11-23T12:31:23Z</time>
      </trkpt>
      <trkpt lat="46.6457" lon="6.06935">
        <ele>994.3</ele>
        <time>2021-11-23T12:31:37Z</time>
      </trkpt>
      <trkpt lat="46.64567" lon="6.06929">
        <ele>992.1</ele>
        <time>2021-11-23T12:31:52Z</time>
      </trkpt>
      <trkpt lat="46.64563" lon="6.06925">
        <ele>992</ele>
        <time>2021-11-23T12:31:56Z</time>
      </trkpt>
      <trkpt lat="46.64561" lon="6.06919">
        <ele>992.6</ele>
        <time>2021-11-23T12:32:01Z</time>
      </trkpt>
      <trkpt lat="46.64558" lon="6.06912">
        <ele>993.5</ele>
        <time>2021-11-23T12:32:06Z</time>
      </trkpt>
      <trkpt lat="46.64554" lon="6.06908">
        <ele>994.3</ele>
        <time>2021-11-23T12:32:12Z</time>
      </trkpt>
      <trkpt lat="46.64551" lon="6.06902">
        <ele>995</ele>
        <time>2021-11-23T12:32:17Z</time>
      </trkpt>
      <trkpt lat="46.64549" lon="6.06896">
        <ele>994.9</ele>
        <time>2021-11-23T12:32:21Z</time>
      </trkpt>
      <trkpt lat="46.64545" lon="6.0689">
        <ele>994.7</ele>
        <time>2021-11-23T12:32:26Z</time>
      </trkpt>
      <trkpt lat="46.64542" lon="6.06882">
        <ele>995.2</ele>
        <time>2021-11-23T12:32:31Z</time>
      </trkpt>
      <trkpt lat="46.64541" lon="6.06876">
        <ele>995.9</ele>
        <time>2021-11-23T12:32:35Z</time>
      </trkpt>
      <trkpt lat="46.64539" lon="6.0687">
        <ele>996.3</ele>
        <time>2021-11-23T12:32:40Z</time>
      </trkpt>
      <trkpt lat="46.64537" lon="6.06863">
        <ele>996.2</ele>
        <time>2021-11-23T12:32:45Z</time>
      </trkpt>
      <trkpt lat="46.64536" lon="6.06856">
        <ele>996.4</ele>
        <time>2021-11-23T12:32:50Z</time>
      </trkpt>
      <trkpt lat="46.64535" lon="6.06848">
        <ele>996.8</ele>
        <time>2021-11-23T12:32:54Z</time>
      </trkpt>
      <trkpt lat="46.64534" lon="6.06841">
        <ele>997.2</ele>
        <time>2021-11-23T12:32:59Z</time>
      </trkpt>
      <trkpt lat="46.64533" lon="6.06833">
        <ele>997</ele>
        <time>2021-11-23T12:33:04Z</time>
      </trkpt>
      <trkpt lat="46.64533" lon="6.06826">
        <ele>996.8</ele>
        <time>2021-11-23T12:33:08Z</time>
      </trkpt>
      <trkpt lat="46.64531" lon="6.06819">
        <ele>996.6</ele>
        <time>2021-11-23T12:33:13Z</time>
      </trkpt>
      <trkpt lat="46.64529" lon="6.06812">
        <ele>997.1</ele>
        <time>2021-11-23T12:33:18Z</time>
      </trkpt>
      <trkpt lat="46.64528" lon="6.06805">
        <ele>997.4</ele>
        <time>2021-11-23T12:33:24Z</time>
      </trkpt>
      <trkpt lat="46.64525" lon="6.068">
        <ele>997.8</ele>
        <time>2021-11-23T12:33:29Z</time>
      </trkpt>
      <trkpt lat="46.64521" lon="6.06795">
        <ele>997.7</ele>
        <time>2021-11-23T12:33:33Z</time>
      </trkpt>
      <trkpt lat="46.64518" lon="6.0679">
        <ele>997.2</ele>
        <time>2021-11-23T12:33:38Z</time>
      </trkpt>
      <trkpt lat="46.64513" lon="6.06785">
        <ele>996.5</ele>
        <time>2021-11-23T12:33:44Z</time>
      </trkpt>
      <trkpt lat="46.6451" lon="6.06781">
        <ele>996.1</ele>
        <time>2021-11-23T12:33:49Z</time>
      </trkpt>
      <trkpt lat="46.64506" lon="6.06777">
        <ele>996</ele>
        <time>2021-11-23T12:33:54Z</time>
      </trkpt>
      <trkpt lat="46.64503" lon="6.06771">
        <ele>995.2</ele>
        <time>2021-11-23T12:33:59Z</time>
      </trkpt>
      <trkpt lat="46.645" lon="6.06766">
        <ele>994.3</ele>
        <time>2021-11-23T12:34:03Z</time>
      </trkpt>
      <trkpt lat="46.64497" lon="6.0676">
        <ele>993.3</ele>
        <time>2021-11-23T12:34:08Z</time>
      </trkpt>
      <trkpt lat="46.64494" lon="6.06755">
        <ele>992.5</ele>
        <time>2021-11-23T12:34:13Z</time>
      </trkpt>
      <trkpt lat="46.64491" lon="6.0675">
        <ele>992.2</ele>
        <time>2021-11-23T12:34:17Z</time>
      </trkpt>
      <trkpt lat="46.64487" lon="6.06745">
        <ele>991.6</ele>
        <time>2021-11-23T12:34:22Z</time>
      </trkpt>
      <trkpt lat="46.64483" lon="6.06742">
        <ele>991</ele>
        <time>2021-11-23T12:34:27Z</time>
      </trkpt>
      <trkpt lat="46.64479" lon="6.06738">
        <ele>990</ele>
        <time>2021-11-23T12:34:33Z</time>
      </trkpt>
      <trkpt lat="46.64475" lon="6.06734">
        <ele>989</ele>
        <time>2021-11-23T12:34:38Z</time>
      </trkpt>
      <trkpt lat="46.6447" lon="6.0673">
        <ele>988.4</ele>
        <time>2021-11-23T12:34:43Z</time>
      </trkpt>
      <trkpt lat="46.64467" lon="6.06726">
        <ele>988.1</ele>
        <time>2021-11-23T12:34:49Z</time>
      </trkpt>
      <trkpt lat="46.64463" lon="6.06721">
        <ele>987.9</ele>
        <time>2021-11-23T12:34:55Z</time>
      </trkpt>
      <trkpt lat="46.6446" lon="6.06715">
        <ele>988.1</ele>
        <time>2021-11-23T12:35:01Z</time>
      </trkpt>
      <trkpt lat="46.64458" lon="6.0671">
        <ele>988.3</ele>
        <time>2021-11-23T12:35:06Z</time>
      </trkpt>
      <trkpt lat="46.64454" lon="6.06705">
        <ele>988.5</ele>
        <time>2021-11-23T12:35:11Z</time>
      </trkpt>
      <trkpt lat="46.64452" lon="6.06698">
        <ele>988.6</ele>
        <time>2021-11-23T12:35:17Z</time>
      </trkpt>
      <trkpt lat="46.6445" lon="6.06692">
        <ele>988.4</ele>
        <time>2021-11-23T12:35:23Z</time>
      </trkpt>
      <trkpt lat="46.64448" lon="6.06685">
        <ele>988.2</ele>
        <time>2021-11-23T12:35:29Z</time>
      </trkpt>
      <trkpt lat="46.64445" lon="6.0668">
        <ele>987.4</ele>
        <time>2021-11-23T12:35:34Z</time>
      </trkpt>
      <trkpt lat="46.64442" lon="6.06674">
        <ele>986.9</ele>
        <time>2021-11-23T12:35:39Z</time>
      </trkpt>
      <trkpt lat="46.6444" lon="6.06668">
        <ele>986.2</ele>
        <time>2021-11-23T12:35:44Z</time>
      </trkpt>
      <trkpt lat="46.64438" lon="6.0666">
        <ele>986.2</ele>
        <time>2021-11-23T12:35:49Z</time>
      </trkpt>
      <trkpt lat="46.64435" lon="6.06655">
        <ele>986.4</ele>
        <time>2021-11-23T12:35:53Z</time>
      </trkpt>
      <trkpt lat="46.64433" lon="6.06648">
        <ele>986.9</ele>
        <time>2021-11-23T12:35:58Z</time>
      </trkpt>
      <trkpt lat="46.6443" lon="6.06641">
        <ele>987.4</ele>
        <time>2021-11-23T12:36:02Z</time>
      </trkpt>
      <trkpt lat="46.64428" lon="6.06635">
        <ele>988.1</ele>
        <time>2021-11-23T12:36:06Z</time>
      </trkpt>
      <trkpt lat="46.64425" lon="6.0663">
        <ele>988.6</ele>
        <time>2021-11-23T12:36:11Z</time>
      </trkpt>
      <trkpt lat="46.64422" lon="6.06624">
        <ele>989.3</ele>
        <time>2021-11-23T12:36:16Z</time>
      </trkpt>
      <trkpt lat="46.64419" lon="6.06618">
        <ele>989.7</ele>
        <time>2021-11-23T12:36:21Z</time>
      </trkpt>
      <trkpt lat="46.64416" lon="6.06612">
        <ele>989.9</ele>
        <time>2021-11-23T12:36:26Z</time>
      </trkpt>
      <trkpt lat="46.64414" lon="6.06605">
        <ele>989.8</ele>
        <time>2021-11-23T12:36:31Z</time>
      </trkpt>
      <trkpt lat="46.64412" lon="6.06598">
        <ele>989.4</ele>
        <time>2021-11-23T12:36:36Z</time>
      </trkpt>
      <trkpt lat="46.64409" lon="6.06592">
        <ele>988.7</ele>
        <time>2021-11-23T12:36:41Z</time>
      </trkpt>
      <trkpt lat="46.64406" lon="6.06587">
        <ele>988.2</ele>
        <time>2021-11-23T12:36:47Z</time>
      </trkpt>
      <trkpt lat="46.64402" lon="6.06582">
        <ele>987.9</ele>
        <time>2021-11-23T12:36:53Z</time>
      </trkpt>
      <trkpt lat="46.64399" lon="6.06576">
        <ele>987.1</ele>
        <time>2021-11-23T12:36:58Z</time>
      </trkpt>
      <trkpt lat="46.64397" lon="6.0657">
        <ele>986.3</ele>
        <time>2021-11-23T12:37:03Z</time>
      </trkpt>
      <trkpt lat="46.64395" lon="6.06564">
        <ele>984.9</ele>
        <time>2021-11-23T12:37:09Z</time>
      </trkpt>
      <trkpt lat="46.64394" lon="6.06557">
        <ele>983.9</ele>
        <time>2021-11-23T12:37:14Z</time>
      </trkpt>
      <trkpt lat="46.64392" lon="6.0655">
        <ele>983.2</ele>
        <time>2021-11-23T12:37:19Z</time>
      </trkpt>
      <trkpt lat="46.64389" lon="6.06544">
        <ele>982.7</ele>
        <time>2021-11-23T12:37:24Z</time>
      </trkpt>
      <trkpt lat="46.64386" lon="6.06539">
        <ele>982.4</ele>
        <time>2021-11-23T12:37:28Z</time>
      </trkpt>
      <trkpt lat="46.64383" lon="6.06533">
        <ele>982.4</ele>
        <time>2021-11-23T12:37:35Z</time>
      </trkpt>
      <trkpt lat="46.6438" lon="6.06527">
        <ele>982.4</ele>
        <time>2021-11-23T12:37:40Z</time>
      </trkpt>
      <trkpt lat="46.64377" lon="6.06521">
        <ele>982.5</ele>
        <time>2021-11-23T12:37:45Z</time>
      </trkpt>
      <trkpt lat="46.64373" lon="6.06516">
        <ele>983.3</ele>
        <time>2021-11-23T12:37:51Z</time>
      </trkpt>
      <trkpt lat="46.64371" lon="6.0651">
        <ele>984.8</ele>
        <time>2021-11-23T12:37:57Z</time>
      </trkpt>
      <trkpt lat="46.64369" lon="6.06503">
        <ele>986.2</ele>
        <time>2021-11-23T12:38:03Z</time>
      </trkpt>
      <trkpt lat="46.64367" lon="6.06497">
        <ele>987.5</ele>
        <time>2021-11-23T12:38:09Z</time>
      </trkpt>
      <trkpt lat="46.64366" lon="6.0649">
        <ele>988.7</ele>
        <time>2021-11-23T12:38:15Z</time>
      </trkpt>
      <trkpt lat="46.64364" lon="6.06484">
        <ele>989.2</ele>
        <time>2021-11-23T12:38:21Z</time>
      </trkpt>
      <trkpt lat="46.64362" lon="6.06475">
        <ele>989.7</ele>
        <time>2021-11-23T12:41:49Z</time>
      </trkpt>
      <trkpt lat="46.6436" lon="6.06469">
        <ele>990.2</ele>
        <time>2021-11-23T12:41:53Z</time>
      </trkpt>
      <trkpt lat="46.6436" lon="6.06461">
        <ele>991.2</ele>
        <time>2021-11-23T12:42:00Z</time>
      </trkpt>
      <trkpt lat="46.6436" lon="6.06454">
        <ele>991.8</ele>
        <time>2021-11-23T12:42:06Z</time>
      </trkpt>
      <trkpt lat="46.64362" lon="6.06447">
        <ele>991.8</ele>
        <time>2021-11-23T12:42:12Z</time>
      </trkpt>
      <trkpt lat="46.64362" lon="6.0644">
        <ele>991.6</ele>
        <time>2021-11-23T12:42:17Z</time>
      </trkpt>
      <trkpt lat="46.64361" lon="6.06432">
        <ele>992.1</ele>
        <time>2021-11-23T12:42:24Z</time>
      </trkpt>
      <trkpt lat="46.64358" lon="6.06426">
        <ele>993</ele>
        <time>2021-11-23T12:42:30Z</time>
      </trkpt>
      <trkpt lat="46.64357" lon="6.06419">
        <ele>993.7</ele>
        <time>2021-11-23T12:42:36Z</time>
      </trkpt>
      <trkpt lat="46.64354" lon="6.06413">
        <ele>993.7</ele>
        <time>2021-11-23T12:42:41Z</time>
      </trkpt>
      <trkpt lat="46.64353" lon="6.06406">
        <ele>993.7</ele>
        <time>2021-11-23T12:42:47Z</time>
      </trkpt>
      <trkpt lat="46.64351" lon="6.064">
        <ele>993.8</ele>
        <time>2021-11-23T12:42:51Z</time>
      </trkpt>
      <trkpt lat="46.64349" lon="6.06393">
        <ele>994.1</ele>
        <time>2021-11-23T12:42:55Z</time>
      </trkpt>
      <trkpt lat="46.64347" lon="6.06386">
        <ele>994.3</ele>
        <time>2021-11-23T12:43:00Z</time>
      </trkpt>
      <trkpt lat="46.64348" lon="6.06378">
        <ele>994.5</ele>
        <time>2021-11-23T12:43:05Z</time>
      </trkpt>
      <trkpt lat="46.64347" lon="6.06371">
        <ele>995.1</ele>
        <time>2021-11-23T12:43:11Z</time>
      </trkpt>
      <trkpt lat="46.64347" lon="6.06364">
        <ele>996</ele>
        <time>2021-11-23T12:43:17Z</time>
      </trkpt>
      <trkpt lat="46.64345" lon="6.06357">
        <ele>996.9</ele>
        <time>2021-11-23T12:43:23Z</time>
      </trkpt>
      <trkpt lat="46.64344" lon="6.06349">
        <ele>997.3</ele>
        <time>2021-11-23T12:43:28Z</time>
      </trkpt>
      <trkpt lat="46.64342" lon="6.06343">
        <ele>997.4</ele>
        <time>2021-11-23T12:43:33Z</time>
      </trkpt>
      <trkpt lat="46.64338" lon="6.06338">
        <ele>997.1</ele>
        <time>2021-11-23T12:43:39Z</time>
      </trkpt>
      <trkpt lat="46.64335" lon="6.06333">
        <ele>996.8</ele>
        <time>2021-11-23T12:43:44Z</time>
      </trkpt>
      <trkpt lat="46.64332" lon="6.06327">
        <ele>995.9</ele>
        <time>2021-11-23T12:43:51Z</time>
      </trkpt>
      <trkpt lat="46.6433" lon="6.06321">
        <ele>994.5</ele>
        <time>2021-11-23T12:44:04Z</time>
      </trkpt>
      <trkpt lat="46.64327" lon="6.06315">
        <ele>994.1</ele>
        <time>2021-11-23T12:44:09Z</time>
      </trkpt>
      <trkpt lat="46.64325" lon="6.06308">
        <ele>993.5</ele>
        <time>2021-11-23T12:44:13Z</time>
      </trkpt>
      <trkpt lat="46.64323" lon="6.06302">
        <ele>993.5</ele>
        <time>2021-11-23T12:44:17Z</time>
      </trkpt>
      <trkpt lat="46.6432" lon="6.06296">
        <ele>993.6</ele>
        <time>2021-11-23T12:44:21Z</time>
      </trkpt>
      <trkpt lat="46.64317" lon="6.06292">
        <ele>994.1</ele>
        <time>2021-11-23T12:44:26Z</time>
      </trkpt>
      <trkpt lat="46.64315" lon="6.06285">
        <ele>994.8</ele>
        <time>2021-11-23T12:44:31Z</time>
      </trkpt>
      <trkpt lat="46.64314" lon="6.06277">
        <ele>995</ele>
        <time>2021-11-23T12:44:36Z</time>
      </trkpt>
      <trkpt lat="46.64314" lon="6.0627">
        <ele>995.1</ele>
        <time>2021-11-23T12:44:41Z</time>
      </trkpt>
      <trkpt lat="46.64312" lon="6.06264">
        <ele>995</ele>
        <time>2021-11-23T12:44:45Z</time>
      </trkpt>
      <trkpt lat="46.6431" lon="6.06257">
        <ele>994.3</ele>
        <time>2021-11-23T12:44:50Z</time>
      </trkpt>
      <trkpt lat="46.64307" lon="6.06251">
        <ele>993.7</ele>
        <time>2021-11-23T12:44:56Z</time>
      </trkpt>
      <trkpt lat="46.64304" lon="6.06246">
        <ele>993.4</ele>
        <time>2021-11-23T12:45:00Z</time>
      </trkpt>
      <trkpt lat="46.64301" lon="6.0624">
        <ele>993.1</ele>
        <time>2021-11-23T12:45:04Z</time>
      </trkpt>
      <trkpt lat="46.643" lon="6.06233">
        <ele>992.9</ele>
        <time>2021-11-23T12:45:08Z</time>
      </trkpt>
      <trkpt lat="46.64298" lon="6.06226">
        <ele>992.6</ele>
        <time>2021-11-23T12:45:12Z</time>
      </trkpt>
      <trkpt lat="46.64296" lon="6.0622">
        <ele>992</ele>
        <time>2021-11-23T12:45:16Z</time>
      </trkpt>
      <trkpt lat="46.64295" lon="6.06213">
        <ele>990.6</ele>
        <time>2021-11-23T12:45:22Z</time>
      </trkpt>
      <trkpt lat="46.64292" lon="6.06207">
        <ele>989.8</ele>
        <time>2021-11-23T12:45:28Z</time>
      </trkpt>
      <trkpt lat="46.64288" lon="6.06203">
        <ele>989.6</ele>
        <time>2021-11-23T12:45:33Z</time>
      </trkpt>
      <trkpt lat="46.64285" lon="6.06197">
        <ele>989.3</ele>
        <time>2021-11-23T12:45:38Z</time>
      </trkpt>
      <trkpt lat="46.64283" lon="6.06191">
        <ele>989.4</ele>
        <time>2021-11-23T12:45:43Z</time>
      </trkpt>
      <trkpt lat="46.64282" lon="6.06183">
        <ele>989.6</ele>
        <time>2021-11-23T12:45:48Z</time>
      </trkpt>
      <trkpt lat="46.6428" lon="6.06176">
        <ele>989.5</ele>
        <time>2021-11-23T12:45:53Z</time>
      </trkpt>
      <trkpt lat="46.64277" lon="6.06168">
        <ele>989.6</ele>
        <time>2021-11-23T12:45:57Z</time>
      </trkpt>
      <trkpt lat="46.64275" lon="6.0616">
        <ele>989.7</ele>
        <time>2021-11-23T12:46:01Z</time>
      </trkpt>
      <trkpt lat="46.64273" lon="6.06153">
        <ele>990.4</ele>
        <time>2021-11-23T12:46:06Z</time>
      </trkpt>
      <trkpt lat="46.64269" lon="6.06149">
        <ele>992.7</ele>
        <time>2021-11-23T12:46:25Z</time>
      </trkpt>
      <trkpt lat="46.64272" lon="6.06143">
        <ele>994.7</ele>
        <time>2021-11-23T12:47:08Z</time>
      </trkpt>
      <trkpt lat="46.64273" lon="6.06136">
        <ele>993.8</ele>
        <time>2021-11-23T12:47:12Z</time>
      </trkpt>
      <trkpt lat="46.64271" lon="6.06129">
        <ele>992.6</ele>
        <time>2021-11-23T12:47:16Z</time>
      </trkpt>
      <trkpt lat="46.64271" lon="6.06122">
        <ele>991</ele>
        <time>2021-11-23T12:47:21Z</time>
      </trkpt>
      <trkpt lat="46.6427" lon="6.06114">
        <ele>989.6</ele>
        <time>2021-11-23T12:47:25Z</time>
      </trkpt>
      <trkpt lat="46.64268" lon="6.06106">
        <ele>988</ele>
        <time>2021-11-23T12:47:30Z</time>
      </trkpt>
      <trkpt lat="46.64265" lon="6.06099">
        <ele>987</ele>
        <time>2021-11-23T12:47:35Z</time>
      </trkpt>
      <trkpt lat="46.64262" lon="6.06094">
        <ele>986.6</ele>
        <time>2021-11-23T12:47:39Z</time>
      </trkpt>
      <trkpt lat="46.6426" lon="6.06088">
        <ele>986.4</ele>
        <time>2021-11-23T12:47:43Z</time>
      </trkpt>
      <trkpt lat="46.6426" lon="6.06081">
        <ele>986.4</ele>
        <time>2021-11-23T12:47:47Z</time>
      </trkpt>
      <trkpt lat="46.64258" lon="6.06074">
        <ele>986.7</ele>
        <time>2021-11-23T12:47:52Z</time>
      </trkpt>
      <trkpt lat="46.64257" lon="6.06067">
        <ele>987</ele>
        <time>2021-11-23T12:47:56Z</time>
      </trkpt>
      <trkpt lat="46.64255" lon="6.0606">
        <ele>987.4</ele>
        <time>2021-11-23T12:47:59Z</time>
      </trkpt>
      <trkpt lat="46.64253" lon="6.06054">
        <ele>987.9</ele>
        <time>2021-11-23T12:48:02Z</time>
      </trkpt>
      <trkpt lat="46.64251" lon="6.06047">
        <ele>988.5</ele>
        <time>2021-11-23T12:48:06Z</time>
      </trkpt>
      <trkpt lat="46.64248" lon="6.06041">
        <ele>988.5</ele>
        <time>2021-11-23T12:48:10Z</time>
      </trkpt>
      <trkpt lat="46.64245" lon="6.06034">
        <ele>988</ele>
        <time>2021-11-23T12:48:16Z</time>
      </trkpt>
      <trkpt lat="46.64243" lon="6.06028">
        <ele>987.3</ele>
        <time>2021-11-23T12:48:20Z</time>
      </trkpt>
      <trkpt lat="46.6424" lon="6.06022">
        <ele>986.7</ele>
        <time>2021-11-23T12:48:25Z</time>
      </trkpt>
      <trkpt lat="46.64237" lon="6.06017">
        <ele>986.5</ele>
        <time>2021-11-23T12:48:29Z</time>
      </trkpt>
      <trkpt lat="46.64235" lon="6.06011">
        <ele>986.4</ele>
        <time>2021-11-23T12:48:33Z</time>
      </trkpt>
      <trkpt lat="46.64232" lon="6.06005">
        <ele>986.3</ele>
        <time>2021-11-23T12:48:36Z</time>
      </trkpt>
      <trkpt lat="46.64228" lon="6.05998">
        <ele>985.8</ele>
        <time>2021-11-23T12:48:39Z</time>
      </trkpt>
      <trkpt lat="46.64225" lon="6.05991">
        <ele>985.3</ele>
        <time>2021-11-23T12:48:42Z</time>
      </trkpt>
      <trkpt lat="46.64223" lon="6.05985">
        <ele>984.7</ele>
        <time>2021-11-23T12:48:46Z</time>
      </trkpt>
      <trkpt lat="46.64221" lon="6.05977">
        <ele>985</ele>
        <time>2021-11-23T12:48:52Z</time>
      </trkpt>
      <trkpt lat="46.6422" lon="6.0597">
        <ele>985.9</ele>
        <time>2021-11-23T12:48:58Z</time>
      </trkpt>
      <trkpt lat="46.64215" lon="6.05967">
        <ele>986.7</ele>
        <time>2021-11-23T12:49:04Z</time>
      </trkpt>
      <trkpt lat="46.6421" lon="6.05963">
        <ele>986.6</ele>
        <time>2021-11-23T12:49:08Z</time>
      </trkpt>
      <trkpt lat="46.64205" lon="6.05961">
        <ele>986.6</ele>
        <time>2021-11-23T12:49:12Z</time>
      </trkpt>
      <trkpt lat="46.642" lon="6.05958">
        <ele>986.8</ele>
        <time>2021-11-23T12:49:17Z</time>
      </trkpt>
      <trkpt lat="46.64197" lon="6.05951">
        <ele>986.2</ele>
        <time>2021-11-23T12:49:22Z</time>
      </trkpt>
      <trkpt lat="46.64193" lon="6.05945">
        <ele>985.6</ele>
        <time>2021-11-23T12:49:26Z</time>
      </trkpt>
      <trkpt lat="46.6419" lon="6.05939">
        <ele>984.7</ele>
        <time>2021-11-23T12:49:30Z</time>
      </trkpt>
      <trkpt lat="46.64187" lon="6.05932">
        <ele>983.8</ele>
        <time>2021-11-23T12:49:34Z</time>
      </trkpt>
      <trkpt lat="46.64186" lon="6.05926">
        <ele>982.8</ele>
        <time>2021-11-23T12:49:38Z</time>
      </trkpt>
      <trkpt lat="46.64184" lon="6.05919">
        <ele>981.8</ele>
        <time>2021-11-23T12:49:42Z</time>
      </trkpt>
      <trkpt lat="46.64181" lon="6.05912">
        <ele>981.4</ele>
        <time>2021-11-23T12:49:46Z</time>
      </trkpt>
      <trkpt lat="46.64178" lon="6.05906">
        <ele>981</ele>
        <time>2021-11-23T12:49:50Z</time>
      </trkpt>
      <trkpt lat="46.64175" lon="6.059">
        <ele>980.1</ele>
        <time>2021-11-23T12:49:54Z</time>
      </trkpt>
      <trkpt lat="46.64173" lon="6.05894">
        <ele>979.3</ele>
        <time>2021-11-23T12:49:59Z</time>
      </trkpt>
      <trkpt lat="46.6417" lon="6.05888">
        <ele>979</ele>
        <time>2021-11-23T12:50:04Z</time>
      </trkpt>
      <trkpt lat="46.64168" lon="6.05881">
        <ele>979.3</ele>
        <time>2021-11-23T12:50:09Z</time>
      </trkpt>
      <trkpt lat="46.64166" lon="6.05874">
        <ele>979.7</ele>
        <time>2021-11-23T12:50:15Z</time>
      </trkpt>
      <trkpt lat="46.64164" lon="6.05868">
        <ele>979.5</ele>
        <time>2021-11-23T12:50:20Z</time>
      </trkpt>
      <trkpt lat="46.6416" lon="6.05861">
        <ele>979.1</ele>
        <time>2021-11-23T12:50:24Z</time>
      </trkpt>
      <trkpt lat="46.64157" lon="6.05855">
        <ele>978.5</ele>
        <time>2021-11-23T12:50:27Z</time>
      </trkpt>
      <trkpt lat="46.64154" lon="6.05849">
        <ele>977.5</ele>
        <time>2021-11-23T12:50:31Z</time>
      </trkpt>
      <trkpt lat="46.64152" lon="6.05842">
        <ele>976.8</ele>
        <time>2021-11-23T12:50:35Z</time>
      </trkpt>
      <trkpt lat="46.64151" lon="6.05834">
        <ele>976.7</ele>
        <time>2021-11-23T12:50:39Z</time>
      </trkpt>
      <trkpt lat="46.64149" lon="6.05828">
        <ele>977</ele>
        <time>2021-11-23T12:50:43Z</time>
      </trkpt>
      <trkpt lat="46.64147" lon="6.05821">
        <ele>977.6</ele>
        <time>2021-11-23T12:50:47Z</time>
      </trkpt>
      <trkpt lat="46.64145" lon="6.05815">
        <ele>978.1</ele>
        <time>2021-11-23T12:50:51Z</time>
      </trkpt>
      <trkpt lat="46.64144" lon="6.05809">
        <ele>978</ele>
        <time>2021-11-23T12:50:56Z</time>
      </trkpt>
      <trkpt lat="46.64144" lon="6.05802">
        <ele>977.6</ele>
        <time>2021-11-23T12:51:01Z</time>
      </trkpt>
      <trkpt lat="46.64143" lon="6.05794">
        <ele>977</ele>
        <time>2021-11-23T12:51:06Z</time>
      </trkpt>
      <trkpt lat="46.64139" lon="6.05787">
        <ele>976.2</ele>
        <time>2021-11-23T12:51:10Z</time>
      </trkpt>
      <trkpt lat="46.64137" lon="6.0578">
        <ele>975.5</ele>
        <time>2021-11-23T12:51:15Z</time>
      </trkpt>
      <trkpt lat="46.64134" lon="6.05773">
        <ele>975.5</ele>
        <time>2021-11-23T12:51:19Z</time>
      </trkpt>
      <trkpt lat="46.64132" lon="6.05766">
        <ele>975.5</ele>
        <time>2021-11-23T12:51:24Z</time>
      </trkpt>
      <trkpt lat="46.64129" lon="6.05759">
        <ele>975.4</ele>
        <time>2021-11-23T12:51:29Z</time>
      </trkpt>
      <trkpt lat="46.64127" lon="6.05753">
        <ele>974.9</ele>
        <time>2021-11-23T12:51:34Z</time>
      </trkpt>
      <trkpt lat="46.64124" lon="6.05748">
        <ele>974.7</ele>
        <time>2021-11-23T12:51:38Z</time>
      </trkpt>
      <trkpt lat="46.64121" lon="6.05742">
        <ele>974.6</ele>
        <time>2021-11-23T12:51:43Z</time>
      </trkpt>
      <trkpt lat="46.6412" lon="6.05735">
        <ele>974.7</ele>
        <time>2021-11-23T12:51:48Z</time>
      </trkpt>
      <trkpt lat="46.64118" lon="6.05728">
        <ele>975</ele>
        <time>2021-11-23T12:51:53Z</time>
      </trkpt>
      <trkpt lat="46.64116" lon="6.05722">
        <ele>975.3</ele>
        <time>2021-11-23T12:51:57Z</time>
      </trkpt>
      <trkpt lat="46.64113" lon="6.05714">
        <ele>975.4</ele>
        <time>2021-11-23T12:52:01Z</time>
      </trkpt>
      <trkpt lat="46.64111" lon="6.05707">
        <ele>974.9</ele>
        <time>2021-11-23T12:52:05Z</time>
      </trkpt>
      <trkpt lat="46.64108" lon="6.05701">
        <ele>973.9</ele>
        <time>2021-11-23T12:52:11Z</time>
      </trkpt>
      <trkpt lat="46.64105" lon="6.05696">
        <ele>973.3</ele>
        <time>2021-11-23T12:52:15Z</time>
      </trkpt>
      <trkpt lat="46.64104" lon="6.05689">
        <ele>972.4</ele>
        <time>2021-11-23T12:52:20Z</time>
      </trkpt>
      <trkpt lat="46.64103" lon="6.05682">
        <ele>970.9</ele>
        <time>2021-11-23T12:52:26Z</time>
      </trkpt>
      <trkpt lat="46.64101" lon="6.05675">
        <ele>969.5</ele>
        <time>2021-11-23T12:52:32Z</time>
      </trkpt>
      <trkpt lat="46.64099" lon="6.05669">
        <ele>968.6</ele>
        <time>2021-11-23T12:52:37Z</time>
      </trkpt>
      <trkpt lat="46.64095" lon="6.05662">
        <ele>968.8</ele>
        <time>2021-11-23T12:52:43Z</time>
      </trkpt>
      <trkpt lat="46.64093" lon="6.05656">
        <ele>969.1</ele>
        <time>2021-11-23T12:52:47Z</time>
      </trkpt>
      <trkpt lat="46.64091" lon="6.05649">
        <ele>969.4</ele>
        <time>2021-11-23T12:52:51Z</time>
      </trkpt>
      <trkpt lat="46.64089" lon="6.05642">
        <ele>970.5</ele>
        <time>2021-11-23T12:52:56Z</time>
      </trkpt>
      <trkpt lat="46.64086" lon="6.05635">
        <ele>971.7</ele>
        <time>2021-11-23T12:53:00Z</time>
      </trkpt>
      <trkpt lat="46.64084" lon="6.05629">
        <ele>972.9</ele>
        <time>2021-11-23T12:53:04Z</time>
      </trkpt>
      <trkpt lat="46.6408" lon="6.05623">
        <ele>973.9</ele>
        <time>2021-11-23T12:53:10Z</time>
      </trkpt>
      <trkpt lat="46.64078" lon="6.05617">
        <ele>975</ele>
        <time>2021-11-23T12:53:16Z</time>
      </trkpt>
      <trkpt lat="46.64077" lon="6.0561">
        <ele>975.9</ele>
        <time>2021-11-23T12:53:21Z</time>
      </trkpt>
      <trkpt lat="46.64075" lon="6.05604">
        <ele>976.6</ele>
        <time>2021-11-23T12:53:26Z</time>
      </trkpt>
      <trkpt lat="46.64072" lon="6.05598">
        <ele>976.5</ele>
        <time>2021-11-23T12:53:31Z</time>
      </trkpt>
      <trkpt lat="46.6407" lon="6.05592">
        <ele>975.7</ele>
        <time>2021-11-23T12:53:35Z</time>
      </trkpt>
      <trkpt lat="46.64068" lon="6.05586">
        <ele>975.4</ele>
        <time>2021-11-23T12:53:39Z</time>
      </trkpt>
      <trkpt lat="46.64066" lon="6.05579">
        <ele>974.9</ele>
        <time>2021-11-23T12:53:44Z</time>
      </trkpt>
      <trkpt lat="46.64065" lon="6.05571">
        <ele>973.6</ele>
        <time>2021-11-23T12:53:50Z</time>
      </trkpt>
      <trkpt lat="46.64062" lon="6.05564">
        <ele>971.9</ele>
        <time>2021-11-23T12:53:54Z</time>
      </trkpt>
      <trkpt lat="46.64058" lon="6.05559">
        <ele>969.6</ele>
        <time>2021-11-23T12:53:59Z</time>
      </trkpt>
      <trkpt lat="46.64055" lon="6.05554">
        <ele>967.3</ele>
        <time>2021-11-23T12:54:05Z</time>
      </trkpt>
      <trkpt lat="46.64054" lon="6.05546">
        <ele>965.6</ele>
        <time>2021-11-23T12:54:11Z</time>
      </trkpt>
      <trkpt lat="46.64051" lon="6.05539">
        <ele>964.3</ele>
        <time>2021-11-23T12:54:15Z</time>
      </trkpt>
      <trkpt lat="46.64049" lon="6.05533">
        <ele>963.4</ele>
        <time>2021-11-23T12:54:18Z</time>
      </trkpt>
      <trkpt lat="46.64048" lon="6.05526">
        <ele>963</ele>
        <time>2021-11-23T12:54:22Z</time>
      </trkpt>
      <trkpt lat="46.64045" lon="6.0552">
        <ele>963.1</ele>
        <time>2021-11-23T12:54:26Z</time>
      </trkpt>
      <trkpt lat="46.64042" lon="6.05514">
        <ele>963.3</ele>
        <time>2021-11-23T12:54:31Z</time>
      </trkpt>
      <trkpt lat="46.64039" lon="6.05508">
        <ele>963.5</ele>
        <time>2021-11-23T12:54:35Z</time>
      </trkpt>
      <trkpt lat="46.64036" lon="6.05503">
        <ele>963</ele>
        <time>2021-11-23T12:54:40Z</time>
      </trkpt>
      <trkpt lat="46.64034" lon="6.05497">
        <ele>961.7</ele>
        <time>2021-11-23T12:54:45Z</time>
      </trkpt>
      <trkpt lat="46.6403" lon="6.05491">
        <ele>960.7</ele>
        <time>2021-11-23T12:54:51Z</time>
      </trkpt>
      <trkpt lat="46.64027" lon="6.05486">
        <ele>960.5</ele>
        <time>2021-11-23T12:54:55Z</time>
      </trkpt>
      <trkpt lat="46.64025" lon="6.05481">
        <ele>960</ele>
        <time>2021-11-23T12:54:58Z</time>
      </trkpt>
      <trkpt lat="46.64021" lon="6.05474">
        <ele>959.1</ele>
        <time>2021-11-23T12:55:02Z</time>
      </trkpt>
      <trkpt lat="46.64018" lon="6.05469">
        <ele>958.9</ele>
        <time>2021-11-23T12:55:08Z</time>
      </trkpt>
      <trkpt lat="46.64014" lon="6.05464">
        <ele>959.6</ele>
        <time>2021-11-23T12:55:13Z</time>
      </trkpt>
      <trkpt lat="46.64011" lon="6.05459">
        <ele>960.6</ele>
        <time>2021-11-23T12:55:19Z</time>
      </trkpt>
      <trkpt lat="46.64009" lon="6.05451">
        <ele>961.7</ele>
        <time>2021-11-23T12:55:26Z</time>
      </trkpt>
      <trkpt lat="46.64005" lon="6.05445">
        <ele>962.1</ele>
        <time>2021-11-23T12:55:30Z</time>
      </trkpt>
      <trkpt lat="46.64003" lon="6.05439">
        <ele>962.3</ele>
        <time>2021-11-23T12:55:35Z</time>
      </trkpt>
      <trkpt lat="46.64002" lon="6.05432">
        <ele>961.8</ele>
        <time>2021-11-23T12:55:41Z</time>
      </trkpt>
      <trkpt lat="46.63999" lon="6.05427">
        <ele>961.8</ele>
        <time>2021-11-23T12:55:47Z</time>
      </trkpt>
      <trkpt lat="46.63995" lon="6.05422">
        <ele>961.9</ele>
        <time>2021-11-23T12:55:52Z</time>
      </trkpt>
      <trkpt lat="46.63992" lon="6.05417">
        <ele>961.4</ele>
        <time>2021-11-23T12:55:56Z</time>
      </trkpt>
      <trkpt lat="46.63989" lon="6.05412">
        <ele>961</ele>
        <time>2021-11-23T12:56:00Z</time>
      </trkpt>
      <trkpt lat="46.63985" lon="6.05407">
        <ele>960.7</ele>
        <time>2021-11-23T12:56:05Z</time>
      </trkpt>
      <trkpt lat="46.63982" lon="6.05401">
        <ele>960.6</ele>
        <time>2021-11-23T12:56:10Z</time>
      </trkpt>
      <trkpt lat="46.6398" lon="6.05394">
        <ele>960.6</ele>
        <time>2021-11-23T12:56:16Z</time>
      </trkpt>
      <trkpt lat="46.63976" lon="6.0539">
        <ele>959.8</ele>
        <time>2021-11-23T12:56:22Z</time>
      </trkpt>
      <trkpt lat="46.63973" lon="6.05385">
        <ele>959.5</ele>
        <time>2021-11-23T12:56:26Z</time>
      </trkpt>
      <trkpt lat="46.63969" lon="6.05379">
        <ele>959.2</ele>
        <time>2021-11-23T12:56:30Z</time>
      </trkpt>
      <trkpt lat="46.63966" lon="6.05374">
        <ele>958.8</ele>
        <time>2021-11-23T12:56:35Z</time>
      </trkpt>
      <trkpt lat="46.63962" lon="6.05369">
        <ele>958.8</ele>
        <time>2021-11-23T12:56:42Z</time>
      </trkpt>
      <trkpt lat="46.63959" lon="6.05364">
        <ele>959.7</ele>
        <time>2021-11-23T12:56:48Z</time>
      </trkpt>
      <trkpt lat="46.63956" lon="6.05358">
        <ele>961</ele>
        <time>2021-11-23T12:56:53Z</time>
      </trkpt>
      <trkpt lat="46.63957" lon="6.05351">
        <ele>961.8</ele>
        <time>2021-11-23T12:57:07Z</time>
      </trkpt>
      <trkpt lat="46.63957" lon="6.05343">
        <ele>961.2</ele>
        <time>2021-11-23T12:57:13Z</time>
      </trkpt>
      <trkpt lat="46.63958" lon="6.05337">
        <ele>960.3</ele>
        <time>2021-11-23T12:57:18Z</time>
      </trkpt>
      <trkpt lat="46.63959" lon="6.0533">
        <ele>959.5</ele>
        <time>2021-11-23T12:57:23Z</time>
      </trkpt>
      <trkpt lat="46.6396" lon="6.05324">
        <ele>958.3</ele>
        <time>2021-11-23T12:57:28Z</time>
      </trkpt>
      <trkpt lat="46.63961" lon="6.05317">
        <ele>957.1</ele>
        <time>2021-11-23T12:57:33Z</time>
      </trkpt>
      <trkpt lat="46.63961" lon="6.0531">
        <ele>955.4</ele>
        <time>2021-11-23T12:57:38Z</time>
      </trkpt>
      <trkpt lat="46.6396" lon="6.05302">
        <ele>953.9</ele>
        <time>2021-11-23T12:57:43Z</time>
      </trkpt>
      <trkpt lat="46.63959" lon="6.05296">
        <ele>953</ele>
        <time>2021-11-23T12:57:48Z</time>
      </trkpt>
      <trkpt lat="46.63958" lon="6.05289">
        <ele>952.4</ele>
        <time>2021-11-23T12:57:53Z</time>
      </trkpt>
      <trkpt lat="46.63958" lon="6.05282">
        <ele>951.6</ele>
        <time>2021-11-23T12:57:58Z</time>
      </trkpt>
      <trkpt lat="46.63956" lon="6.05274">
        <ele>950.4</ele>
        <time>2021-11-23T12:58:03Z</time>
      </trkpt>
      <trkpt lat="46.63954" lon="6.05268">
        <ele>949.5</ele>
        <time>2021-11-23T12:58:07Z</time>
      </trkpt>
      <trkpt lat="46.63953" lon="6.05261">
        <ele>948.9</ele>
        <time>2021-11-23T12:58:12Z</time>
      </trkpt>
      <trkpt lat="46.63955" lon="6.05255">
        <ele>948.6</ele>
        <time>2021-11-23T12:58:18Z</time>
      </trkpt>
      <trkpt lat="46.63956" lon="6.05248">
        <ele>948.5</ele>
        <time>2021-11-23T12:58:23Z</time>
      </trkpt>
      <trkpt lat="46.63962" lon="6.05246">
        <ele>951.9</ele>
        <time>2021-11-23T12:59:30Z</time>
      </trkpt>
      <trkpt lat="46.63962" lon="6.05239">
        <ele>955.4</ele>
        <time>2021-11-23T12:59:48Z</time>
      </trkpt>
      <trkpt lat="46.63966" lon="6.05234">
        <ele>953.8</ele>
        <time>2021-11-23T12:59:57Z</time>
      </trkpt>
      <trkpt lat="46.63969" lon="6.05229">
        <ele>951.8</ele>
        <time>2021-11-23T13:00:03Z</time>
      </trkpt>
      <trkpt lat="46.63972" lon="6.05222">
        <ele>950.1</ele>
        <time>2021-11-23T13:00:08Z</time>
      </trkpt>
      <trkpt lat="46.63974" lon="6.05215">
        <ele>948.3</ele>
        <time>2021-11-23T13:00:13Z</time>
      </trkpt>
      <trkpt lat="46.63977" lon="6.05208">
        <ele>946.4</ele>
        <time>2021-11-23T13:00:19Z</time>
      </trkpt>
      <trkpt lat="46.63981" lon="6.05204">
        <ele>944.6</ele>
        <time>2021-11-23T13:00:24Z</time>
      </trkpt>
      <trkpt lat="46.63985" lon="6.052">
        <ele>942.8</ele>
        <time>2021-11-23T13:00:30Z</time>
      </trkpt>
      <trkpt lat="46.63989" lon="6.05196">
        <ele>941.1</ele>
        <time>2021-11-23T13:00:35Z</time>
      </trkpt>
      <trkpt lat="46.63994" lon="6.05191">
        <ele>940.1</ele>
        <time>2021-11-23T13:00:39Z</time>
      </trkpt>
      <trkpt lat="46.63998" lon="6.05186">
        <ele>939.1</ele>
        <time>2021-11-23T13:00:43Z</time>
      </trkpt>
      <trkpt lat="46.64003" lon="6.05182">
        <ele>937.8</ele>
        <time>2021-11-23T13:00:48Z</time>
      </trkpt>
      <trkpt lat="46.64006" lon="6.05177">
        <ele>936.5</ele>
        <time>2021-11-23T13:00:54Z</time>
      </trkpt>
      <trkpt lat="46.64008" lon="6.0517">
        <ele>935.7</ele>
        <time>2021-11-23T13:00:59Z</time>
      </trkpt>
      <trkpt lat="46.64011" lon="6.05164">
        <ele>935.4</ele>
        <time>2021-11-23T13:01:04Z</time>
      </trkpt>
      <trkpt lat="46.64014" lon="6.05158">
        <ele>935.6</ele>
        <time>2021-11-23T13:01:10Z</time>
      </trkpt>
      <trkpt lat="46.64017" lon="6.05151">
        <ele>935.9</ele>
        <time>2021-11-23T13:01:15Z</time>
      </trkpt>
      <trkpt lat="46.64019" lon="6.05145">
        <ele>936.1</ele>
        <time>2021-11-23T13:01:18Z</time>
      </trkpt>
      <trkpt lat="46.64021" lon="6.05139">
        <ele>935.9</ele>
        <time>2021-11-23T13:01:23Z</time>
      </trkpt>
      <trkpt lat="46.64022" lon="6.05132">
        <ele>935.6</ele>
        <time>2021-11-23T13:01:30Z</time>
      </trkpt>
      <trkpt lat="46.64021" lon="6.05124">
        <ele>935.2</ele>
        <time>2021-11-23T13:01:35Z</time>
      </trkpt>
      <trkpt lat="46.64022" lon="6.05116">
        <ele>934.8</ele>
        <time>2021-11-23T13:01:39Z</time>
      </trkpt>
      <trkpt lat="46.64022" lon="6.05109">
        <ele>934.3</ele>
        <time>2021-11-23T13:01:44Z</time>
      </trkpt>
      <trkpt lat="46.64022" lon="6.05102">
        <ele>933.8</ele>
        <time>2021-11-23T13:01:51Z</time>
      </trkpt>
      <trkpt lat="46.64022" lon="6.05095">
        <ele>933.5</ele>
        <time>2021-11-23T13:01:58Z</time>
      </trkpt>
      <trkpt lat="46.64021" lon="6.05088">
        <ele>932.9</ele>
        <time>2021-11-23T13:02:02Z</time>
      </trkpt>
      <trkpt lat="46.6402" lon="6.05082">
        <ele>931.4</ele>
        <time>2021-11-23T13:02:07Z</time>
      </trkpt>
      <trkpt lat="46.6402" lon="6.05075">
        <ele>928</ele>
        <time>2021-11-23T13:02:15Z</time>
      </trkpt>
      <trkpt lat="46.64018" lon="6.05069">
        <ele>926.1</ele>
        <time>2021-11-23T13:02:20Z</time>
      </trkpt>
      <trkpt lat="46.64017" lon="6.0506">
        <ele>925.1</ele>
        <time>2021-11-23T13:02:24Z</time>
      </trkpt>
      <trkpt lat="46.64017" lon="6.05054">
        <ele>924.6</ele>
        <time>2021-11-23T13:02:27Z</time>
      </trkpt>
      <trkpt lat="46.64017" lon="6.05047">
        <ele>924.3</ele>
        <time>2021-11-23T13:02:30Z</time>
      </trkpt>
      <trkpt lat="46.64017" lon="6.05039">
        <ele>924.4</ele>
        <time>2021-11-23T13:02:34Z</time>
      </trkpt>
      <trkpt lat="46.64016" lon="6.05032">
        <ele>924.7</ele>
        <time>2021-11-23T13:02:39Z</time>
      </trkpt>
      <trkpt lat="46.64017" lon="6.05026">
        <ele>925.1</ele>
        <time>2021-11-23T13:02:47Z</time>
      </trkpt>
      <trkpt lat="46.64018" lon="6.05019">
        <ele>925.7</ele>
        <time>2021-11-23T13:02:54Z</time>
      </trkpt>
      <trkpt lat="46.64018" lon="6.05012">
        <ele>925.3</ele>
        <time>2021-11-23T13:02:59Z</time>
      </trkpt>
      <trkpt lat="46.64018" lon="6.05005">
        <ele>924.9</ele>
        <time>2021-11-23T13:03:03Z</time>
      </trkpt>
      <trkpt lat="46.64018" lon="6.04997">
        <ele>924.4</ele>
        <time>2021-11-23T13:03:07Z</time>
      </trkpt>
      <trkpt lat="46.64018" lon="6.04989">
        <ele>924.2</ele>
        <time>2021-11-23T13:03:11Z</time>
      </trkpt>
      <trkpt lat="46.64019" lon="6.04982">
        <ele>924</ele>
        <time>2021-11-23T13:03:16Z</time>
      </trkpt>
      <trkpt lat="46.6402" lon="6.04976">
        <ele>923.9</ele>
        <time>2021-11-23T13:03:20Z</time>
      </trkpt>
      <trkpt lat="46.6402" lon="6.04968">
        <ele>923.5</ele>
        <time>2021-11-23T13:03:24Z</time>
      </trkpt>
      <trkpt lat="46.64019" lon="6.04962">
        <ele>923.1</ele>
        <time>2021-11-23T13:03:28Z</time>
      </trkpt>
      <trkpt lat="46.64018" lon="6.04954">
        <ele>922.7</ele>
        <time>2021-11-23T13:03:32Z</time>
      </trkpt>
      <trkpt lat="46.64016" lon="6.04948">
        <ele>922.9</ele>
        <time>2021-11-23T13:03:37Z</time>
      </trkpt>
      <trkpt lat="46.64015" lon="6.04941">
        <ele>922.6</ele>
        <time>2021-11-23T13:03:42Z</time>
      </trkpt>
      <trkpt lat="46.64014" lon="6.04934">
        <ele>921.6</ele>
        <time>2021-11-23T13:03:48Z</time>
      </trkpt>
      <trkpt lat="46.64013" lon="6.04927">
        <ele>921</ele>
        <time>2021-11-23T13:03:52Z</time>
      </trkpt>
      <trkpt lat="46.64012" lon="6.04921">
        <ele>920.6</ele>
        <time>2021-11-23T13:03:57Z</time>
      </trkpt>
      <trkpt lat="46.6401" lon="6.04914">
        <ele>919.9</ele>
        <time>2021-11-23T13:04:03Z</time>
      </trkpt>
      <trkpt lat="46.6401" lon="6.04907">
        <ele>919.3</ele>
        <time>2021-11-23T13:04:08Z</time>
      </trkpt>
      <trkpt lat="46.64007" lon="6.04901">
        <ele>918.9</ele>
        <time>2021-11-23T13:04:14Z</time>
      </trkpt>
      <trkpt lat="46.64005" lon="6.04894">
        <ele>918.5</ele>
        <time>2021-11-23T13:04:19Z</time>
      </trkpt>
      <trkpt lat="46.64002" lon="6.04888">
        <ele>918.1</ele>
        <time>2021-11-23T13:04:23Z</time>
      </trkpt>
      <trkpt lat="46.64001" lon="6.04882">
        <ele>917.9</ele>
        <time>2021-11-23T13:04:26Z</time>
      </trkpt>
      <trkpt lat="46.63998" lon="6.04875">
        <ele>917.7</ele>
        <time>2021-11-23T13:04:29Z</time>
      </trkpt>
      <trkpt lat="46.63997" lon="6.04869">
        <ele>917.6</ele>
        <time>2021-11-23T13:04:32Z</time>
      </trkpt>
      <trkpt lat="46.63994" lon="6.04863">
        <ele>917.6</ele>
        <time>2021-11-23T13:04:36Z</time>
      </trkpt>
      <trkpt lat="46.63993" lon="6.04855">
        <ele>917.2</ele>
        <time>2021-11-23T13:04:41Z</time>
      </trkpt>
      <trkpt lat="46.63991" lon="6.04849">
        <ele>915.1</ele>
        <time>2021-11-23T13:04:49Z</time>
      </trkpt>
      <trkpt lat="46.6399" lon="6.04842">
        <ele>913.5</ele>
        <time>2021-11-23T13:04:56Z</time>
      </trkpt>
      <trkpt lat="46.63991" lon="6.04835">
        <ele>912.8</ele>
        <time>2021-11-23T13:05:02Z</time>
      </trkpt>
      <trkpt lat="46.63991" lon="6.04828">
        <ele>912.4</ele>
        <time>2021-11-23T13:05:07Z</time>
      </trkpt>
      <trkpt lat="46.63991" lon="6.04821">
        <ele>911.4</ele>
        <time>2021-11-23T13:05:12Z</time>
      </trkpt>
      <trkpt lat="46.63991" lon="6.04814">
        <ele>910.4</ele>
        <time>2021-11-23T13:05:18Z</time>
      </trkpt>
      <trkpt lat="46.63989" lon="6.04808">
        <ele>909.7</ele>
        <time>2021-11-23T13:05:23Z</time>
      </trkpt>
      <trkpt lat="46.63988" lon="6.04801">
        <ele>909.2</ele>
        <time>2021-11-23T13:05:27Z</time>
      </trkpt>
      <trkpt lat="46.63988" lon="6.04793">
        <ele>909</ele>
        <time>2021-11-23T13:05:32Z</time>
      </trkpt>
      <trkpt lat="46.63988" lon="6.04786">
        <ele>909.3</ele>
        <time>2021-11-23T13:05:37Z</time>
      </trkpt>
      <trkpt lat="46.63987" lon="6.04779">
        <ele>909.8</ele>
        <time>2021-11-23T13:05:42Z</time>
      </trkpt>
      <trkpt lat="46.63988" lon="6.04771">
        <ele>909.5</ele>
        <time>2021-11-23T13:05:48Z</time>
      </trkpt>
      <trkpt lat="46.63987" lon="6.04763">
        <ele>907.8</ele>
        <time>2021-11-23T13:05:54Z</time>
      </trkpt>
      <trkpt lat="46.63985" lon="6.04756">
        <ele>905.4</ele>
        <time>2021-11-23T13:05:59Z</time>
      </trkpt>
      <trkpt lat="46.63982" lon="6.04751">
        <ele>903.8</ele>
        <time>2021-11-23T13:06:02Z</time>
      </trkpt>
      <trkpt lat="46.6398" lon="6.04745">
        <ele>902.5</ele>
        <time>2021-11-23T13:06:05Z</time>
      </trkpt>
      <trkpt lat="46.63978" lon="6.04738">
        <ele>901.2</ele>
        <time>2021-11-23T13:06:08Z</time>
      </trkpt>
      <trkpt lat="46.63977" lon="6.04732">
        <ele>899</ele>
        <time>2021-11-23T13:06:13Z</time>
      </trkpt>
      <trkpt lat="46.63975" lon="6.04724">
        <ele>897.9</ele>
        <time>2021-11-23T13:06:18Z</time>
      </trkpt>
      <trkpt lat="46.63975" lon="6.04717">
        <ele>897.5</ele>
        <time>2021-11-23T13:06:22Z</time>
      </trkpt>
      <trkpt lat="46.63973" lon="6.04711">
        <ele>897.6</ele>
        <time>2021-11-23T13:06:26Z</time>
      </trkpt>
      <trkpt lat="46.63971" lon="6.04704">
        <ele>898.4</ele>
        <time>2021-11-23T13:06:30Z</time>
      </trkpt>
      <trkpt lat="46.63971" lon="6.04697">
        <ele>899.7</ele>
        <time>2021-11-23T13:06:35Z</time>
      </trkpt>
      <trkpt lat="46.6397" lon="6.04689">
        <ele>900.3</ele>
        <time>2021-11-23T13:06:39Z</time>
      </trkpt>
      <trkpt lat="46.63969" lon="6.04682">
        <ele>900.9</ele>
        <time>2021-11-23T13:06:43Z</time>
      </trkpt>
      <trkpt lat="46.6397" lon="6.04676">
        <ele>902.5</ele>
        <time>2021-11-23T13:06:53Z</time>
      </trkpt>
      <trkpt lat="46.63972" lon="6.0467">
        <ele>905</ele>
        <time>2021-11-23T13:07:05Z</time>
      </trkpt>
      <trkpt lat="46.63972" lon="6.04663">
        <ele>906.1</ele>
        <time>2021-11-23T13:07:09Z</time>
      </trkpt>
      <trkpt lat="46.6397" lon="6.04655">
        <ele>907</ele>
        <time>2021-11-23T13:07:15Z</time>
      </trkpt>
      <trkpt lat="46.63969" lon="6.04649">
        <ele>907.1</ele>
        <time>2021-11-23T13:07:19Z</time>
      </trkpt>
      <trkpt lat="46.63968" lon="6.0464">
        <ele>906.8</ele>
        <time>2021-11-23T13:07:23Z</time>
      </trkpt>
      <trkpt lat="46.63967" lon="6.04634">
        <ele>906.4</ele>
        <time>2021-11-23T13:07:26Z</time>
      </trkpt>
      <trkpt lat="46.63966" lon="6.04627">
        <ele>906.1</ele>
        <time>2021-11-23T13:07:31Z</time>
      </trkpt>
      <trkpt lat="46.63966" lon="6.0462">
        <ele>905.3</ele>
        <time>2021-11-23T13:07:37Z</time>
      </trkpt>
      <trkpt lat="46.63967" lon="6.04612">
        <ele>902.8</ele>
        <time>2021-11-23T13:07:42Z</time>
      </trkpt>
      <trkpt lat="46.6397" lon="6.04608">
        <ele>898.6</ele>
        <time>2021-11-23T13:07:50Z</time>
      </trkpt>
      <trkpt lat="46.63975" lon="6.04604">
        <ele>897.5</ele>
        <time>2021-11-23T13:08:00Z</time>
      </trkpt>
      <trkpt lat="46.63979" lon="6.04609">
        <ele>897.2</ele>
        <time>2021-11-23T13:08:06Z</time>
      </trkpt>
      <trkpt lat="46.63983" lon="6.04611">
        <ele>897.5</ele>
        <time>2021-11-23T13:08:11Z</time>
      </trkpt>
      <trkpt lat="46.63989" lon="6.04611">
        <ele>897.5</ele>
        <time>2021-11-23T13:08:14Z</time>
      </trkpt>
      <trkpt lat="46.63995" lon="6.04611">
        <ele>897.5</ele>
        <time>2021-11-23T13:08:17Z</time>
      </trkpt>
      <trkpt lat="46.63999" lon="6.0461">
        <ele>897.6</ele>
        <time>2021-11-23T13:08:22Z</time>
      </trkpt>
      <trkpt lat="46.64005" lon="6.0461">
        <ele>898.7</ele>
        <time>2021-11-23T13:08:28Z</time>
      </trkpt>
      <trkpt lat="46.64009" lon="6.04613">
        <ele>899.3</ele>
        <time>2021-11-23T13:08:32Z</time>
      </trkpt>
      <trkpt lat="46.64014" lon="6.04618">
        <ele>899.5</ele>
        <time>2021-11-23T13:08:36Z</time>
      </trkpt>
      <trkpt lat="46.64018" lon="6.04621">
        <ele>899.6</ele>
        <time>2021-11-23T13:08:40Z</time>
      </trkpt>
      <trkpt lat="46.64022" lon="6.04625">
        <ele>899.8</ele>
        <time>2021-11-23T13:08:45Z</time>
      </trkpt>
      <trkpt lat="46.64023" lon="6.04633">
        <ele>899.6</ele>
        <time>2021-11-23T13:08:50Z</time>
      </trkpt>
      <trkpt lat="46.64025" lon="6.04639">
        <ele>899.4</ele>
        <time>2021-11-23T13:08:55Z</time>
      </trkpt>
      <trkpt lat="46.64024" lon="6.04646">
        <ele>899.3</ele>
        <time>2021-11-23T13:09:01Z</time>
      </trkpt>
      <trkpt lat="46.64025" lon="6.04653">
        <ele>898.9</ele>
        <time>2021-11-23T13:09:05Z</time>
      </trkpt>
      <trkpt lat="46.64026" lon="6.0466">
        <ele>898.6</ele>
        <time>2021-11-23T13:09:10Z</time>
      </trkpt>
      <trkpt lat="46.64028" lon="6.04668">
        <ele>898.3</ele>
        <time>2021-11-23T13:09:15Z</time>
      </trkpt>
      <trkpt lat="46.64029" lon="6.04675">
        <ele>898.2</ele>
        <time>2021-11-23T13:09:19Z</time>
      </trkpt>
      <trkpt lat="46.6403" lon="6.04682">
        <ele>898.1</ele>
        <time>2021-11-23T13:09:24Z</time>
      </trkpt>
      <trkpt lat="46.64031" lon="6.0469">
        <ele>897.7</ele>
        <time>2021-11-23T13:09:30Z</time>
      </trkpt>
      <trkpt lat="46.64032" lon="6.04696">
        <ele>896.9</ele>
        <time>2021-11-23T13:09:34Z</time>
      </trkpt>
      <trkpt lat="46.64033" lon="6.04704">
        <ele>895.3</ele>
        <time>2021-11-23T13:09:39Z</time>
      </trkpt>
      <trkpt lat="46.64035" lon="6.0471">
        <ele>893.4</ele>
        <time>2021-11-23T13:09:45Z</time>
      </trkpt>
      <trkpt lat="46.64037" lon="6.04717">
        <ele>893</ele>
        <time>2021-11-23T13:09:50Z</time>
      </trkpt>
      <trkpt lat="46.6404" lon="6.04723">
        <ele>892.5</ele>
        <time>2021-11-23T13:09:55Z</time>
      </trkpt>
      <trkpt lat="46.64044" lon="6.04728">
        <ele>892.1</ele>
        <time>2021-11-23T13:09:59Z</time>
      </trkpt>
      <trkpt lat="46.64048" lon="6.04731">
        <ele>892.1</ele>
        <time>2021-11-23T13:10:03Z</time>
      </trkpt>
      <trkpt lat="46.64053" lon="6.04734">
        <ele>892.3</ele>
        <time>2021-11-23T13:10:08Z</time>
      </trkpt>
      <trkpt lat="46.64058" lon="6.04735">
        <ele>891.9</ele>
        <time>2021-11-23T13:10:12Z</time>
      </trkpt>
      <trkpt lat="46.64063" lon="6.04734">
        <ele>891.9</ele>
        <time>2021-11-23T13:10:15Z</time>
      </trkpt>
      <trkpt lat="46.64068" lon="6.04733">
        <ele>892.2</ele>
        <time>2021-11-23T13:10:19Z</time>
      </trkpt>
      <trkpt lat="46.64073" lon="6.04733">
        <ele>892.7</ele>
        <time>2021-11-23T13:10:22Z</time>
      </trkpt>
      <trkpt lat="46.64078" lon="6.04732">
        <ele>893.5</ele>
        <time>2021-11-23T13:10:26Z</time>
      </trkpt>
      <trkpt lat="46.64083" lon="6.0473">
        <ele>894.2</ele>
        <time>2021-11-23T13:10:31Z</time>
      </trkpt>
      <trkpt lat="46.64088" lon="6.04728">
        <ele>895.2</ele>
        <time>2021-11-23T13:10:36Z</time>
      </trkpt>
      <trkpt lat="46.64092" lon="6.04726">
        <ele>895.6</ele>
        <time>2021-11-23T13:10:41Z</time>
      </trkpt>
      <trkpt lat="46.64098" lon="6.04724">
        <ele>895.8</ele>
        <time>2021-11-23T13:10:48Z</time>
      </trkpt>
      <trkpt lat="46.64102" lon="6.04722">
        <ele>895.1</ele>
        <time>2021-11-23T13:10:54Z</time>
      </trkpt>
      <trkpt lat="46.64107" lon="6.0472">
        <ele>894.3</ele>
        <time>2021-11-23T13:11:01Z</time>
      </trkpt>
      <trkpt lat="46.64112" lon="6.0472">
        <ele>894</ele>
        <time>2021-11-23T13:11:05Z</time>
      </trkpt>
      <trkpt lat="46.64117" lon="6.0472">
        <ele>893.1</ele>
        <time>2021-11-23T13:11:10Z</time>
      </trkpt>
      <trkpt lat="46.64122" lon="6.04719">
        <ele>891.9</ele>
        <time>2021-11-23T13:11:16Z</time>
      </trkpt>
      <trkpt lat="46.64127" lon="6.04718">
        <ele>891.5</ele>
        <time>2021-11-23T13:11:20Z</time>
      </trkpt>
      <trkpt lat="46.64131" lon="6.04718">
        <ele>891</ele>
        <time>2021-11-23T13:11:24Z</time>
      </trkpt>
      <trkpt lat="46.64136" lon="6.04719">
        <ele>891.1</ele>
        <time>2021-11-23T13:11:29Z</time>
      </trkpt>
      <trkpt lat="46.64141" lon="6.04721">
        <ele>891.1</ele>
        <time>2021-11-23T13:11:33Z</time>
      </trkpt>
      <trkpt lat="46.64145" lon="6.04724">
        <ele>891.6</ele>
        <time>2021-11-23T13:11:38Z</time>
      </trkpt>
      <trkpt lat="46.64149" lon="6.04728">
        <ele>891.6</ele>
        <time>2021-11-23T13:11:42Z</time>
      </trkpt>
      <trkpt lat="46.6415" lon="6.04735">
        <ele>890.4</ele>
        <time>2021-11-23T13:11:50Z</time>
      </trkpt>
      <trkpt lat="46.64152" lon="6.04741">
        <ele>888.8</ele>
        <time>2021-11-23T13:11:57Z</time>
      </trkpt>
      <trkpt lat="46.64154" lon="6.04748">
        <ele>887.4</ele>
        <time>2021-11-23T13:12:02Z</time>
      </trkpt>
      <trkpt lat="46.64156" lon="6.04756">
        <ele>886.2</ele>
        <time>2021-11-23T13:12:07Z</time>
      </trkpt>
      <trkpt lat="46.64158" lon="6.04762">
        <ele>885.7</ele>
        <time>2021-11-23T13:12:12Z</time>
      </trkpt>
      <trkpt lat="46.64159" lon="6.04769">
        <ele>885.5</ele>
        <time>2021-11-23T13:12:17Z</time>
      </trkpt>
      <trkpt lat="46.6416" lon="6.04777">
        <ele>885.6</ele>
        <time>2021-11-23T13:12:22Z</time>
      </trkpt>
      <trkpt lat="46.6416" lon="6.04785">
        <ele>885</ele>
        <time>2021-11-23T13:12:27Z</time>
      </trkpt>
      <trkpt lat="46.64161" lon="6.04791">
        <ele>884.1</ele>
        <time>2021-11-23T13:12:32Z</time>
      </trkpt>
      <trkpt lat="46.64163" lon="6.04799">
        <ele>882.8</ele>
        <time>2021-11-23T13:12:37Z</time>
      </trkpt>
      <trkpt lat="46.64165" lon="6.04805">
        <ele>881.5</ele>
        <time>2021-11-23T13:12:41Z</time>
      </trkpt>
      <trkpt lat="46.64167" lon="6.04812">
        <ele>880.4</ele>
        <time>2021-11-23T13:12:46Z</time>
      </trkpt>
      <trkpt lat="46.64168" lon="6.0482">
        <ele>879.5</ele>
        <time>2021-11-23T13:12:51Z</time>
      </trkpt>
      <trkpt lat="46.64169" lon="6.04827">
        <ele>878.5</ele>
        <time>2021-11-23T13:12:55Z</time>
      </trkpt>
      <trkpt lat="46.6417" lon="6.04834">
        <ele>877.6</ele>
        <time>2021-11-23T13:13:00Z</time>
      </trkpt>
      <trkpt lat="46.64172" lon="6.04841">
        <ele>877.1</ele>
        <time>2021-11-23T13:13:05Z</time>
      </trkpt>
      <trkpt lat="46.64174" lon="6.04846">
        <ele>876.9</ele>
        <time>2021-11-23T13:13:10Z</time>
      </trkpt>
      <trkpt lat="46.64177" lon="6.04853">
        <ele>876.3</ele>
        <time>2021-11-23T13:13:15Z</time>
      </trkpt>
      <trkpt lat="46.6418" lon="6.04858">
        <ele>875.4</ele>
        <time>2021-11-23T13:13:21Z</time>
      </trkpt>
      <trkpt lat="46.64181" lon="6.04865">
        <ele>874.5</ele>
        <time>2021-11-23T13:13:26Z</time>
      </trkpt>
      <trkpt lat="46.64183" lon="6.04871">
        <ele>872.8</ele>
        <time>2021-11-23T13:13:31Z</time>
      </trkpt>
      <trkpt lat="46.64186" lon="6.04878">
        <ele>871</ele>
        <time>2021-11-23T13:13:36Z</time>
      </trkpt>
      <trkpt lat="46.64187" lon="6.04886">
        <ele>869.1</ele>
        <time>2021-11-23T13:13:42Z</time>
      </trkpt>
      <trkpt lat="46.64189" lon="6.04892">
        <ele>867.6</ele>
        <time>2021-11-23T13:13:47Z</time>
      </trkpt>
      <trkpt lat="46.6419" lon="6.04899">
        <ele>866.3</ele>
        <time>2021-11-23T13:13:51Z</time>
      </trkpt>
      <trkpt lat="46.64192" lon="6.04905">
        <ele>865.1</ele>
        <time>2021-11-23T13:13:55Z</time>
      </trkpt>
      <trkpt lat="46.64195" lon="6.04912">
        <ele>863.7</ele>
        <time>2021-11-23T13:14:00Z</time>
      </trkpt>
      <trkpt lat="46.64199" lon="6.04917">
        <ele>863.2</ele>
        <time>2021-11-23T13:14:04Z</time>
      </trkpt>
      <trkpt lat="46.64203" lon="6.0492">
        <ele>862.8</ele>
        <time>2021-11-23T13:14:09Z</time>
      </trkpt>
      <trkpt lat="46.64208" lon="6.04921">
        <ele>862.4</ele>
        <time>2021-11-23T13:14:13Z</time>
      </trkpt>
      <trkpt lat="46.64212" lon="6.04919">
        <ele>861.7</ele>
        <time>2021-11-23T13:14:19Z</time>
      </trkpt>
      <trkpt lat="46.64216" lon="6.04915">
        <ele>861.3</ele>
        <time>2021-11-23T13:14:25Z</time>
      </trkpt>
      <trkpt lat="46.6422" lon="6.04912">
        <ele>861.1</ele>
        <time>2021-11-23T13:14:29Z</time>
      </trkpt>
      <trkpt lat="46.64223" lon="6.04906">
        <ele>861</ele>
        <time>2021-11-23T13:14:34Z</time>
      </trkpt>
      <trkpt lat="46.64227" lon="6.04901">
        <ele>860.4</ele>
        <time>2021-11-23T13:14:40Z</time>
      </trkpt>
      <trkpt lat="46.64231" lon="6.04896">
        <ele>860.4</ele>
        <time>2021-11-23T13:14:45Z</time>
      </trkpt>
      <trkpt lat="46.64235" lon="6.04892">
        <ele>860.4</ele>
        <time>2021-11-23T13:14:49Z</time>
      </trkpt>
      <trkpt lat="46.64239" lon="6.04887">
        <ele>860.2</ele>
        <time>2021-11-23T13:14:54Z</time>
      </trkpt>
      <trkpt lat="46.64243" lon="6.04883">
        <ele>859.9</ele>
        <time>2021-11-23T13:14:59Z</time>
      </trkpt>
      <trkpt lat="46.64247" lon="6.0488">
        <ele>860</ele>
        <time>2021-11-23T13:15:04Z</time>
      </trkpt>
      <trkpt lat="46.64252" lon="6.04879">
        <ele>860.1</ele>
        <time>2021-11-23T13:15:08Z</time>
      </trkpt>
      <trkpt lat="46.64256" lon="6.04876">
        <ele>860</ele>
        <time>2021-11-23T13:15:13Z</time>
      </trkpt>
      <trkpt lat="46.64261" lon="6.04873">
        <ele>858.7</ele>
        <time>2021-11-23T13:15:18Z</time>
      </trkpt>
      <trkpt lat="46.64266" lon="6.04871">
        <ele>856.9</ele>
        <time>2021-11-23T13:15:23Z</time>
      </trkpt>
      <trkpt lat="46.6427" lon="6.04868">
        <ele>855.7</ele>
        <time>2021-11-23T13:15:27Z</time>
      </trkpt>
      <trkpt lat="46.64276" lon="6.04866">
        <ele>854.6</ele>
        <time>2021-11-23T13:15:32Z</time>
      </trkpt>
      <trkpt lat="46.64281" lon="6.04864">
        <ele>853.8</ele>
        <time>2021-11-23T13:15:37Z</time>
      </trkpt>
      <trkpt lat="46.64285" lon="6.04859">
        <ele>853.3</ele>
        <time>2021-11-23T13:15:43Z</time>
      </trkpt>
      <trkpt lat="46.64289" lon="6.04855">
        <ele>853</ele>
        <time>2021-11-23T13:15:49Z</time>
      </trkpt>
      <trkpt lat="46.64293" lon="6.04852">
        <ele>852.9</ele>
        <time>2021-11-23T13:15:54Z</time>
      </trkpt>
      <trkpt lat="46.64296" lon="6.04845">
        <ele>852.7</ele>
        <time>2021-11-23T13:15:59Z</time>
      </trkpt>
      <trkpt lat="46.643" lon="6.0484">
        <ele>852.6</ele>
        <time>2021-11-23T13:16:04Z</time>
      </trkpt>
      <trkpt lat="46.64305" lon="6.04837">
        <ele>852.3</ele>
        <time>2021-11-23T13:16:08Z</time>
      </trkpt>
      <trkpt lat="46.64309" lon="6.04836">
        <ele>851.5</ele>
        <time>2021-11-23T13:16:12Z</time>
      </trkpt>
      <trkpt lat="46.64314" lon="6.04836">
        <ele>849.8</ele>
        <time>2021-11-23T13:16:18Z</time>
      </trkpt>
      <trkpt lat="46.64318" lon="6.04837">
        <ele>848.4</ele>
        <time>2021-11-23T13:16:23Z</time>
      </trkpt>
      <trkpt lat="46.64323" lon="6.04837">
        <ele>847.3</ele>
        <time>2021-11-23T13:16:29Z</time>
      </trkpt>
      <trkpt lat="46.64328" lon="6.04838">
        <ele>846.6</ele>
        <time>2021-11-23T13:16:34Z</time>
      </trkpt>
      <trkpt lat="46.64333" lon="6.04839">
        <ele>845.8</ele>
        <time>2021-11-23T13:16:40Z</time>
      </trkpt>
      <trkpt lat="46.64338" lon="6.04841">
        <ele>844.6</ele>
        <time>2021-11-23T13:16:45Z</time>
      </trkpt>
      <trkpt lat="46.64343" lon="6.04843">
        <ele>843.7</ele>
        <time>2021-11-23T13:16:50Z</time>
      </trkpt>
      <trkpt lat="46.64348" lon="6.04844">
        <ele>843.3</ele>
        <time>2021-11-23T13:16:56Z</time>
      </trkpt>
      <trkpt lat="46.64353" lon="6.04845">
        <ele>843.7</ele>
        <time>2021-11-23T13:17:02Z</time>
      </trkpt>
      <trkpt lat="46.64358" lon="6.04845">
        <ele>844.2</ele>
        <time>2021-11-23T13:17:07Z</time>
      </trkpt>
      <trkpt lat="46.64363" lon="6.04848">
        <ele>844.6</ele>
        <time>2021-11-23T13:17:12Z</time>
      </trkpt>
      <trkpt lat="46.64368" lon="6.04848">
        <ele>844.7</ele>
        <time>2021-11-23T13:17:17Z</time>
      </trkpt>
      <trkpt lat="46.64373" lon="6.04848">
        <ele>844.8</ele>
        <time>2021-11-23T13:17:22Z</time>
      </trkpt>
      <trkpt lat="46.64378" lon="6.04849">
        <ele>845.2</ele>
        <time>2021-11-23T13:17:27Z</time>
      </trkpt>
      <trkpt lat="46.64383" lon="6.04852">
        <ele>845.3</ele>
        <time>2021-11-23T13:17:32Z</time>
      </trkpt>
      <trkpt lat="46.64386" lon="6.04858">
        <ele>845.2</ele>
        <time>2021-11-23T13:17:37Z</time>
      </trkpt>
      <trkpt lat="46.64388" lon="6.04865">
        <ele>845.1</ele>
        <time>2021-11-23T13:17:41Z</time>
      </trkpt>
      <trkpt lat="46.6439" lon="6.04871">
        <ele>845</ele>
        <time>2021-11-23T13:17:45Z</time>
      </trkpt>
      <trkpt lat="46.64391" lon="6.04877">
        <ele>845.2</ele>
        <time>2021-11-23T13:17:50Z</time>
      </trkpt>
      <trkpt lat="46.64391" lon="6.04885">
        <ele>845.8</ele>
        <time>2021-11-23T13:17:56Z</time>
      </trkpt>
      <trkpt lat="46.64389" lon="6.04891">
        <ele>845.8</ele>
        <time>2021-11-23T13:18:02Z</time>
      </trkpt>
      <trkpt lat="46.64389" lon="6.04899">
        <ele>845.3</ele>
        <time>2021-11-23T13:18:07Z</time>
      </trkpt>
      <trkpt lat="46.64389" lon="6.04906">
        <ele>844.7</ele>
        <time>2021-11-23T13:18:12Z</time>
      </trkpt>
      <trkpt lat="46.64391" lon="6.04914">
        <ele>844.3</ele>
        <time>2021-11-23T13:18:17Z</time>
      </trkpt>
      <trkpt lat="46.64391" lon="6.04921">
        <ele>844.2</ele>
        <time>2021-11-23T13:18:22Z</time>
      </trkpt>
      <trkpt lat="46.64392" lon="6.04928">
        <ele>844</ele>
        <time>2021-11-23T13:18:26Z</time>
      </trkpt>
      <trkpt lat="46.64394" lon="6.04936">
        <ele>843.5</ele>
        <time>2021-11-23T13:18:31Z</time>
      </trkpt>
      <trkpt lat="46.64396" lon="6.04942">
        <ele>842</ele>
        <time>2021-11-23T13:18:37Z</time>
      </trkpt>
      <trkpt lat="46.64399" lon="6.04947">
        <ele>840.8</ele>
        <time>2021-11-23T13:18:42Z</time>
      </trkpt>
      <trkpt lat="46.64402" lon="6.04952">
        <ele>839.5</ele>
        <time>2021-11-23T13:18:48Z</time>
      </trkpt>
      <trkpt lat="46.64405" lon="6.04956">
        <ele>838.5</ele>
        <time>2021-11-23T13:18:52Z</time>
      </trkpt>
      <trkpt lat="46.6441" lon="6.04958">
        <ele>837.5</ele>
        <time>2021-11-23T13:18:56Z</time>
      </trkpt>
      <trkpt lat="46.64415" lon="6.0496">
        <ele>836.6</ele>
        <time>2021-11-23T13:19:00Z</time>
      </trkpt>
      <trkpt lat="46.6442" lon="6.04963">
        <ele>836.3</ele>
        <time>2021-11-23T13:19:07Z</time>
      </trkpt>
      <trkpt lat="46.64424" lon="6.04966">
        <ele>836.2</ele>
        <time>2021-11-23T13:19:11Z</time>
      </trkpt>
      <trkpt lat="46.64429" lon="6.04968">
        <ele>836.4</ele>
        <time>2021-11-23T13:19:17Z</time>
      </trkpt>
      <trkpt lat="46.64434" lon="6.04969">
        <ele>837.5</ele>
        <time>2021-11-23T13:19:22Z</time>
      </trkpt>
      <trkpt lat="46.6444" lon="6.0497">
        <ele>839.1</ele>
        <time>2021-11-23T13:19:27Z</time>
      </trkpt>
      <trkpt lat="46.64444" lon="6.04968">
        <ele>840.8</ele>
        <time>2021-11-23T13:19:34Z</time>
      </trkpt>
      <trkpt lat="46.64449" lon="6.04966">
        <ele>842.1</ele>
        <time>2021-11-23T13:19:41Z</time>
      </trkpt>
      <trkpt lat="46.64455" lon="6.04967">
        <ele>842.5</ele>
        <time>2021-11-23T13:19:46Z</time>
      </trkpt>
      <trkpt lat="46.6446" lon="6.04965">
        <ele>842.9</ele>
        <time>2021-11-23T13:19:50Z</time>
      </trkpt>
      <trkpt lat="46.64464" lon="6.04962">
        <ele>843.5</ele>
        <time>2021-11-23T13:19:55Z</time>
      </trkpt>
      <trkpt lat="46.64469" lon="6.0496">
        <ele>843.6</ele>
        <time>2021-11-23T13:20:00Z</time>
      </trkpt>
      <trkpt lat="46.64474" lon="6.04957">
        <ele>843.4</ele>
        <time>2021-11-23T13:20:06Z</time>
      </trkpt>
      <trkpt lat="46.64478" lon="6.04952">
        <ele>843.2</ele>
        <time>2021-11-23T13:20:10Z</time>
      </trkpt>
      <trkpt lat="46.6448" lon="6.04946">
        <ele>842.9</ele>
        <time>2021-11-23T13:20:14Z</time>
      </trkpt>
      <trkpt lat="46.64483" lon="6.0494">
        <ele>842.7</ele>
        <time>2021-11-23T13:20:18Z</time>
      </trkpt>
      <trkpt lat="46.64487" lon="6.04935">
        <ele>842.7</ele>
        <time>2021-11-23T13:20:23Z</time>
      </trkpt>
      <trkpt lat="46.64492" lon="6.04931">
        <ele>843.2</ele>
        <time>2021-11-23T13:20:27Z</time>
      </trkpt>
      <trkpt lat="46.64497" lon="6.04929">
        <ele>843.6</ele>
        <time>2021-11-23T13:20:32Z</time>
      </trkpt>
      <trkpt lat="46.64501" lon="6.04932">
        <ele>843.3</ele>
        <time>2021-11-23T13:20:36Z</time>
      </trkpt>
      <trkpt lat="46.64506" lon="6.04934">
        <ele>842.7</ele>
        <time>2021-11-23T13:20:40Z</time>
      </trkpt>
      <trkpt lat="46.6451" lon="6.04938">
        <ele>842</ele>
        <time>2021-11-23T13:20:44Z</time>
      </trkpt>
      <trkpt lat="46.64514" lon="6.04943">
        <ele>840.9</ele>
        <time>2021-11-23T13:20:48Z</time>
      </trkpt>
      <trkpt lat="46.64517" lon="6.04949">
        <ele>839.1</ele>
        <time>2021-11-23T13:20:53Z</time>
      </trkpt>
      <trkpt lat="46.64521" lon="6.04953">
        <ele>837.3</ele>
        <time>2021-11-23T13:20:57Z</time>
      </trkpt>
      <trkpt lat="46.64525" lon="6.04958">
        <ele>835.8</ele>
        <time>2021-11-23T13:21:01Z</time>
      </trkpt>
      <trkpt lat="46.64528" lon="6.04963">
        <ele>834.4</ele>
        <time>2021-11-23T13:21:06Z</time>
      </trkpt>
      <trkpt lat="46.64529" lon="6.04971">
        <ele>833.5</ele>
        <time>2021-11-23T13:21:12Z</time>
      </trkpt>
      <trkpt lat="46.64531" lon="6.04979">
        <ele>833.1</ele>
        <time>2021-11-23T13:21:17Z</time>
      </trkpt>
      <trkpt lat="46.64534" lon="6.04985">
        <ele>832.4</ele>
        <time>2021-11-23T13:21:21Z</time>
      </trkpt>
      <trkpt lat="46.64536" lon="6.04991">
        <ele>832</ele>
        <time>2021-11-23T13:21:25Z</time>
      </trkpt>
      <trkpt lat="46.6454" lon="6.04996">
        <ele>831.9</ele>
        <time>2021-11-23T13:21:30Z</time>
      </trkpt>
      <trkpt lat="46.64543" lon="6.05001">
        <ele>831.9</ele>
        <time>2021-11-23T13:21:35Z</time>
      </trkpt>
      <trkpt lat="46.64547" lon="6.05006">
        <ele>831.9</ele>
        <time>2021-11-23T13:21:40Z</time>
      </trkpt>
      <trkpt lat="46.6455" lon="6.05012">
        <ele>832.4</ele>
        <time>2021-11-23T13:21:44Z</time>
      </trkpt>
      <trkpt lat="46.64554" lon="6.05017">
        <ele>832.7</ele>
        <time>2021-11-23T13:21:49Z</time>
      </trkpt>
      <trkpt lat="46.64558" lon="6.05022">
        <ele>832.7</ele>
        <time>2021-11-23T13:21:53Z</time>
      </trkpt>
      <trkpt lat="46.64562" lon="6.05027">
        <ele>832.4</ele>
        <time>2021-11-23T13:21:58Z</time>
      </trkpt>
      <trkpt lat="46.64564" lon="6.05034">
        <ele>832.3</ele>
        <time>2021-11-23T13:22:03Z</time>
      </trkpt>
      <trkpt lat="46.64568" lon="6.0504">
        <ele>832.3</ele>
        <time>2021-11-23T13:22:08Z</time>
      </trkpt>
      <trkpt lat="46.64572" lon="6.05045">
        <ele>832.2</ele>
        <time>2021-11-23T13:22:12Z</time>
      </trkpt>
      <trkpt lat="46.64573" lon="6.05053">
        <ele>832.3</ele>
        <time>2021-11-23T13:22:17Z</time>
      </trkpt>
      <trkpt lat="46.64576" lon="6.0506">
        <ele>832.2</ele>
        <time>2021-11-23T13:22:23Z</time>
      </trkpt>
      <trkpt lat="46.64579" lon="6.05065">
        <ele>832.3</ele>
        <time>2021-11-23T13:22:28Z</time>
      </trkpt>
      <trkpt lat="46.64581" lon="6.0507">
        <ele>832.6</ele>
        <time>2021-11-23T13:22:32Z</time>
      </trkpt>
      <trkpt lat="46.64585" lon="6.05076">
        <ele>832.7</ele>
        <time>2021-11-23T13:22:37Z</time>
      </trkpt>
      <trkpt lat="46.64589" lon="6.0508">
        <ele>832.8</ele>
        <time>2021-11-23T13:22:41Z</time>
      </trkpt>
      <trkpt lat="46.64592" lon="6.05086">
        <ele>833.5</ele>
        <time>2021-11-23T13:22:45Z</time>
      </trkpt>
      <trkpt lat="46.64594" lon="6.05091">
        <ele>833.9</ele>
        <time>2021-11-23T13:22:48Z</time>
      </trkpt>
      <trkpt lat="46.64597" lon="6.05097">
        <ele>834.4</ele>
        <time>2021-11-23T13:22:52Z</time>
      </trkpt>
      <trkpt lat="46.64599" lon="6.05103">
        <ele>834.9</ele>
        <time>2021-11-23T13:22:57Z</time>
      </trkpt>
      <trkpt lat="46.64602" lon="6.0511">
        <ele>835.2</ele>
        <time>2021-11-23T13:23:02Z</time>
      </trkpt>
      <trkpt lat="46.64604" lon="6.05115">
        <ele>835</ele>
        <time>2021-11-23T13:23:07Z</time>
      </trkpt>
      <trkpt lat="46.6461" lon="6.05115">
        <ele>835.4</ele>
        <time>2021-11-23T13:23:12Z</time>
      </trkpt>
      <trkpt lat="46.64615" lon="6.05115">
        <ele>836.1</ele>
        <time>2021-11-23T13:23:16Z</time>
      </trkpt>
      <trkpt lat="46.64621" lon="6.05114">
        <ele>836.8</ele>
        <time>2021-11-23T13:23:20Z</time>
      </trkpt>
      <trkpt lat="46.64626" lon="6.05114">
        <ele>837.4</ele>
        <time>2021-11-23T13:23:25Z</time>
      </trkpt>
      <trkpt lat="46.6463" lon="6.05117">
        <ele>838.4</ele>
        <time>2021-11-23T13:23:32Z</time>
      </trkpt>
      <trkpt lat="46.64635" lon="6.05121">
        <ele>839.7</ele>
        <time>2021-11-23T13:23:39Z</time>
      </trkpt>
      <trkpt lat="46.6464" lon="6.05123">
        <ele>840.6</ele>
        <time>2021-11-23T13:23:44Z</time>
      </trkpt>
      <trkpt lat="46.64644" lon="6.05124">
        <ele>841.3</ele>
        <time>2021-11-23T13:23:50Z</time>
      </trkpt>
      <trkpt lat="46.64649" lon="6.05128">
        <ele>842</ele>
        <time>2021-11-23T13:23:56Z</time>
      </trkpt>
      <trkpt lat="46.64652" lon="6.05133">
        <ele>841.8</ele>
        <time>2021-11-23T13:24:02Z</time>
      </trkpt>
      <trkpt lat="46.64653" lon="6.0514">
        <ele>841.3</ele>
        <time>2021-11-23T13:24:09Z</time>
      </trkpt>
      <trkpt lat="46.64656" lon="6.05146">
        <ele>841.3</ele>
        <time>2021-11-23T13:24:16Z</time>
      </trkpt>
      <trkpt lat="46.64658" lon="6.05153">
        <ele>841.5</ele>
        <time>2021-11-23T13:24:23Z</time>
      </trkpt>
      <trkpt lat="46.64661" lon="6.05158">
        <ele>842.3</ele>
        <time>2021-11-23T13:24:29Z</time>
      </trkpt>
      <trkpt lat="46.64664" lon="6.05164">
        <ele>842.5</ele>
        <time>2021-11-23T13:24:34Z</time>
      </trkpt>
      <trkpt lat="46.64667" lon="6.0517">
        <ele>843</ele>
        <time>2021-11-23T13:24:39Z</time>
      </trkpt>
      <trkpt lat="46.64671" lon="6.05174">
        <ele>843.6</ele>
        <time>2021-11-23T13:24:44Z</time>
      </trkpt>
      <trkpt lat="46.64675" lon="6.05178">
        <ele>844.6</ele>
        <time>2021-11-23T13:24:49Z</time>
      </trkpt>
      <trkpt lat="46.6468" lon="6.05181">
        <ele>845.8</ele>
        <time>2021-11-23T13:24:54Z</time>
      </trkpt>
      <trkpt lat="46.64685" lon="6.05183">
        <ele>846.9</ele>
        <time>2021-11-23T13:24:59Z</time>
      </trkpt>
      <trkpt lat="46.64689" lon="6.05185">
        <ele>848</ele>
        <time>2021-11-23T13:25:04Z</time>
      </trkpt>
      <trkpt lat="46.64694" lon="6.05184">
        <ele>848.9</ele>
        <time>2021-11-23T13:25:09Z</time>
      </trkpt>
      <trkpt lat="46.64698" lon="6.05188">
        <ele>850.1</ele>
        <time>2021-11-23T13:25:18Z</time>
      </trkpt>
      <trkpt lat="46.64703" lon="6.05191">
        <ele>852.5</ele>
        <time>2021-11-23T13:25:26Z</time>
      </trkpt>
      <trkpt lat="46.64707" lon="6.05192">
        <ele>854</ele>
        <time>2021-11-23T13:25:31Z</time>
      </trkpt>
      <trkpt lat="46.64712" lon="6.05194">
        <ele>855.6</ele>
        <time>2021-11-23T13:25:37Z</time>
      </trkpt>
      <trkpt lat="46.64717" lon="6.05194">
        <ele>856.8</ele>
        <time>2021-11-23T13:25:43Z</time>
      </trkpt>
      <trkpt lat="46.64722" lon="6.05197">
        <ele>858</ele>
        <time>2021-11-23T13:25:50Z</time>
      </trkpt>
      <trkpt lat="46.64727" lon="6.05199">
        <ele>859</ele>
        <time>2021-11-23T13:25:56Z</time>
      </trkpt>
      <trkpt lat="46.64731" lon="6.052">
        <ele>859.8</ele>
        <time>2021-11-23T13:26:01Z</time>
      </trkpt>
      <trkpt lat="46.64736" lon="6.052">
        <ele>860.3</ele>
        <time>2021-11-23T13:26:08Z</time>
      </trkpt>
      <trkpt lat="46.64741" lon="6.052">
        <ele>860.1</ele>
        <time>2021-11-23T13:26:14Z</time>
      </trkpt>
      <trkpt lat="46.64746" lon="6.05201">
        <ele>860.4</ele>
        <time>2021-11-23T13:26:19Z</time>
      </trkpt>
      <trkpt lat="46.64751" lon="6.05199">
        <ele>860.3</ele>
        <time>2021-11-23T13:26:26Z</time>
      </trkpt>
      <trkpt lat="46.64755" lon="6.05199">
        <ele>860.1</ele>
        <time>2021-11-23T13:26:30Z</time>
      </trkpt>
      <trkpt lat="46.6476" lon="6.052">
        <ele>859.3</ele>
        <time>2021-11-23T13:26:36Z</time>
      </trkpt>
      <trkpt lat="46.64765" lon="6.05201">
        <ele>859.1</ele>
        <time>2021-11-23T13:26:42Z</time>
      </trkpt>
      <trkpt lat="46.6477" lon="6.05203">
        <ele>859.7</ele>
        <time>2021-11-23T13:26:47Z</time>
      </trkpt>
      <trkpt lat="46.64774" lon="6.05204">
        <ele>862</ele>
        <time>2021-11-23T13:26:56Z</time>
      </trkpt>
      <trkpt lat="46.64777" lon="6.0521">
        <ele>869.4</ele>
        <time>2021-11-23T13:27:36Z</time>
      </trkpt>
      <trkpt lat="46.64781" lon="6.05213">
        <ele>872.7</ele>
        <time>2021-11-23T13:28:05Z</time>
      </trkpt>
      <trkpt lat="46.64787" lon="6.05217">
        <ele>872.2</ele>
        <time>2021-11-23T13:28:16Z</time>
      </trkpt>
      <trkpt lat="46.64791" lon="6.05221">
        <ele>871.4</ele>
        <time>2021-11-23T13:28:20Z</time>
      </trkpt>
      <trkpt lat="46.64793" lon="6.05227">
        <ele>870</ele>
        <time>2021-11-23T13:28:25Z</time>
      </trkpt>
      <trkpt lat="46.64796" lon="6.05231">
        <ele>868.9</ele>
        <time>2021-11-23T13:28:29Z</time>
      </trkpt>
      <trkpt lat="46.64798" lon="6.05237">
        <ele>865.6</ele>
        <time>2021-11-23T13:28:37Z</time>
      </trkpt>
      <trkpt lat="46.64797" lon="6.05244">
        <ele>863.4</ele>
        <time>2021-11-23T13:28:42Z</time>
      </trkpt>
      <trkpt lat="46.64797" lon="6.0525">
        <ele>862.4</ele>
        <time>2021-11-23T13:28:47Z</time>
      </trkpt>
      <trkpt lat="46.64798" lon="6.05258">
        <ele>861.7</ele>
        <time>2021-11-23T13:28:53Z</time>
      </trkpt>
      <trkpt lat="46.648" lon="6.05264">
        <ele>861.3</ele>
        <time>2021-11-23T13:28:59Z</time>
      </trkpt>
      <trkpt lat="46.64803" lon="6.05269">
        <ele>861.4</ele>
        <time>2021-11-23T13:29:06Z</time>
      </trkpt>
      <trkpt lat="46.64806" lon="6.05276">
        <ele>862.6</ele>
        <time>2021-11-23T13:29:11Z</time>
      </trkpt>
      <trkpt lat="46.64809" lon="6.05282">
        <ele>864.7</ele>
        <time>2021-11-23T13:29:17Z</time>
      </trkpt>
      <trkpt lat="46.64812" lon="6.05289">
        <ele>866.4</ele>
        <time>2021-11-23T13:29:24Z</time>
      </trkpt>
      <trkpt lat="46.64815" lon="6.05294">
        <ele>866.8</ele>
        <time>2021-11-23T13:29:28Z</time>
      </trkpt>
      <trkpt lat="46.64817" lon="6.053">
        <ele>867.6</ele>
        <time>2021-11-23T13:29:37Z</time>
      </trkpt>
      <trkpt lat="46.64821" lon="6.05304">
        <ele>871.1</ele>
        <time>2021-11-23T13:30:11Z</time>
      </trkpt>
      <trkpt lat="46.64824" lon="6.05309">
        <ele>872.5</ele>
        <time>2021-11-23T13:30:17Z</time>
      </trkpt>
      <trkpt lat="46.64827" lon="6.05315">
        <ele>873.3</ele>
        <time>2021-11-23T13:30:25Z</time>
      </trkpt>
      <trkpt lat="46.64829" lon="6.05321">
        <ele>873.9</ele>
        <time>2021-11-23T13:30:31Z</time>
      </trkpt>
      <trkpt lat="46.64833" lon="6.05325">
        <ele>875.1</ele>
        <time>2021-11-23T13:30:38Z</time>
      </trkpt>
      <trkpt lat="46.64835" lon="6.05332">
        <ele>876.3</ele>
        <time>2021-11-23T13:30:44Z</time>
      </trkpt>
      <trkpt lat="46.64839" lon="6.05336">
        <ele>877.7</ele>
        <time>2021-11-23T13:30:51Z</time>
      </trkpt>
      <trkpt lat="46.64842" lon="6.05342">
        <ele>879</ele>
        <time>2021-11-23T13:31:01Z</time>
      </trkpt>
      <trkpt lat="46.64846" lon="6.05346">
        <ele>879.3</ele>
        <time>2021-11-23T13:31:06Z</time>
      </trkpt>
      <trkpt lat="46.64849" lon="6.05351">
        <ele>879.3</ele>
        <time>2021-11-23T13:31:10Z</time>
      </trkpt>
      <trkpt lat="46.64852" lon="6.05357">
        <ele>879.1</ele>
        <time>2021-11-23T13:31:15Z</time>
      </trkpt>
      <trkpt lat="46.64856" lon="6.05362">
        <ele>878.6</ele>
        <time>2021-11-23T13:31:20Z</time>
      </trkpt>
      <trkpt lat="46.64859" lon="6.05367">
        <ele>878.1</ele>
        <time>2021-11-23T13:31:25Z</time>
      </trkpt>
      <trkpt lat="46.64862" lon="6.05374">
        <ele>877.6</ele>
        <time>2021-11-23T13:31:30Z</time>
      </trkpt>
      <trkpt lat="46.64865" lon="6.05378">
        <ele>877.4</ele>
        <time>2021-11-23T13:31:36Z</time>
      </trkpt>
      <trkpt lat="46.64869" lon="6.05383">
        <ele>877.3</ele>
        <time>2021-11-23T13:31:42Z</time>
      </trkpt>
      <trkpt lat="46.64872" lon="6.05389">
        <ele>877.3</ele>
        <time>2021-11-23T13:31:47Z</time>
      </trkpt>
      <trkpt lat="46.64875" lon="6.05394">
        <ele>877.7</ele>
        <time>2021-11-23T13:31:52Z</time>
      </trkpt>
      <trkpt lat="46.64878" lon="6.054">
        <ele>878.4</ele>
        <time>2021-11-23T13:31:57Z</time>
      </trkpt>
      <trkpt lat="46.64884" lon="6.05403">
        <ele>879.5</ele>
        <time>2021-11-23T13:32:03Z</time>
      </trkpt>
      <trkpt lat="46.64888" lon="6.05405">
        <ele>880.5</ele>
        <time>2021-11-23T13:32:07Z</time>
      </trkpt>
      <trkpt lat="46.64893" lon="6.05407">
        <ele>882.3</ele>
        <time>2021-11-23T13:32:13Z</time>
      </trkpt>
      <trkpt lat="46.64898" lon="6.0541">
        <ele>883.4</ele>
        <time>2021-11-23T13:32:19Z</time>
      </trkpt>
      <trkpt lat="46.64902" lon="6.05414">
        <ele>883.8</ele>
        <time>2021-11-23T13:32:24Z</time>
      </trkpt>
      <trkpt lat="46.64907" lon="6.05416">
        <ele>883.2</ele>
        <time>2021-11-23T13:32:30Z</time>
      </trkpt>
      <trkpt lat="46.64912" lon="6.05419">
        <ele>882.8</ele>
        <time>2021-11-23T13:32:35Z</time>
      </trkpt>
      <trkpt lat="46.64914" lon="6.05424">
        <ele>882.5</ele>
        <time>2021-11-23T13:32:40Z</time>
      </trkpt>
      <trkpt lat="46.64917" lon="6.0543">
        <ele>881.6</ele>
        <time>2021-11-23T13:32:49Z</time>
      </trkpt>
      <trkpt lat="46.64918" lon="6.05437">
        <ele>881.1</ele>
        <time>2021-11-23T13:32:55Z</time>
      </trkpt>
      <trkpt lat="46.6492" lon="6.05443">
        <ele>880.7</ele>
        <time>2021-11-23T13:33:03Z</time>
      </trkpt>
      <trkpt lat="46.64925" lon="6.05447">
        <ele>882.3</ele>
        <time>2021-11-23T13:34:05Z</time>
      </trkpt>
      <trkpt lat="46.6493" lon="6.05449">
        <ele>886.4</ele>
        <time>2021-11-23T13:34:26Z</time>
      </trkpt>
      <trkpt lat="46.64933" lon="6.05453">
        <ele>886.5</ele>
        <time>2021-11-23T13:34:31Z</time>
      </trkpt>
      <trkpt lat="46.64936" lon="6.05459">
        <ele>886.5</ele>
        <time>2021-11-23T13:34:36Z</time>
      </trkpt>
      <trkpt lat="46.64937" lon="6.05466">
        <ele>886.9</ele>
        <time>2021-11-23T13:34:42Z</time>
      </trkpt>
      <trkpt lat="46.6494" lon="6.05472">
        <ele>887</ele>
        <time>2021-11-23T13:34:48Z</time>
      </trkpt>
      <trkpt lat="46.64941" lon="6.05479">
        <ele>887.1</ele>
        <time>2021-11-23T13:34:54Z</time>
      </trkpt>
      <trkpt lat="46.64944" lon="6.05486">
        <ele>887</ele>
        <time>2021-11-23T13:35:00Z</time>
      </trkpt>
      <trkpt lat="46.64948" lon="6.0549">
        <ele>887.2</ele>
        <time>2021-11-23T13:35:05Z</time>
      </trkpt>
      <trkpt lat="46.64952" lon="6.05494">
        <ele>887.4</ele>
        <time>2021-11-23T13:35:10Z</time>
      </trkpt>
      <trkpt lat="46.64955" lon="6.05499">
        <ele>887.9</ele>
        <time>2021-11-23T13:35:15Z</time>
      </trkpt>
      <trkpt lat="46.6496" lon="6.05499">
        <ele>888.9</ele>
        <time>2021-11-23T13:35:24Z</time>
      </trkpt>
      <trkpt lat="46.6496" lon="6.05506">
        <ele>889.9</ele>
        <time>2021-11-23T13:35:56Z</time>
      </trkpt>
      <trkpt lat="46.64962" lon="6.05513">
        <ele>889.7</ele>
        <time>2021-11-23T13:36:05Z</time>
      </trkpt>
      <trkpt lat="46.64965" lon="6.05518">
        <ele>889.6</ele>
        <time>2021-11-23T13:36:10Z</time>
      </trkpt>
      <trkpt lat="46.64967" lon="6.05524">
        <ele>889</ele>
        <time>2021-11-23T13:36:15Z</time>
      </trkpt>
      <trkpt lat="46.6497" lon="6.0553">
        <ele>888.5</ele>
        <time>2021-11-23T13:36:21Z</time>
      </trkpt>
      <trkpt lat="46.64974" lon="6.05535">
        <ele>888.7</ele>
        <time>2021-11-23T13:36:27Z</time>
      </trkpt>
      <trkpt lat="46.64977" lon="6.0554">
        <ele>888.7</ele>
        <time>2021-11-23T13:36:33Z</time>
      </trkpt>
      <trkpt lat="46.6498" lon="6.05547">
        <ele>888.3</ele>
        <time>2021-11-23T13:36:38Z</time>
      </trkpt>
      <trkpt lat="46.64983" lon="6.05553">
        <ele>888.1</ele>
        <time>2021-11-23T13:36:44Z</time>
      </trkpt>
      <trkpt lat="46.64985" lon="6.05559">
        <ele>888.4</ele>
        <time>2021-11-23T13:36:50Z</time>
      </trkpt>
      <trkpt lat="46.64988" lon="6.05565">
        <ele>889.2</ele>
        <time>2021-11-23T13:36:55Z</time>
      </trkpt>
      <trkpt lat="46.64991" lon="6.05571">
        <ele>890</ele>
        <time>2021-11-23T13:37:00Z</time>
      </trkpt>
      <trkpt lat="46.64993" lon="6.05577">
        <ele>890.7</ele>
        <time>2021-11-23T13:37:04Z</time>
      </trkpt>
      <trkpt lat="46.64997" lon="6.05582">
        <ele>891.4</ele>
        <time>2021-11-23T13:37:08Z</time>
      </trkpt>
      <trkpt lat="46.64998" lon="6.05589">
        <ele>892.3</ele>
        <time>2021-11-23T13:37:14Z</time>
      </trkpt>
      <trkpt lat="46.65" lon="6.05595">
        <ele>893</ele>
        <time>2021-11-23T13:37:19Z</time>
      </trkpt>
      <trkpt lat="46.65003" lon="6.05601">
        <ele>893.5</ele>
        <time>2021-11-23T13:37:24Z</time>
      </trkpt>
      <trkpt lat="46.65005" lon="6.05609">
        <ele>893.9</ele>
        <time>2021-11-23T13:37:29Z</time>
      </trkpt>
      <trkpt lat="46.65008" lon="6.05615">
        <ele>894.7</ele>
        <time>2021-11-23T13:37:34Z</time>
      </trkpt>
      <trkpt lat="46.65011" lon="6.0562">
        <ele>895.5</ele>
        <time>2021-11-23T13:37:39Z</time>
      </trkpt>
      <trkpt lat="46.65013" lon="6.05626">
        <ele>895.5</ele>
        <time>2021-11-23T13:37:44Z</time>
      </trkpt>
      <trkpt lat="46.65015" lon="6.05634">
        <ele>895.3</ele>
        <time>2021-11-23T13:37:49Z</time>
      </trkpt>
      <trkpt lat="46.65017" lon="6.05641">
        <ele>895.1</ele>
        <time>2021-11-23T13:37:53Z</time>
      </trkpt>
      <trkpt lat="46.6502" lon="6.05647">
        <ele>894.4</ele>
        <time>2021-11-23T13:37:57Z</time>
      </trkpt>
      <trkpt lat="46.6502" lon="6.05654">
        <ele>893.8</ele>
        <time>2021-11-23T13:38:02Z</time>
      </trkpt>
      <trkpt lat="46.65021" lon="6.05661">
        <ele>893.6</ele>
        <time>2021-11-23T13:38:07Z</time>
      </trkpt>
      <trkpt lat="46.65023" lon="6.05668">
        <ele>893.2</ele>
        <time>2021-11-23T13:38:12Z</time>
      </trkpt>
      <trkpt lat="46.65026" lon="6.05674">
        <ele>893.2</ele>
        <time>2021-11-23T13:38:16Z</time>
      </trkpt>
      <trkpt lat="46.65029" lon="6.05679">
        <ele>893.3</ele>
        <time>2021-11-23T13:38:20Z</time>
      </trkpt>
      <trkpt lat="46.65031" lon="6.05686">
        <ele>893.3</ele>
        <time>2021-11-23T13:38:26Z</time>
      </trkpt>
      <trkpt lat="46.65034" lon="6.05693">
        <ele>893.4</ele>
        <time>2021-11-23T13:38:31Z</time>
      </trkpt>
      <trkpt lat="46.65036" lon="6.05699">
        <ele>893.7</ele>
        <time>2021-11-23T13:38:36Z</time>
      </trkpt>
      <trkpt lat="46.6504" lon="6.05705">
        <ele>893.4</ele>
        <time>2021-11-23T13:38:40Z</time>
      </trkpt>
      <trkpt lat="46.65042" lon="6.05711">
        <ele>892.9</ele>
        <time>2021-11-23T13:38:44Z</time>
      </trkpt>
      <trkpt lat="46.65044" lon="6.05717">
        <ele>892.5</ele>
        <time>2021-11-23T13:38:48Z</time>
      </trkpt>
      <trkpt lat="46.65046" lon="6.05723">
        <ele>892.1</ele>
        <time>2021-11-23T13:38:53Z</time>
      </trkpt>
      <trkpt lat="46.65048" lon="6.0573">
        <ele>891</ele>
        <time>2021-11-23T13:38:58Z</time>
      </trkpt>
      <trkpt lat="46.65049" lon="6.05737">
        <ele>889.8</ele>
        <time>2021-11-23T13:39:02Z</time>
      </trkpt>
      <trkpt lat="46.65051" lon="6.05744">
        <ele>888.8</ele>
        <time>2021-11-23T13:39:06Z</time>
      </trkpt>
      <trkpt lat="46.65052" lon="6.05751">
        <ele>887.7</ele>
        <time>2021-11-23T13:39:10Z</time>
      </trkpt>
      <trkpt lat="46.65053" lon="6.05758">
        <ele>886.4</ele>
        <time>2021-11-23T13:39:15Z</time>
      </trkpt>
      <trkpt lat="46.65054" lon="6.05765">
        <ele>885.6</ele>
        <time>2021-11-23T13:39:19Z</time>
      </trkpt>
      <trkpt lat="46.65056" lon="6.05772">
        <ele>884.6</ele>
        <time>2021-11-23T13:39:24Z</time>
      </trkpt>
      <trkpt lat="46.65058" lon="6.05779">
        <ele>884.2</ele>
        <time>2021-11-23T13:39:29Z</time>
      </trkpt>
      <trkpt lat="46.65061" lon="6.05786">
        <ele>883.8</ele>
        <time>2021-11-23T13:39:34Z</time>
      </trkpt>
      <trkpt lat="46.65063" lon="6.05791">
        <ele>883.7</ele>
        <time>2021-11-23T13:39:38Z</time>
      </trkpt>
      <trkpt lat="46.65065" lon="6.05797">
        <ele>883.7</ele>
        <time>2021-11-23T13:39:42Z</time>
      </trkpt>
      <trkpt lat="46.65068" lon="6.05802">
        <ele>885.2</ele>
        <time>2021-11-23T13:39:50Z</time>
      </trkpt>
      <trkpt lat="46.65069" lon="6.0581">
        <ele>884.8</ele>
        <time>2021-11-23T13:39:55Z</time>
      </trkpt>
      <trkpt lat="46.6507" lon="6.05816">
        <ele>884.3</ele>
        <time>2021-11-23T13:40:00Z</time>
      </trkpt>
      <trkpt lat="46.65072" lon="6.05823">
        <ele>883.6</ele>
        <time>2021-11-23T13:40:06Z</time>
      </trkpt>
      <trkpt lat="46.65073" lon="6.0583">
        <ele>882.4</ele>
        <time>2021-11-23T13:40:11Z</time>
      </trkpt>
      <trkpt lat="46.65076" lon="6.05835">
        <ele>881.7</ele>
        <time>2021-11-23T13:40:15Z</time>
      </trkpt>
      <trkpt lat="46.65079" lon="6.0584">
        <ele>881.4</ele>
        <time>2021-11-23T13:40:20Z</time>
      </trkpt>
      <trkpt lat="46.65082" lon="6.05848">
        <ele>881.2</ele>
        <time>2021-11-23T13:40:25Z</time>
      </trkpt>
      <trkpt lat="46.65085" lon="6.05853">
        <ele>881.3</ele>
        <time>2021-11-23T13:40:29Z</time>
      </trkpt>
      <trkpt lat="46.65089" lon="6.05858">
        <ele>881.6</ele>
        <time>2021-11-23T13:40:33Z</time>
      </trkpt>
      <trkpt lat="46.65092" lon="6.05863">
        <ele>882.1</ele>
        <time>2021-11-23T13:40:38Z</time>
      </trkpt>
      <trkpt lat="46.65096" lon="6.05868">
        <ele>882.5</ele>
        <time>2021-11-23T13:40:42Z</time>
      </trkpt>
      <trkpt lat="46.65099" lon="6.05874">
        <ele>883</ele>
        <time>2021-11-23T13:40:47Z</time>
      </trkpt>
      <trkpt lat="46.65102" lon="6.05881">
        <ele>883.7</ele>
        <time>2021-11-23T13:40:52Z</time>
      </trkpt>
      <trkpt lat="46.65105" lon="6.05887">
        <ele>884.1</ele>
        <time>2021-11-23T13:40:56Z</time>
      </trkpt>
      <trkpt lat="46.65108" lon="6.05893">
        <ele>884.9</ele>
        <time>2021-11-23T13:41:00Z</time>
      </trkpt>
      <trkpt lat="46.6511" lon="6.059">
        <ele>885.7</ele>
        <time>2021-11-23T13:41:04Z</time>
      </trkpt>
      <trkpt lat="46.65112" lon="6.05907">
        <ele>887</ele>
        <time>2021-11-23T13:41:09Z</time>
      </trkpt>
      <trkpt lat="46.65117" lon="6.0591">
        <ele>889</ele>
        <time>2021-11-23T13:41:29Z</time>
      </trkpt>
      <trkpt lat="46.65121" lon="6.05914">
        <ele>888.5</ele>
        <time>2021-11-23T13:41:36Z</time>
      </trkpt>
      <trkpt lat="46.6512" lon="6.05921">
        <ele>887.4</ele>
        <time>2021-11-23T13:41:42Z</time>
      </trkpt>
      <trkpt lat="46.65118" lon="6.05915">
        <ele>885.6</ele>
        <time>2021-11-23T13:41:56Z</time>
      </trkpt>
      <trkpt lat="46.65122" lon="6.05918">
        <ele>886.5</ele>
        <time>2021-11-23T13:42:14Z</time>
      </trkpt>
      <trkpt lat="46.65127" lon="6.0592">
        <ele>886.8</ele>
        <time>2021-11-23T13:42:21Z</time>
      </trkpt>
      <trkpt lat="46.6513" lon="6.05925">
        <ele>885.9</ele>
        <time>2021-11-23T13:42:31Z</time>
      </trkpt>
      <trkpt lat="46.6513" lon="6.05932">
        <ele>885.1</ele>
        <time>2021-11-23T13:42:48Z</time>
      </trkpt>
      <trkpt lat="46.65133" lon="6.05937">
        <ele>884</ele>
        <time>2021-11-23T13:42:54Z</time>
      </trkpt>
      <trkpt lat="46.65138" lon="6.0594">
        <ele>883.3</ele>
        <time>2021-11-23T13:43:00Z</time>
      </trkpt>
      <trkpt lat="46.65142" lon="6.05943">
        <ele>883.3</ele>
        <time>2021-11-23T13:43:06Z</time>
      </trkpt>
      <trkpt lat="46.65147" lon="6.05946">
        <ele>883.3</ele>
        <time>2021-11-23T13:43:10Z</time>
      </trkpt>
      <trkpt lat="46.65151" lon="6.0595">
        <ele>883.3</ele>
        <time>2021-11-23T13:43:15Z</time>
      </trkpt>
      <trkpt lat="46.65155" lon="6.05954">
        <ele>882.7</ele>
        <time>2021-11-23T13:43:20Z</time>
      </trkpt>
      <trkpt lat="46.6516" lon="6.05958">
        <ele>882.1</ele>
        <time>2021-11-23T13:43:25Z</time>
      </trkpt>
      <trkpt lat="46.65163" lon="6.05962">
        <ele>881.5</ele>
        <time>2021-11-23T13:43:32Z</time>
      </trkpt>
      <trkpt lat="46.65168" lon="6.05966">
        <ele>881.4</ele>
        <time>2021-11-23T13:43:38Z</time>
      </trkpt>
      <trkpt lat="46.65173" lon="6.05967">
        <ele>880.9</ele>
        <time>2021-11-23T13:43:43Z</time>
      </trkpt>
      <trkpt lat="46.65177" lon="6.05969">
        <ele>880.6</ele>
        <time>2021-11-23T13:43:48Z</time>
      </trkpt>
      <trkpt lat="46.65181" lon="6.05973">
        <ele>880.7</ele>
        <time>2021-11-23T13:43:53Z</time>
      </trkpt>
      <trkpt lat="46.65186" lon="6.05974">
        <ele>880.6</ele>
        <time>2021-11-23T13:43:58Z</time>
      </trkpt>
      <trkpt lat="46.6519" lon="6.05976">
        <ele>880.2</ele>
        <time>2021-11-23T13:44:05Z</time>
      </trkpt>
      <trkpt lat="46.65193" lon="6.05981">
        <ele>879.7</ele>
        <time>2021-11-23T13:44:12Z</time>
      </trkpt>
      <trkpt lat="46.65197" lon="6.05986">
        <ele>879.2</ele>
        <time>2021-11-23T13:44:17Z</time>
      </trkpt>
      <trkpt lat="46.65201" lon="6.0599">
        <ele>878.6</ele>
        <time>2021-11-23T13:44:23Z</time>
      </trkpt>
      <trkpt lat="46.65202" lon="6.05997">
        <ele>877.8</ele>
        <time>2021-11-23T13:44:29Z</time>
      </trkpt>
      <trkpt lat="46.65202" lon="6.06004">
        <ele>877.4</ele>
        <time>2021-11-23T13:44:38Z</time>
      </trkpt>
      <trkpt lat="46.65207" lon="6.06007">
        <ele>877.5</ele>
        <time>2021-11-23T13:44:49Z</time>
      </trkpt>
      <trkpt lat="46.65211" lon="6.06013">
        <ele>876.8</ele>
        <time>2021-11-23T13:45:15Z</time>
      </trkpt>
      <trkpt lat="46.65213" lon="6.0602">
        <ele>876.5</ele>
        <time>2021-11-23T13:45:21Z</time>
      </trkpt>
      <trkpt lat="46.65214" lon="6.06026">
        <ele>876.5</ele>
        <time>2021-11-23T13:45:28Z</time>
      </trkpt>
      <trkpt lat="46.65216" lon="6.06033">
        <ele>876.7</ele>
        <time>2021-11-23T13:45:34Z</time>
      </trkpt>
      <trkpt lat="46.65219" lon="6.06038">
        <ele>876.8</ele>
        <time>2021-11-23T13:45:39Z</time>
      </trkpt>
      <trkpt lat="46.65224" lon="6.06041">
        <ele>876.6</ele>
        <time>2021-11-23T13:45:45Z</time>
      </trkpt>
      <trkpt lat="46.65229" lon="6.06046">
        <ele>874.8</ele>
        <time>2021-11-23T13:45:55Z</time>
      </trkpt>
      <trkpt lat="46.65234" lon="6.06049">
        <ele>873.7</ele>
        <time>2021-11-23T13:45:59Z</time>
      </trkpt>
      <trkpt lat="46.65239" lon="6.06051">
        <ele>872.8</ele>
        <time>2021-11-23T13:46:03Z</time>
      </trkpt>
      <trkpt lat="46.65244" lon="6.06052">
        <ele>871.8</ele>
        <time>2021-11-23T13:46:08Z</time>
      </trkpt>
      <trkpt lat="46.65248" lon="6.06055">
        <ele>870.5</ele>
        <time>2021-11-23T13:46:15Z</time>
      </trkpt>
      <trkpt lat="46.65253" lon="6.06052">
        <ele>869.8</ele>
        <time>2021-11-23T13:46:24Z</time>
      </trkpt>
      <trkpt lat="46.65257" lon="6.06049">
        <ele>869.2</ele>
        <time>2021-11-23T13:46:30Z</time>
      </trkpt>
      <trkpt lat="46.65261" lon="6.06046">
        <ele>868</ele>
        <time>2021-11-23T13:46:36Z</time>
      </trkpt>
      <trkpt lat="46.65266" lon="6.06044">
        <ele>866.2</ele>
        <time>2021-11-23T13:46:42Z</time>
      </trkpt>
      <trkpt lat="46.65271" lon="6.06044">
        <ele>864.8</ele>
        <time>2021-11-23T13:46:47Z</time>
      </trkpt>
      <trkpt lat="46.65276" lon="6.06044">
        <ele>863.5</ele>
        <time>2021-11-23T13:46:52Z</time>
      </trkpt>
      <trkpt lat="46.65281" lon="6.06045">
        <ele>862.7</ele>
        <time>2021-11-23T13:46:59Z</time>
      </trkpt>
      <trkpt lat="46.65286" lon="6.06047">
        <ele>861.7</ele>
        <time>2021-11-23T13:47:05Z</time>
      </trkpt>
      <trkpt lat="46.6529" lon="6.06049">
        <ele>860.9</ele>
        <time>2021-11-23T13:47:10Z</time>
      </trkpt>
      <trkpt lat="46.65295" lon="6.06052">
        <ele>860.7</ele>
        <time>2021-11-23T13:47:14Z</time>
      </trkpt>
      <trkpt lat="46.65299" lon="6.06055">
        <ele>860.6</ele>
        <time>2021-11-23T13:47:20Z</time>
      </trkpt>
      <trkpt lat="46.65303" lon="6.0606">
        <ele>860.7</ele>
        <time>2021-11-23T13:47:27Z</time>
      </trkpt>
      <trkpt lat="46.65304" lon="6.06066">
        <ele>860.3</ele>
        <time>2021-11-23T13:47:36Z</time>
      </trkpt>
      <trkpt lat="46.65299" lon="6.06063">
        <ele>861.6</ele>
        <time>2021-11-23T13:48:05Z</time>
      </trkpt>
      <trkpt lat="46.65295" lon="6.06066">
        <ele>863.7</ele>
        <time>2021-11-23T13:48:18Z</time>
      </trkpt>
      <trkpt lat="46.65291" lon="6.06067">
        <ele>864.2</ele>
        <time>2021-11-23T13:48:23Z</time>
      </trkpt>
      <trkpt lat="46.6529" lon="6.06059">
        <ele>864.4</ele>
        <time>2021-11-23T13:48:31Z</time>
      </trkpt>
      <trkpt lat="46.65288" lon="6.06053">
        <ele>864.2</ele>
        <time>2021-11-23T13:48:36Z</time>
      </trkpt>
      <trkpt lat="46.65285" lon="6.06048">
        <ele>863.8</ele>
        <time>2021-11-23T13:48:40Z</time>
      </trkpt>
      <trkpt lat="46.65282" lon="6.06041">
        <ele>863.5</ele>
        <time>2021-11-23T13:48:45Z</time>
      </trkpt>
      <trkpt lat="46.65278" lon="6.06037">
        <ele>863.9</ele>
        <time>2021-11-23T13:48:51Z</time>
      </trkpt>
      <trkpt lat="46.65274" lon="6.06038">
        <ele>864.7</ele>
        <time>2021-11-23T13:48:58Z</time>
      </trkpt>
      <trkpt lat="46.65269" lon="6.0604">
        <ele>865</ele>
        <time>2021-11-23T13:49:02Z</time>
      </trkpt>
      <trkpt lat="46.65265" lon="6.06043">
        <ele>865.2</ele>
        <time>2021-11-23T13:49:06Z</time>
      </trkpt>
      <trkpt lat="46.65261" lon="6.06046">
        <ele>865.3</ele>
        <time>2021-11-23T13:49:15Z</time>
      </trkpt>
      <trkpt lat="46.65257" lon="6.06049">
        <ele>864.5</ele>
        <time>2021-11-23T13:49:21Z</time>
      </trkpt>
      <trkpt lat="46.65252" lon="6.06052">
        <ele>864</ele>
        <time>2021-11-23T13:49:27Z</time>
      </trkpt>
      <trkpt lat="46.65248" lon="6.06055">
        <ele>863.9</ele>
        <time>2021-11-23T13:49:31Z</time>
      </trkpt>
      <trkpt lat="46.65243" lon="6.06055">
        <ele>863.5</ele>
        <time>2021-11-23T13:49:36Z</time>
      </trkpt>
      <trkpt lat="46.65238" lon="6.06054">
        <ele>863.7</ele>
        <time>2021-11-23T13:49:41Z</time>
      </trkpt>
      <trkpt lat="46.65234" lon="6.06051">
        <ele>864.5</ele>
        <time>2021-11-23T13:49:47Z</time>
      </trkpt>
      <trkpt lat="46.65231" lon="6.06046">
        <ele>865.7</ele>
        <time>2021-11-23T13:49:54Z</time>
      </trkpt>
      <trkpt lat="46.65226" lon="6.06042">
        <ele>866.7</ele>
        <time>2021-11-23T13:50:00Z</time>
      </trkpt>
      <trkpt lat="46.65222" lon="6.0604">
        <ele>867</ele>
        <time>2021-11-23T13:50:05Z</time>
      </trkpt>
      <trkpt lat="46.65218" lon="6.06035">
        <ele>867.5</ele>
        <time>2021-11-23T13:50:12Z</time>
      </trkpt>
      <trkpt lat="46.65214" lon="6.0603">
        <ele>867.9</ele>
        <time>2021-11-23T13:50:17Z</time>
      </trkpt>
      <trkpt lat="46.65214" lon="6.06024">
        <ele>868.6</ele>
        <time>2021-11-23T13:50:24Z</time>
      </trkpt>
      <trkpt lat="46.65211" lon="6.06018">
        <ele>869.2</ele>
        <time>2021-11-23T13:50:29Z</time>
      </trkpt>
      <trkpt lat="46.65209" lon="6.06012">
        <ele>869.7</ele>
        <time>2021-11-23T13:50:33Z</time>
      </trkpt>
      <trkpt lat="46.65206" lon="6.06006">
        <ele>870.5</ele>
        <time>2021-11-23T13:50:37Z</time>
      </trkpt>
      <trkpt lat="46.65204" lon="6.05999">
        <ele>871.7</ele>
        <time>2021-11-23T13:50:41Z</time>
      </trkpt>
      <trkpt lat="46.65203" lon="6.05993">
        <ele>873.2</ele>
        <time>2021-11-23T13:50:47Z</time>
      </trkpt>
      <trkpt lat="46.652" lon="6.05988">
        <ele>874.9</ele>
        <time>2021-11-23T13:50:52Z</time>
      </trkpt>
      <trkpt lat="46.65196" lon="6.05984">
        <ele>876.6</ele>
        <time>2021-11-23T13:50:58Z</time>
      </trkpt>
      <trkpt lat="46.65192" lon="6.0598">
        <ele>877.7</ele>
        <time>2021-11-23T13:51:03Z</time>
      </trkpt>
      <trkpt lat="46.65189" lon="6.05974">
        <ele>881.8</ele>
        <time>2021-11-23T13:51:29Z</time>
      </trkpt>
      <trkpt lat="46.65187" lon="6.05968">
        <ele>883.5</ele>
        <time>2021-11-23T13:51:34Z</time>
      </trkpt>
      <trkpt lat="46.65193" lon="6.05966">
        <ele>885.3</ele>
        <time>2021-11-23T13:52:08Z</time>
      </trkpt>
      <trkpt lat="46.6519" lon="6.0596">
        <ele>886.1</ele>
        <time>2021-11-23T13:52:49Z</time>
      </trkpt>
      <trkpt lat="46.6519" lon="6.05952">
        <ele>883.1</ele>
        <time>2021-11-23T13:53:15Z</time>
      </trkpt>
      <trkpt lat="46.65195" lon="6.05952">
        <ele>882</ele>
        <time>2021-11-23T13:53:20Z</time>
      </trkpt>
      <trkpt lat="46.652" lon="6.05952">
        <ele>881.5</ele>
        <time>2021-11-23T13:53:25Z</time>
      </trkpt>
      <trkpt lat="46.65205" lon="6.0595">
        <ele>881.7</ele>
        <time>2021-11-23T13:53:30Z</time>
      </trkpt>
      <trkpt lat="46.65209" lon="6.05947">
        <ele>881.7</ele>
        <time>2021-11-23T13:53:35Z</time>
      </trkpt>
      <trkpt lat="46.65213" lon="6.05943">
        <ele>881.8</ele>
        <time>2021-11-23T13:53:41Z</time>
      </trkpt>
      <trkpt lat="46.65216" lon="6.05938">
        <ele>881.8</ele>
        <time>2021-11-23T13:53:47Z</time>
      </trkpt>
      <trkpt lat="46.65219" lon="6.05933">
        <ele>881.9</ele>
        <time>2021-11-23T13:53:53Z</time>
      </trkpt>
      <trkpt lat="46.65223" lon="6.0593">
        <ele>882.2</ele>
        <time>2021-11-23T13:53:58Z</time>
      </trkpt>
      <trkpt lat="46.65227" lon="6.05927">
        <ele>882.2</ele>
        <time>2021-11-23T13:54:02Z</time>
      </trkpt>
      <trkpt lat="46.65232" lon="6.05923">
        <ele>881.9</ele>
        <time>2021-11-23T13:54:08Z</time>
      </trkpt>
      <trkpt lat="46.65237" lon="6.0592">
        <ele>881.3</ele>
        <time>2021-11-23T13:54:13Z</time>
      </trkpt>
      <trkpt lat="46.65241" lon="6.05917">
        <ele>880.7</ele>
        <time>2021-11-23T13:54:18Z</time>
      </trkpt>
      <trkpt lat="46.65245" lon="6.05913">
        <ele>879.6</ele>
        <time>2021-11-23T13:54:24Z</time>
      </trkpt>
      <trkpt lat="46.65249" lon="6.05907">
        <ele>878.7</ele>
        <time>2021-11-23T13:54:30Z</time>
      </trkpt>
      <trkpt lat="46.65253" lon="6.05902">
        <ele>877.6</ele>
        <time>2021-11-23T13:54:36Z</time>
      </trkpt>
      <trkpt lat="46.65257" lon="6.05898">
        <ele>877.1</ele>
        <time>2021-11-23T13:54:40Z</time>
      </trkpt>
      <trkpt lat="46.65261" lon="6.05894">
        <ele>876.4</ele>
        <time>2021-11-23T13:54:45Z</time>
      </trkpt>
      <trkpt lat="46.65265" lon="6.05891">
        <ele>876.3</ele>
        <time>2021-11-23T13:54:50Z</time>
      </trkpt>
      <trkpt lat="46.65269" lon="6.05886">
        <ele>875.5</ele>
        <time>2021-11-23T13:54:55Z</time>
      </trkpt>
      <trkpt lat="46.65273" lon="6.05882">
        <ele>874.5</ele>
        <time>2021-11-23T13:55:00Z</time>
      </trkpt>
      <trkpt lat="46.65277" lon="6.05877">
        <ele>873.8</ele>
        <time>2021-11-23T13:55:05Z</time>
      </trkpt>
      <trkpt lat="46.65282" lon="6.05873">
        <ele>873.1</ele>
        <time>2021-11-23T13:55:10Z</time>
      </trkpt>
      <trkpt lat="46.65286" lon="6.05868">
        <ele>872.3</ele>
        <time>2021-11-23T13:55:15Z</time>
      </trkpt>
      <trkpt lat="46.6529" lon="6.05863">
        <ele>871.3</ele>
        <time>2021-11-23T13:55:21Z</time>
      </trkpt>
      <trkpt lat="46.65294" lon="6.05859">
        <ele>870.9</ele>
        <time>2021-11-23T13:55:26Z</time>
      </trkpt>
      <trkpt lat="46.65299" lon="6.05857">
        <ele>870.7</ele>
        <time>2021-11-23T13:55:31Z</time>
      </trkpt>
      <trkpt lat="46.65303" lon="6.05854">
        <ele>870.7</ele>
        <time>2021-11-23T13:55:36Z</time>
      </trkpt>
      <trkpt lat="46.65305" lon="6.05846">
        <ele>870.9</ele>
        <time>2021-11-23T13:55:40Z</time>
      </trkpt>
      <trkpt lat="46.65308" lon="6.05841">
        <ele>870</ele>
        <time>2021-11-23T13:55:45Z</time>
      </trkpt>
      <trkpt lat="46.6531" lon="6.05835">
        <ele>869.4</ele>
        <time>2021-11-23T13:55:50Z</time>
      </trkpt>
      <trkpt lat="46.65313" lon="6.0583">
        <ele>869.5</ele>
        <time>2021-11-23T13:55:54Z</time>
      </trkpt>
      <trkpt lat="46.65318" lon="6.05826">
        <ele>870</ele>
        <time>2021-11-23T13:55:58Z</time>
      </trkpt>
      <trkpt lat="46.65322" lon="6.05821">
        <ele>870.7</ele>
        <time>2021-11-23T13:56:02Z</time>
      </trkpt>
      <trkpt lat="46.65325" lon="6.05816">
        <ele>871.3</ele>
        <time>2021-11-23T13:56:08Z</time>
      </trkpt>
      <trkpt lat="46.65329" lon="6.05811">
        <ele>872.1</ele>
        <time>2021-11-23T13:56:13Z</time>
      </trkpt>
      <trkpt lat="46.65333" lon="6.05807">
        <ele>873.4</ele>
        <time>2021-11-23T13:56:18Z</time>
      </trkpt>
      <trkpt lat="46.65338" lon="6.05806">
        <ele>873.7</ele>
        <time>2021-11-23T13:56:24Z</time>
      </trkpt>
      <trkpt lat="46.65342" lon="6.05803">
        <ele>874</ele>
        <time>2021-11-23T13:56:29Z</time>
      </trkpt>
      <trkpt lat="46.65346" lon="6.05799">
        <ele>875</ele>
        <time>2021-11-23T13:56:35Z</time>
      </trkpt>
      <trkpt lat="46.6535" lon="6.05803">
        <ele>876.7</ele>
        <time>2021-11-23T13:56:45Z</time>
      </trkpt>
      <trkpt lat="46.65356" lon="6.05804">
        <ele>876.5</ele>
        <time>2021-11-23T13:56:56Z</time>
      </trkpt>
      <trkpt lat="46.6536" lon="6.05809">
        <ele>875.7</ele>
        <time>2021-11-23T13:57:01Z</time>
      </trkpt>
      <trkpt lat="46.65364" lon="6.05814">
        <ele>874.9</ele>
        <time>2021-11-23T13:57:06Z</time>
      </trkpt>
      <trkpt lat="46.65367" lon="6.0582">
        <ele>874.5</ele>
        <time>2021-11-23T13:57:10Z</time>
      </trkpt>
      <trkpt lat="46.6537" lon="6.05825">
        <ele>873.9</ele>
        <time>2021-11-23T13:57:14Z</time>
      </trkpt>
      <trkpt lat="46.65373" lon="6.05831">
        <ele>872.7</ele>
        <time>2021-11-23T13:57:20Z</time>
      </trkpt>
      <trkpt lat="46.65376" lon="6.05836">
        <ele>871.2</ele>
        <time>2021-11-23T13:57:25Z</time>
      </trkpt>
      <trkpt lat="46.6538" lon="6.05841">
        <ele>869.2</ele>
        <time>2021-11-23T13:57:30Z</time>
      </trkpt>
      <trkpt lat="46.65384" lon="6.05846">
        <ele>867.2</ele>
        <time>2021-11-23T13:57:35Z</time>
      </trkpt>
      <trkpt lat="46.65387" lon="6.05851">
        <ele>865.6</ele>
        <time>2021-11-23T13:57:41Z</time>
      </trkpt>
      <trkpt lat="46.65391" lon="6.05856">
        <ele>865.1</ele>
        <time>2021-11-23T13:57:46Z</time>
      </trkpt>
      <trkpt lat="46.65396" lon="6.05861">
        <ele>865</ele>
        <time>2021-11-23T13:57:51Z</time>
      </trkpt>
      <trkpt lat="46.65399" lon="6.05867">
        <ele>865.1</ele>
        <time>2021-11-23T13:57:55Z</time>
      </trkpt>
      <trkpt lat="46.65403" lon="6.05872">
        <ele>865.3</ele>
        <time>2021-11-23T13:57:59Z</time>
      </trkpt>
      <trkpt lat="46.65407" lon="6.05876">
        <ele>866</ele>
        <time>2021-11-23T13:58:04Z</time>
      </trkpt>
      <trkpt lat="46.65411" lon="6.0588">
        <ele>866.3</ele>
        <time>2021-11-23T13:58:09Z</time>
      </trkpt>
      <trkpt lat="46.65414" lon="6.05886">
        <ele>866.6</ele>
        <time>2021-11-23T13:58:14Z</time>
      </trkpt>
      <trkpt lat="46.65417" lon="6.05892">
        <ele>866.9</ele>
        <time>2021-11-23T13:58:19Z</time>
      </trkpt>
      <trkpt lat="46.6542" lon="6.05897">
        <ele>866.8</ele>
        <time>2021-11-23T13:58:25Z</time>
      </trkpt>
      <trkpt lat="46.65425" lon="6.05902">
        <ele>867.2</ele>
        <time>2021-11-23T13:58:31Z</time>
      </trkpt>
      <trkpt lat="46.65429" lon="6.05906">
        <ele>867.3</ele>
        <time>2021-11-23T13:58:35Z</time>
      </trkpt>
      <trkpt lat="46.65433" lon="6.05909">
        <ele>868</ele>
        <time>2021-11-23T13:58:40Z</time>
      </trkpt>
      <trkpt lat="46.65438" lon="6.05913">
        <ele>868.9</ele>
        <time>2021-11-23T13:58:46Z</time>
      </trkpt>
      <trkpt lat="46.65442" lon="6.05917">
        <ele>869.8</ele>
        <time>2021-11-23T13:58:52Z</time>
      </trkpt>
      <trkpt lat="46.65447" lon="6.05919">
        <ele>870.7</ele>
        <time>2021-11-23T13:58:58Z</time>
      </trkpt>
      <trkpt lat="46.65452" lon="6.05922">
        <ele>870.9</ele>
        <time>2021-11-23T13:59:03Z</time>
      </trkpt>
      <trkpt lat="46.65456" lon="6.05923">
        <ele>870.8</ele>
        <time>2021-11-23T13:59:08Z</time>
      </trkpt>
      <trkpt lat="46.65462" lon="6.05923">
        <ele>871.2</ele>
        <time>2021-11-23T13:59:12Z</time>
      </trkpt>
      <trkpt lat="46.65467" lon="6.05922">
        <ele>872.1</ele>
        <time>2021-11-23T13:59:15Z</time>
      </trkpt>
      <trkpt lat="46.65472" lon="6.0592">
        <ele>873.9</ele>
        <time>2021-11-23T13:59:19Z</time>
      </trkpt>
      <trkpt lat="46.65478" lon="6.05918">
        <ele>875.9</ele>
        <time>2021-11-23T13:59:24Z</time>
      </trkpt>
      <trkpt lat="46.65482" lon="6.0592">
        <ele>877.8</ele>
        <time>2021-11-23T13:59:30Z</time>
      </trkpt>
      <trkpt lat="46.65486" lon="6.05924">
        <ele>878.5</ele>
        <time>2021-11-23T13:59:34Z</time>
      </trkpt>
      <trkpt lat="46.6549" lon="6.05929">
        <ele>879</ele>
        <time>2021-11-23T13:59:38Z</time>
      </trkpt>
      <trkpt lat="46.65493" lon="6.05935">
        <ele>879.1</ele>
        <time>2021-11-23T13:59:43Z</time>
      </trkpt>
      <trkpt lat="46.65495" lon="6.0594">
        <ele>879.1</ele>
        <time>2021-11-23T13:59:49Z</time>
      </trkpt>
      <trkpt lat="46.65498" lon="6.05946">
        <ele>879</ele>
        <time>2021-11-23T13:59:54Z</time>
      </trkpt>
      <trkpt lat="46.655" lon="6.05952">
        <ele>878.2</ele>
        <time>2021-11-23T14:00:00Z</time>
      </trkpt>
      <trkpt lat="46.65501" lon="6.05959">
        <ele>877.3</ele>
        <time>2021-11-23T14:00:06Z</time>
      </trkpt>
      <trkpt lat="46.65503" lon="6.05966">
        <ele>876.5</ele>
        <time>2021-11-23T14:00:12Z</time>
      </trkpt>
      <trkpt lat="46.65506" lon="6.05972">
        <ele>876.5</ele>
        <time>2021-11-23T14:00:17Z</time>
      </trkpt>
      <trkpt lat="46.6551" lon="6.05978">
        <ele>876.3</ele>
        <time>2021-11-23T14:00:21Z</time>
      </trkpt>
      <trkpt lat="46.65513" lon="6.05984">
        <ele>876.2</ele>
        <time>2021-11-23T14:00:26Z</time>
      </trkpt>
      <trkpt lat="46.65514" lon="6.0599">
        <ele>875.4</ele>
        <time>2021-11-23T14:00:31Z</time>
      </trkpt>
      <trkpt lat="46.65515" lon="6.05997">
        <ele>874.1</ele>
        <time>2021-11-23T14:00:37Z</time>
      </trkpt>
      <trkpt lat="46.65518" lon="6.06003">
        <ele>872.6</ele>
        <time>2021-11-23T14:00:43Z</time>
      </trkpt>
      <trkpt lat="46.6552" lon="6.06009">
        <ele>870.3</ele>
        <time>2021-11-23T14:00:50Z</time>
      </trkpt>
      <trkpt lat="46.65521" lon="6.06016">
        <ele>869.1</ele>
        <time>2021-11-23T14:00:55Z</time>
      </trkpt>
      <trkpt lat="46.65522" lon="6.06022">
        <ele>868.7</ele>
        <time>2021-11-23T14:00:59Z</time>
      </trkpt>
      <trkpt lat="46.65524" lon="6.0603">
        <ele>868.5</ele>
        <time>2021-11-23T14:01:04Z</time>
      </trkpt>
      <trkpt lat="46.65526" lon="6.06036">
        <ele>867.6</ele>
        <time>2021-11-23T14:01:10Z</time>
      </trkpt>
      <trkpt lat="46.65529" lon="6.06042">
        <ele>866.4</ele>
        <time>2021-11-23T14:01:17Z</time>
      </trkpt>
      <trkpt lat="46.65531" lon="6.06049">
        <ele>865.6</ele>
        <time>2021-11-23T14:01:22Z</time>
      </trkpt>
      <trkpt lat="46.65533" lon="6.06055">
        <ele>865.4</ele>
        <time>2021-11-23T14:01:27Z</time>
      </trkpt>
      <trkpt lat="46.65535" lon="6.06062">
        <ele>865.4</ele>
        <time>2021-11-23T14:01:32Z</time>
      </trkpt>
      <trkpt lat="46.65537" lon="6.06068">
        <ele>865.8</ele>
        <time>2021-11-23T14:01:36Z</time>
      </trkpt>
      <trkpt lat="46.65539" lon="6.06075">
        <ele>866.8</ele>
        <time>2021-11-23T14:01:42Z</time>
      </trkpt>
      <trkpt lat="46.6554" lon="6.06083">
        <ele>867.6</ele>
        <time>2021-11-23T14:01:47Z</time>
      </trkpt>
      <trkpt lat="46.65541" lon="6.0609">
        <ele>867.7</ele>
        <time>2021-11-23T14:01:52Z</time>
      </trkpt>
      <trkpt lat="46.65542" lon="6.06097">
        <ele>867.1</ele>
        <time>2021-11-23T14:01:57Z</time>
      </trkpt>
      <trkpt lat="46.65544" lon="6.06103">
        <ele>866.5</ele>
        <time>2021-11-23T14:02:01Z</time>
      </trkpt>
      <trkpt lat="46.65544" lon="6.0611">
        <ele>866.1</ele>
        <time>2021-11-23T14:02:06Z</time>
      </trkpt>
      <trkpt lat="46.65544" lon="6.06116">
        <ele>866.2</ele>
        <time>2021-11-23T14:02:11Z</time>
      </trkpt>
      <trkpt lat="46.65544" lon="6.06125">
        <ele>866.4</ele>
        <time>2021-11-23T14:02:16Z</time>
      </trkpt>
      <trkpt lat="46.65543" lon="6.06132">
        <ele>866.4</ele>
        <time>2021-11-23T14:02:20Z</time>
      </trkpt>
      <trkpt lat="46.65542" lon="6.0614">
        <ele>866.4</ele>
        <time>2021-11-23T14:02:24Z</time>
      </trkpt>
      <trkpt lat="46.6554" lon="6.06147">
        <ele>866.9</ele>
        <time>2021-11-23T14:02:28Z</time>
      </trkpt>
      <trkpt lat="46.65536" lon="6.06154">
        <ele>867.6</ele>
        <time>2021-11-23T14:02:39Z</time>
      </trkpt>
      <trkpt lat="46.65533" lon="6.0616">
        <ele>867.7</ele>
        <time>2021-11-23T14:02:44Z</time>
      </trkpt>
      <trkpt lat="46.65531" lon="6.06165">
        <ele>869.3</ele>
        <time>2021-11-23T14:02:51Z</time>
      </trkpt>
      <trkpt lat="46.65532" lon="6.06172">
        <ele>871.8</ele>
        <time>2021-11-23T14:03:04Z</time>
      </trkpt>
      <trkpt lat="46.65531" lon="6.06179">
        <ele>871.8</ele>
        <time>2021-11-23T14:03:09Z</time>
      </trkpt>
      <trkpt lat="46.65529" lon="6.06186">
        <ele>871.2</ele>
        <time>2021-11-23T14:03:15Z</time>
      </trkpt>
      <trkpt lat="46.6553" lon="6.06193">
        <ele>870.3</ele>
        <time>2021-11-23T14:03:21Z</time>
      </trkpt>
      <trkpt lat="46.6553" lon="6.062">
        <ele>869.9</ele>
        <time>2021-11-23T14:03:26Z</time>
      </trkpt>
      <trkpt lat="46.6553" lon="6.06206">
        <ele>869.5</ele>
        <time>2021-11-23T14:03:30Z</time>
      </trkpt>
      <trkpt lat="46.65528" lon="6.06213">
        <ele>869.5</ele>
        <time>2021-11-23T14:03:34Z</time>
      </trkpt>
      <trkpt lat="46.65527" lon="6.0622">
        <ele>870.2</ele>
        <time>2021-11-23T14:03:38Z</time>
      </trkpt>
      <trkpt lat="46.65528" lon="6.06228">
        <ele>871.1</ele>
        <time>2021-11-23T14:03:42Z</time>
      </trkpt>
      <trkpt lat="46.6553" lon="6.06236">
        <ele>871.9</ele>
        <time>2021-11-23T14:03:46Z</time>
      </trkpt>
      <trkpt lat="46.65533" lon="6.06242">
        <ele>872.5</ele>
        <time>2021-11-23T14:03:50Z</time>
      </trkpt>
      <trkpt lat="46.65533" lon="6.06248">
        <ele>872.4</ele>
        <time>2021-11-23T14:03:55Z</time>
      </trkpt>
      <trkpt lat="46.65531" lon="6.06255">
        <ele>871.2</ele>
        <time>2021-11-23T14:04:00Z</time>
      </trkpt>
      <trkpt lat="46.65531" lon="6.06263">
        <ele>869.9</ele>
        <time>2021-11-23T14:04:05Z</time>
      </trkpt>
      <trkpt lat="46.65532" lon="6.0627">
        <ele>867.5</ele>
        <time>2021-11-23T14:04:11Z</time>
      </trkpt>
      <trkpt lat="46.65533" lon="6.06278">
        <ele>866.3</ele>
        <time>2021-11-23T14:04:16Z</time>
      </trkpt>
      <trkpt lat="46.65533" lon="6.06286">
        <ele>865.6</ele>
        <time>2021-11-23T14:04:21Z</time>
      </trkpt>
      <trkpt lat="46.65532" lon="6.06294">
        <ele>865</ele>
        <time>2021-11-23T14:04:26Z</time>
      </trkpt>
      <trkpt lat="46.65531" lon="6.06301">
        <ele>864.3</ele>
        <time>2021-11-23T14:04:32Z</time>
      </trkpt>
      <trkpt lat="46.6553" lon="6.06308">
        <ele>864.3</ele>
        <time>2021-11-23T14:04:37Z</time>
      </trkpt>
      <trkpt lat="46.65531" lon="6.06315">
        <ele>864.4</ele>
        <time>2021-11-23T14:04:42Z</time>
      </trkpt>
      <trkpt lat="46.65531" lon="6.06321">
        <ele>863.8</ele>
        <time>2021-11-23T14:04:46Z</time>
      </trkpt>
      <trkpt lat="46.65531" lon="6.06328">
        <ele>863.3</ele>
        <time>2021-11-23T14:04:50Z</time>
      </trkpt>
      <trkpt lat="46.65531" lon="6.06335">
        <ele>862.8</ele>
        <time>2021-11-23T14:04:55Z</time>
      </trkpt>
      <trkpt lat="46.65531" lon="6.06343">
        <ele>862.2</ele>
        <time>2021-11-23T14:05:00Z</time>
      </trkpt>
      <trkpt lat="46.65529" lon="6.06349">
        <ele>861.8</ele>
        <time>2021-11-23T14:05:04Z</time>
      </trkpt>
      <trkpt lat="46.65528" lon="6.06357">
        <ele>861.9</ele>
        <time>2021-11-23T14:05:08Z</time>
      </trkpt>
      <trkpt lat="46.65528" lon="6.06365">
        <ele>862.4</ele>
        <time>2021-11-23T14:05:12Z</time>
      </trkpt>
      <trkpt lat="46.65529" lon="6.06372">
        <ele>863.1</ele>
        <time>2021-11-23T14:05:17Z</time>
      </trkpt>
      <trkpt lat="46.65529" lon="6.0638">
        <ele>864.1</ele>
        <time>2021-11-23T14:05:23Z</time>
      </trkpt>
      <trkpt lat="46.65526" lon="6.06386">
        <ele>864.7</ele>
        <time>2021-11-23T14:05:29Z</time>
      </trkpt>
      <trkpt lat="46.65524" lon="6.06393">
        <ele>865.3</ele>
        <time>2021-11-23T14:05:33Z</time>
      </trkpt>
      <trkpt lat="46.65522" lon="6.06399">
        <ele>866.3</ele>
        <time>2021-11-23T14:05:37Z</time>
      </trkpt>
      <trkpt lat="46.65519" lon="6.06406">
        <ele>867.6</ele>
        <time>2021-11-23T14:05:41Z</time>
      </trkpt>
      <trkpt lat="46.65516" lon="6.06412">
        <ele>868.8</ele>
        <time>2021-11-23T14:05:44Z</time>
      </trkpt>
      <trkpt lat="46.65514" lon="6.06418">
        <ele>871</ele>
        <time>2021-11-23T14:05:50Z</time>
      </trkpt>
      <trkpt lat="46.65517" lon="6.06423">
        <ele>871.2</ele>
        <time>2021-11-23T14:05:58Z</time>
      </trkpt>
      <trkpt lat="46.65521" lon="6.06426">
        <ele>870.5</ele>
        <time>2021-11-23T14:06:03Z</time>
      </trkpt>
      <trkpt lat="46.65526" lon="6.06427">
        <ele>869.3</ele>
        <time>2021-11-23T14:06:09Z</time>
      </trkpt>
      <trkpt lat="46.6553" lon="6.06431">
        <ele>868.2</ele>
        <time>2021-11-23T14:06:14Z</time>
      </trkpt>
      <trkpt lat="46.65533" lon="6.06437">
        <ele>867.4</ele>
        <time>2021-11-23T14:06:18Z</time>
      </trkpt>
      <trkpt lat="46.65537" lon="6.06442">
        <ele>866.6</ele>
        <time>2021-11-23T14:06:23Z</time>
      </trkpt>
      <trkpt lat="46.65541" lon="6.06447">
        <ele>865.6</ele>
        <time>2021-11-23T14:06:28Z</time>
      </trkpt>
      <trkpt lat="46.65545" lon="6.0645">
        <ele>864.9</ele>
        <time>2021-11-23T14:06:32Z</time>
      </trkpt>
      <trkpt lat="46.6555" lon="6.06452">
        <ele>864.4</ele>
        <time>2021-11-23T14:06:36Z</time>
      </trkpt>
      <trkpt lat="46.65555" lon="6.06455">
        <ele>863.8</ele>
        <time>2021-11-23T14:06:41Z</time>
      </trkpt>
      <trkpt lat="46.65559" lon="6.06459">
        <ele>862.9</ele>
        <time>2021-11-23T14:06:46Z</time>
      </trkpt>
      <trkpt lat="46.65562" lon="6.06465">
        <ele>862.5</ele>
        <time>2021-11-23T14:06:50Z</time>
      </trkpt>
      <trkpt lat="46.65564" lon="6.06471">
        <ele>861.9</ele>
        <time>2021-11-23T14:06:54Z</time>
      </trkpt>
      <trkpt lat="46.65568" lon="6.06476">
        <ele>861</ele>
        <time>2021-11-23T14:06:59Z</time>
      </trkpt>
      <trkpt lat="46.65572" lon="6.06481">
        <ele>860.7</ele>
        <time>2021-11-23T14:07:04Z</time>
      </trkpt>
      <trkpt lat="46.65575" lon="6.06486">
        <ele>860.5</ele>
        <time>2021-11-23T14:07:08Z</time>
      </trkpt>
      <trkpt lat="46.65578" lon="6.06492">
        <ele>860.3</ele>
        <time>2021-11-23T14:07:13Z</time>
      </trkpt>
      <trkpt lat="46.65582" lon="6.06498">
        <ele>860.2</ele>
        <time>2021-11-23T14:07:18Z</time>
      </trkpt>
      <trkpt lat="46.65585" lon="6.06505">
        <ele>860.2</ele>
        <time>2021-11-23T14:07:23Z</time>
      </trkpt>
      <trkpt lat="46.65587" lon="6.06511">
        <ele>860.1</ele>
        <time>2021-11-23T14:07:27Z</time>
      </trkpt>
      <trkpt lat="46.6559" lon="6.06518">
        <ele>859.6</ele>
        <time>2021-11-23T14:07:32Z</time>
      </trkpt>
      <trkpt lat="46.65592" lon="6.06524">
        <ele>858.8</ele>
        <time>2021-11-23T14:07:37Z</time>
      </trkpt>
      <trkpt lat="46.65595" lon="6.06531">
        <ele>858.5</ele>
        <time>2021-11-23T14:07:42Z</time>
      </trkpt>
      <trkpt lat="46.65598" lon="6.06535">
        <ele>859.3</ele>
        <time>2021-11-23T14:07:46Z</time>
      </trkpt>
      <trkpt lat="46.65602" lon="6.0654">
        <ele>861.2</ele>
        <time>2021-11-23T14:07:51Z</time>
      </trkpt>
      <trkpt lat="46.65605" lon="6.06545">
        <ele>861.9</ele>
        <time>2021-11-23T14:07:56Z</time>
      </trkpt>
      <trkpt lat="46.65605" lon="6.06551">
        <ele>860.3</ele>
        <time>2021-11-23T14:08:02Z</time>
      </trkpt>
      <trkpt lat="46.6561" lon="6.06555">
        <ele>857.3</ele>
        <time>2021-11-23T14:08:09Z</time>
      </trkpt>
      <trkpt lat="46.65612" lon="6.06562">
        <ele>855.4</ele>
        <time>2021-11-23T14:08:14Z</time>
      </trkpt>
      <trkpt lat="46.65614" lon="6.06569">
        <ele>854.3</ele>
        <time>2021-11-23T14:08:19Z</time>
      </trkpt>
      <trkpt lat="46.65616" lon="6.06576">
        <ele>853.1</ele>
        <time>2021-11-23T14:08:24Z</time>
      </trkpt>
      <trkpt lat="46.65618" lon="6.06582">
        <ele>852.1</ele>
        <time>2021-11-23T14:08:28Z</time>
      </trkpt>
      <trkpt lat="46.6562" lon="6.06589">
        <ele>850.9</ele>
        <time>2021-11-23T14:08:33Z</time>
      </trkpt>
      <trkpt lat="46.65624" lon="6.06594">
        <ele>850.3</ele>
        <time>2021-11-23T14:08:38Z</time>
      </trkpt>
      <trkpt lat="46.65627" lon="6.06598">
        <ele>850.1</ele>
        <time>2021-11-23T14:08:42Z</time>
      </trkpt>
      <trkpt lat="46.65629" lon="6.06605">
        <ele>850.1</ele>
        <time>2021-11-23T14:08:46Z</time>
      </trkpt>
      <trkpt lat="46.65631" lon="6.06612">
        <ele>850.7</ele>
        <time>2021-11-23T14:08:50Z</time>
      </trkpt>
      <trkpt lat="46.65633" lon="6.06619">
        <ele>851.2</ele>
        <time>2021-11-23T14:08:54Z</time>
      </trkpt>
      <trkpt lat="46.65636" lon="6.06625">
        <ele>851.6</ele>
        <time>2021-11-23T14:08:58Z</time>
      </trkpt>
      <trkpt lat="46.65639" lon="6.06632">
        <ele>852.2</ele>
        <time>2021-11-23T14:09:02Z</time>
      </trkpt>
      <trkpt lat="46.65642" lon="6.06639">
        <ele>853.3</ele>
        <time>2021-11-23T14:09:06Z</time>
      </trkpt>
      <trkpt lat="46.65644" lon="6.06645">
        <ele>854.1</ele>
        <time>2021-11-23T14:09:10Z</time>
      </trkpt>
      <trkpt lat="46.65647" lon="6.06651">
        <ele>854.4</ele>
        <time>2021-11-23T14:09:14Z</time>
      </trkpt>
      <trkpt lat="46.65651" lon="6.06657">
        <ele>854.6</ele>
        <time>2021-11-23T14:09:18Z</time>
      </trkpt>
      <trkpt lat="46.65654" lon="6.06663">
        <ele>854.4</ele>
        <time>2021-11-23T14:09:22Z</time>
      </trkpt>
      <trkpt lat="46.65657" lon="6.06669">
        <ele>854.2</ele>
        <time>2021-11-23T14:09:27Z</time>
      </trkpt>
      <trkpt lat="46.65661" lon="6.06674">
        <ele>854.1</ele>
        <time>2021-11-23T14:09:31Z</time>
      </trkpt>
      <trkpt lat="46.65665" lon="6.0668">
        <ele>854.4</ele>
        <time>2021-11-23T14:09:36Z</time>
      </trkpt>
      <trkpt lat="46.65668" lon="6.06686">
        <ele>854.4</ele>
        <time>2021-11-23T14:09:40Z</time>
      </trkpt>
      <trkpt lat="46.65669" lon="6.06693">
        <ele>854.9</ele>
        <time>2021-11-23T14:09:44Z</time>
      </trkpt>
      <trkpt lat="46.65671" lon="6.06701">
        <ele>855.7</ele>
        <time>2021-11-23T14:09:49Z</time>
      </trkpt>
      <trkpt lat="46.65673" lon="6.06708">
        <ele>856.2</ele>
        <time>2021-11-23T14:09:54Z</time>
      </trkpt>
      <trkpt lat="46.65674" lon="6.06715">
        <ele>856.9</ele>
        <time>2021-11-23T14:09:58Z</time>
      </trkpt>
      <trkpt lat="46.65675" lon="6.06722">
        <ele>857.4</ele>
        <time>2021-11-23T14:10:02Z</time>
      </trkpt>
      <trkpt lat="46.65677" lon="6.0673">
        <ele>858.7</ele>
        <time>2021-11-23T14:10:08Z</time>
      </trkpt>
      <trkpt lat="46.65679" lon="6.06736">
        <ele>860.1</ele>
        <time>2021-11-23T14:10:12Z</time>
      </trkpt>
      <trkpt lat="46.6568" lon="6.06743">
        <ele>861.9</ele>
        <time>2021-11-23T14:10:17Z</time>
      </trkpt>
      <trkpt lat="46.65682" lon="6.0675">
        <ele>863.1</ele>
        <time>2021-11-23T14:10:21Z</time>
      </trkpt>
      <trkpt lat="46.65685" lon="6.06756">
        <ele>864.4</ele>
        <time>2021-11-23T14:10:26Z</time>
      </trkpt>
      <trkpt lat="46.65687" lon="6.06762">
        <ele>864.9</ele>
        <time>2021-11-23T14:10:30Z</time>
      </trkpt>
      <trkpt lat="46.65688" lon="6.06768">
        <ele>865.1</ele>
        <time>2021-11-23T14:10:34Z</time>
      </trkpt>
      <trkpt lat="46.65692" lon="6.06775">
        <ele>864.7</ele>
        <time>2021-11-23T14:10:38Z</time>
      </trkpt>
      <trkpt lat="46.65694" lon="6.06781">
        <ele>863.9</ele>
        <time>2021-11-23T14:10:43Z</time>
      </trkpt>
      <trkpt lat="46.65697" lon="6.06787">
        <ele>863.2</ele>
        <time>2021-11-23T14:10:48Z</time>
      </trkpt>
      <trkpt lat="46.657" lon="6.06792">
        <ele>862</ele>
        <time>2021-11-23T14:10:52Z</time>
      </trkpt>
      <trkpt lat="46.65702" lon="6.06798">
        <ele>860.7</ele>
        <time>2021-11-23T14:10:56Z</time>
      </trkpt>
      <trkpt lat="46.65703" lon="6.06805">
        <ele>859.6</ele>
        <time>2021-11-23T14:11:02Z</time>
      </trkpt>
      <trkpt lat="46.65707" lon="6.0681">
        <ele>858.2</ele>
        <time>2021-11-23T14:11:08Z</time>
      </trkpt>
      <trkpt lat="46.65712" lon="6.06811">
        <ele>857.6</ele>
        <time>2021-11-23T14:11:12Z</time>
      </trkpt>
      <trkpt lat="46.65715" lon="6.06817">
        <ele>856.8</ele>
        <time>2021-11-23T14:11:18Z</time>
      </trkpt>
      <trkpt lat="46.65715" lon="6.06824">
        <ele>856.2</ele>
        <time>2021-11-23T14:11:23Z</time>
      </trkpt>
      <trkpt lat="46.65717" lon="6.06831">
        <ele>856.1</ele>
        <time>2021-11-23T14:11:28Z</time>
      </trkpt>
      <trkpt lat="46.6572" lon="6.06838">
        <ele>856.6</ele>
        <time>2021-11-23T14:11:33Z</time>
      </trkpt>
      <trkpt lat="46.65721" lon="6.06844">
        <ele>857.3</ele>
        <time>2021-11-23T14:11:37Z</time>
      </trkpt>
      <trkpt lat="46.65724" lon="6.06851">
        <ele>858.7</ele>
        <time>2021-11-23T14:11:42Z</time>
      </trkpt>
      <trkpt lat="46.65725" lon="6.06858">
        <ele>860.2</ele>
        <time>2021-11-23T14:11:47Z</time>
      </trkpt>
      <trkpt lat="46.65727" lon="6.06864">
        <ele>861.4</ele>
        <time>2021-11-23T14:11:51Z</time>
      </trkpt>
      <trkpt lat="46.65729" lon="6.0687">
        <ele>862</ele>
        <time>2021-11-23T14:11:55Z</time>
      </trkpt>
      <trkpt lat="46.65732" lon="6.06878">
        <ele>862.2</ele>
        <time>2021-11-23T14:11:59Z</time>
      </trkpt>
      <trkpt lat="46.65734" lon="6.06884">
        <ele>862.1</ele>
        <time>2021-11-23T14:12:03Z</time>
      </trkpt>
      <trkpt lat="46.65735" lon="6.06891">
        <ele>862</ele>
        <time>2021-11-23T14:12:07Z</time>
      </trkpt>
      <trkpt lat="46.65736" lon="6.06898">
        <ele>861.5</ele>
        <time>2021-11-23T14:12:11Z</time>
      </trkpt>
      <trkpt lat="46.65737" lon="6.06905">
        <ele>860.7</ele>
        <time>2021-11-23T14:12:15Z</time>
      </trkpt>
      <trkpt lat="46.65738" lon="6.06912">
        <ele>859.8</ele>
        <time>2021-11-23T14:12:21Z</time>
      </trkpt>
      <trkpt lat="46.65741" lon="6.06919">
        <ele>859.1</ele>
        <time>2021-11-23T14:12:27Z</time>
      </trkpt>
      <trkpt lat="46.65743" lon="6.06925">
        <ele>858.5</ele>
        <time>2021-11-23T14:12:31Z</time>
      </trkpt>
      <trkpt lat="46.65744" lon="6.06932">
        <ele>858</ele>
        <time>2021-11-23T14:12:35Z</time>
      </trkpt>
      <trkpt lat="46.65747" lon="6.06939">
        <ele>857.1</ele>
        <time>2021-11-23T14:12:40Z</time>
      </trkpt>
      <trkpt lat="46.65749" lon="6.06946">
        <ele>856.3</ele>
        <time>2021-11-23T14:12:45Z</time>
      </trkpt>
      <trkpt lat="46.6575" lon="6.06953">
        <ele>855.8</ele>
        <time>2021-11-23T14:12:49Z</time>
      </trkpt>
      <trkpt lat="46.65751" lon="6.0696">
        <ele>856</ele>
        <time>2021-11-23T14:12:52Z</time>
      </trkpt>
      <trkpt lat="46.65753" lon="6.06967">
        <ele>856.9</ele>
        <time>2021-11-23T14:12:57Z</time>
      </trkpt>
      <trkpt lat="46.65754" lon="6.06973">
        <ele>858.4</ele>
        <time>2021-11-23T14:13:04Z</time>
      </trkpt>
      <trkpt lat="46.65756" lon="6.0698">
        <ele>859.2</ele>
        <time>2021-11-23T14:13:09Z</time>
      </trkpt>
      <trkpt lat="46.65758" lon="6.06985">
        <ele>859.9</ele>
        <time>2021-11-23T14:13:13Z</time>
      </trkpt>
      <trkpt lat="46.6576" lon="6.06991">
        <ele>860.6</ele>
        <time>2021-11-23T14:13:17Z</time>
      </trkpt>
      <trkpt lat="46.65761" lon="6.06999">
        <ele>861.3</ele>
        <time>2021-11-23T14:13:21Z</time>
      </trkpt>
      <trkpt lat="46.65764" lon="6.07005">
        <ele>862.4</ele>
        <time>2021-11-23T14:13:27Z</time>
      </trkpt>
      <trkpt lat="46.65767" lon="6.07012">
        <ele>862.5</ele>
        <time>2021-11-23T14:13:32Z</time>
      </trkpt>
      <trkpt lat="46.65769" lon="6.07018">
        <ele>862.2</ele>
        <time>2021-11-23T14:13:36Z</time>
      </trkpt>
      <trkpt lat="46.65773" lon="6.07024">
        <ele>862.1</ele>
        <time>2021-11-23T14:13:40Z</time>
      </trkpt>
      <trkpt lat="46.65775" lon="6.07031">
        <ele>861.8</ele>
        <time>2021-11-23T14:13:44Z</time>
      </trkpt>
      <trkpt lat="46.65776" lon="6.07037">
        <ele>861.3</ele>
        <time>2021-11-23T14:13:48Z</time>
      </trkpt>
      <trkpt lat="46.65777" lon="6.07044">
        <ele>860.9</ele>
        <time>2021-11-23T14:13:52Z</time>
      </trkpt>
      <trkpt lat="46.6578" lon="6.07051">
        <ele>860.2</ele>
        <time>2021-11-23T14:13:56Z</time>
      </trkpt>
      <trkpt lat="46.65783" lon="6.07055">
        <ele>859.6</ele>
        <time>2021-11-23T14:14:00Z</time>
      </trkpt>
      <trkpt lat="46.65788" lon="6.0706">
        <ele>858.8</ele>
        <time>2021-11-23T14:14:06Z</time>
      </trkpt>
      <trkpt lat="46.65791" lon="6.07065">
        <ele>858.6</ele>
        <time>2021-11-23T14:14:11Z</time>
      </trkpt>
      <trkpt lat="46.65794" lon="6.07071">
        <ele>858.9</ele>
        <time>2021-11-23T14:14:15Z</time>
      </trkpt>
      <trkpt lat="46.65797" lon="6.07076">
        <ele>859.4</ele>
        <time>2021-11-23T14:14:19Z</time>
      </trkpt>
      <trkpt lat="46.65801" lon="6.07082">
        <ele>860.1</ele>
        <time>2021-11-23T14:14:23Z</time>
      </trkpt>
      <trkpt lat="46.65804" lon="6.07086">
        <ele>860.9</ele>
        <time>2021-11-23T14:14:26Z</time>
      </trkpt>
      <trkpt lat="46.65808" lon="6.07093">
        <ele>861.3</ele>
        <time>2021-11-23T14:14:30Z</time>
      </trkpt>
      <trkpt lat="46.65811" lon="6.07098">
        <ele>861.4</ele>
        <time>2021-11-23T14:14:34Z</time>
      </trkpt>
      <trkpt lat="46.65813" lon="6.07105">
        <ele>860.4</ele>
        <time>2021-11-23T14:14:38Z</time>
      </trkpt>
      <trkpt lat="46.65816" lon="6.07111">
        <ele>859</ele>
        <time>2021-11-23T14:14:43Z</time>
      </trkpt>
      <trkpt lat="46.65819" lon="6.07116">
        <ele>858.3</ele>
        <time>2021-11-23T14:14:48Z</time>
      </trkpt>
      <trkpt lat="46.6582" lon="6.07123">
        <ele>857.4</ele>
        <time>2021-11-23T14:14:53Z</time>
      </trkpt>
      <trkpt lat="46.65822" lon="6.07129">
        <ele>856.2</ele>
        <time>2021-11-23T14:14:58Z</time>
      </trkpt>
      <trkpt lat="46.65827" lon="6.07131">
        <ele>854.7</ele>
        <time>2021-11-23T14:15:03Z</time>
      </trkpt>
      <trkpt lat="46.65831" lon="6.07135">
        <ele>853.6</ele>
        <time>2021-11-23T14:15:09Z</time>
      </trkpt>
      <trkpt lat="46.65833" lon="6.07142">
        <ele>853.2</ele>
        <time>2021-11-23T14:15:13Z</time>
      </trkpt>
      <trkpt lat="46.65836" lon="6.07149">
        <ele>854.1</ele>
        <time>2021-11-23T14:15:17Z</time>
      </trkpt>
      <trkpt lat="46.6584" lon="6.07154">
        <ele>855.2</ele>
        <time>2021-11-23T14:15:21Z</time>
      </trkpt>
      <trkpt lat="46.65844" lon="6.07159">
        <ele>856.5</ele>
        <time>2021-11-23T14:15:25Z</time>
      </trkpt>
      <trkpt lat="46.65848" lon="6.07164">
        <ele>858</ele>
        <time>2021-11-23T14:15:29Z</time>
      </trkpt>
      <trkpt lat="46.65851" lon="6.0717">
        <ele>859.4</ele>
        <time>2021-11-23T14:15:33Z</time>
      </trkpt>
      <trkpt lat="46.65854" lon="6.07176">
        <ele>860.9</ele>
        <time>2021-11-23T14:15:37Z</time>
      </trkpt>
      <trkpt lat="46.65857" lon="6.07183">
        <ele>862.3</ele>
        <time>2021-11-23T14:15:41Z</time>
      </trkpt>
      <trkpt lat="46.6586" lon="6.0719">
        <ele>863</ele>
        <time>2021-11-23T14:15:45Z</time>
      </trkpt>
      <trkpt lat="46.65862" lon="6.07197">
        <ele>862.8</ele>
        <time>2021-11-23T14:15:50Z</time>
      </trkpt>
      <trkpt lat="46.65864" lon="6.07203">
        <ele>861.8</ele>
        <time>2021-11-23T14:15:54Z</time>
      </trkpt>
      <trkpt lat="46.65869" lon="6.07205">
        <ele>860.6</ele>
        <time>2021-11-23T14:15:58Z</time>
      </trkpt>
      <trkpt lat="46.65872" lon="6.07211">
        <ele>859</ele>
        <time>2021-11-23T14:16:04Z</time>
      </trkpt>
      <trkpt lat="46.65875" lon="6.07218">
        <ele>858.7</ele>
        <time>2021-11-23T14:16:09Z</time>
      </trkpt>
      <trkpt lat="46.65876" lon="6.07225">
        <ele>858</ele>
        <time>2021-11-23T14:16:13Z</time>
      </trkpt>
      <trkpt lat="46.65877" lon="6.07232">
        <ele>857.1</ele>
        <time>2021-11-23T14:16:17Z</time>
      </trkpt>
      <trkpt lat="46.65878" lon="6.07239">
        <ele>856.2</ele>
        <time>2021-11-23T14:16:21Z</time>
      </trkpt>
      <trkpt lat="46.6588" lon="6.07247">
        <ele>855.8</ele>
        <time>2021-11-23T14:16:25Z</time>
      </trkpt>
      <trkpt lat="46.65879" lon="6.07253">
        <ele>856.3</ele>
        <time>2021-11-23T14:16:28Z</time>
      </trkpt>
      <trkpt lat="46.6588" lon="6.07261">
        <ele>856.7</ele>
        <time>2021-11-23T14:16:32Z</time>
      </trkpt>
      <trkpt lat="46.6588" lon="6.07268">
        <ele>857</ele>
        <time>2021-11-23T14:16:35Z</time>
      </trkpt>
      <trkpt lat="46.65884" lon="6.07273">
        <ele>857.4</ele>
        <time>2021-11-23T14:16:41Z</time>
      </trkpt>
      <trkpt lat="46.65889" lon="6.07272">
        <ele>857.9</ele>
        <time>2021-11-23T14:16:49Z</time>
      </trkpt>
      <trkpt lat="46.65895" lon="6.07274">
        <ele>858.2</ele>
        <time>2021-11-23T14:16:54Z</time>
      </trkpt>
      <trkpt lat="46.65899" lon="6.07277">
        <ele>858.5</ele>
        <time>2021-11-23T14:16:58Z</time>
      </trkpt>
      <trkpt lat="46.65903" lon="6.07281">
        <ele>858.8</ele>
        <time>2021-11-23T14:17:02Z</time>
      </trkpt>
      <trkpt lat="46.65907" lon="6.07286">
        <ele>859.9</ele>
        <time>2021-11-23T14:17:08Z</time>
      </trkpt>
      <trkpt lat="46.65906" lon="6.07293">
        <ele>861</ele>
        <time>2021-11-23T14:17:13Z</time>
      </trkpt>
      <trkpt lat="46.65908" lon="6.073">
        <ele>861.9</ele>
        <time>2021-11-23T14:17:19Z</time>
      </trkpt>
      <trkpt lat="46.65911" lon="6.07305">
        <ele>862.1</ele>
        <time>2021-11-23T14:17:22Z</time>
      </trkpt>
      <trkpt lat="46.65915" lon="6.0731">
        <ele>862.3</ele>
        <time>2021-11-23T14:17:25Z</time>
      </trkpt>
      <trkpt lat="46.65919" lon="6.07314">
        <ele>862</ele>
        <time>2021-11-23T14:17:29Z</time>
      </trkpt>
      <trkpt lat="46.65924" lon="6.07319">
        <ele>862.2</ele>
        <time>2021-11-23T14:17:32Z</time>
      </trkpt>
      <trkpt lat="46.65928" lon="6.07323">
        <ele>862.3</ele>
        <time>2021-11-23T14:17:35Z</time>
      </trkpt>
      <trkpt lat="46.65932" lon="6.07328">
        <ele>862.4</ele>
        <time>2021-11-23T14:17:39Z</time>
      </trkpt>
      <trkpt lat="46.65927" lon="6.07332">
        <ele>862.2</ele>
        <time>2021-11-23T14:17:45Z</time>
      </trkpt>
      <trkpt lat="46.65922" lon="6.07334">
        <ele>862.2</ele>
        <time>2021-11-23T14:17:48Z</time>
      </trkpt>
      <trkpt lat="46.65918" lon="6.07337">
        <ele>862.4</ele>
        <time>2021-11-23T14:17:51Z</time>
      </trkpt>
      <trkpt lat="46.65913" lon="6.0734">
        <ele>862.7</ele>
        <time>2021-11-23T14:17:55Z</time>
      </trkpt>
      <trkpt lat="46.65909" lon="6.07344">
        <ele>863</ele>
        <time>2021-11-23T14:17:59Z</time>
      </trkpt>
      <trkpt lat="46.65906" lon="6.0735">
        <ele>863.2</ele>
        <time>2021-11-23T14:18:03Z</time>
      </trkpt>
      <trkpt lat="46.65902" lon="6.07355">
        <ele>862.9</ele>
        <time>2021-11-23T14:18:07Z</time>
      </trkpt>
      <trkpt lat="46.65899" lon="6.0736">
        <ele>862.3</ele>
        <time>2021-11-23T14:18:11Z</time>
      </trkpt>
      <trkpt lat="46.65895" lon="6.07365">
        <ele>862.2</ele>
        <time>2021-11-23T14:18:15Z</time>
      </trkpt>
      <trkpt lat="46.65892" lon="6.0737">
        <ele>863.4</ele>
        <time>2021-11-23T14:18:20Z</time>
      </trkpt>
      <trkpt lat="46.65889" lon="6.07376">
        <ele>864.7</ele>
        <time>2021-11-23T14:18:24Z</time>
      </trkpt>
      <trkpt lat="46.65886" lon="6.07381">
        <ele>865.8</ele>
        <time>2021-11-23T14:18:27Z</time>
      </trkpt>
      <trkpt lat="46.65882" lon="6.07386">
        <ele>867</ele>
        <time>2021-11-23T14:18:32Z</time>
      </trkpt>
      <trkpt lat="46.65877" lon="6.07384">
        <ele>867.7</ele>
        <time>2021-11-23T14:18:37Z</time>
      </trkpt>
      <trkpt lat="46.65873" lon="6.07388">
        <ele>868.3</ele>
        <time>2021-11-23T14:18:43Z</time>
      </trkpt>
      <trkpt lat="46.65868" lon="6.0739">
        <ele>868.1</ele>
        <time>2021-11-23T14:18:47Z</time>
      </trkpt>
      <trkpt lat="46.65863" lon="6.07393">
        <ele>867.7</ele>
        <time>2021-11-23T14:18:51Z</time>
      </trkpt>
      <trkpt lat="46.6586" lon="6.07397">
        <ele>866.8</ele>
        <time>2021-11-23T14:18:56Z</time>
      </trkpt>
      <trkpt lat="46.6586" lon="6.07404">
        <ele>865.9</ele>
        <time>2021-11-23T14:19:00Z</time>
      </trkpt>
      <trkpt lat="46.65862" lon="6.07411">
        <ele>865.3</ele>
        <time>2021-11-23T14:19:04Z</time>
      </trkpt>
      <trkpt lat="46.65865" lon="6.07416">
        <ele>864.8</ele>
        <time>2021-11-23T14:19:08Z</time>
      </trkpt>
      <trkpt lat="46.65868" lon="6.07423">
        <ele>864.3</ele>
        <time>2021-11-23T14:19:12Z</time>
      </trkpt>
      <trkpt lat="46.65869" lon="6.0743">
        <ele>863.7</ele>
        <time>2021-11-23T14:19:16Z</time>
      </trkpt>
      <trkpt lat="46.6587" lon="6.07437">
        <ele>863.4</ele>
        <time>2021-11-23T14:19:20Z</time>
      </trkpt>
      <trkpt lat="46.65871" lon="6.07445">
        <ele>863</ele>
        <time>2021-11-23T14:19:25Z</time>
      </trkpt>
      <trkpt lat="46.65875" lon="6.07449">
        <ele>862.7</ele>
        <time>2021-11-23T14:19:31Z</time>
      </trkpt>
      <trkpt lat="46.65878" lon="6.07454">
        <ele>862.7</ele>
        <time>2021-11-23T14:19:35Z</time>
      </trkpt>
      <trkpt lat="46.65881" lon="6.07459">
        <ele>863</ele>
        <time>2021-11-23T14:19:39Z</time>
      </trkpt>
      <trkpt lat="46.65883" lon="6.07465">
        <ele>863.5</ele>
        <time>2021-11-23T14:19:43Z</time>
      </trkpt>
      <trkpt lat="46.65884" lon="6.07472">
        <ele>864.1</ele>
        <time>2021-11-23T14:19:48Z</time>
      </trkpt>
      <trkpt lat="46.65886" lon="6.07478">
        <ele>864.5</ele>
        <time>2021-11-23T14:19:54Z</time>
      </trkpt>
      <trkpt lat="46.65886" lon="6.07486">
        <ele>864.7</ele>
        <time>2021-11-23T14:20:00Z</time>
      </trkpt>
      <trkpt lat="46.65889" lon="6.07492">
        <ele>865.5</ele>
        <time>2021-11-23T14:20:05Z</time>
      </trkpt>
      <trkpt lat="46.65893" lon="6.07495">
        <ele>866.8</ele>
        <time>2021-11-23T14:20:10Z</time>
      </trkpt>
      <trkpt lat="46.65898" lon="6.07494">
        <ele>869.4</ele>
        <time>2021-11-23T14:20:24Z</time>
      </trkpt>
    </trkseg>
  </trk>
</gpx>